# Wetter Temperatur Luftdruck Luftfeuchtigkeit Sichtweite Windgeschwindigkeit Windrichtung Zeit
1 Rain 11 1013 81 7000 8.2 220 05:18 11.07.2020
2 Rain 11 1011 76 10000 7.7 220 04:39 11.07.2020
3 Rain 11 1011 76 10000 7.7 220 04:19 11.07.2020
4 Rain 11 1008 81 10000 2.6 270 02:53 11.07.2020
5 Rain 11 1007 81 10000 6.2 320 01:57 11.07.2020
6 Rain 11 1007 81 10000 6.2 320 01:21 11.07.2020
7 Rain 11 1007 76 10000 3.1 320 00:55 11.07.2020
8 Rain 11 1007 76 10000 3.1 320 00:36 11.07.2020
9 Rain 11 1007 76 10000 3.1 320 00:18 11.07.2020
10 Rain 11 1006 81 4600 8.2 230 23:44 10.07.2020
11 Rain 11 1006 81 4600 8.2 230 23:26 10.07.2020
12 Rain 10 1005 81 10000 2.6 30 22:50 10.07.2020
13 Rain 11 1005 81 10000 2.6 30 22:25 10.07.2020
14 Rain 11 1005 87 2500 7.2 340 21:59 10.07.2020
15 Rain 10 1004 87 10000 6.7 360 21:38 10.07.2020
16 Rain 10 1003 81 10000 4.6 350 21:20 10.07.2020
17 Rain 10 1003 81 10000 4.6 350 20:54 10.07.2020
18 Rain 10 1003 81 10000 4.6 350 20:54 10.07.2020
19 Rain 11 1003 81 10000 4.6 350 20:36 10.07.2020
20 Rain 11 1003 81 10000 4.6 350 20:36 10.07.2020
21 Rain 11 1003 81 10000 4.6 350 20:18 10.07.2020
22 Rain 11 1003 81 10000 9.3 300 19:42 10.07.2020
23 Rain 12 1003 81 10000 9.3 300 19:22 10.07.2020
24 Rain 12 1002 81 10000 5.7 310 18:58 10.07.2020
25 Rain 12 1002 87 10000 6.7 360 18:37 10.07.2020
26 Rain 12 1002 87 10000 6.7 360 18:18 10.07.2020
27 Rain 12 1003 82 0 0.89 90 17:43 10.07.2020
28 Rain 13 1001 87 10000 7.2 330 17:23 10.07.2020
29 Rain 13 1001 87 10000 7.2 330 16:57 10.07.2020
30 Rain 13 1001 87 10000 7.2 330 16:39 10.07.2020
31 Rain 13 1001 87 10000 7.2 330 16:18 10.07.2020
32 Rain 13 1001 87 10000 9.3 340 15:44 10.07.2020
33 Rain 13 1001 87 10000 9.3 340 15:21 10.07.2020
34 Rain 14 1000 76 10000 9.8 350 14:54 10.07.2020
35 Rain 14 1000 76 10000 9.8 350 14:36 10.07.2020
36 Rain 13 1000 76 10000 9.8 350 14:18 10.07.2020
37 Rain 13 1001 87 10000 7.7 360 13:54 10.07.2020
38 Rain 13 1001 87 10000 7.7 360 13:36 10.07.2020
39 Rain 13 1001 87 10000 7.7 360 13:18 10.07.2020
40 Rain 12 1002 93 10000 6.7 30 12:42 10.07.2020
41 Rain 12 1002 93 10000 6.7 30 12:23 10.07.2020
42 Rain 11 1002 87 10000 8.7 30 11:58 10.07.2020
43 Rain 12 1002 87 10000 8.7 30 11:38 10.07.2020
44 Rain 11 1002 87 10000 8.7 30 11:18 10.07.2020
45 Rain 11 1003 93 10000 8.2 40 10:42 10.07.2020
46 Rain 11 1003 87 10000 7.2 30 10:21 10.07.2020
47 Rain 11 1003 87 10000 7.2 30 09:59 10.07.2020
48 Rain 11 1003 87 10000 7.2 30 09:37 10.07.2020
49 Rain 11 1003 87 10000 7.2 30 09:19 10.07.2020
50 Rain 10 1003 93 10000 6.7 40 08:56 10.07.2020
51 Rain 10 1003 93 10000 6.7 40 08:37 10.07.2020
52 Rain 10 1003 93 10000 6.7 40 08:19 10.07.2020
53 Rain 10 1003 93 10000 5.7 40 07:41 10.07.2020
54 Rain 10 1003 93 10000 5.7 40 07:22 10.07.2020
55 Rain 10 1004 93 10000 6.2 40 06:49 10.07.2020
56 Rain 10 1005 93 7000 3.6 60 05:55 10.07.2020
57 Rain 10 1006 93 8000 4.6 40 04:33 10.07.2020
58 Rain 11 1006 93 8000 4.1 40 03:37 10.07.2020
59 Rain 11 1006 93 10000 5.1 40 02:52 10.07.2020
60 Rain 11 1007 93 9000 5.7 360 01:49 10.07.2020
61 Rain 11 1008 87 7000 4.6 350 00:48 10.07.2020
62 Rain 11 1008 87 7000 4.6 350 00:20 10.07.2020
63 Rain 12 1008 93 6000 5.1 330 23:46 09.07.2020
64 Rain 12 1008 90 0 0.45 338 23:22 09.07.2020
65 Rain 12 1007 93 7000 3.1 310 22:58 09.07.2020
66 Rain 12 1007 93 7000 3.1 310 22:40 09.07.2020
67 Rain 12 1007 93 7000 3.1 310 22:21 09.07.2020
68 Rain 12 1007 100 6000 4.6 310 21:56 09.07.2020
69 Rain 12 1007 100 6000 4.6 310 21:38 09.07.2020
70 Rain 12 1007 100 6000 4.6 310 21:38 09.07.2020
71 Rain 12 1007 100 6000 4.6 310 21:19 09.07.2020
72 Rain 12 1007 93 6000 5.7 290 20:45 09.07.2020
73 Rain 12 1006 93 2000 5.1 280 20:26 09.07.2020
74 Rain 12 1006 93 4000 4.6 310 19:58 09.07.2020
75 Rain 12 1005 93 6000 6.2 300 19:40 09.07.2020
76 Rain 12 1005 93 4000 8.7 300 19:21 09.07.2020
77 Rain 12 1005 93 4000 7.7 320 18:43 09.07.2020
78 Rain 12 1005 93 4000 7.7 320 18:22 09.07.2020
79 Rain 12 1004 93 4000 7.2 320 17:56 09.07.2020
80 Rain 12 1005 93 2000 7.2 300 17:38 09.07.2020
81 Rain 12 1005 93 2000 7.2 300 17:19 09.07.2020
82 Rain 12 1004 93 4000 9.3 320 16:55 09.07.2020
83 Rain 13 1004 93 3000 8.7 320 16:37 09.07.2020
84 Rain 13 1004 93 3000 8.7 320 16:19 09.07.2020
85 Rain 13 1004 93 3000 9.8 290 15:55 09.07.2020
86 Rain 13 1004 93 3000 9.8 290 15:36 09.07.2020
87 Rain 12 1004 93 2000 8.7 310 15:18 09.07.2020
88 Rain 13 1004 93 2000 8.7 310 14:57 09.07.2020
89 Rain 13 1004 93 2000 8.7 310 14:38 09.07.2020
90 Rain 13 1004 93 2000 8.7 310 14:19 09.07.2020
91 Rain 13 1004 93 3000 11.3 310 13:41 09.07.2020
92 Rain 14 1004 93 3000 11.3 310 13:21 09.07.2020
93 Rain 14 1003 93 1000 13.4 340 12:59 09.07.2020
94 Rain 15 1002 82 3000 14.4 360 12:39 09.07.2020
95 Rain 15 1003 77 10000 13.4 360 12:20 09.07.2020
96 Rain 15 1003 77 10000 13.4 360 11:55 09.07.2020
97 Rain 16 1003 77 10000 13.4 360 11:37 09.07.2020
98 Rain 16 1003 77 10000 13.4 360 11:18 09.07.2020
99 Rain 16 1002 77 10000 13.9 360 10:42 09.07.2020
100 Rain 16 1002 77 10000 13.9 360 10:24 09.07.2020
101 Clouds 16 1002 77 10000 13.4 360 09:59 09.07.2020
102 Clouds 16 1002 77 10000 13.4 360 09:41 09.07.2020
103 Clouds 16 1002 77 10000 13.4 360 09:21 09.07.2020
104 Clouds 16 1001 77 10000 14.9 350 08:45 09.07.2020
105 Clouds 15 1001 77 10000 14.9 350 08:25 09.07.2020
106 Clouds 15 1001 62 10000 12.9 350 07:47 09.07.2020
107 Clouds 16 1001 62 10000 12.9 350 07:25 09.07.2020
108 Clouds 16 1001 62 10000 12.9 350 06:55 09.07.2020
109 Clouds 16 1000 59 10000 13.4 350 06:20 09.07.2020
110 Clouds 16 1001 55 10000 13.4 340 05:37 09.07.2020
111 Clouds 18 1001 48 10000 12.9 350 04:28 09.07.2020
112 Clouds 18 1001 34 10000 8.7 340 02:33 09.07.2020
113 Clouds 15 1002 44 10000 1.5 0 01:39 09.07.2020
114 Clouds 15 1003 47 10000 4.1 40 00:55 09.07.2020
115 Clouds 15 1003 47 10000 4.1 40 00:25 09.07.2020
116 Clouds 13 1004 54 10000 1 0 23:47 08.07.2020
117 Clouds 13 1004 54 10000 1 0 23:28 08.07.2020
118 Clouds 15 1005 47 10000 1.5 0 22:59 08.07.2020
119 Clouds 14 1005 47 10000 1.5 0 22:41 08.07.2020
120 Clouds 13 1005 47 10000 1.5 0 22:23 08.07.2020
121 Clouds 13 1006 82 10000 1 0 21:58 08.07.2020
122 Clouds 13 1006 82 10000 1 0 21:39 08.07.2020
123 Clouds 14 1006 82 10000 1 0 21:21 08.07.2020
124 Clouds 12 1007 81 10000 0.5 0 20:56 08.07.2020
125 Clouds 12 1007 81 10000 0.5 0 20:38 08.07.2020
126 Clouds 13 1007 81 10000 0.5 0 20:20 08.07.2020
127 Clouds 15 1008 72 10000 1.5 250 19:43 08.07.2020
128 Clouds 15 1008 72 10000 1.5 250 19:23 08.07.2020
129 Clouds 16 1009 62 10000 2.1 120 18:57 08.07.2020
130 Clouds 16 1009 62 10000 2.1 120 18:39 08.07.2020
131 Clouds 17 1009 62 10000 2.1 120 18:20 08.07.2020
132 Clouds 18 1011 59 10000 2.6 140 17:56 08.07.2020
133 Clouds 19 1011 59 10000 2.6 140 17:37 08.07.2020
134 Clouds 19 1011 59 10000 2.6 140 17:19 08.07.2020
135 Clouds 21 1013 20 10000 2.1 20 16:43 08.07.2020
136 Clouds 21 1013 20 10000 2.1 20 16:24 08.07.2020
137 Clouds 20 1013 21 10000 3.6 30 15:59 08.07.2020
138 Clouds 21 1013 21 10000 3.6 30 15:41 08.07.2020
139 Clear 22 1013 21 10000 3.6 30 15:20 08.07.2020
140 Clear 21 1014 21 10000 1.5 0 14:59 08.07.2020
141 Clear 21 1014 21 10000 1.5 0 14:41 08.07.2020
142 Clear 21 1014 21 10000 1.5 0 14:19 08.07.2020
143 Clear 21 1016 30 10000 2.6 360 13:45 08.07.2020
144 Clear 20 1016 32 10000 2.6 360 13:27 08.07.2020
145 Clear 20 1017 37 10000 2.6 320 12:46 08.07.2020
146 Clear 19 1017 37 10000 2.6 320 12:22 08.07.2020
147 Clear 19 1017 37 10000 2.6 320 12:22 08.07.2020
148 Clear 16 1018 54 10000 2.1 330 11:59 08.07.2020
149 Clear 16 1018 54 10000 2.1 330 11:39 08.07.2020
150 Clear 15 1018 54 10000 2.1 330 11:20 08.07.2020
151 Clear 17 1019 58 10000 1 0 10:56 08.07.2020
152 Clear 17 1019 58 10000 1 0 10:56 08.07.2020
153 Clear 14 1019 76 10000 1 0 10:38 08.07.2020
154 Clear 13 1019 76 10000 1 0 10:19 08.07.2020
155 Clear 9 1020 93 10000 2.1 40 09:43 08.07.2020
156 Clear 6 1020 93 10000 2.1 40 09:23 08.07.2020
157 Clear 5 1020 93 10000 2.1 40 08:43 08.07.2020
158 Clear 4 1020 93 10000 2.1 40 08:24 08.07.2020
159 Clear 5 1020 100 10000 1 70 07:48 08.07.2020
160 Clear 5 1020 100 10000 1 70 07:48 08.07.2020
161 Clear 5 1020 100 10000 1 70 07:24 08.07.2020
162 Clear 5 1021 93 10000 2.6 60 06:57 08.07.2020
163 Clear 5 1021 93 10000 2.6 60 06:37 08.07.2020
164 Clear 5 1021 93 10000 2.6 60 06:19 08.07.2020
165 Clear 5 1021 93 10000 0.5 0 05:33 08.07.2020
166 Clouds 6 1022 93 10000 2.6 40 04:37 08.07.2020
167 Clear 8 1024 87 10000 1 60 02:49 08.07.2020
168 Clear 10 1025 87 10000 2.1 230 01:57 08.07.2020
169 Clear 10 1025 87 10000 2.1 230 01:37 08.07.2020
170 Clear 11 1025 81 10000 3.1 240 00:37 08.07.2020
171 Clear 11 1025 81 10000 3.1 240 00:18 08.07.2020
172 Clear 11 1027 76 10000 2.1 220 23:41 07.07.2020
173 Clear 11 1027 76 10000 2.1 220 23:21 07.07.2020
174 Clear 10 1027 76 10000 2.1 220 22:54 07.07.2020
175 Clear 11 1027 76 10000 2.1 220 22:36 07.07.2020
176 Clear 10 1027 76 10000 2.1 220 22:18 07.07.2020
177 Clear 11 1027 76 10000 3.1 190 21:41 07.07.2020
178 Clear 11 1027 76 10000 3.1 190 21:41 07.07.2020
179 Clear 12 1027 71 10000 3.6 190 21:22 07.07.2020
180 Clear 12 1027 71 10000 3.6 190 20:59 07.07.2020
181 Clear 12 1027 71 10000 3.6 190 20:41 07.07.2020
182 Clear 12 1027 71 10000 3.6 190 20:23 07.07.2020
183 Clear 12 1027 66 10000 3.6 180 19:55 07.07.2020
184 Clear 12 1027 66 10000 3.6 180 19:36 07.07.2020
185 Clear 13 1027 62 10000 4.6 180 19:18 07.07.2020
186 Clear 13 1027 62 10000 4.6 180 18:55 07.07.2020
187 Clear 13 1027 62 10000 4.6 180 18:36 07.07.2020
188 Clear 13 1027 62 10000 4.6 180 18:18 07.07.2020
189 Clear 14 1027 54 10000 5.1 180 17:43 07.07.2020
190 Clear 15 1027 54 10000 5.1 180 17:23 07.07.2020
191 Clear 15 1026 51 10000 4.6 180 16:58 07.07.2020
192 Clear 15 1026 51 10000 4.6 180 16:40 07.07.2020
193 Clear 15 1026 51 10000 4.6 180 16:21 07.07.2020
194 Clear 16 1026 48 10000 3.1 200 15:55 07.07.2020
195 Clear 17 1026 48 10000 3.1 200 15:36 07.07.2020
196 Clear 16 1026 48 10000 3.1 200 15:18 07.07.2020
197 Clear 16 1026 48 10000 3.1 160 14:42 07.07.2020
198 Clouds 16 1027 51 10000 4.6 180 14:23 07.07.2020
199 Clouds 16 1027 51 10000 4.6 180 13:43 07.07.2020
200 Clouds 17 1027 51 10000 4.6 180 13:20 07.07.2020
201 Clouds 17 1027 51 10000 4.6 190 12:56 07.07.2020
202 Clouds 16 1027 51 10000 4.6 190 12:36 07.07.2020
203 Clouds 16 1027 51 10000 4.6 190 12:18 07.07.2020
204 Clouds 16 1027 51 10000 3.6 190 11:42 07.07.2020
205 Clouds 16 1027 51 10000 3.6 190 11:21 07.07.2020
206 Clouds 15 1027 58 10000 2.6 220 10:58 07.07.2020
207 Clouds 15 1027 58 10000 2.6 220 10:39 07.07.2020
208 Clouds 14 1027 58 10000 2.6 220 10:20 07.07.2020
209 Clouds 13 1026 76 10000 1.5 0 09:42 07.07.2020
210 Clouds 11 1026 76 10000 1.5 0 09:21 07.07.2020
211 Clouds 10 1025 71 10000 2.1 200 08:54 07.07.2020
212 Clouds 11 1025 71 10000 2.1 200 08:36 07.07.2020
213 Clouds 11 1024 66 10000 1.5 0 08:18 07.07.2020
214 Clouds 12 1024 66 10000 1.5 0 07:38 07.07.2020
215 Clouds 13 1023 62 10000 3.1 220 07:19 07.07.2020
216 Clouds 13 1023 62 10000 3.1 220 06:41 07.07.2020
217 Clouds 13 1023 62 10000 3.1 220 06:22 07.07.2020
218 Clouds 13 1023 66 10000 2.6 220 05:28 07.07.2020
219 Clouds 14 1022 54 10000 2.1 220 04:52 07.07.2020
220 Clouds 14 1021 67 10000 2.6 240 03:43 07.07.2020
221 Rain 15 1021 67 10000 2.6 240 03:23 07.07.2020
222 Clouds 14 1019 87 10000 1 0 01:50 07.07.2020
223 Rain 14 1018 93 8000 8.2 220 00:59 07.07.2020
224 Rain 14 1018 93 8000 8.2 220 00:40 07.07.2020
225 Rain 15 1016 93 10000 4.1 320 00:20 07.07.2020
226 Rain 15 1016 93 10000 4.1 320 23:44 06.07.2020
227 Clouds 16 1016 93 10000 4.1 320 23:25 06.07.2020
228 Rain 15 1016 93 10000 4.6 340 22:57 06.07.2020
229 Rain 15 1016 93 10000 4.6 340 22:57 06.07.2020
230 Rain 15 1016 93 10000 4.6 340 22:39 06.07.2020
231 Rain 15 1016 93 10000 4.6 340 22:18 06.07.2020
232 Rain 16 1017 90 0 1.34 225 21:56 06.07.2020
233 Rain 16 1015 77 10000 3.6 360 21:37 06.07.2020
234 Rain 16 1015 77 10000 3.6 360 21:18 06.07.2020
235 Clouds 16 1015 87 10000 2.6 350 20:41 06.07.2020
236 Clouds 16 1015 87 10000 2.6 350 20:22 06.07.2020
237 Clouds 16 1014 82 10000 3.6 330 19:59 06.07.2020
238 Clouds 16 1014 82 10000 3.6 330 19:41 06.07.2020
239 Clouds 16 1014 82 10000 3.6 330 19:23 06.07.2020
240 Clouds 16 1013 82 10000 3.6 320 18:59 06.07.2020
241 Clouds 16 1013 82 10000 3.6 320 18:41 06.07.2020
242 Clouds 16 1013 82 10000 3.6 320 18:22 06.07.2020
243 Clouds 16 1013 82 10000 4.6 320 17:57 06.07.2020
244 Clouds 16 1013 82 10000 4.6 320 17:38 06.07.2020
245 Clouds 16 1013 82 10000 4.6 320 17:19 06.07.2020
246 Clouds 17 1013 87 10000 6.2 320 16:43 06.07.2020
247 Clouds 17 1013 87 10000 6.2 320 16:24 06.07.2020
248 Clouds 17 1013 87 10000 6.2 320 16:24 06.07.2020
249 Clouds 17 1013 82 10000 7.2 320 15:57 06.07.2020
250 Clouds 17 1013 82 10000 7.2 320 15:38 06.07.2020
251 Clouds 17 1013 82 10000 7.2 320 15:20 06.07.2020
252 Clear 18 1013 77 10000 6.7 310 14:55 06.07.2020
253 Clear 17 1013 77 10000 6.7 310 14:36 06.07.2020
254 Clear 17 1013 77 10000 6.7 310 14:18 06.07.2020
255 Clear 17 1014 77 10000 5.7 320 13:43 06.07.2020
256 Clear 17 1014 77 10000 5.7 320 13:24 06.07.2020
257 Rain 19 1015 82 10000 5.1 320 12:54 06.07.2020
258 Rain 18 1015 82 10000 5.1 320 12:36 06.07.2020
259 Rain 18 1015 82 10000 5.1 320 12:18 06.07.2020
260 Clear 16 1016 93 10000 4.6 340 11:41 06.07.2020
261 Clear 15 1016 93 10000 4.6 340 11:23 06.07.2020
262 Clear 14 1016 93 10000 3.1 10 10:59 06.07.2020
263 Clear 14 1016 93 10000 3.1 10 10:40 06.07.2020
264 Clear 13 1016 93 10000 3.1 10 10:20 06.07.2020
265 Clouds 12 1016 93 10000 2.1 30 09:55 06.07.2020
266 Clouds 11 1016 100 10000 1.5 10 09:37 06.07.2020
267 Clouds 10 1016 100 10000 1.5 10 09:18 06.07.2020
268 Fog 8 1016 100 4000 1.5 0 08:40 06.07.2020
269 Fog 8 1016 100 4000 1.5 0 08:22 06.07.2020
270 Fog 8 1016 100 1000 2.1 30 07:50 06.07.2020
271 Fog 8 1016 100 1000 2.1 350 07:30 06.07.2020
272 Fog 8 1016 100 800 0.5 0 06:56 06.07.2020
273 Fog 8 1016 100 300 1.5 30 06:37 06.07.2020
274 Fog 9 1017 93 100 0.5 340 05:55 06.07.2020
275 Fog 9 1017 93 100 0.5 340 05:28 06.07.2020
276 Fog 10 1018 100 500 1 310 03:58 06.07.2020
277 Fog 11 1018 93 500 1.5 0 02:41 06.07.2020
278 Fog 11 1020 100 100 1.5 10 01:59 06.07.2020
279 Fog 11 1020 100 50 0.5 0 00:51 06.07.2020
280 Fog 11 1020 100 50 0.5 0 00:25 06.07.2020
281 Fog 13 1020 100 100 1 270 23:58 05.07.2020
282 Fog 11 1020 100 100 1 270 23:39 05.07.2020
283 Fog 11 1020 100 100 1 270 23:21 05.07.2020
284 Fog 11 1020 100 100 1 70 22:57 05.07.2020
285 Clouds 12 1020 93 10000 1 0 22:37 05.07.2020
286 Clouds 13 1020 93 10000 1 0 22:18 05.07.2020
287 Fog 13 1021 93 200 3.6 30 21:41 05.07.2020
288 Mist 14 1021 93 4000 1.5 0 21:19 05.07.2020
289 Mist 14 1021 93 4000 1.5 0 20:59 05.07.2020
290 Clouds 14 1021 93 6000 2.1 330 20:41 05.07.2020
291 Clouds 13 1021 93 6000 2.1 330 20:22 05.07.2020
292 Clouds 14 1021 93 10000 2.1 10 19:57 05.07.2020
293 Clouds 14 1021 93 10000 2.1 10 19:39 05.07.2020
294 Clouds 15 1021 93 10000 2.1 10 19:19 05.07.2020
295 Clouds 15 1021 82 10000 4.1 350 18:42 05.07.2020
296 Clouds 16 1021 82 10000 4.1 350 18:23 05.07.2020
297 Clouds 17 1021 82 10000 4.1 350 17:58 05.07.2020
298 Clouds 17 1021 82 10000 4.1 350 17:39 05.07.2020
299 Clouds 17 1021 82 10000 4.1 350 17:19 05.07.2020
300 Clouds 17 1021 82 10000 4.1 350 17:19 05.07.2020
301 Clouds 18 1021 77 10000 4.1 320 16:44 05.07.2020
302 Clouds 18 1021 77 10000 4.1 320 16:25 05.07.2020
303 Clouds 18 1022 82 10000 4.1 310 15:58 05.07.2020
304 Clouds 18 1022 82 10000 4.1 310 15:38 05.07.2020
305 Clouds 18 1022 82 10000 4.1 310 15:19 05.07.2020
306 Clouds 18 1022 82 10000 4.6 320 14:42 05.07.2020
307 Clouds 18 1022 82 10000 4.6 320 14:23 05.07.2020
308 Clouds 17 1023 88 10000 4.6 340 13:58 05.07.2020
309 Clouds 17 1023 88 10000 4.6 340 13:39 05.07.2020
310 Clouds 17 1023 88 10000 4.6 340 13:19 05.07.2020
311 Clouds 17 1023 87 10000 5.1 360 12:40 05.07.2020
312 Clouds 16 1023 87 10000 5.1 360 12:20 05.07.2020
313 Clouds 15 1023 100 10000 5.7 20 11:55 05.07.2020
314 Clouds 15 1023 100 10000 5.7 20 11:36 05.07.2020
315 Clouds 16 1023 100 10000 5.7 20 11:18 05.07.2020
316 Drizzle 15 1024 100 4000 5.7 30 10:42 05.07.2020
317 Drizzle 14 1024 100 4000 5.7 30 10:20 05.07.2020
318 Drizzle 14 1024 100 4000 5.7 30 10:20 05.07.2020
319 Rain 15 1023 100 4000 6.7 30 09:59 05.07.2020
320 Rain 14 1023 100 4000 6.7 30 09:41 05.07.2020
321 Drizzle 14 1023 100 4000 6.7 30 09:20 05.07.2020
322 Rain 14 1023 93 10000 5.7 40 08:55 05.07.2020
323 Rain 14 1023 93 7000 6.2 40 08:36 05.07.2020
324 Rain 14 1023 93 4000 4.6 40 07:56 05.07.2020
325 Rain 14 1023 93 6000 5.1 30 07:30 05.07.2020
326 Rain 14 1022 93 6000 5.1 30 06:55 05.07.2020
327 Rain 14 1022 93 6000 5.1 30 06:29 05.07.2020
328 Rain 14 1023 93 4000 3.6 40 03:57 05.07.2020
329 Rain 15 1023 82 10000 4.6 10 02:59 05.07.2020
330 Rain 15 1023 82 10000 4.6 10 02:37 05.07.2020
331 Rain 15 1023 82 10000 5.1 20 01:44 05.07.2020
332 Rain 15 1023 82 10000 5.1 20 01:26 05.07.2020
333 Clouds 15 1023 87 10000 4.6 350 00:51 05.07.2020
334 Clouds 15 1023 87 10000 4.6 350 00:30 05.07.2020
335 Clouds 15 1023 87 10000 5.1 360 23:56 04.07.2020
336 Clouds 15 1023 87 10000 5.1 360 23:32 04.07.2020
337 Clouds 15 1023 87 10000 3.6 360 22:59 04.07.2020
338 Clouds 15 1023 87 10000 3.6 360 22:41 04.07.2020
339 Clouds 15 1023 87 10000 3.6 360 22:23 04.07.2020
340 Clouds 15 1023 82 10000 4.6 350 21:58 04.07.2020
341 Clouds 15 1023 82 10000 4.6 350 21:40 04.07.2020
342 Clouds 15 1023 82 10000 4.6 350 21:22 04.07.2020
343 Clouds 15 1023 82 10000 4.6 330 20:43 04.07.2020
344 Clouds 15 1023 82 10000 4.6 330 20:21 04.07.2020
345 Clouds 15 1023 82 10000 4.6 330 20:21 04.07.2020
346 Clouds 14 1023 87 10000 2.6 10 19:57 04.07.2020
347 Clouds 14 1023 87 10000 2.6 10 19:39 04.07.2020
348 Clouds 14 1023 87 10000 2.6 10 19:20 04.07.2020
349 Clouds 15 1022 82 10000 4.1 330 18:44 04.07.2020
350 Clouds 15 1022 82 10000 4.1 330 18:23 04.07.2020
351 Clouds 16 1022 67 10000 5.1 310 17:55 04.07.2020
352 Clouds 17 1022 67 10000 5.1 310 17:37 04.07.2020
353 Clouds 17 1022 67 10000 5.1 310 17:18 04.07.2020
354 Clouds 17 1022 63 10000 5.7 320 16:55 04.07.2020
355 Clouds 17 1022 63 10000 5.7 320 16:36 04.07.2020
356 Clouds 18 1022 63 10000 5.7 320 16:18 04.07.2020
357 Clouds 18 1022 59 10000 5.1 340 15:41 04.07.2020
358 Clouds 18 1022 59 10000 5.1 340 15:21 04.07.2020
359 Clouds 18 1023 68 10000 5.1 350 14:57 04.07.2020
360 Clouds 18 1023 68 10000 5.1 350 14:37 04.07.2020
361 Clouds 18 1023 68 10000 5.1 350 14:18 04.07.2020
362 Clouds 18 1024 68 10000 4.1 360 13:42 04.07.2020
363 Clouds 18 1024 68 10000 4.1 360 13:19 04.07.2020
364 Clouds 18 1024 67 10000 6.7 30 12:56 04.07.2020
365 Clouds 18 1024 67 10000 6.7 30 12:38 04.07.2020
366 Clouds 17 1024 67 10000 6.7 30 12:19 04.07.2020
367 Clouds 15 1025 82 10000 4.6 50 11:44 04.07.2020
368 Clouds 15 1025 82 10000 4.6 50 11:23 04.07.2020
369 Clouds 14 1025 87 10000 4.1 50 10:56 04.07.2020
370 Clouds 14 1025 87 10000 4.1 50 10:38 04.07.2020
371 Clouds 13 1025 87 10000 4.1 50 10:19 04.07.2020
372 Clouds 11 1025 93 10000 4.1 60 09:41 04.07.2020
373 Clouds 11 1025 93 10000 4.1 60 09:22 04.07.2020
374 Clouds 10 1024 93 10000 3.1 60 08:58 04.07.2020
375 Clouds 10 1024 93 10000 3.1 60 08:39 04.07.2020
376 Clouds 10 1024 93 10000 3.1 60 08:21 04.07.2020
377 Clouds 10 1024 93 10000 3.1 50 07:41 04.07.2020
378 Clouds 10 1024 93 10000 3.1 50 07:20 04.07.2020
379 Clouds 10 1023 87 10000 3.1 20 06:40 04.07.2020
380 Clouds 10 1023 87 10000 3.1 20 06:20 04.07.2020
381 Clouds 10 1023 93 10000 3.6 60 05:31 04.07.2020
382 Clouds 9 1023 87 10000 5.7 20 04:22 04.07.2020
383 Clear 7 1023 93 10000 4.1 30 02:45 04.07.2020
384 Clear 8 1023 93 10000 3.6 40 01:42 04.07.2020
385 Clear 8 1024 93 10000 3.1 40 00:59 04.07.2020
386 Clear 8 1024 93 10000 3.1 40 00:40 04.07.2020
387 Clear 8 1024 93 10000 3.1 40 00:21 04.07.2020
388 Clear 8 1024 93 10000 3.1 50 23:39 03.07.2020
389 Clear 8 1024 93 10000 3.1 50 23:18 03.07.2020
390 Clear 8 1024 93 10000 3.1 50 23:18 03.07.2020
391 Clear 8 1024 93 10000 3.1 50 23:18 03.07.2020
392 Clear 9 1025 87 10000 0.5 0 22:42 03.07.2020
393 Clouds 9 1025 87 10000 0.5 0 22:24 03.07.2020
394 Clouds 9 1024 93 10000 1 330 21:59 03.07.2020
395 Clouds 9 1024 93 10000 1 330 21:38 03.07.2020
396 Clear 9 1024 93 10000 1 330 21:19 03.07.2020
397 Clear 10 1024 87 10000 1.5 40 20:43 03.07.2020
398 Clear 10 1024 87 10000 1.5 40 20:25 03.07.2020
399 Clear 13 1024 76 10000 2.1 140 19:59 03.07.2020
400 Clear 13 1024 76 10000 2.1 140 19:39 03.07.2020
401 Clear 13 1024 76 10000 2.1 140 19:18 03.07.2020
402 Clear 14 1025 76 10000 3.1 170 18:45 03.07.2020
403 Clear 14 1025 76 10000 3.1 170 18:24 03.07.2020
404 Clear 17 1025 52 10000 2.1 250 17:56 03.07.2020
405 Clear 17 1025 52 10000 2.1 250 17:38 03.07.2020
406 Clear 17 1025 52 10000 2.1 250 17:20 03.07.2020
407 Clear 17 1024 42 10000 1.5 0 16:40 03.07.2020
408 Clouds 18 1024 42 10000 1.5 0 16:21 03.07.2020
409 Clouds 19 1024 42 10000 1 0 15:45 03.07.2020
410 Clouds 19 1024 42 10000 1 0 15:24 03.07.2020
411 Clouds 19 1025 48 10000 1 0 14:57 03.07.2020
412 Clouds 18 1025 48 10000 1 0 14:39 03.07.2020
413 Clear 19 1025 48 10000 1 0 14:19 03.07.2020
414 Clear 18 1026 55 10000 1.5 0 13:47 03.07.2020
415 Clear 18 1026 55 10000 1.5 0 13:28 03.07.2020
416 Clear 18 1027 63 10000 2.1 200 12:45 03.07.2020
417 Clear 16 1028 82 10000 1 0 12:24 03.07.2020
418 Clear 16 1028 82 10000 1 0 11:58 03.07.2020
419 Clear 15 1028 82 10000 1 0 11:40 03.07.2020
420 Clear 15 1028 82 10000 1 0 11:21 03.07.2020
421 Clear 15 1028 100 6000 1.5 40 10:55 03.07.2020
422 Clear 14 1028 100 6000 1.5 40 10:37 03.07.2020
423 Clear 13 1028 100 6000 1.5 40 10:18 03.07.2020
424 Clear 12 1028 93 8000 0.5 0 09:54 03.07.2020
425 Clear 11 1028 100 8000 1 200 09:36 03.07.2020
426 Clear 10 1028 100 8000 1 200 09:18 03.07.2020
427 Fog 8 1027 100 2000 1.5 0 08:39 03.07.2020
428 Fog 8 1027 100 2000 1.5 0 08:18 03.07.2020
429 Clouds 8 1026 93 10000 1 40 07:47 03.07.2020
430 Fog 8 1026 100 700 2.6 30 07:26 03.07.2020
431 Fog 8 1026 93 1500 1 10 06:47 03.07.2020
432 Fog 8 1026 100 1500 1.5 50 05:59 03.07.2020
433 Fog 9 1027 93 1000 1 40 04:48 03.07.2020
434 Fog 10 1027 93 650 0.5 40 03:26 03.07.2020
435 Fog 10 1027 93 200 1 0 02:45 03.07.2020
436 Fog 10 1027 93 200 1 0 02:23 03.07.2020
437 Mist 12 1028 93 2500 0.5 0 01:28 03.07.2020
438 Clouds 12 1027 93 10000 2.1 20 00:44 03.07.2020
439 Clouds 12 1027 93 10000 2.1 20 00:26 03.07.2020
440 Clouds 12 1027 93 10000 2.1 40 23:44 02.07.2020
441 Clouds 12 1027 93 10000 2.1 40 23:20 02.07.2020
442 Mist 12 1027 93 5000 3.6 40 22:57 02.07.2020
443 Mist 12 1027 93 5000 3.6 40 22:39 02.07.2020
444 Mist 12 1027 93 5000 3.6 40 22:20 02.07.2020
445 Mist 12 1027 93 5000 3.6 40 22:20 02.07.2020
446 Rain 12 1026 93 6000 2.6 50 21:54 02.07.2020
447 Clouds 12 1026 93 6000 2.6 50 21:36 02.07.2020
448 Clouds 13 1026 93 6000 2.6 50 21:18 02.07.2020
449 Clouds 13 1026 93 8000 2.1 50 20:42 02.07.2020
450 Clouds 13 1026 93 8000 2.1 50 20:21 02.07.2020
451 Clouds 14 1025 87 10000 3.1 30 19:59 02.07.2020
452 Clouds 14 1025 87 10000 3.1 30 19:38 02.07.2020
453 Clouds 14 1025 87 10000 3.1 30 19:20 02.07.2020
454 Clouds 14 1025 82 10000 2.1 10 18:57 02.07.2020
455 Clouds 15 1025 82 10000 2.1 10 18:39 02.07.2020
456 Clouds 15 1025 82 10000 2.1 10 18:20 02.07.2020
457 Clouds 16 1024 72 10000 2.6 0 17:40 02.07.2020
458 Clouds 16 1024 72 10000 2.6 0 17:20 02.07.2020
459 Clouds 16 1024 72 10000 2.6 0 17:20 02.07.2020
460 Clouds 16 1024 87 10000 1 0 16:56 02.07.2020
461 Clouds 16 1024 87 10000 1 0 16:56 02.07.2020
462 Clouds 16 1024 87 10000 1 0 16:38 02.07.2020
463 Rain 16 1024 87 10000 1 0 16:20 02.07.2020
464 Rain 16 1023 87 10000 4.6 330 15:55 02.07.2020
465 Rain 16 1023 87 10000 4.6 330 15:36 02.07.2020
466 Rain 16 1023 87 10000 4.6 330 15:18 02.07.2020
467 Rain 16 1023 82 10000 5.1 340 14:43 02.07.2020
468 Rain 17 1023 82 10000 5.1 340 14:20 02.07.2020
469 Rain 17 1024 77 10000 5.1 320 13:56 02.07.2020
470 Rain 17 1024 77 10000 5.1 320 13:36 02.07.2020
471 Rain 17 1024 77 10000 5.1 320 13:18 02.07.2020
472 Clouds 16 1024 87 10000 4.1 20 12:41 02.07.2020
473 Clouds 16 1024 87 10000 4.1 20 12:22 02.07.2020
474 Clouds 15 1025 87 10000 5.1 30 11:46 02.07.2020
475 Clouds 15 1025 87 10000 5.1 30 11:27 02.07.2020
476 Clouds 15 1025 93 10000 4.6 40 10:59 02.07.2020
477 Clouds 14 1025 93 10000 4.6 40 10:41 02.07.2020
478 Clouds 14 1025 93 10000 4.6 40 10:23 02.07.2020
479 Clouds 14 1023 93 8000 5.7 50 09:44 02.07.2020
480 Clouds 12 1023 93 8000 5.7 50 09:22 02.07.2020
481 Clouds 12 1023 100 10000 4.1 40 08:58 02.07.2020
482 Clouds 11 1023 100 10000 4.1 40 08:39 02.07.2020
483 Clouds 11 1023 100 10000 4.1 40 08:19 02.07.2020
484 Clouds 11 1023 100 10000 4.1 40 07:42 02.07.2020
485 Clouds 10 1023 100 10000 4.1 40 07:21 02.07.2020
486 Clouds 10 1022 100 10000 3.6 60 06:45 02.07.2020
487 Clouds 10 1022 100 10000 3.6 60 06:26 02.07.2020
488 Clouds 9 1021 93 9000 4.1 40 05:48 02.07.2020
489 Mist 10 1022 100 4000 2.1 30 04:50 02.07.2020
490 Clouds 10 1022 100 10000 0.5 0 03:34 02.07.2020
491 Fog 9 1021 93 200 1 110 01:51 02.07.2020
492 Clear 10 1021 93 9000 1 230 00:44 02.07.2020
493 Clear 10 1021 93 9000 1 230 00:18 02.07.2020
494 Clear 11 1021 93 6000 0.5 0 23:43 01.07.2020
495 Clear 11 1021 93 6000 0.5 0 23:22 01.07.2020
496 Mist 12 1020 93 4000 0.5 0 22:55 01.07.2020
497 Mist 11 1020 93 4000 0.5 0 22:37 01.07.2020
498 Mist 12 1020 93 4000 0.5 0 22:18 01.07.2020
499 Clear 12 1021 93 10000 1 160 21:56 01.07.2020
500 Clear 12 1021 93 10000 1 160 21:38 01.07.2020
501 Clear 12 1021 93 10000 1 160 21:19 01.07.2020
502 Clear 13 1021 93 10000 1.5 180 20:46 01.07.2020
503 Clear 13 1021 93 10000 1.5 180 20:26 01.07.2020
504 Clear 14 1020 93 10000 1.5 190 19:58 01.07.2020
505 Clear 14 1020 93 10000 1.5 190 19:39 01.07.2020
506 Clear 14 1020 93 10000 1.5 190 19:20 01.07.2020
507 Clear 14 1020 87 10000 1.5 140 18:56 01.07.2020
508 Clear 15 1020 87 10000 1.5 140 18:38 01.07.2020
509 Clear 15 1020 87 10000 1.5 140 18:20 01.07.2020
510 Clouds 16 1020 82 10000 4.1 160 17:41 01.07.2020
511 Clouds 17 1020 82 10000 4.1 160 17:20 01.07.2020
512 Clouds 17 1020 77 10000 5.7 160 16:56 01.07.2020
513 Clouds 17 1020 77 10000 5.7 160 16:38 01.07.2020
514 Clouds 17 1020 77 10000 5.7 160 16:20 01.07.2020
515 Clouds 19 1020 77 10000 5.7 180 15:41 01.07.2020
516 Clouds 19 1020 77 10000 5.7 180 15:22 01.07.2020
517 Clear 20 1020 60 10000 0.5 0 14:58 01.07.2020
518 Clear 20 1020 60 10000 0.5 0 14:38 01.07.2020
519 Clouds 21 1020 60 10000 0.5 0 14:19 01.07.2020
520 Clouds 20 1020 77 10000 2.1 150 13:54 01.07.2020
521 Clouds 20 1021 72 10000 2.6 150 13:36 01.07.2020
522 Clouds 21 1021 72 10000 2.6 150 13:18 01.07.2020
523 Clouds 20 1021 72 10000 2.6 150 12:41 01.07.2020
524 Clouds 19 1021 72 10000 2.6 150 12:23 01.07.2020
525 Clouds 19 1021 72 10000 2.6 150 12:23 01.07.2020
526 Clear 18 1022 77 10000 1 0 11:58 01.07.2020
527 Clear 18 1022 77 10000 1 0 11:40 01.07.2020
528 Clear 18 1022 77 10000 1 0 11:21 01.07.2020
529 Clear 16 1021 82 10000 0.5 0 10:55 01.07.2020
530 Clear 16 1021 82 10000 0.5 0 10:55 01.07.2020
531 Clear 16 1021 82 10000 0.5 0 10:36 01.07.2020
532 Clear 15 1021 82 10000 0.5 0 10:18 01.07.2020
533 Clear 12 1020 93 10000 0.5 0 09:38 01.07.2020
534 Clear 10 1020 93 10000 0.5 0 09:20 01.07.2020
535 Clear 9 1020 93 10000 1.5 350 08:57 01.07.2020
536 Clear 8 1020 93 10000 1.5 350 08:39 01.07.2020
537 Clear 8 1020 93 10000 1.5 350 08:19 01.07.2020
538 Clear 8 1020 93 10000 1.5 80 07:41 01.07.2020
539 Clear 8 1020 93 10000 1.5 80 07:23 01.07.2020
540 Clear 8 1019 93 10000 2.6 40 06:55 01.07.2020
541 Clear 8 1019 93 10000 2.6 40 06:32 01.07.2020
542 Clear 8 1019 93 10000 2.1 60 05:46 01.07.2020
543 Clear 9 1019 93 10000 1 0 04:30 01.07.2020
544 Clear 9 1019 93 10000 1 0 03:42 01.07.2020
545 Clear 9 1019 93 10000 1 0 03:22 01.07.2020
546 Fog 10 1019 93 2000 2.1 50 02:19 01.07.2020
547 Fog 9 1019 100 2000 2.1 70 01:23 01.07.2020
548 Fog 10 1020 100 2000 2.1 60 00:38 01.07.2020
549 Fog 10 1020 100 2000 2.1 60 00:19 01.07.2020
550 Fog 11 1020 100 100 1 60 23:40 30.06.2020
551 Fog 11 1020 100 100 1 60 23:20 30.06.2020
552 Fog 11 1020 100 100 1.5 70 22:42 30.06.2020
553 Fog 12 1020 100 100 1.5 70 22:19 30.06.2020
554 Fog 12 1021 100 100 1.5 100 21:54 30.06.2020
555 Clear 12 1021 93 6000 0.5 130 21:36 30.06.2020
556 Clouds 13 1021 93 6000 0.5 130 21:18 30.06.2020
557 Clouds 13 1021 93 10000 1 190 20:42 30.06.2020
558 Clouds 13 1021 93 10000 1 190 20:21 30.06.2020
559 Clouds 14 1021 87 10000 1.5 140 19:44 30.06.2020
560 Clouds 14 1021 87 10000 1.5 140 19:21 30.06.2020
561 Clouds 15 1021 77 10000 2.6 190 18:58 30.06.2020
562 Clouds 15 1021 77 10000 2.6 190 18:40 30.06.2020
563 Clear 16 1021 77 10000 2.6 190 18:20 30.06.2020
564 Clear 17 1021 63 10000 2.6 170 17:39 30.06.2020
565 Clear 17 1021 63 10000 2.6 170 17:20 30.06.2020
566 Clear 18 1021 60 10000 1.5 0 16:57 30.06.2020
567 Clear 18 1021 60 10000 1.5 0 16:39 30.06.2020
568 Clear 19 1021 60 10000 1.5 0 16:19 30.06.2020
569 Clear 19 1021 60 10000 1.5 0 15:56 30.06.2020
570 Clear 20 1021 60 10000 1.5 0 15:37 30.06.2020
571 Clear 20 1021 60 10000 1.5 0 15:19 30.06.2020
572 Clear 20 1022 63 10000 1.5 0 14:43 30.06.2020
573 Clouds 19 1022 63 10000 1.5 0 14:21 30.06.2020
574 Clouds 19 1024 67 0 1.22 176 13:57 30.06.2020
575 Clouds 18 1024 68 10000 1 0 13:37 30.06.2020
576 Clear 20 1024 68 10000 1 0 13:19 30.06.2020
577 Clear 19 1024 68 10000 1 0 12:55 30.06.2020
578 Clear 19 1024 68 10000 1 0 12:37 30.06.2020
579 Clear 18 1024 68 10000 1 0 12:18 30.06.2020
580 Clear 16 1024 87 10000 0.5 0 11:56 30.06.2020
581 Clear 16 1024 87 10000 0.5 0 11:37 30.06.2020
582 Clear 16 1024 87 10000 0.5 0 11:18 30.06.2020
583 Clouds 16 1023 59 10000 2.6 250 16:47 28.06.2020
584 Clouds 16 1023 59 10000 2.6 250 16:28 28.06.2020
585 Clouds 17 1023 55 10000 3.1 250 15:59 28.06.2020
586 Clouds 17 1023 55 10000 3.1 250 15:39 28.06.2020
587 Clouds 17 1023 55 10000 3.1 250 15:20 28.06.2020
588 Clouds 17 1023 59 10000 1 0 14:57 28.06.2020
589 Clouds 17 1023 59 10000 1 0 14:38 28.06.2020
590 Clouds 17 1023 59 10000 1 0 14:20 28.06.2020
591 Clouds 17 1024 63 10000 3.6 310 13:40 28.06.2020
592 Clouds 18 1024 63 10000 3.6 310 13:21 28.06.2020
593 Clouds 16 1024 77 10000 2.6 350 12:58 28.06.2020
594 Clouds 16 1024 77 10000 2.6 350 12:38 28.06.2020
595 Clouds 16 1024 77 10000 2.6 350 12:19 28.06.2020
596 Clouds 16 1024 77 10000 3.1 30 11:58 28.06.2020
597 Clouds 16 1024 77 10000 3.1 30 11:39 28.06.2020
598 Clouds 16 1024 77 10000 3.1 30 11:39 28.06.2020
599 Clouds 16 1024 77 10000 3.1 30 11:20 28.06.2020
600 Clouds 15 1023 82 10000 2.6 40 10:57 28.06.2020
601 Clouds 15 1023 82 10000 2.6 40 10:39 28.06.2020
602 Clouds 14 1023 82 10000 2.6 40 10:21 28.06.2020
603 Clouds 13 1022 87 10000 1.5 0 09:40 28.06.2020
604 Clouds 13 1022 87 10000 1.5 0 09:22 28.06.2020
605 Clouds 13 1021 82 10000 2.6 0 08:55 28.06.2020
606 Clouds 13 1021 82 10000 2.6 0 08:35 28.06.2020
607 Clouds 13 1020 76 10000 1.5 0 07:55 28.06.2020
608 Clouds 14 1020 76 10000 1.5 0 07:31 28.06.2020
609 Clouds 13 1019 66 10000 2.6 280 06:56 28.06.2020
610 Clouds 13 1019 66 10000 2.6 280 06:32 28.06.2020
611 Clouds 14 1019 62 10000 1 0 05:45 28.06.2020
612 Clouds 13 1018 71 10000 3.1 260 04:24 28.06.2020
613 Clouds 13 1017 81 10000 2.1 310 02:56 28.06.2020
614 Clouds 13 1017 81 10000 2.1 310 02:20 28.06.2020
615 Rain 13 1017 76 10000 2.6 280 01:27 28.06.2020
616 Rain 14 1016 76 10000 2.1 320 00:55 28.06.2020
617 Rain 13 1016 76 10000 2.1 320 00:30 28.06.2020
618 Rain 15 1016 62 10000 2.6 290 23:58 27.06.2020
619 Rain 15 1016 62 10000 2.6 290 23:39 27.06.2020
620 Clouds 15 1016 62 10000 2.6 290 23:19 27.06.2020
621 Clouds 15 1016 71 10000 3.1 300 22:42 27.06.2020
622 Rain 15 1016 71 10000 3.1 300 22:23 27.06.2020
623 Rain 15 1016 71 10000 3.1 300 22:23 27.06.2020
624 Rain 15 1015 71 10000 3.1 270 21:59 27.06.2020
625 Rain 15 1015 71 10000 3.1 270 21:40 27.06.2020
626 Clouds 15 1015 71 10000 3.1 270 21:20 27.06.2020
627 Clouds 15 1015 71 10000 3.1 270 21:20 27.06.2020
628 Clouds 15 1014 62 10000 4.1 280 20:55 27.06.2020
629 Clouds 15 1014 62 10000 4.1 280 20:37 27.06.2020
630 Clouds 15 1013 72 10000 6.2 280 20:18 27.06.2020
631 Clouds 15 1013 72 10000 6.2 280 19:37 27.06.2020
632 Clouds 15 1013 72 10000 6.2 280 19:19 27.06.2020
633 Clouds 15 1013 82 10000 5.1 270 19:19 27.06.2020
634 Clouds 15 1013 82 10000 5.1 270 18:57 27.06.2020
635 Clouds 15 1013 82 10000 5.1 270 18:37 27.06.2020
636 Rain 15 1012 82 10000 6.7 290 18:19 27.06.2020
637 Rain 15 1012 82 10000 6.7 290 17:40 27.06.2020
638 Rain 15 1012 82 10000 6.7 290 17:20 27.06.2020
639 Rain 15 1012 82 10000 6.7 290 17:20 27.06.2020
640 Rain 15 1012 63 10000 7.7 300 16:57 27.06.2020
641 Rain 16 1012 63 10000 7.7 300 16:38 27.06.2020
642 Clouds 16 1011 67 10000 8.2 290 16:19 27.06.2020
643 Clouds 17 1011 67 10000 8.2 290 15:43 27.06.2020
644 Clouds 17 1011 67 10000 8.2 290 15:24 27.06.2020
645 Rain 16 1011 87 10000 10.3 290 14:57 27.06.2020
646 Rain 16 1011 87 10000 10.3 290 14:38 27.06.2020
647 Rain 15 1011 87 10000 10.3 290 14:19 27.06.2020
648 Rain 15 1010 87 1500 12.9 310 13:54 27.06.2020
649 Rain 15 1010 87 1500 12.9 310 13:36 27.06.2020
650 Rain 15 1010 100 10000 10.3 300 13:18 27.06.2020
651 Rain 15 1010 100 4000 12.3 310 12:40 27.06.2020
652 Rain 14 1010 100 4000 12.3 310 12:22 27.06.2020
653 Rain 15 1010 87 4000 13.9 340 11:58 27.06.2020
654 Rain 15 1010 82 10000 14.4 340 11:38 27.06.2020
655 Rain 16 1010 82 10000 14.4 340 11:19 27.06.2020
656 Clouds 16 1010 87 10000 12.3 360 10:41 27.06.2020
657 Clouds 16 1010 87 10000 12.3 360 10:19 27.06.2020
658 Clouds 15 1010 93 10000 10.3 350 09:58 27.06.2020
659 Drizzle 15 1010 87 10000 11.8 340 09:39 27.06.2020
660 Rain 15 1010 87 10000 11.8 340 09:20 27.06.2020
661 Rain 14 1010 87 4000 11.8 350 08:44 27.06.2020
662 Rain 14 1010 87 10000 11.8 350 08:23 27.06.2020
663 Rain 14 1010 76 10000 11.8 360 07:48 27.06.2020
664 Clouds 14 1010 76 10000 11.8 360 07:26 27.06.2020
665 Clouds 14 1011 87 10000 11.8 10 06:52 27.06.2020
666 Clouds 14 1011 87 10000 11.8 10 06:33 27.06.2020
667 Rain 13 1013 82 10000 9.8 10 04:52 27.06.2020
668 Rain 14 1014 81 10000 8.7 30 04:18 27.06.2020
669 Rain 14 1014 81 10000 8.7 30 03:46 27.06.2020
670 Clouds 14 1014 76 10000 11.3 350 02:43 27.06.2020
671 Clouds 14 1014 76 10000 11.3 350 02:24 27.06.2020
672 Rain 14 1015 82 9000 10.3 350 01:34 27.06.2020
673 Clouds 13 1015 87 10000 9.8 340 00:47 27.06.2020
674 Clouds 14 1016 71 10000 9.3 350 23:56 26.06.2020
675 Clouds 14 1016 71 10000 9.3 350 23:37 26.06.2020
676 Clouds 14 1016 71 10000 9.3 350 23:19 26.06.2020
677 Clouds 14 1016 81 10000 8.2 350 22:42 26.06.2020
678 Clouds 13 1016 81 10000 8.2 350 22:24 26.06.2020
679 Clouds 14 1016 76 10000 6.2 360 21:58 26.06.2020
680 Clouds 14 1016 76 10000 6.2 360 21:39 26.06.2020
681 Clouds 14 1016 76 10000 6.2 360 21:21 26.06.2020
682 Clouds 14 1017 71 10000 4.6 360 20:58 26.06.2020
683 Clouds 14 1017 71 10000 4.6 360 20:38 26.06.2020
684 Clouds 14 1017 71 10000 4.6 360 20:18 26.06.2020
685 Clouds 14 1017 76 10000 4.1 350 19:40 26.06.2020
686 Clouds 14 1017 76 10000 4.1 350 19:20 26.06.2020
687 Clouds 14 1016 67 10000 5.7 330 18:43 26.06.2020
688 Clouds 14 1016 67 10000 5.7 330 18:25 26.06.2020
689 Clouds 15 1017 67 10000 5.1 320 17:55 26.06.2020
690 Clouds 15 1017 67 10000 5.1 320 17:37 26.06.2020
691 Clouds 15 1017 71 10000 5.7 310 17:19 26.06.2020
692 Clouds 15 1017 71 10000 5.7 310 16:42 26.06.2020
693 Clouds 15 1017 71 10000 5.7 310 16:23 26.06.2020
694 Clouds 16 1016 55 10000 7.2 300 15:41 26.06.2020
695 Clouds 16 1016 55 10000 7.2 300 15:22 26.06.2020
696 Clouds 16 1016 55 10000 7.7 310 14:59 26.06.2020
697 Clouds 16 1016 55 10000 7.7 310 14:40 26.06.2020
698 Clouds 16 1016 55 10000 7.7 310 14:22 26.06.2020
699 Clouds 16 1016 55 10000 7.2 300 13:47 26.06.2020
700 Clouds 16 1016 55 10000 7.2 300 13:25 26.06.2020
701 Clouds 17 1016 59 10000 3.1 0 12:59 26.06.2020
702 Clouds 16 1016 59 10000 3.1 0 12:41 26.06.2020
703 Clouds 17 1016 59 10000 3.1 0 12:22 26.06.2020
704 Clouds 16 1017 82 10000 3.6 60 11:57 26.06.2020
705 Clouds 15 1017 82 10000 3.6 60 11:39 26.06.2020
706 Clouds 15 1017 82 10000 3.6 60 11:20 26.06.2020
707 Clouds 15 1017 87 10000 4.1 50 10:57 26.06.2020
708 Clouds 14 1017 87 10000 4.1 50 10:38 26.06.2020
709 Rain 13 1017 87 10000 4.1 50 10:18 26.06.2020
710 Rain 13 1016 87 10000 3.6 0 09:43 26.06.2020
711 Rain 13 1016 87 10000 3.6 0 09:24 26.06.2020
712 Clouds 12 1015 93 10000 2.1 30 08:55 26.06.2020
713 Rain 13 1015 93 10000 2.1 30 08:28 26.06.2020
714 Rain 13 1015 93 10000 3.6 20 07:53 26.06.2020
715 Clouds 13 1015 93 10000 3.6 20 07:24 26.06.2020
716 Clouds 13 1015 93 10000 3.6 30 06:58 26.06.2020
717 Clouds 13 1015 93 10000 3.6 30 06:36 26.06.2020
718 Clouds 13 1015 93 10000 3.6 30 06:18 26.06.2020
719 Rain 13 1014 93 10000 3.1 30 05:41 26.06.2020
720 Rain 13 1013 93 4000 3.1 290 03:52 26.06.2020
721 Rain 14 1014 87 4000 3.1 290 02:22 26.06.2020
722 Clouds 14 1013 87 10000 3.6 20 01:20 26.06.2020
723 Clouds 14 1014 93 10000 5.1 330 00:41 26.06.2020
724 Rain 14 1014 93 10000 5.1 330 00:20 26.06.2020
725 Rain 15 1013 93 10000 5.7 10 23:43 25.06.2020
726 Rain 14 1013 93 10000 5.7 10 23:19 25.06.2020
727 Rain 14 1014 93 10000 3.1 330 22:56 25.06.2020
728 Rain 14 1014 93 10000 3.6 40 22:37 25.06.2020
729 Rain 14 1014 93 10000 3.6 40 22:19 25.06.2020
730 Rain 14 1014 93 10000 3.6 40 21:56 25.06.2020
731 Rain 14 1014 93 10000 3.6 40 21:38 25.06.2020
732 Drizzle 14 1014 93 10000 3.6 40 21:19 25.06.2020
733 Rain 14 1014 93 10000 4.6 360 20:45 25.06.2020
734 Rain 14 1014 93 6000 6.7 340 20:24 25.06.2020
735 Rain 14 1014 93 6000 5.1 330 19:58 25.06.2020
736 Rain 14 1014 93 6000 5.1 330 19:40 25.06.2020
737 Rain 14 1013 82 7000 7.7 300 19:19 25.06.2020
738 Rain 15 1013 82 7000 7.7 300 18:57 25.06.2020
739 Rain 15 1013 82 7000 7.7 300 18:37 25.06.2020
740 Rain 16 1013 82 7000 7.7 300 18:19 25.06.2020
741 Rain 17 1012 63 10000 9.3 350 17:41 25.06.2020
742 Rain 17 1012 63 10000 9.3 350 17:19 25.06.2020
743 Clouds 18 1012 59 10000 10.3 360 16:57 25.06.2020
744 Clouds 18 1012 59 10000 10.3 360 16:37 25.06.2020
745 Clouds 18 1012 59 10000 10.3 360 16:18 25.06.2020
746 Clouds 19 1011 63 10000 9.3 360 15:41 25.06.2020
747 Clouds 19 1011 63 10000 9.3 360 15:21 25.06.2020
748 Clouds 19 1012 63 10000 9.8 340 14:44 25.06.2020
749 Clouds 19 1012 63 10000 9.8 340 14:25 25.06.2020
750 Clouds 19 1013 63 10000 9.8 340 13:57 25.06.2020
751 Clouds 19 1013 63 10000 9.8 340 13:38 25.06.2020
752 Clouds 19 1013 63 10000 9.8 340 13:19 25.06.2020
753 Clouds 19 1014 68 10000 8.2 350 12:46 25.06.2020
754 Clouds 18 1014 68 10000 8.2 350 12:21 25.06.2020
755 Clouds 18 1014 72 10000 8.7 350 11:58 25.06.2020
756 Clouds 17 1014 77 10000 7.2 10 11:40 25.06.2020
757 Clouds 17 1014 77 10000 7.2 10 11:21 25.06.2020
758 Clouds 16 1014 82 10000 8.2 10 10:42 25.06.2020
759 Clouds 16 1014 82 10000 8.2 10 10:24 25.06.2020
760 Clouds 15 1014 87 10000 8.7 30 09:42 25.06.2020
761 Clouds 15 1014 87 10000 8.7 30 09:23 25.06.2020
762 Clouds 14 1014 87 10000 7.7 30 08:59 25.06.2020
763 Clouds 15 1014 87 10000 7.7 30 08:41 25.06.2020
764 Clouds 14 1014 87 10000 7.7 30 08:18 25.06.2020
765 Clouds 15 1013 87 10000 8.2 30 07:42 25.06.2020
766 Clouds 15 1013 87 10000 8.2 30 07:24 25.06.2020
767 Clouds 15 1013 82 10000 5.1 40 06:44 25.06.2020
768 Clouds 15 1013 82 10000 5.1 40 06:24 25.06.2020
769 Clouds 15 1014 87 10000 5.1 30 05:32 25.06.2020
770 Clouds 16 1013 76 10000 4.1 360 03:49 25.06.2020
771 Clouds 15 1013 67 10000 3.1 40 02:58 25.06.2020
772 Clouds 15 1013 67 10000 3.1 40 02:40 25.06.2020
773 Clear 14 1013 66 10000 3.6 40 01:43 25.06.2020
774 Clear 14 1013 67 10000 5.1 350 00:52 25.06.2020
775 Clear 14 1013 67 10000 5.1 350 00:26 25.06.2020
776 Clear 14 1013 62 10000 4.1 10 23:59 24.06.2020
777 Clear 14 1013 62 10000 4.1 10 23:39 24.06.2020
778 Clear 14 1013 62 10000 4.1 10 23:21 24.06.2020
779 Clear 14 1013 67 10000 4.1 10 22:54 24.06.2020
780 Clear 14 1013 67 10000 4.1 10 22:36 24.06.2020
781 Clear 15 1012 58 10000 3.6 360 22:18 24.06.2020
782 Clear 15 1012 58 10000 3.6 360 21:54 24.06.2020
783 Clear 15 1012 58 10000 3.6 360 21:36 24.06.2020
784 Clear 15 1012 58 10000 3.6 360 21:18 24.06.2020
785 Clear 15 1013 71 10000 4.1 20 20:41 24.06.2020
786 Clear 15 1013 71 10000 4.1 20 20:22 24.06.2020
787 Clear 16 1013 77 10000 3.6 20 19:59 24.06.2020
788 Clear 15 1013 77 10000 3.6 20 19:39 24.06.2020
789 Clear 15 1013 77 10000 3.6 20 19:21 24.06.2020
790 Clear 15 1013 77 10000 4.1 340 18:59 24.06.2020
791 Clear 15 1013 77 10000 4.1 340 18:40 24.06.2020
792 Clear 15 1013 77 10000 4.1 340 18:22 24.06.2020
793 Clear 18 1013 63 10000 4.1 320 17:56 24.06.2020
794 Clear 18 1013 63 10000 4.1 320 17:38 24.06.2020
795 Clear 18 1013 63 10000 4.1 320 17:19 24.06.2020
796 Clear 18 1014 59 10000 4.6 330 16:56 24.06.2020
797 Clear 18 1014 59 10000 4.6 330 16:37 24.06.2020
798 Clear 18 1014 59 10000 4.6 330 16:37 24.06.2020
799 Clear 18 1014 59 10000 4.6 330 16:19 24.06.2020
800 Clear 19 1014 55 10000 6.7 320 15:56 24.06.2020
801 Clear 19 1014 55 10000 6.7 320 15:37 24.06.2020
802 Clear 19 1014 55 10000 6.7 320 15:19 24.06.2020
803 Clear 19 1015 52 10000 6.2 310 14:42 24.06.2020
804 Clear 19 1015 52 10000 6.2 310 14:24 24.06.2020
805 Clear 18 1016 59 10000 6.2 330 13:43 24.06.2020
806 Clear 18 1016 59 10000 6.2 330 13:22 24.06.2020
807 Clear 18 1016 55 10000 5.7 330 12:56 24.06.2020
808 Clear 18 1016 55 10000 5.7 330 12:37 24.06.2020
809 Clear 18 1016 55 10000 5.7 330 12:18 24.06.2020
810 Clear 17 1017 67 10000 6.2 330 11:54 24.06.2020
811 Clear 16 1017 67 10000 6.2 330 11:36 24.06.2020
812 Clear 16 1017 67 10000 6.2 330 11:36 24.06.2020
813 Clear 16 1017 67 10000 6.2 330 11:18 24.06.2020
814 Clear 16 1017 72 10000 4.6 350 10:41 24.06.2020
815 Clear 14 1017 87 10000 4.6 360 10:18 24.06.2020
816 Clear 14 1017 87 10000 4.6 360 09:42 24.06.2020
817 Clear 14 1017 87 10000 4.6 360 09:21 24.06.2020
818 Clear 11 1017 93 10000 3.6 10 08:42 24.06.2020
819 Clear 13 1017 93 10000 3.6 10 08:21 24.06.2020
820 Clear 12 1017 93 10000 4.1 20 07:51 24.06.2020
821 Clear 12 1017 93 10000 4.1 20 07:31 24.06.2020
822 Clear 12 1017 93 10000 4.1 20 06:51 24.06.2020
823 Clear 10 1016 100 10000 4.1 360 06:25 24.06.2020
824 Clear 10 1017 100 10000 4.1 360 05:57 24.06.2020
825 Clear 9 1017 100 10000 3.6 360 04:46 24.06.2020
826 Clear 9 1017 100 10000 3.6 360 04:28 24.06.2020
827 Clear 11 1017 93 10000 2.6 30 03:35 24.06.2020
828 Clear 9 1017 93 10000 3.1 20 02:51 24.06.2020
829 Clear 9 1018 93 10000 2.6 40 01:45 24.06.2020
830 Clear 9 1018 87 10000 2.1 40 00:47 24.06.2020
831 Clear 9 1018 87 10000 2.1 40 00:27 24.06.2020
832 Clear 9 1017 93 10000 2.6 30 23:46 23.06.2020
833 Clear 11 1017 93 10000 2.6 30 23:20 23.06.2020
834 Clear 12 1018 87 10000 4.1 340 22:57 23.06.2020
835 Clear 12 1018 87 10000 4.1 340 22:36 23.06.2020
836 Clear 13 1018 87 10000 4.1 340 22:18 23.06.2020
837 Clear 14 1018 87 10000 4.1 360 21:41 23.06.2020
838 Clear 14 1018 87 10000 4.1 360 21:20 23.06.2020
839 Clear 14 1018 87 10000 3.6 360 20:56 23.06.2020
840 Clouds 14 1018 87 10000 3.6 360 20:37 23.06.2020
841 Clouds 14 1018 87 10000 3.6 360 20:19 23.06.2020
842 Clouds 14 1018 82 10000 4.1 350 19:49 23.06.2020
843 Clouds 14 1018 82 10000 4.1 350 19:28 23.06.2020
844 Clouds 14 1017 72 10000 4.6 340 18:55 23.06.2020
845 Clouds 15 1017 72 10000 4.6 340 18:37 23.06.2020
846 Clouds 15 1017 72 10000 4.6 340 18:18 23.06.2020
847 Clouds 16 1017 59 10000 5.7 320 17:40 23.06.2020
848 Clear 17 1017 59 10000 5.7 320 17:22 23.06.2020
849 Clear 18 1017 55 10000 5.7 310 16:57 23.06.2020
850 Clear 19 1017 55 10000 5.7 310 16:38 23.06.2020
851 Clear 19 1017 55 10000 5.7 310 16:20 23.06.2020
852 Clear 19 1017 55 10000 6.2 330 15:55 23.06.2020
853 Clear 19 1017 55 10000 6.2 330 15:37 23.06.2020
854 Clear 19 1017 55 10000 6.2 330 15:18 23.06.2020
855 Clear 19 1018 59 10000 5.1 360 14:42 23.06.2020
856 Clear 19 1018 59 10000 5.1 360 14:19 23.06.2020
857 Clear 18 1019 59 10000 4.6 350 13:56 23.06.2020
858 Clear 18 1019 59 10000 4.6 350 13:38 23.06.2020
859 Clear 18 1019 59 10000 4.6 350 13:20 23.06.2020
860 Clear 19 1019 55 10000 4.6 30 12:42 23.06.2020
861 Clear 18 1019 55 10000 4.6 30 12:22 23.06.2020
862 Clear 17 1020 72 10000 4.1 30 11:58 23.06.2020
863 Clear 16 1020 72 10000 4.1 30 11:39 23.06.2020
864 Clear 16 1020 72 10000 4.1 30 11:19 23.06.2020
865 Clouds 16 1020 82 10000 5.1 20 10:55 23.06.2020
866 Clouds 15 1020 82 10000 5.1 20 10:37 23.06.2020
867 Clouds 13 1019 93 10000 4.1 40 10:19 23.06.2020
868 Clouds 13 1019 93 10000 4.1 40 09:41 23.06.2020
869 Clouds 11 1019 93 10000 4.1 40 09:20 23.06.2020
870 Clouds 11 1019 93 10000 1 0 08:57 23.06.2020
871 Clouds 12 1019 93 10000 1 0 08:38 23.06.2020
872 Clouds 11 1019 93 10000 1 0 08:19 23.06.2020
873 Clouds 11 1019 100 10000 3.6 40 07:39 23.06.2020
874 Clouds 11 1019 100 10000 3.6 40 07:21 23.06.2020
875 Clouds 11 1019 100 10000 2.1 50 06:48 23.06.2020
876 Clouds 11 1019 100 10000 2.1 50 06:30 23.06.2020
877 Clear 10 1015 98 0 0.45 2 05:39 23.06.2020
878 Clear 11 1018 93 10000 2.6 10 03:39 23.06.2020
879 Fog 10 1018 100 800 3.1 20 02:56 23.06.2020
880 Fog 10 1018 100 800 3.1 20 02:36 23.06.2020
881 Fog 11 1019 100 500 2.6 350 01:51 23.06.2020
882 Fog 11 1019 100 500 2.6 350 01:32 23.06.2020
883 Fog 12 1019 93 450 2.1 10 00:56 23.06.2020
884 Fog 12 1019 93 450 2.1 10 00:24 23.06.2020
885 Fog 12 1020 100 700 3.1 360 23:57 22.06.2020
886 Fog 12 1020 100 700 3.1 360 23:38 22.06.2020
887 Fog 12 1020 100 700 3.1 360 23:19 22.06.2020
888 Mist 13 1020 93 4000 3.1 350 22:57 22.06.2020
889 Mist 13 1020 93 3000 4.1 330 22:38 22.06.2020
890 Mist 13 1020 93 3000 4.1 330 22:19 22.06.2020
891 Mist 13 1020 93 3000 4.1 330 22:19 22.06.2020
892 Mist 13 1020 93 3000 4.1 330 21:57 22.06.2020
893 Mist 13 1020 93 3000 4.1 330 21:38 22.06.2020
894 Mist 13 1020 93 3000 4.1 330 21:20 22.06.2020
895 Clouds 13 1019 93 8000 3.6 330 20:42 22.06.2020
896 Clouds 13 1019 93 8000 3.6 330 20:24 22.06.2020
897 Clouds 13 1019 93 10000 2.6 310 19:57 22.06.2020
898 Clouds 13 1019 93 10000 2.6 310 19:37 22.06.2020
899 Clouds 13 1019 93 10000 2.6 310 19:18 22.06.2020
900 Clouds 15 1019 93 10000 4.6 320 18:41 22.06.2020
901 Clouds 15 1019 93 10000 4.6 320 18:23 22.06.2020
902 Clouds 15 1019 93 10000 5.1 320 17:57 22.06.2020
903 Clouds 16 1019 93 10000 5.1 320 17:38 22.06.2020
904 Clouds 16 1019 93 10000 5.1 320 17:20 22.06.2020
905 Clouds 17 1019 87 10000 5.7 340 16:56 22.06.2020
906 Clouds 17 1019 87 10000 5.7 340 16:38 22.06.2020
907 Clouds 17 1019 87 10000 5.7 340 16:18 22.06.2020
908 Clouds 18 1019 82 10000 4.1 330 15:44 22.06.2020
909 Clouds 19 1019 82 10000 4.1 330 15:25 22.06.2020
910 Clear 19 1019 77 10000 4.1 330 14:58 22.06.2020
911 Clear 19 1019 77 10000 4.1 330 14:38 22.06.2020
912 Clear 19 1019 77 10000 4.1 330 14:19 22.06.2020
913 Clouds 18 1020 68 10000 5.7 330 13:54 22.06.2020
914 Clouds 19 1020 68 10000 5.7 330 13:36 22.06.2020
915 Clouds 19 1020 68 10000 5.7 330 13:18 22.06.2020
916 Clouds 17 1021 77 10000 4.6 330 12:41 22.06.2020
917 Clouds 17 1021 77 10000 4.6 330 12:22 22.06.2020
918 Clouds 17 1022 82 10000 3.6 340 11:38 22.06.2020
919 Clouds 17 1022 82 10000 3.6 340 11:19 22.06.2020
920 Clear 17 1022 87 10000 3.6 350 10:57 22.06.2020
921 Clear 16 1022 87 10000 3.6 350 10:39 22.06.2020
922 Clear 15 1022 87 10000 3.6 350 10:19 22.06.2020
923 Clear 14 1022 93 10000 3.1 340 09:58 22.06.2020
924 Clear 12 1022 93 10000 3.1 340 09:40 22.06.2020
925 Clear 12 1022 93 10000 3.1 340 09:19 22.06.2020
926 Clouds 11 1021 100 10000 2.1 20 08:57 22.06.2020
927 Clouds 11 1021 100 10000 2.1 20 08:38 22.06.2020
928 Clouds 11 1021 100 10000 2.1 20 08:19 22.06.2020
929 Clouds 10 1021 100 10000 1.5 360 07:49 22.06.2020
930 Clouds 10 1021 100 10000 1.5 360 07:30 22.06.2020
931 Clouds 10 1021 100 10000 2.6 40 06:43 22.06.2020
932 Clouds 10 1021 100 10000 2.6 40 06:24 22.06.2020
933 Clouds 10 1021 100 10000 2.1 20 05:43 22.06.2020
934 Clouds 12 1022 93 10000 3.6 30 03:48 22.06.2020
935 Clouds 12 1022 93 10000 4.1 350 02:28 22.06.2020
936 Clouds 12 1023 93 10000 2.1 10 01:18 22.06.2020
937 Clouds 13 1023 93 10000 2.6 20 00:39 22.06.2020
938 Clouds 13 1023 93 10000 3.6 20 23:58 21.06.2020
939 Clouds 13 1023 93 10000 3.6 20 23:39 21.06.2020
940 Clouds 13 1023 93 10000 3.6 20 23:20 21.06.2020
941 Clouds 14 1023 93 10000 3.6 30 22:57 21.06.2020
942 Clouds 14 1023 93 10000 3.6 30 22:37 21.06.2020
943 Clouds 14 1023 93 10000 3.6 30 22:19 21.06.2020
944 Clouds 14 1023 93 10000 2.6 340 21:56 21.06.2020
945 Clouds 14 1023 93 10000 2.6 340 21:38 21.06.2020
946 Clouds 14 1023 93 10000 2.6 340 21:20 21.06.2020
947 Clouds 14 1023 93 10000 2.6 340 20:57 21.06.2020
948 Clouds 15 1023 93 10000 3.6 320 20:37 21.06.2020
949 Clouds 14 1023 93 10000 3.6 320 20:18 21.06.2020
950 Clouds 15 1023 93 10000 2.1 360 19:55 21.06.2020
951 Clouds 15 1023 93 10000 2.1 360 19:37 21.06.2020
952 Clouds 15 1023 93 10000 2.1 360 19:18 21.06.2020
953 Rain 15 1022 93 10000 3.6 320 18:40 21.06.2020
954 Rain 15 1022 93 10000 3.6 320 18:22 21.06.2020
955 Rain 17 1022 77 10000 4.1 350 17:59 21.06.2020
956 Rain 16 1022 77 10000 4.1 350 17:38 21.06.2020
957 Rain 16 1022 77 10000 4.1 350 17:19 21.06.2020
958 Rain 17 1022 82 10000 5.7 340 16:41 21.06.2020
959 Rain 17 1022 82 10000 5.7 340 16:23 21.06.2020
960 Rain 16 1022 87 10000 6.2 350 15:57 21.06.2020
961 Rain 16 1022 87 10000 6.2 350 15:37 21.06.2020
962 Rain 16 1022 87 10000 6.2 350 15:19 21.06.2020
963 Rain 16 1022 87 10000 7.7 350 14:39 21.06.2020
964 Rain 16 1022 87 10000 7.7 350 14:20 21.06.2020
965 Rain 16 1022 87 10000 7.2 350 13:58 21.06.2020
966 Rain 16 1023 93 4000 4.6 10 13:40 21.06.2020
967 Rain 15 1023 93 4000 4.6 10 13:21 21.06.2020
968 Rain 15 1023 93 4000 5.7 10 12:45 21.06.2020
969 Rain 15 1023 93 4000 5.7 10 12:26 21.06.2020
970 Rain 15 1023 87 10000 5.7 10 11:59 21.06.2020
971 Rain 15 1023 87 10000 5.7 10 11:41 21.06.2020
972 Rain 15 1023 87 10000 5.7 10 11:41 21.06.2020
973 Rain 15 1023 87 10000 5.7 10 11:23 21.06.2020
974 Rain 15 1022 93 10000 4.6 20 10:58 21.06.2020
975 Rain 15 1022 93 10000 4.6 20 10:39 21.06.2020
976 Rain 15 1022 93 10000 4.6 20 10:20 21.06.2020
977 Rain 15 1022 87 10000 6.7 20 09:44 21.06.2020
978 Rain 15 1022 87 10000 6.7 20 09:22 21.06.2020
979 Rain 15 1021 87 10000 6.2 360 08:57 21.06.2020
980 Rain 15 1021 87 10000 6.2 360 08:39 21.06.2020
981 Rain 15 1021 87 10000 6.2 360 08:19 21.06.2020
982 Rain 15 1021 87 10000 5.7 350 07:42 21.06.2020
983 Clouds 15 1021 87 10000 5.7 350 07:23 21.06.2020
984 Clouds 16 1020 87 10000 6.2 360 06:50 21.06.2020
985 Clouds 15 1020 87 10000 6.2 360 06:28 21.06.2020
986 Clouds 15 1020 93 10000 4.6 350 05:57 21.06.2020
987 Rain 15 1020 93 10000 6.2 350 04:36 21.06.2020
988 Clouds 16 1020 87 10000 5.1 340 03:19 21.06.2020
989 Clouds 15 1019 87 10000 7.2 340 02:36 21.06.2020
990 Clouds 15 1019 87 10000 5.1 340 01:39 21.06.2020
991 Clouds 15 1019 87 10000 5.1 340 01:19 21.06.2020
992 Clouds 14 1019 93 10000 4.6 340 00:45 21.06.2020
993 Clouds 14 1019 93 10000 4.6 340 00:25 21.06.2020
994 Rain 15 1019 93 10000 3.6 350 23:45 20.06.2020
995 Rain 15 1019 93 10000 3.6 350 23:22 20.06.2020
996 Rain 15 1018 93 10000 3.1 340 22:57 20.06.2020
997 Rain 15 1018 93 10000 3.1 340 22:39 20.06.2020
998 Rain 15 1018 93 10000 3.1 340 22:20 20.06.2020
999 Clouds 15 1018 87 10000 2.6 320 21:58 20.06.2020
1000 Clouds 15 1018 87 10000 2.6 320 21:40 20.06.2020
1001 Clouds 15 1018 87 10000 2.6 320 21:21 20.06.2020
1002 Clouds 15 1018 93 10000 2.6 10 20:58 20.06.2020
1003 Clouds 15 1018 93 10000 2.6 10 20:40 20.06.2020
1004 Clouds 16 1018 93 10000 2.6 10 20:20 20.06.2020
1005 Clouds 16 1018 87 10000 3.1 330 19:58 20.06.2020
1006 Clouds 16 1018 87 10000 3.1 330 19:39 20.06.2020
1007 Clouds 16 1018 87 10000 3.1 330 19:20 20.06.2020
1008 Clouds 17 1017 87 10000 3.6 300 18:43 20.06.2020
1009 Clouds 17 1017 87 10000 3.6 300 18:21 20.06.2020
1010 Clouds 17 1017 82 10000 4.6 300 17:57 20.06.2020
1011 Clouds 17 1017 82 10000 4.6 300 17:39 20.06.2020
1012 Clouds 17 1017 82 10000 4.6 300 17:39 20.06.2020
1013 Clouds 17 1017 82 10000 4.6 300 17:20 20.06.2020
1014 Clouds 17 1017 82 10000 4.6 300 17:20 20.06.2020
1015 Clouds 18 1017 88 10000 5.7 300 16:42 20.06.2020
1016 Clouds 18 1017 88 10000 5.7 300 16:19 20.06.2020
1017 Clouds 18 1017 77 10000 5.1 320 15:58 20.06.2020
1018 Clouds 18 1017 77 10000 5.1 320 15:40 20.06.2020
1019 Clouds 18 1017 77 10000 5.1 320 15:18 20.06.2020
1020 Clouds 19 1017 88 10000 5.1 320 14:43 20.06.2020
1021 Clouds 18 1017 88 10000 5.1 320 14:21 20.06.2020
1022 Clouds 19 1018 82 10000 4.1 310 13:46 20.06.2020
1023 Clouds 19 1018 82 10000 4.1 310 13:27 20.06.2020
1024 Clouds 19 1019 77 10000 5.1 320 12:59 20.06.2020
1025 Clouds 19 1019 77 10000 5.1 320 12:40 20.06.2020
1026 Clouds 18 1019 77 10000 5.1 320 12:20 20.06.2020
1027 Clouds 18 1020 88 10000 4.1 40 11:57 20.06.2020
1028 Clouds 18 1020 88 10000 4.1 40 11:37 20.06.2020
1029 Clouds 18 1020 88 10000 4.1 40 11:19 20.06.2020
1030 Clouds 17 1019 93 10000 4.1 50 10:47 20.06.2020
1031 Clouds 16 1019 93 10000 3.1 40 10:22 20.06.2020
1032 Clouds 16 1019 93 10000 3.1 40 09:56 20.06.2020
1033 Clouds 15 1019 93 10000 3.1 40 09:38 20.06.2020
1034 Clouds 15 1019 93 10000 3.1 40 09:20 20.06.2020
1035 Clouds 15 1019 93 10000 2.1 50 08:46 20.06.2020
1036 Clouds 15 1019 93 10000 2.1 50 08:27 20.06.2020
1037 Clouds 15 1019 93 10000 3.1 40 07:52 20.06.2020
1038 Clouds 15 1019 87 10000 2.1 40 07:28 20.06.2020
1039 Clouds 15 1018 93 8000 2.1 20 06:58 20.06.2020
1040 Clouds 15 1018 93 8000 2.1 20 06:23 20.06.2020
1041 Clouds 15 1018 93 8000 3.6 40 05:53 20.06.2020
1042 Rain 15 1018 93 8000 1.5 10 04:58 20.06.2020
1043 Clouds 15 1018 87 10000 2.1 280 02:50 20.06.2020
1044 Clouds 15 1018 87 10000 3.1 320 01:48 20.06.2020
1045 Clouds 15 1018 87 10000 3.1 320 01:22 20.06.2020
1046 Clear 16 1018 87 10000 2.6 20 00:22 20.06.2020
1047 Clouds 16 1018 87 10000 1.5 0 23:58 19.06.2020
1048 Clouds 16 1018 87 10000 1.5 0 23:38 19.06.2020
1049 Clouds 16 1018 87 10000 1.5 0 23:18 19.06.2020
1050 Clear 17 1019 76 0 2.34 352 22:41 19.06.2020
1051 Clouds 17 1018 82 10000 3.1 340 22:23 19.06.2020
1052 Clear 17 1018 77 10000 0.5 0 21:59 19.06.2020
1053 Clear 18 1018 77 10000 0.5 0 21:38 19.06.2020
1054 Clear 18 1018 77 10000 0.5 0 21:18 19.06.2020
1055 Clear 18 1017 68 10000 4.6 310 20:59 19.06.2020
1056 Clear 18 1017 68 10000 4.6 310 20:40 19.06.2020
1057 Clear 18 1017 68 10000 4.6 310 20:21 19.06.2020
1058 Clear 18 1016 59 10000 1.5 0 19:57 19.06.2020
1059 Clear 18 1016 59 10000 1.5 0 19:39 19.06.2020
1060 Clear 19 1016 59 10000 1.5 0 19:21 19.06.2020
1061 Clear 19 1016 48 10000 6.7 330 18:55 19.06.2020
1062 Clear 20 1016 48 10000 6.7 330 18:37 19.06.2020
1063 Clear 20 1016 48 10000 6.7 330 18:37 19.06.2020
1064 Clear 20 1016 48 10000 6.7 330 18:37 19.06.2020
1065 Clear 20 1016 48 10000 6.7 330 18:19 19.06.2020
1066 Clear 21 1016 55 10000 8.2 320 17:40 19.06.2020
1067 Clear 21 1016 55 10000 8.2 320 17:22 19.06.2020
1068 Clear 22 1016 43 10000 7.2 320 16:57 19.06.2020
1069 Clear 22 1016 43 10000 7.2 320 16:37 19.06.2020
1070 Clear 22 1016 43 10000 7.2 320 16:19 19.06.2020
1071 Clear 25 1016 27 10000 9.8 320 15:43 19.06.2020
1072 Clear 25 1016 27 10000 9.8 320 15:25 19.06.2020
1073 Clear 26 1017 24 10000 8.7 350 14:56 19.06.2020
1074 Clear 27 1017 24 10000 8.7 350 14:38 19.06.2020
1075 Clear 27 1017 24 10000 8.7 350 14:20 19.06.2020
1076 Clear 27 1017 26 10000 7.7 350 13:55 19.06.2020
1077 Clear 27 1017 29 10000 7.2 350 13:37 19.06.2020
1078 Clear 26 1017 29 10000 5.7 10 13:18 19.06.2020
1079 Clear 26 1017 29 10000 5.7 10 12:40 19.06.2020
1080 Clear 25 1017 29 10000 5.7 10 12:18 19.06.2020
1081 Clear 24 1018 31 10000 3.6 360 11:40 19.06.2020
1082 Clear 24 1018 31 10000 3.6 360 11:19 19.06.2020
1083 Clear 21 1018 35 10000 4.6 40 10:59 19.06.2020
1084 Clear 21 1018 35 10000 4.6 40 10:41 19.06.2020
1085 Clear 21 1018 35 10000 4.6 40 10:41 19.06.2020
1086 Clear 22 1018 35 10000 4.6 40 10:19 19.06.2020
1087 Clear 19 1018 42 10000 4.6 50 09:44 19.06.2020
1088 Clear 17 1018 42 10000 4.6 50 09:25 19.06.2020
1089 Clear 15 1019 47 10000 2.1 180 08:58 19.06.2020
1090 Clear 16 1019 47 10000 2.1 180 08:38 19.06.2020
1091 Clear 15 1019 47 10000 2.1 180 08:20 19.06.2020
1092 Clear 16 1018 42 10000 2.1 250 07:41 19.06.2020
1093 Clear 17 1018 42 10000 2.1 250 07:21 19.06.2020
1094 Clear 18 1018 30 10000 8.2 10 06:45 19.06.2020
1095 Clear 18 1018 30 10000 8.2 10 06:21 19.06.2020
1096 Clear 19 1018 32 10000 8.2 20 05:28 19.06.2020
1097 Clear 17 1019 42 10000 3.1 10 03:37 19.06.2020
1098 Clear 17 1019 39 10000 4.1 10 02:19 19.06.2020
1099 Clear 16 1019 44 10000 1.5 0 00:44 19.06.2020
1100 Clear 16 1019 44 10000 1.5 0 00:44 19.06.2020
1101 Clear 16 1019 44 10000 1.5 0 00:22 19.06.2020
1102 Clear 16 1020 48 10000 4.6 40 23:57 18.06.2020
1103 Clear 16 1020 48 10000 4.6 40 23:39 18.06.2020
1104 Clear 16 1020 48 10000 4.6 40 23:20 18.06.2020
1105 Clear 16 1020 58 10000 4.1 40 22:41 18.06.2020
1106 Clear 15 1020 58 10000 4.6 40 22:20 18.06.2020
1107 Clear 15 1020 58 10000 4.6 40 21:56 18.06.2020
1108 Clear 16 1020 58 10000 4.6 40 21:37 18.06.2020
1109 Clear 16 1020 58 10000 4.6 40 21:19 18.06.2020
1110 Clear 15 1020 62 10000 4.1 60 20:41 18.06.2020
1111 Clear 15 1020 62 10000 4.1 60 20:21 18.06.2020
1112 Clear 17 1020 48 10000 3.1 40 19:57 18.06.2020
1113 Clear 17 1020 48 10000 3.1 40 19:39 18.06.2020
1114 Clear 17 1020 48 10000 3.1 40 19:19 18.06.2020
1115 Clear 17 1020 48 10000 3.1 40 19:19 18.06.2020
1116 Clear 19 1020 40 10000 2.1 20 18:41 18.06.2020
1117 Clear 21 1020 40 10000 2.1 20 18:22 18.06.2020
1118 Clear 21 1020 31 10000 3.1 40 17:55 18.06.2020
1119 Clear 21 1020 31 10000 3.1 40 17:37 18.06.2020
1120 Clear 23 1020 31 10000 3.1 40 17:19 18.06.2020
1121 Clear 23 1020 29 10000 5.1 10 16:43 18.06.2020
1122 Clear 23 1020 29 10000 5.1 10 16:25 18.06.2020
1123 Clear 24 1021 27 10000 5.7 20 15:58 18.06.2020
1124 Clear 24 1021 27 10000 5.7 20 15:39 18.06.2020
1125 Clear 24 1021 27 10000 5.7 20 15:20 18.06.2020
1126 Clear 24 1021 29 10000 4.6 20 14:57 18.06.2020
1127 Clear 24 1021 29 10000 4.6 20 14:38 18.06.2020
1128 Clear 25 1021 29 10000 4.6 20 14:20 18.06.2020
1129 Clear 25 1022 29 10000 4.6 10 13:48 18.06.2020
1130 Clear 25 1022 29 10000 4.6 10 13:29 18.06.2020
1131 Clear 24 1023 30 10000 4.1 30 12:58 18.06.2020
1132 Clear 23 1023 30 10000 4.1 30 12:40 18.06.2020
1133 Clear 23 1023 30 10000 4.1 30 12:40 18.06.2020
1134 Clear 22 1023 30 10000 4.1 30 12:20 18.06.2020
1135 Clear 20 1024 34 10000 4.1 20 11:57 18.06.2020
1136 Clear 20 1024 34 10000 4.1 20 11:38 18.06.2020
1137 Clear 20 1024 34 10000 4.1 20 11:19 18.06.2020
1138 Clear 20 1024 39 10000 3.6 10 10:40 18.06.2020
1139 Clear 18 1024 48 10000 2.1 40 10:19 18.06.2020
1140 Clear 16 1024 51 10000 2.1 350 09:47 18.06.2020
1141 Clear 13 1024 58 10000 1 0 09:27 18.06.2020
1142 Clear 12 1024 58 10000 2.6 320 08:58 18.06.2020
1143 Clear 11 1024 58 10000 2.6 320 08:38 18.06.2020
1144 Clear 13 1024 58 10000 2.6 320 08:20 18.06.2020
1145 Clear 10 1023 61 10000 2.1 30 07:45 18.06.2020
1146 Clear 10 1023 61 10000 2.1 30 07:26 18.06.2020
1147 Clear 9 1023 70 10000 3.6 50 06:54 18.06.2020
1148 Clear 9 1023 75 10000 1.5 40 05:40 18.06.2020
1149 Clear 10 1023 75 10000 3.1 70 04:21 18.06.2020
1150 Clouds 10 1024 70 10000 1 150 02:37 18.06.2020
1151 Clouds 11 1024 76 10000 2.1 70 01:27 18.06.2020
1152 Clouds 10 1025 76 10000 1.5 60 00:54 18.06.2020
1153 Clouds 9 1025 76 10000 1.5 60 00:32 18.06.2020
1154 Clouds 9 1025 76 10000 1.5 0 23:57 17.06.2020
1155 Clouds 10 1025 76 10000 1.5 0 23:38 17.06.2020
1156 Clouds 10 1025 76 10000 1.5 0 23:20 17.06.2020
1157 Clouds 10 1025 81 10000 2.1 50 22:57 17.06.2020
1158 Clouds 10 1025 81 10000 2.1 50 22:37 17.06.2020
1159 Clouds 10 1025 81 10000 2.1 50 22:19 17.06.2020
1160 Clouds 11 1025 76 10000 1.5 60 21:42 17.06.2020
1161 Clouds 11 1025 76 10000 1.5 60 21:23 17.06.2020
1162 Clear 11 1025 81 10000 0.5 0 20:59 17.06.2020
1163 Clear 12 1025 81 10000 0.5 0 20:38 17.06.2020
1164 Clear 12 1025 81 10000 0.5 0 20:19 17.06.2020
1165 Clear 14 1025 71 10000 0.5 0 19:46 17.06.2020
1166 Clear 14 1025 71 10000 0.5 0 19:46 17.06.2020
1167 Clear 16 1025 45 10000 2.1 180 19:23 17.06.2020
1168 Clear 16 1025 45 10000 2.1 180 18:59 17.06.2020
1169 Clear 17 1025 45 10000 2.1 180 18:40 17.06.2020
1170 Clear 17 1025 45 10000 2.1 180 18:22 17.06.2020
1171 Clear 19 1025 39 10000 2.6 160 17:44 17.06.2020
1172 Clear 19 1025 39 10000 2.6 160 17:22 17.06.2020
1173 Clear 22 1025 31 10000 3.1 170 16:57 17.06.2020
1174 Clear 22 1025 31 10000 3.1 170 16:38 17.06.2020
1175 Clear 21 1025 31 10000 3.1 170 16:20 17.06.2020
1176 Clear 22 1025 23 10000 1.5 0 15:56 17.06.2020
1177 Clear 23 1025 23 10000 1.5 0 15:38 17.06.2020
1178 Clear 24 1025 23 10000 1.5 0 15:18 17.06.2020
1179 Clear 24 1025 22 10000 2.1 50 14:57 17.06.2020
1180 Clear 24 1025 22 10000 2.1 50 14:38 17.06.2020
1181 Clear 23 1026 27 10000 2.6 20 14:19 17.06.2020
1182 Clear 23 1026 27 10000 2.6 20 13:42 17.06.2020
1183 Clear 22 1027 24 10000 3.1 30 13:22 17.06.2020
1184 Clear 22 1027 24 10000 3.1 30 12:59 17.06.2020
1185 Clear 23 1027 24 10000 3.1 30 12:40 17.06.2020
1186 Clear 22 1027 24 10000 3.1 30 12:21 17.06.2020
1187 Clear 21 1027 40 10000 1.5 0 11:45 17.06.2020
1188 Clear 20 1027 40 10000 1.5 0 11:26 17.06.2020
1189 Clear 18 1027 59 10000 1 0 10:59 17.06.2020
1190 Clear 17 1027 62 10000 1 0 10:38 17.06.2020
1191 Clear 15 1027 62 10000 1 0 10:19 17.06.2020
1192 Clear 15 1027 62 10000 1 0 10:19 17.06.2020
1193 Clear 14 1027 66 10000 1 100 09:55 17.06.2020
1194 Clear 12 1027 66 10000 2.1 80 09:37 17.06.2020
1195 Clear 12 1027 66 10000 2.1 80 09:18 17.06.2020
1196 Clear 10 1027 70 10000 4.6 40 08:44 17.06.2020
1197 Clear 9 1027 70 10000 4.6 40 08:20 17.06.2020
1198 Clear 9 1027 76 10000 2.1 60 07:55 17.06.2020
1199 Clear 8 1027 93 10000 2.6 60 07:37 17.06.2020
1200 Clear 8 1027 93 10000 2.6 60 07:18 17.06.2020
1201 Clear 9 1027 87 10000 1.5 0 06:41 17.06.2020
1202 Clear 8 1027 87 10000 1.5 0 06:22 17.06.2020
1203 Clear 9 1027 87 10000 1.5 70 05:56 17.06.2020
1204 Clear 9 1027 93 10000 1.5 80 04:39 17.06.2020
1205 Clear 9 1028 93 10000 1.5 0 02:44 17.06.2020
1206 Clear 9 1028 93 10000 2.6 70 01:20 17.06.2020
1207 Clear 9 1028 93 10000 2.6 50 00:37 17.06.2020
1208 Clear 9 1028 93 10000 2.6 50 00:18 17.06.2020
1209 Clear 10 1029 93 10000 1.5 70 23:41 16.06.2020
1210 Clear 10 1029 93 10000 1.5 70 23:23 16.06.2020
1211 Clear 11 1029 93 10000 1.5 90 22:58 16.06.2020
1212 Clear 11 1029 93 10000 1.5 90 22:39 16.06.2020
1213 Clear 11 1029 93 10000 1.5 90 22:19 16.06.2020
1214 Clear 12 1029 87 10000 0.5 0 21:58 16.06.2020
1215 Clear 12 1029 87 10000 0.5 0 21:40 16.06.2020
1216 Clear 12 1029 87 10000 0.5 0 21:22 16.06.2020
1217 Clear 12 1029 93 10000 2.6 210 20:57 16.06.2020
1218 Clear 13 1029 93 10000 2.6 210 20:39 16.06.2020
1219 Clear 13 1029 93 10000 2.6 210 20:18 16.06.2020
1220 Clear 14 1029 71 10000 1 0 19:56 16.06.2020
1221 Clear 14 1029 71 10000 1 0 19:37 16.06.2020
1222 Clear 14 1029 71 10000 1 0 19:18 16.06.2020
1223 Clear 14 1028 67 10000 2.6 140 18:41 16.06.2020
1224 Clear 15 1028 67 10000 2.6 140 18:21 16.06.2020
1225 Clear 16 1028 55 10000 3.6 160 17:58 16.06.2020
1226 Clear 17 1028 55 10000 3.6 160 17:38 16.06.2020
1227 Clear 17 1028 55 10000 3.6 160 17:20 16.06.2020
1228 Clear 20 1028 32 10000 3.1 180 16:58 16.06.2020
1229 Clear 18 1028 32 10000 3.1 180 16:39 16.06.2020
1230 Clear 19 1028 32 10000 3.1 180 16:19 16.06.2020
1231 Clear 19 1028 32 10000 3.1 180 16:19 16.06.2020
1232 Clear 20 1028 33 10000 2.6 180 15:56 16.06.2020
1233 Clear 20 1028 33 10000 2.6 180 15:56 16.06.2020
1234 Clear 20 1028 33 10000 2.6 180 15:56 16.06.2020
1235 Clear 20 1028 33 10000 2.6 180 15:38 16.06.2020
1236 Clear 21 1028 33 10000 2.6 180 15:20 16.06.2020
1237 Clear 21 1029 35 10000 1.5 210 14:55 16.06.2020
1238 Clear 21 1029 35 10000 1.5 210 14:36 16.06.2020
1239 Clear 21 1029 35 10000 1.5 210 14:18 16.06.2020
1240 Clear 21 1030 37 10000 1.5 0 13:44 16.06.2020
1241 Clear 21 1030 37 10000 1.5 0 13:24 16.06.2020
1242 Clear 21 1030 37 10000 1.5 0 13:24 16.06.2020
1243 Clear 19 1031 45 10000 0.5 0 12:42 16.06.2020
1244 Clear 19 1031 45 10000 0.5 0 12:22 16.06.2020
1245 Clear 19 1031 48 10000 1 0 11:57 16.06.2020
1246 Clear 18 1031 59 10000 2.1 190 11:39 16.06.2020
1247 Clear 17 1031 59 10000 2.1 190 11:21 16.06.2020
1248 Clear 17 1031 63 10000 0.5 0 10:58 16.06.2020
1249 Clear 16 1031 87 10000 1.5 30 10:38 16.06.2020
1250 Clear 15 1031 87 10000 1.5 30 10:20 16.06.2020
1251 Clear 11 1031 93 10000 1 0 09:44 16.06.2020
1252 Clear 10 1030 93 10000 1.5 30 09:22 16.06.2020
1253 Fog 9 1030 93 2500 1.5 30 08:53 16.06.2020
1254 Fog 7 1030 93 1500 1 60 08:32 16.06.2020
1255 Clear 7 1030 93 10000 1 60 07:52 16.06.2020
1256 Clear 7 1030 93 10000 1 60 07:30 16.06.2020
1257 Clear 7 1030 93 10000 1 60 06:57 16.06.2020
1258 Clear 7 1030 93 10000 1 60 06:34 16.06.2020
1259 Clear 7 1030 100 10000 1 40 05:52 16.06.2020
1260 Clear 7 1030 93 10000 1 340 04:55 16.06.2020
1261 Clear 8 1030 93 10000 1 0 03:56 16.06.2020
1262 Clear 8 1030 93 10000 1.5 0 02:46 16.06.2020
1263 Clear 10 1030 87 10000 1 0 01:34 16.06.2020
1264 Clear 11 1031 93 10000 1 0 00:57 16.06.2020
1265 Clear 11 1031 93 10000 1 0 00:25 16.06.2020
1266 Clear 11 1031 87 10000 1.5 0 23:56 15.06.2020
1267 Clear 12 1031 87 10000 1.5 0 23:38 15.06.2020
1268 Clear 12 1031 87 10000 1.5 0 23:19 15.06.2020
1269 Clear 12 1031 87 10000 2.1 250 22:42 15.06.2020
1270 Clear 12 1031 87 10000 2.1 250 22:22 15.06.2020
1271 Clear 13 1031 82 10000 2.1 200 21:58 15.06.2020
1272 Clear 13 1031 82 10000 2.1 200 21:38 15.06.2020
1273 Clear 13 1031 82 10000 2.1 200 21:20 15.06.2020
1274 Clear 13 1030 82 10000 3.6 170 20:58 15.06.2020
1275 Clear 13 1030 82 10000 3.6 170 20:39 15.06.2020
1276 Clear 13 1030 82 10000 3.6 170 20:19 15.06.2020
1277 Clear 14 1030 76 10000 4.6 150 19:57 15.06.2020
1278 Clear 14 1030 76 10000 4.6 150 19:39 15.06.2020
1279 Clear 14 1030 76 10000 4.6 150 19:21 15.06.2020
1280 Clouds 15 1029 72 10000 3.1 190 18:57 15.06.2020
1281 Clouds 15 1029 72 10000 3.1 190 18:39 15.06.2020
1282 Clouds 15 1029 72 10000 3.1 190 18:19 15.06.2020
1283 Clouds 16 1029 63 10000 2.6 140 17:56 15.06.2020
1284 Clouds 16 1029 63 10000 2.6 140 17:56 15.06.2020
1285 Clouds 16 1029 63 10000 2.6 140 17:37 15.06.2020
1286 Clouds 17 1029 63 10000 2.6 140 17:18 15.06.2020
1287 Clouds 17 1029 59 10000 6.2 180 16:41 15.06.2020
1288 Clouds 17 1029 59 10000 6.2 180 16:19 15.06.2020
1289 Clouds 17 1029 63 10000 6.2 190 15:57 15.06.2020
1290 Clouds 17 1029 63 10000 6.2 190 15:39 15.06.2020
1291 Clouds 17 1029 63 10000 6.2 190 15:19 15.06.2020
1292 Clouds 18 1029 59 10000 6.2 160 14:55 15.06.2020
1293 Clouds 18 1029 59 10000 6.2 160 14:36 15.06.2020
1294 Clouds 18 1030 63 10000 6.7 160 14:18 15.06.2020
1295 Clouds 18 1030 63 10000 6.7 160 13:42 15.06.2020
1296 Clouds 18 1030 63 10000 6.7 160 13:24 15.06.2020
1297 Clouds 18 1031 63 10000 7.7 150 12:58 15.06.2020
1298 Clouds 18 1031 63 10000 7.7 150 12:39 15.06.2020
1299 Clouds 18 1031 63 10000 7.7 150 12:21 15.06.2020
1300 Clouds 17 1030 67 10000 6.2 170 11:45 15.06.2020
1301 Clouds 17 1030 67 10000 6.2 170 11:26 15.06.2020
1302 Clouds 17 1030 67 10000 6.2 170 11:26 15.06.2020
1303 Clouds 16 1030 87 10000 4.1 130 10:57 15.06.2020
1304 Clouds 16 1030 87 10000 4.1 130 10:38 15.06.2020
1305 Clouds 15 1030 87 10000 4.1 130 10:19 15.06.2020
1306 Clouds 15 1030 87 10000 4.1 130 10:19 15.06.2020
1307 Clouds 13 1030 93 10000 2.6 160 09:42 15.06.2020
1308 Clouds 12 1030 93 10000 2.6 160 09:22 15.06.2020
1309 Fog 12 1030 100 900 3.6 80 08:43 15.06.2020
1310 Fog 11 1030 100 900 3.6 80 08:25 15.06.2020
1311 Fog 11 1029 100 200 1 0 07:51 15.06.2020
1312 Clouds 11 1029 100 10000 1 0 07:33 15.06.2020
1313 Fog 11 1029 100 2000 0.5 0 06:57 15.06.2020
1314 Clear 12 1029 93 10000 1 240 06:27 15.06.2020
1315 Rain 11 1028 100 4000 0.5 0 05:50 15.06.2020
1316 Rain 10 1028 100 4000 0.5 0 05:28 15.06.2020
1317 Clouds 11 1028 93 7000 1.5 150 04:22 15.06.2020
1318 Clouds 11 1028 93 7000 1.5 150 03:48 15.06.2020
1319 Clouds 11 1028 93 7000 1.5 150 03:48 15.06.2020
1320 Clouds 12 1028 93 10000 0.5 0 02:56 15.06.2020
1321 Rain 12 1028 93 10000 0.5 0 02:24 15.06.2020
1322 Rain 12 1028 93 10000 1 0 01:41 15.06.2020
1323 Rain 12 1028 93 10000 1 0 01:23 15.06.2020
1324 Rain 13 1027 93 10000 2.1 30 00:43 15.06.2020
1325 Rain 13 1027 93 10000 2.1 30 00:23 15.06.2020
1326 Clouds 13 1027 100 10000 2.1 30 23:57 14.06.2020
1327 Clouds 13 1027 100 10000 2.1 30 23:39 14.06.2020
1328 Clouds 13 1027 100 10000 2.1 30 23:20 14.06.2020
1329 Rain 13 1027 93 8000 3.6 20 22:56 14.06.2020
1330 Rain 13 1027 93 8000 3.6 20 22:37 14.06.2020
1331 Rain 14 1027 93 8000 3.6 20 22:18 14.06.2020
1332 Rain 14 1027 93 10000 3.1 20 21:55 14.06.2020
1333 Rain 14 1027 93 10000 3.1 20 21:37 14.06.2020
1334 Rain 14 1027 93 10000 5.1 20 21:18 14.06.2020
1335 Rain 14 1027 93 10000 3.1 20 21:18 14.06.2020
1336 Rain 14 1027 93 10000 5.1 20 20:55 14.06.2020
1337 Clouds 14 1027 93 10000 5.1 20 20:36 14.06.2020
1338 Clouds 14 1027 93 10000 5.1 20 20:18 14.06.2020
1339 Rain 14 1027 93 7000 3.1 30 19:55 14.06.2020
1340 Rain 14 1027 93 7000 3.1 30 19:37 14.06.2020
1341 Rain 14 1027 93 7000 3.1 30 19:18 14.06.2020
1342 Rain 15 1026 87 10000 2.6 360 18:55 14.06.2020
1343 Rain 15 1026 87 10000 2.6 360 18:37 14.06.2020
1344 Rain 15 1026 87 10000 2.6 360 18:18 14.06.2020
1345 Clouds 15 1026 82 10000 4.1 350 17:40 14.06.2020
1346 Clouds 16 1026 87 10000 6.2 350 17:20 14.06.2020
1347 Clouds 16 1026 87 10000 6.2 350 16:59 14.06.2020
1348 Clouds 16 1026 87 10000 6.2 350 16:40 14.06.2020
1349 Clouds 16 1026 87 10000 6.2 350 16:20 14.06.2020
1350 Clouds 16 1026 87 10000 6.7 350 15:57 14.06.2020
1351 Clouds 16 1026 82 10000 5.7 300 15:37 14.06.2020
1352 Clouds 16 1026 82 10000 5.7 300 15:18 14.06.2020
1353 Clouds 17 1026 67 10000 6.2 310 14:41 14.06.2020
1354 Clouds 17 1026 67 10000 6.2 310 14:23 14.06.2020
1355 Clouds 18 1027 63 10000 5.1 320 13:59 14.06.2020
1356 Clouds 18 1027 63 10000 5.1 320 13:41 14.06.2020
1357 Clouds 18 1027 63 10000 5.1 320 13:22 14.06.2020
1358 Clouds 16 1027 72 10000 3.6 10 12:57 14.06.2020
1359 Clouds 17 1027 72 10000 3.6 10 12:39 14.06.2020
1360 Clouds 17 1027 72 10000 3.6 10 12:39 14.06.2020
1361 Clouds 16 1027 72 10000 3.6 10 12:21 14.06.2020
1362 Clouds 16 1028 67 10000 3.1 20 11:58 14.06.2020
1363 Clouds 16 1027 71 10000 4.1 50 11:38 14.06.2020
1364 Clouds 15 1027 71 10000 4.1 50 11:20 14.06.2020
1365 Clouds 16 1027 71 10000 3.6 40 10:42 14.06.2020
1366 Clouds 14 1027 71 10000 3.6 40 10:21 14.06.2020
1367 Clouds 12 1027 87 10000 3.1 40 09:58 14.06.2020
1368 Clouds 12 1027 87 10000 3.1 40 09:40 14.06.2020
1369 Clouds 12 1027 87 10000 3.1 40 09:21 14.06.2020
1370 Clouds 11 1027 81 10000 3.6 40 08:42 14.06.2020
1371 Clouds 11 1027 81 10000 3.6 40 08:22 14.06.2020
1372 Clouds 11 1027 81 10000 2.1 40 07:52 14.06.2020
1373 Clouds 11 1027 81 10000 2.1 40 07:34 14.06.2020
1374 Clouds 11 1027 81 10000 1.5 30 06:51 14.06.2020
1375 Clouds 11 1027 76 10000 4.6 30 05:51 14.06.2020
1376 Clouds 11 1027 76 10000 4.6 30 05:22 14.06.2020
1377 Clouds 10 1027 87 10000 4.1 50 04:37 14.06.2020
1378 Clouds 10 1027 81 10000 3.1 50 03:45 14.06.2020
1379 Clouds 10 1027 81 10000 3.6 40 02:35 14.06.2020
1380 Clouds 10 1028 87 10000 4.1 60 01:54 14.06.2020
1381 Clouds 10 1028 87 10000 4.1 60 01:26 14.06.2020
1382 Clouds 10 1028 87 10000 3.6 50 00:47 14.06.2020
1383 Clouds 9 1028 87 10000 3.6 50 00:20 14.06.2020
1384 Clouds 10 1028 81 10000 4.1 50 23:46 13.06.2020
1385 Clouds 10 1028 81 10000 4.1 50 23:26 13.06.2020
1386 Clear 11 1028 81 10000 3.6 30 22:58 13.06.2020
1387 Clear 11 1028 81 10000 3.6 30 22:38 13.06.2020
1388 Clear 11 1028 81 10000 3.6 30 22:19 13.06.2020
1389 Clouds 11 1028 76 10000 2.6 10 21:57 13.06.2020
1390 Clouds 11 1028 76 10000 2.6 10 21:39 13.06.2020
1391 Clouds 11 1028 76 10000 2.6 10 21:21 13.06.2020
1392 Clouds 11 1028 87 10000 3.6 330 20:44 13.06.2020
1393 Clouds 11 1028 87 10000 3.6 330 20:20 13.06.2020
1394 Clouds 12 1028 76 10000 3.1 360 19:58 13.06.2020
1395 Clouds 12 1028 76 10000 3.1 360 19:38 13.06.2020
1396 Clouds 12 1028 76 10000 3.1 360 19:19 13.06.2020
1397 Clouds 13 1028 76 10000 3.6 320 18:57 13.06.2020
1398 Clouds 13 1028 76 10000 3.6 320 18:38 13.06.2020
1399 Clouds 13 1028 76 10000 3.6 320 18:19 13.06.2020
1400 Clouds 14 1028 67 10000 3.6 300 17:55 13.06.2020
1401 Clouds 15 1028 67 10000 3.6 300 17:37 13.06.2020
1402 Clouds 15 1028 67 10000 3.6 300 17:19 13.06.2020
1403 Clouds 16 1028 63 10000 5.1 310 16:41 13.06.2020
1404 Clouds 16 1028 63 10000 5.1 310 16:20 13.06.2020
1405 Clouds 16 1028 63 10000 5.1 310 15:59 13.06.2020
1406 Clouds 16 1028 63 10000 5.1 310 15:41 13.06.2020
1407 Clouds 16 1028 63 10000 5.1 310 15:21 13.06.2020
1408 Clouds 16 1029 63 10000 5.7 290 14:44 13.06.2020
1409 Clouds 16 1029 63 10000 5.7 290 14:23 13.06.2020
1410 Clouds 16 1029 63 10000 4.6 350 13:57 13.06.2020
1411 Clouds 17 1029 63 10000 4.6 350 13:37 13.06.2020
1412 Clouds 16 1029 63 10000 4.6 350 13:18 13.06.2020
1413 Clouds 16 1030 63 10000 6.2 340 12:43 13.06.2020
1414 Clouds 16 1030 63 10000 6.2 340 12:25 13.06.2020
1415 Clouds 14 1031 67 10000 5.7 30 11:57 13.06.2020
1416 Clouds 14 1031 67 10000 5.7 30 11:37 13.06.2020
1417 Clouds 14 1031 67 10000 5.7 30 11:19 13.06.2020
1418 Clouds 14 1031 71 10000 5.7 20 10:54 13.06.2020
1419 Clouds 14 1031 71 10000 5.7 20 10:36 13.06.2020
1420 Clouds 14 1031 71 10000 5.7 20 10:18 13.06.2020
1421 Clouds 12 1031 81 10000 4.1 30 09:42 13.06.2020
1422 Clouds 11 1031 81 10000 4.1 30 09:20 13.06.2020
1423 Clouds 10 1031 81 10000 4.1 20 08:46 13.06.2020
1424 Clouds 10 1031 81 10000 4.1 20 08:27 13.06.2020
1425 Clouds 10 1031 87 10000 4.6 30 07:45 13.06.2020
1426 Clouds 10 1031 87 10000 4.6 30 07:27 13.06.2020
1427 Clouds 10 1031 87 10000 4.6 30 07:27 13.06.2020
1428 Clouds 10 1031 87 10000 4.1 20 06:47 13.06.2020
1429 Clouds 10 1031 87 10000 4.1 20 06:27 13.06.2020
1430 Clouds 10 1031 87 10000 6.7 10 05:36 13.06.2020
1431 Clouds 10 1031 87 10000 5.1 40 04:59 13.06.2020
1432 Clouds 10 1031 87 10000 6.2 20 03:46 13.06.2020
1433 Clouds 11 1032 87 10000 5.1 30 02:53 13.06.2020
1434 Clouds 11 1032 87 10000 5.1 30 02:29 13.06.2020
1435 Clouds 11 1032 93 10000 5.1 20 01:37 13.06.2020
1436 Clouds 11 1032 93 10000 4.6 30 01:18 13.06.2020
1437 Clouds 11 1032 93 10000 4.6 30 00:39 13.06.2020
1438 Rain 11 1032 93 10000 4.6 30 00:21 13.06.2020
1439 Rain 11 1032 93 10000 3.1 10 23:41 12.06.2020
1440 Rain 11 1032 87 10000 4.1 20 23:19 12.06.2020
1441 Clouds 11 1032 87 10000 4.1 20 22:56 12.06.2020
1442 Rain 11 1032 87 10000 4.1 20 22:38 12.06.2020
1443 Rain 11 1032 87 10000 4.1 20 22:18 12.06.2020
1444 Rain 12 1032 87 10000 3.6 30 21:44 12.06.2020
1445 Rain 12 1032 87 10000 3.6 30 21:24 12.06.2020
1446 Clouds 12 1032 81 10000 2.6 30 20:58 12.06.2020
1447 Clouds 12 1032 81 10000 2.6 30 20:39 12.06.2020
1448 Rain 12 1032 81 10000 2.6 30 20:21 12.06.2020
1449 Rain 12 1031 81 10000 3.1 30 19:47 12.06.2020
1450 Clouds 12 1031 81 10000 3.1 30 19:22 12.06.2020
1451 Clouds 12 1031 81 10000 3.1 20 18:59 12.06.2020
1452 Clouds 13 1031 81 10000 3.1 20 18:37 12.06.2020
1453 Clouds 13 1031 81 10000 3.1 20 18:37 12.06.2020
1454 Clouds 13 1031 81 10000 3.1 20 18:18 12.06.2020
1455 Clouds 14 1031 71 10000 3.6 350 17:45 12.06.2020
1456 Clouds 14 1031 71 10000 3.6 350 17:26 12.06.2020
1457 Clouds 14 1031 67 10000 4.1 320 16:58 12.06.2020
1458 Clouds 14 1031 67 10000 4.1 320 16:40 12.06.2020
1459 Clouds 15 1031 67 10000 4.1 320 16:19 12.06.2020
1460 Clouds 14 1031 71 10000 5.1 350 15:43 12.06.2020
1461 Clouds 14 1031 71 10000 5.1 350 15:19 12.06.2020
1462 Rain 12 1032 81 10000 5.1 10 14:43 12.06.2020
1463 Rain 12 1032 81 10000 5.1 10 14:23 12.06.2020
1464 Rain 13 1033 76 10000 4.6 20 13:59 12.06.2020
1465 Rain 13 1033 76 10000 4.6 20 13:40 12.06.2020
1466 Rain 13 1033 76 10000 4.6 20 13:19 12.06.2020
1467 Rain 14 1033 71 10000 5.1 30 12:40 12.06.2020
1468 Rain 14 1033 71 10000 5.1 30 12:19 12.06.2020
1469 Rain 13 1033 76 10000 6.7 30 11:56 12.06.2020
1470 Rain 13 1033 76 10000 6.7 30 11:37 12.06.2020
1471 Clouds 13 1033 76 10000 6.7 30 11:19 12.06.2020
1472 Clouds 12 1033 76 10000 6.7 20 10:43 12.06.2020
1473 Clouds 11 1033 76 10000 6.7 20 10:23 12.06.2020
1474 Clouds 10 1032 87 10000 5.7 30 09:44 12.06.2020
1475 Clouds 9 1032 87 10000 5.7 30 09:21 12.06.2020
1476 Clouds 8 1031 87 10000 5.1 30 08:44 12.06.2020
1477 Clouds 8 1031 87 10000 5.1 30 08:24 12.06.2020
1478 Clouds 8 1031 93 10000 5.7 30 07:44 12.06.2020
1479 Clouds 8 1031 93 10000 5.7 30 07:25 12.06.2020
1480 Clouds 7 1031 93 10000 5.1 20 06:55 12.06.2020
1481 Clouds 7 1031 93 10000 5.1 20 06:26 12.06.2020
1482 Clouds 7 1030 93 10000 5.7 40 05:50 12.06.2020
1483 Clouds 7 1030 93 10000 5.7 40 05:29 12.06.2020
1484 Clouds 7 1030 87 10000 4.6 30 04:55 12.06.2020
1485 Clouds 7 1030 93 10000 4.6 30 03:20 12.06.2020
1486 Clouds 7 1029 100 10000 4.1 40 01:53 12.06.2020
1487 Clouds 7 1029 100 10000 4.1 40 01:26 12.06.2020
1488 Clouds 8 1029 93 10000 4.6 40 00:43 12.06.2020
1489 Clouds 8 1029 93 10000 4.6 40 00:24 12.06.2020
1490 Clouds 8 1028 87 10000 4.6 20 23:59 11.06.2020
1491 Clouds 8 1028 87 10000 4.6 20 23:41 11.06.2020
1492 Clouds 8 1028 87 10000 4.6 20 23:21 11.06.2020
1493 Clouds 8 1027 93 10000 4.6 30 22:59 11.06.2020
1494 Clouds 8 1027 93 10000 4.6 30 22:39 11.06.2020
1495 Clouds 8 1027 93 10000 4.6 30 22:20 11.06.2020
1496 Clouds 8 1027 93 10000 3.1 60 21:56 11.06.2020
1497 Clouds 8 1027 93 10000 3.1 60 21:38 11.06.2020
1498 Clouds 8 1027 93 10000 3.1 60 21:20 11.06.2020
1499 Clouds 9 1025 87 10000 3.6 30 20:45 11.06.2020
1500 Clouds 9 1025 87 10000 3.6 30 20:21 11.06.2020
1501 Clouds 9 1025 87 10000 3.1 40 19:55 11.06.2020
1502 Rain 9 1024 87 10000 1 0 19:36 11.06.2020
1503 Rain 9 1024 87 10000 1 0 19:18 11.06.2020
1504 Rain 10 1024 81 3600 2.1 250 18:41 11.06.2020
1505 Rain 10 1024 81 3600 2.1 250 18:22 11.06.2020
1506 Clouds 10 1023 81 10000 3.1 280 17:57 11.06.2020
1507 Clouds 10 1023 81 10000 3.1 280 17:38 11.06.2020
1508 Clouds 10 1023 81 10000 3.1 280 17:19 11.06.2020
1509 Clouds 11 1022 71 10000 3.1 280 16:56 11.06.2020
1510 Rain 10 1022 71 10000 3.1 280 16:38 11.06.2020
1511 Rain 11 1022 71 10000 3.1 280 16:19 11.06.2020
1512 Rain 11 1020 81 10000 4.1 250 15:42 11.06.2020
1513 Rain 11 1020 81 10000 4.1 250 15:24 11.06.2020
1514 Rain 10 1020 76 10000 6.2 240 14:56 11.06.2020
1515 Rain 10 1020 76 10000 6.2 240 14:56 11.06.2020
1516 Clouds 10 1020 81 10000 3.1 310 14:38 11.06.2020
1517 Clouds 10 1020 81 10000 3.1 310 14:20 11.06.2020
1518 Rain 10 1020 87 10000 2.1 260 13:55 11.06.2020
1519 Rain 10 1020 87 10000 2.1 260 13:37 11.06.2020
1520 Rain 10 1020 87 10000 2.1 260 13:18 11.06.2020
1521 Clouds 10 1019 81 10000 3.1 230 12:54 11.06.2020
1522 Clouds 9 1019 81 10000 3.1 230 12:36 11.06.2020
1523 Clouds 9 1019 81 10000 3.1 230 12:18 11.06.2020
1524 Rain 10 1019 87 5000 2.6 350 11:56 11.06.2020
1525 Rain 10 1018 87 6000 4.1 330 11:37 11.06.2020
1526 Rain 9 1018 87 6000 4.1 330 11:18 11.06.2020
1527 Clouds 10 1017 87 10000 1.5 0 10:42 11.06.2020
1528 Rain 10 1017 87 10000 1.5 0 10:20 11.06.2020
1529 Rain 9 1017 93 7000 3.1 290 09:45 11.06.2020
1530 Rain 9 1017 93 7000 3.1 290 09:45 11.06.2020
1531 Rain 8 1016 93 10000 2.6 340 09:26 11.06.2020
1532 Rain 8 1015 87 10000 3.1 270 08:55 11.06.2020
1533 Rain 8 1015 87 10000 3.1 270 08:37 11.06.2020
1534 Rain 8 1015 87 10000 3.1 270 08:18 11.06.2020
1535 Rain 9 1014 93 10000 2.6 220 07:42 11.06.2020
1536 Rain 9 1014 93 10000 2.6 220 07:23 11.06.2020
1537 Rain 9 1012 81 10000 2.6 310 06:35 11.06.2020
1538 Rain 9 1012 81 10000 3.6 280 05:57 11.06.2020
1539 Rain 10 1010 71 10000 5.1 290 04:49 11.06.2020
1540 Clouds 10 1011 71 10000 3.6 240 03:25 11.06.2020
1541 Rain 11 1010 54 10000 5.7 280 02:49 11.06.2020
1542 Rain 11 1010 66 10000 4.6 260 01:57 11.06.2020
1543 Clouds 11 1010 66 10000 4.6 260 01:35 11.06.2020
1544 Rain 11 1010 57 10000 4.1 280 00:59 11.06.2020
1545 Rain 11 1010 57 10000 4.1 280 00:39 11.06.2020
1546 Rain 11 1010 57 10000 4.1 280 00:20 11.06.2020
1547 Clouds 11 1010 66 10000 4.1 280 23:43 10.06.2020
1548 Rain 11 1010 66 10000 4.1 280 23:23 10.06.2020
1549 Rain 11 1010 66 10000 7.7 260 22:55 10.06.2020
1550 Rain 11 1010 66 10000 7.7 260 22:37 10.06.2020
1551 Rain 11 1010 66 10000 7.7 260 22:18 10.06.2020
1552 Clouds 11 1009 66 10000 8.2 280 21:55 10.06.2020
1553 Rain 12 1009 66 10000 8.2 280 21:37 10.06.2020
1554 Rain 12 1009 66 10000 8.2 280 21:18 10.06.2020
1555 Rain 12 1008 76 10000 6.7 270 20:55 10.06.2020
1556 Clouds 12 1008 76 10000 6.7 270 20:37 10.06.2020
1557 Clouds 12 1008 76 10000 6.7 270 20:18 10.06.2020
1558 Rain 12 1008 71 10000 7.2 260 19:38 10.06.2020
1559 Rain 12 1008 71 10000 7.2 260 19:18 10.06.2020
1560 Rain 12 1007 71 10000 11.8 260 18:56 10.06.2020
1561 Rain 12 1007 76 10000 2.6 270 18:37 10.06.2020
1562 Rain 13 1007 76 10000 2.6 270 18:19 10.06.2020
1563 Rain 13 1006 76 10000 5.7 270 17:54 10.06.2020
1564 Rain 13 1006 71 5000 6.2 280 17:36 10.06.2020
1565 Rain 13 1006 71 9000 10.3 260 17:18 10.06.2020
1566 Rain 14 1005 67 9000 6.7 270 16:41 10.06.2020
1567 Rain 14 1005 67 9000 6.7 270 16:22 10.06.2020
1568 Rain 14 1005 67 9000 6.7 270 16:22 10.06.2020
1569 Rain 15 1005 58 10000 7.7 280 15:59 10.06.2020
1570 Rain 15 1005 58 10000 7.7 280 15:39 10.06.2020
1571 Rain 15 1005 58 10000 7.7 280 15:20 10.06.2020
1572 Rain 15 1004 63 10000 11.3 290 14:55 10.06.2020
1573 Rain 15 1004 63 10000 11.3 290 14:37 10.06.2020
1574 Clouds 16 1004 63 10000 9.8 300 14:19 10.06.2020
1575 Clouds 16 1004 67 10000 9.8 290 13:39 10.06.2020
1576 Clouds 16 1004 67 10000 9.8 290 13:21 10.06.2020
1577 Rain 16 1004 77 10000 9.8 310 12:43 10.06.2020
1578 Rain 15 1004 77 10000 9.8 310 12:20 10.06.2020
1579 Clouds 15 1004 87 10000 9.8 350 11:56 10.06.2020
1580 Clouds 14 1004 87 10000 9.8 350 11:38 10.06.2020
1581 Clouds 14 1004 87 10000 9.8 350 11:19 10.06.2020
1582 Rain 14 1004 87 4000 10.8 340 11:19 10.06.2020
1583 Rain 13 1004 87 4000 10.8 340 10:55 10.06.2020
1584 Rain 13 1003 87 10000 9.3 340 10:36 10.06.2020
1585 Rain 13 1003 87 10000 9.3 340 10:18 10.06.2020
1586 Rain 13 1003 93 4000 10.3 350 09:40 10.06.2020
1587 Rain 13 1003 93 4000 10.3 350 09:22 10.06.2020
1588 Rain 13 1003 93 10000 10.3 350 08:44 10.06.2020
1589 Rain 13 1003 93 10000 10.3 350 08:23 10.06.2020
1590 Rain 13 1003 93 6000 9.3 340 07:57 10.06.2020
1591 Rain 13 1003 93 5000 11.8 330 07:38 10.06.2020
1592 Rain 13 1003 93 5000 11.8 330 07:18 10.06.2020
1593 Rain 14 1003 87 3000 12.9 360 06:44 10.06.2020
1594 Rain 14 1003 87 3000 12.9 360 06:22 10.06.2020
1595 Rain 14 1004 87 10000 11.3 10 05:55 10.06.2020
1596 Clouds 14 1004 87 10000 11.3 10 05:23 10.06.2020
1597 Rain 14 1006 93 5000 7.7 350 04:34 10.06.2020
1598 Rain 15 1007 87 7000 10.3 360 02:55 10.06.2020
1599 Rain 15 1007 87 7000 10.3 360 02:20 10.06.2020
1600 Clouds 15 1007 87 10000 10.8 360 01:36 10.06.2020
1601 Clouds 15 1008 82 10000 8.2 10 00:39 10.06.2020
1602 Clouds 15 1008 82 10000 8.2 10 00:21 10.06.2020
1603 Clouds 15 1008 87 10000 7.2 20 23:56 09.06.2020
1604 Clouds 15 1008 87 10000 7.2 20 23:38 09.06.2020
1605 Clouds 15 1008 87 10000 7.2 20 23:19 09.06.2020
1606 Clouds 15 1009 87 10000 5.1 10 22:55 09.06.2020
1607 Clouds 15 1009 87 10000 5.1 10 22:37 09.06.2020
1608 Clouds 15 1009 87 10000 5.1 10 22:19 09.06.2020
1609 Clouds 16 1009 87 10000 4.6 40 21:56 09.06.2020
1610 Clouds 16 1009 87 10000 4.6 40 21:37 09.06.2020
1611 Clouds 16 1009 87 10000 4.6 40 21:19 09.06.2020
1612 Clouds 16 1010 87 10000 3.1 10 20:56 09.06.2020
1613 Clouds 16 1010 87 10000 3.1 10 20:38 09.06.2020
1614 Clouds 16 1010 87 10000 3.1 10 20:18 09.06.2020
1615 Clouds 16 1010 93 10000 3.1 360 19:55 09.06.2020
1616 Clouds 16 1010 93 10000 3.1 360 19:37 09.06.2020
1617 Clouds 16 1010 93 10000 3.1 360 19:18 09.06.2020
1618 Rain 17 1011 82 0 0.89 338 18:45 09.06.2020
1619 Clouds 17 1009 82 10000 4.6 340 18:26 09.06.2020
1620 Clouds 17 1009 77 10000 5.7 330 17:58 09.06.2020
1621 Clouds 17 1009 77 10000 5.7 330 17:40 09.06.2020
1622 Clouds 18 1009 77 10000 5.7 330 17:22 09.06.2020
1623 Clouds 19 1008 77 10000 5.7 330 16:57 09.06.2020
1624 Clouds 19 1008 77 10000 5.7 330 16:39 09.06.2020
1625 Clouds 19 1008 77 10000 5.7 330 16:20 09.06.2020
1626 Clear 20 1008 64 10000 4.6 320 15:40 09.06.2020
1627 Clear 21 1008 64 10000 4.6 320 15:22 09.06.2020
1628 Clear 21 1008 64 10000 4.6 320 15:22 09.06.2020
1629 Clear 21 1008 56 10000 3.6 350 14:59 09.06.2020
1630 Clouds 20 1008 72 10000 3.6 360 14:39 09.06.2020
1631 Clouds 20 1008 72 10000 3.6 360 14:19 09.06.2020
1632 Clouds 20 1008 68 10000 1 0 13:55 09.06.2020
1633 Clouds 20 1008 68 10000 1 0 13:37 09.06.2020
1634 Clouds 19 1008 82 10000 2.1 40 13:19 09.06.2020
1635 Clouds 18 1008 82 10000 2.1 40 12:42 09.06.2020
1636 Clouds 17 1008 82 10000 2.1 40 12:20 09.06.2020
1637 Clouds 16 1008 87 10000 2.1 50 11:58 09.06.2020
1638 Clouds 16 1008 87 10000 2.1 50 11:40 09.06.2020
1639 Clouds 16 1008 87 10000 2.1 50 11:20 09.06.2020
1640 Clouds 15 1009 93 10000 0.5 0 10:55 09.06.2020
1641 Clouds 15 1009 93 10000 0.5 0 10:55 09.06.2020
1642 Clouds 15 1009 93 10000 0.5 0 10:36 09.06.2020
1643 Clouds 14 1009 93 10000 0.5 0 10:18 09.06.2020
1644 Clouds 13 1009 93 10000 2.6 50 09:41 09.06.2020
1645 Clouds 12 1009 93 10000 2.6 50 09:22 09.06.2020
1646 Clouds 12 1009 93 10000 1.5 0 08:55 09.06.2020
1647 Clouds 11 1009 93 10000 1.5 0 08:37 09.06.2020
1648 Clouds 11 1009 93 10000 1.5 0 08:19 09.06.2020
1649 Clouds 11 1008 93 10000 2.1 50 07:37 09.06.2020
1650 Clouds 11 1008 93 10000 2.1 50 07:19 09.06.2020
1651 Clouds 12 1009 87 10000 1 0 06:52 09.06.2020
1652 Clouds 12 1009 87 10000 1 0 06:33 09.06.2020
1653 Clouds 11 1010 93 10000 1.5 0 05:23 09.06.2020
1654 Clouds 11 1011 87 10000 3.1 120 02:56 09.06.2020
1655 Clouds 10 1012 87 10000 2.1 110 01:41 09.06.2020
1656 Clouds 10 1012 87 10000 2.1 110 01:19 09.06.2020
1657 Clouds 11 1012 87 10000 2.1 350 00:45 09.06.2020
1658 Clouds 11 1012 87 10000 2.1 350 00:20 09.06.2020
1659 Clouds 11 1013 87 10000 2.1 360 23:55 08.06.2020
1660 Clear 11 1013 87 10000 2.1 360 23:37 08.06.2020
1661 Clear 11 1013 87 10000 2.1 360 23:19 08.06.2020
1662 Clear 11 1013 87 10000 2.6 330 22:41 08.06.2020
1663 Clear 11 1013 87 10000 2.6 330 22:22 08.06.2020
1664 Clear 12 1013 87 10000 2.6 290 21:58 08.06.2020
1665 Clear 12 1013 87 10000 2.6 290 21:58 08.06.2020
1666 Clear 12 1013 87 10000 2.6 290 21:40 08.06.2020
1667 Clear 12 1013 87 10000 2.6 290 21:21 08.06.2020
1668 Clear 13 1014 87 10000 2.1 350 20:57 08.06.2020
1669 Clear 13 1014 87 10000 2.1 350 20:39 08.06.2020
1670 Clouds 14 1014 87 10000 2.1 350 20:20 08.06.2020
1671 Clouds 14 1014 87 10000 2.1 350 20:20 08.06.2020
1672 Clouds 13 1014 87 10000 2.1 360 19:55 08.06.2020
1673 Clouds 13 1014 87 10000 2.1 360 19:37 08.06.2020
1674 Clouds 14 1014 93 10000 3.6 330 19:18 08.06.2020
1675 Clouds 14 1014 93 10000 3.6 330 18:40 08.06.2020
1676 Clouds 15 1014 93 10000 3.6 330 18:18 08.06.2020
1677 Clouds 16 1014 82 10000 2.1 330 17:55 08.06.2020
1678 Clouds 15 1014 82 10000 2.1 330 17:37 08.06.2020
1679 Clouds 16 1014 82 10000 2.1 330 17:19 08.06.2020
1680 Clouds 16 1014 82 10000 3.6 310 16:45 08.06.2020
1681 Clouds 17 1014 82 10000 3.6 310 16:25 08.06.2020
1682 Clouds 16 1014 87 10000 5.1 320 15:58 08.06.2020
1683 Clouds 16 1014 87 10000 5.1 320 15:40 08.06.2020
1684 Clouds 17 1014 87 10000 5.1 320 15:20 08.06.2020
1685 Clouds 19 1014 82 10000 5.7 330 14:42 08.06.2020
1686 Clouds 18 1014 82 10000 5.7 330 14:23 08.06.2020
1687 Clouds 20 1015 77 10000 6.2 310 13:57 08.06.2020
1688 Clouds 19 1015 77 10000 6.2 310 13:38 08.06.2020
1689 Clouds 18 1015 77 10000 6.2 310 13:19 08.06.2020
1690 Clouds 18 1016 72 10000 6.2 320 12:40 08.06.2020
1691 Clouds 18 1016 72 10000 6.2 320 12:19 08.06.2020
1692 Clouds 17 1016 82 10000 5.1 350 11:54 08.06.2020
1693 Clouds 17 1016 82 10000 5.1 350 11:36 08.06.2020
1694 Clear 16 1016 87 10000 4.6 330 11:18 08.06.2020
1695 Clear 16 1016 87 10000 4.6 330 10:55 08.06.2020
1696 Clear 16 1016 87 10000 4.6 330 10:37 08.06.2020
1697 Clear 15 1016 87 10000 4.6 330 10:18 08.06.2020
1698 Clear 13 1016 93 10000 4.6 340 09:43 08.06.2020
1699 Clear 13 1016 93 10000 4.6 340 09:23 08.06.2020
1700 Clear 11 1016 93 10000 4.1 350 08:49 08.06.2020
1701 Clear 11 1016 93 10000 4.1 350 08:23 08.06.2020
1702 Clear 10 1015 93 10000 3.1 330 07:56 08.06.2020
1703 Clear 10 1015 93 10000 3.1 330 07:37 08.06.2020
1704 Clear 10 1015 93 10000 3.1 330 07:18 08.06.2020
1705 Clear 9 1016 93 10000 2.6 310 06:38 08.06.2020
1706 Clear 12 1016 87 10000 4.6 30 05:54 08.06.2020
1707 Clear 12 1016 100 8000 4.6 30 04:36 08.06.2020
1708 Fog 12 1017 100 400 4.1 30 03:22 08.06.2020
1709 Mist 13 1017 93 3000 3.1 40 02:26 08.06.2020
1710 Fog 11 1017 93 100 1.5 30 01:42 08.06.2020
1711 Clear 13 1017 100 10000 0.5 0 00:57 08.06.2020
1712 Clear 13 1017 100 10000 0.5 0 00:24 08.06.2020
1713 Clear 15 1017 93 10000 2.6 230 23:38 07.06.2020
1714 Clear 15 1017 93 10000 2.6 230 23:19 07.06.2020
1715 Clear 15 1017 93 10000 3.6 230 22:57 07.06.2020
1716 Clear 15 1017 93 10000 3.6 230 22:37 07.06.2020
1717 Clear 15 1017 93 10000 3.6 230 22:18 07.06.2020
1718 Clear 15 1017 93 10000 3.6 220 21:58 07.06.2020
1719 Clear 15 1017 93 10000 3.6 220 21:36 07.06.2020
1720 Clear 15 1017 93 10000 3.6 220 21:18 07.06.2020
1721 Clear 15 1018 93 10000 2.6 220 20:39 07.06.2020
1722 Clear 15 1018 93 10000 2.6 220 20:21 07.06.2020
1723 Clear 15 1018 93 10000 2.1 190 19:57 07.06.2020
1724 Clear 15 1018 93 10000 2.1 190 19:39 07.06.2020
1725 Clear 15 1018 93 10000 2.1 190 19:20 07.06.2020
1726 Clouds 15 1018 82 10000 2.6 180 18:59 07.06.2020
1727 Clouds 15 1018 82 10000 2.6 180 18:38 07.06.2020
1728 Clouds 16 1018 82 10000 2.6 180 18:20 07.06.2020
1729 Clear 17 1018 72 10000 3.6 160 17:57 07.06.2020
1730 Clear 18 1018 72 10000 3.6 160 17:38 07.06.2020
1731 Clear 18 1018 72 10000 3.6 160 17:20 07.06.2020
1732 Clear 19 1018 60 10000 3.1 190 16:43 07.06.2020
1733 Clear 19 1018 60 10000 3.1 190 16:21 07.06.2020
1734 Clear 21 1018 52 10000 2.6 210 15:44 07.06.2020
1735 Clear 21 1018 52 10000 2.6 210 15:44 07.06.2020
1736 Clear 20 1018 52 10000 2.6 210 15:44 07.06.2020
1737 Clear 20 1018 52 10000 2.6 210 15:44 07.06.2020
1738 Clear 21 1018 52 10000 2.6 210 15:22 07.06.2020
1739 Clear 21 1018 52 10000 1 0 14:41 07.06.2020
1740 Clear 21 1018 52 10000 1 0 14:41 07.06.2020
1741 Clouds 21 1018 52 10000 1 0 14:22 07.06.2020
1742 Clouds 20 1019 68 10000 1 0 13:55 07.06.2020
1743 Clouds 20 1019 68 10000 1 0 13:23 07.06.2020
1744 Clouds 20 1020 77 10000 1 0 12:59 07.06.2020
1745 Clouds 20 1020 77 10000 1 0 12:40 07.06.2020
1746 Clouds 19 1020 77 10000 1 0 12:22 07.06.2020
1747 Clouds 19 1020 77 10000 1 0 12:22 07.06.2020
1748 Clouds 17 1020 93 10000 1.5 0 11:55 07.06.2020
1749 Clouds 18 1020 93 10000 1.5 0 11:37 07.06.2020
1750 Clouds 17 1020 100 6000 1 0 11:19 07.06.2020
1751 Clouds 17 1020 100 6000 1 0 11:19 07.06.2020
1752 Clouds 17 1020 100 6000 1 0 10:45 07.06.2020
1753 Mist 16 1020 100 3000 0.5 0 10:22 07.06.2020
1754 Fog 14 1020 93 500 1 60 09:59 07.06.2020
1755 Fog 12 1020 93 100 0.5 0 09:40 07.06.2020
1756 Fog 11 1020 93 100 0.5 0 09:21 07.06.2020
1757 Fog 9 1020 100 100 0.5 0 08:59 07.06.2020
1758 Fog 8 1019 100 300 1.5 90 08:40 07.06.2020
1759 Fog 8 1019 100 300 1.5 90 08:21 07.06.2020
1760 Fog 8 1019 100 900 2.1 70 07:41 07.06.2020
1761 Fog 8 1019 100 900 2.1 70 07:41 07.06.2020
1762 Fog 8 1019 100 900 2.1 70 07:41 07.06.2020
1763 Clouds 9 1019 93 10000 1.5 20 06:56 07.06.2020
1764 Clouds 9 1020 93 10000 1 30 05:57 07.06.2020
1765 Clouds 10 1020 100 10000 1.5 0 04:22 07.06.2020
1766 Clouds 10 1021 93 10000 1.5 60 03:50 07.06.2020
1767 Clouds 12 1020 93 10000 0.5 0 02:19 07.06.2020
1768 Clouds 13 1021 87 10000 1 0 01:39 07.06.2020
1769 Clouds 14 1021 87 10000 1 0 01:21 07.06.2020
1770 Clouds 14 1021 87 10000 1 0 00:39 07.06.2020
1771 Clouds 15 1021 87 10000 1 0 00:18 07.06.2020
1772 Clouds 16 1021 87 10000 3.6 230 23:38 06.06.2020
1773 Clouds 15 1021 87 10000 3.6 230 23:20 06.06.2020
1774 Clouds 15 1020 87 10000 2.6 250 22:58 06.06.2020
1775 Clouds 15 1020 87 10000 2.6 250 22:40 06.06.2020
1776 Clouds 15 1020 87 10000 2.6 250 22:20 06.06.2020
1777 Clouds 15 1021 82 10000 3.6 220 21:58 06.06.2020
1778 Clouds 15 1021 82 10000 3.6 220 21:39 06.06.2020
1779 Clear 15 1021 82 10000 3.6 220 21:20 06.06.2020
1780 Clear 15 1021 82 10000 3.1 200 20:41 06.06.2020
1781 Clear 15 1021 82 10000 3.1 200 20:21 06.06.2020
1782 Clear 15 1021 87 10000 2.6 200 19:58 06.06.2020
1783 Clear 15 1021 87 10000 2.6 200 19:40 06.06.2020
1784 Clear 15 1021 87 10000 2.6 200 19:22 06.06.2020
1785 Clear 16 1021 72 10000 3.1 170 18:57 06.06.2020
1786 Clear 16 1021 72 10000 3.1 170 18:39 06.06.2020
1787 Clear 17 1021 72 10000 3.1 170 18:20 06.06.2020
1788 Clear 19 1021 55 10000 3.6 190 17:44 06.06.2020
1789 Clear 19 1021 55 10000 3.6 190 17:21 06.06.2020
1790 Clear 19 1021 55 10000 3.6 190 17:21 06.06.2020
1791 Clear 19 1021 52 10000 1.5 0 16:57 06.06.2020
1792 Clear 19 1021 52 10000 1.5 0 16:39 06.06.2020
1793 Clear 19 1021 52 10000 1.5 0 16:20 06.06.2020
1794 Clear 20 1021 52 10000 1.5 0 15:45 06.06.2020
1795 Clear 21 1021 52 10000 1.5 0 15:21 06.06.2020
1796 Clear 21 1022 56 10000 1.5 0 14:59 06.06.2020
1797 Clear 21 1022 56 10000 1.5 0 14:39 06.06.2020
1798 Clear 21 1022 56 10000 1.5 0 14:20 06.06.2020
1799 Clouds 19 1023 59 10000 2.1 70 13:49 06.06.2020
1800 Clouds 20 1023 59 10000 2.1 70 13:20 06.06.2020
1801 Clouds 20 1024 59 10000 2.1 270 12:59 06.06.2020
1802 Clouds 20 1024 59 10000 2.1 270 12:40 06.06.2020
1803 Clouds 19 1024 59 10000 2.1 270 12:21 06.06.2020
1804 Clouds 18 1024 72 10000 2.6 50 11:57 06.06.2020
1805 Clouds 19 1024 72 10000 2.6 50 11:38 06.06.2020
1806 Clouds 19 1024 72 10000 2.6 50 11:19 06.06.2020
1807 Clouds 17 1024 87 10000 2.1 40 10:57 06.06.2020
1808 Clouds 17 1024 87 10000 2.1 40 10:38 06.06.2020
1809 Clouds 17 1024 87 10000 2.1 40 10:20 06.06.2020
1810 Clouds 15 1024 93 10000 1.5 0 09:45 06.06.2020
1811 Clouds 15 1024 93 10000 1.5 0 09:27 06.06.2020
1812 Clouds 13 1023 93 10000 1 0 08:49 06.06.2020
1813 Clouds 13 1023 93 10000 1 0 08:25 06.06.2020
1814 Clouds 12 1023 100 10000 1 0 07:59 06.06.2020
1815 Clouds 12 1023 100 10000 1 0 07:40 06.06.2020
1816 Clouds 12 1023 100 10000 1 0 07:20 06.06.2020
1817 Mist 12 1023 100 3000 0.5 0 06:46 06.06.2020
1818 Mist 12 1023 100 3000 0.5 0 06:26 06.06.2020
1819 Clouds 12 1022 93 10000 2.1 50 05:44 06.06.2020
1820 Clouds 12 1022 93 10000 2.1 50 05:24 06.06.2020
1821 Clouds 11 1022 100 10000 1.5 0 04:24 06.06.2020
1822 Mist 12 1022 100 3000 1.5 340 02:36 06.06.2020
1823 Mist 12 1022 100 4000 2.1 50 01:41 06.06.2020
1824 Mist 12 1022 100 4000 2.1 50 01:18 06.06.2020
1825 Mist 13 1022 93 4000 1.5 20 00:41 06.06.2020
1826 Mist 13 1022 93 4000 1.5 20 00:22 06.06.2020
1827 Clouds 13 1022 93 10000 1.5 40 23:40 05.06.2020
1828 Clouds 13 1022 93 10000 1.5 40 23:21 05.06.2020
1829 -273 0 0 0 0 0 22:58 05.06.2020
1830 Clouds 14 1022 93 10000 1.5 0 22:40 05.06.2020
1831 Clouds 14 1022 93 10000 1.5 0 22:22 05.06.2020
1832 Clouds 14 1021 93 10000 2.6 340 21:55 05.06.2020
1833 Clouds 15 1021 93 10000 2.6 340 21:37 05.06.2020
1834 Clouds 15 1021 93 10000 2.6 340 21:18 05.06.2020
1835 Clouds 15 1021 93 10000 2.1 340 20:45 05.06.2020
1836 Clouds 15 1021 93 10000 2.1 340 20:23 05.06.2020
1837 Clouds 16 1021 87 10000 3.6 350 19:59 05.06.2020
1838 Clouds 16 1021 87 10000 3.6 350 19:39 05.06.2020
1839 Clouds 16 1021 87 10000 3.6 350 19:21 05.06.2020
1840 Clouds 16 1019 87 10000 3.6 350 18:40 05.06.2020
1841 Clouds 17 1019 87 10000 3.6 350 18:21 05.06.2020
1842 Clouds 17 1019 87 10000 3.6 350 18:21 05.06.2020
1843 Clouds 17 1019 82 10000 5.1 330 17:59 05.06.2020
1844 Clouds 18 1019 82 10000 5.1 330 17:41 05.06.2020
1845 Clouds 18 1019 82 10000 5.1 330 17:20 05.06.2020
1846 Clouds 19 1019 72 10000 5.1 320 16:57 05.06.2020
1847 Clouds 20 1019 72 10000 5.1 320 16:37 05.06.2020
1848 Clouds 20 1019 72 10000 5.1 320 16:19 05.06.2020
1849 Clouds 20 1019 72 10000 5.1 320 16:19 05.06.2020
1850 Clouds 20 1019 77 10000 5.7 320 15:39 05.06.2020
1851 Clouds 20 1019 77 10000 5.7 320 15:20 05.06.2020
1852 Clouds 20 1019 77 10000 5.7 320 14:58 05.06.2020
1853 Clouds 19 1019 77 10000 5.7 320 14:39 05.06.2020
1854 Clouds 19 1019 77 10000 5.7 320 14:21 05.06.2020
1855 Clouds 19 1019 77 10000 5.7 320 13:47 05.06.2020
1856 Clouds 20 1019 77 10000 5.7 320 13:28 05.06.2020
1857 Clouds 21 1020 77 10000 5.7 330 12:57 05.06.2020
1858 Clouds 20 1020 77 10000 5.7 330 12:38 05.06.2020
1859 Clouds 20 1020 77 10000 5.7 330 12:19 05.06.2020
1860 Clouds 20 1020 77 10000 6.2 340 11:43 05.06.2020
1861 Clouds 19 1020 77 10000 6.2 340 11:24 05.06.2020
1862 Clouds 18 1020 82 10000 6.2 340 10:58 05.06.2020
1863 Clouds 17 1020 87 10000 6.2 340 10:39 05.06.2020
1864 Clouds 17 1020 87 10000 6.2 340 10:19 05.06.2020
1865 Clouds 16 1019 82 10000 6.7 330 09:57 05.06.2020
1866 Clouds 15 1019 82 10000 5.1 330 09:37 05.06.2020
1867 Clouds 14 1019 82 10000 5.1 330 09:19 05.06.2020
1868 Clouds 13 1018 81 10000 3.6 10 08:57 05.06.2020
1869 Clouds 12 1018 81 10000 3.6 10 08:39 05.06.2020
1870 Clouds 12 1018 81 10000 3.6 10 08:18 05.06.2020
1871 Clouds 12 1018 81 10000 4.1 20 07:49 05.06.2020
1872 Clouds 12 1018 81 10000 4.1 20 07:31 05.06.2020
1873 Clouds 11 1017 87 10000 4.1 30 06:45 05.06.2020
1874 Clouds 10 1017 87 10000 3.1 40 05:23 05.06.2020
1875 Clouds 12 1017 76 10000 2.1 10 04:27 05.06.2020
1876 Clouds 9 1017 87 10000 0.5 0 03:29 05.06.2020
1877 Clouds 9 1017 87 10000 0.5 0 02:29 05.06.2020
1878 Clear 11 1017 87 10000 2.1 350 01:58 05.06.2020
1879 Clear 11 1017 87 10000 2.1 350 01:30 05.06.2020
1880 Clear 12 1017 93 7000 1 0 00:43 05.06.2020
1881 Clear 12 1017 93 7000 1 0 00:21 05.06.2020
1882 Clear 12 1017 93 7000 0.5 0 23:47 04.06.2020
1883 Clear 12 1017 93 7000 0.5 0 23:29 04.06.2020
1884 Clear 11 1017 93 6000 2.6 60 22:57 04.06.2020
1885 Clear 11 1017 93 6000 2.6 60 22:39 04.06.2020
1886 Clear 11 1017 93 6000 2.6 60 22:21 04.06.2020
1887 Clear 13 1017 93 10000 0.5 140 21:58 04.06.2020
1888 Clear 13 1017 93 10000 0.5 140 21:38 04.06.2020
1889 Clear 13 1017 93 10000 0.5 140 21:20 04.06.2020
1890 Clear 14 1016 87 10000 0.5 0 20:56 04.06.2020
1891 Clear 14 1016 87 10000 0.5 0 20:38 04.06.2020
1892 Clear 13 1016 87 10000 0.5 0 20:19 04.06.2020
1893 Clear 14 1016 82 10000 2.1 140 19:43 04.06.2020
1894 Clear 14 1016 82 10000 2.1 140 19:21 04.06.2020
1895 Clear 17 1016 67 10000 2.1 150 18:58 04.06.2020
1896 Clear 17 1016 67 10000 2.1 150 18:38 04.06.2020
1897 Clear 17 1016 67 10000 2.1 150 18:38 04.06.2020
1898 Clear 17 1016 67 10000 2.1 150 18:20 04.06.2020
1899 Clear 17 1016 67 10000 2.1 150 18:20 04.06.2020
1900 Clear 21 1016 52 10000 2.1 180 17:44 04.06.2020
1901 Clear 21 1016 52 10000 2.1 180 17:23 04.06.2020
1902 Clear 22 1016 40 10000 2.6 180 16:59 04.06.2020
1903 Clear 22 1016 40 10000 2.6 180 16:40 04.06.2020
1904 Clear 21 1016 40 10000 2.6 180 16:20 04.06.2020
1905 Clear 23 1015 47 10000 3.1 180 15:44 04.06.2020
1906 Clear 24 1015 47 10000 3.1 180 15:26 04.06.2020
1907 Clear 25 1016 38 10000 1 0 14:42 04.06.2020
1908 Clear 25 1016 38 10000 1 0 14:23 04.06.2020
1909 Clear 24 1016 43 10000 1.5 0 13:59 04.06.2020
1910 Clear 24 1016 43 10000 1.5 0 13:59 04.06.2020
1911 Clear 24 1016 43 10000 1.5 0 13:40 04.06.2020
1912 Clear 24 1016 43 10000 1.5 0 13:21 04.06.2020
1913 Clear 23 1017 52 10000 0.5 0 12:59 04.06.2020
1914 Clear 23 1017 52 10000 0.5 0 12:41 04.06.2020
1915 Clear 19 1018 63 10000 2.1 180 12:22 04.06.2020
1916 Clear 19 1018 63 10000 2.1 180 11:55 04.06.2020
1917 Clear 20 1018 63 10000 2.1 180 11:37 04.06.2020
1918 Clear 20 1018 63 10000 2.1 180 11:19 04.06.2020
1919 Clear 18 1018 93 10000 1 0 10:41 04.06.2020
1920 Clouds 17 1018 93 10000 1 0 10:23 04.06.2020
1921 Clouds 14 1018 100 10000 1 0 09:58 04.06.2020
1922 Clouds 13 1017 100 10000 1.5 70 09:40 04.06.2020
1923 Clouds 12 1017 100 10000 1.5 70 09:21 04.06.2020
1924 Clouds 9 1017 93 10000 1.5 160 08:44 04.06.2020
1925 Clouds 9 1017 93 10000 1.5 160 08:25 04.06.2020
1926 Clouds 9 1017 93 10000 1.5 60 07:47 04.06.2020
1927 Clouds 9 1017 93 10000 1.5 60 07:23 04.06.2020
1928 Clouds 9 1017 93 10000 1 0 06:42 04.06.2020
1929 Clouds 9 1017 93 10000 1 0 06:24 04.06.2020
1930 Clouds 10 1017 100 10000 1 170 05:34 04.06.2020
1931 Clouds 10 1018 93 10000 1 140 03:55 04.06.2020
1932 Clouds 10 1018 93 10000 1 140 03:23 04.06.2020
1933 Clouds 12 1018 93 10000 1 0 01:48 04.06.2020
1934 Clouds 12 1018 93 10000 1 0 01:19 04.06.2020
1935 Clouds 13 1020 93 0 0.45 248 00:40 04.06.2020
1936 Clouds 14 1019 87 10000 3.1 180 23:41 03.06.2020
1937 Clouds 14 1019 87 10000 3.1 180 23:20 03.06.2020
1938 Clouds 15 1019 77 10000 6.2 200 22:59 03.06.2020
1939 Clouds 15 1019 77 10000 6.2 200 22:39 03.06.2020
1940 Clouds 15 1019 77 10000 6.2 200 22:18 03.06.2020
1941 Clouds 15 1020 77 10000 6.7 180 21:57 03.06.2020
1942 Clouds 16 1020 77 10000 6.7 180 21:38 03.06.2020
1943 Clouds 16 1020 77 10000 6.7 180 21:20 03.06.2020
1944 Clouds 16 1020 82 10000 6.7 180 20:54 03.06.2020
1945 Clouds 16 1020 82 10000 6.7 180 20:36 03.06.2020
1946 Clouds 16 1020 82 10000 6.7 180 20:18 03.06.2020
1947 Clouds 16 1020 77 10000 5.1 190 19:54 03.06.2020
1948 Clouds 16 1020 77 10000 5.1 190 19:36 03.06.2020
1949 Clouds 16 1020 77 10000 5.1 190 19:18 03.06.2020
1950 Clouds 16 1020 77 10000 6.2 180 18:41 03.06.2020
1951 Clouds 16 1020 77 10000 6.2 180 18:21 03.06.2020
1952 Clouds 17 1021 68 10000 7.2 170 17:57 03.06.2020
1953 Clouds 17 1021 68 10000 7.2 170 17:37 03.06.2020
1954 Clouds 17 1021 68 10000 7.2 170 17:18 03.06.2020
1955 Clouds 17 1021 72 10000 8.2 180 16:42 03.06.2020
1956 Clouds 18 1021 72 10000 8.2 180 16:20 03.06.2020
1957 Clouds 18 1021 68 10000 8.7 180 15:58 03.06.2020
1958 Clouds 18 1021 68 10000 8.7 180 15:40 03.06.2020
1959 Clouds 19 1021 68 10000 8.7 180 15:20 03.06.2020
1960 Clouds 19 1021 63 10000 8.7 180 14:46 03.06.2020
1961 Clouds 18 1021 63 10000 8.7 180 14:24 03.06.2020
1962 Clouds 18 1022 68 10000 7.2 180 13:56 03.06.2020
1963 Clouds 18 1022 68 10000 7.2 180 13:38 03.06.2020
1964 Clouds 18 1022 68 10000 7.2 180 13:18 03.06.2020
1965 Clouds 18 1022 77 10000 5.7 180 12:42 03.06.2020
1966 Clouds 18 1022 77 10000 5.7 180 12:21 03.06.2020
1967 Clouds 18 1023 93 10000 3.6 170 11:45 03.06.2020
1968 Clouds 18 1023 93 10000 3.6 170 11:26 03.06.2020
1969 Clouds 18 1023 93 10000 3.6 190 10:56 03.06.2020
1970 Clouds 17 1023 93 10000 3.6 190 10:38 03.06.2020
1971 Clouds 16 1023 93 10000 3.6 190 10:20 03.06.2020
1972 Clouds 16 1022 93 10000 1 0 09:42 03.06.2020
1973 Clouds 15 1022 100 7000 1 200 09:20 03.06.2020
1974 Fog 15 1022 93 3000 0.5 0 08:48 03.06.2020
1975 Fog 15 1022 100 1500 0.5 240 08:25 03.06.2020
1976 Fog 15 1021 93 1000 1 0 07:58 03.06.2020
1977 Clouds 15 1021 93 10000 2.1 40 07:40 03.06.2020
1978 Clouds 15 1021 93 10000 2.1 40 07:19 03.06.2020
1979 Clouds 15 1021 100 10000 2.6 40 06:48 03.06.2020
1980 Clouds 15 1021 100 10000 2.6 40 06:29 03.06.2020
1981 Clouds 16 1021 100 8000 2.6 40 05:46 03.06.2020
1982 Rain 16 1021 100 5000 2.1 30 04:33 03.06.2020
1983 Rain 16 1021 93 8000 2.6 20 03:42 03.06.2020
1984 Rain 16 1021 87 8000 3.6 30 02:46 03.06.2020
1985 Clouds 15 1021 93 10000 3.6 50 01:48 03.06.2020
1986 Clouds 15 1021 93 10000 3.6 50 00:41 03.06.2020
1987 Clouds 15 1021 93 10000 3.6 50 00:23 03.06.2020
1988 Clouds 16 1021 93 10000 3.1 340 23:51 02.06.2020
1989 Clouds 16 1021 93 10000 3.1 340 23:27 02.06.2020
1990 Clouds 16 1021 87 10000 3.1 10 22:56 02.06.2020
1991 Clouds 16 1021 87 10000 3.1 10 22:37 02.06.2020
1992 Clouds 16 1021 87 10000 3.1 10 22:18 02.06.2020
1993 Clouds 16 1020 87 10000 2.6 60 21:56 02.06.2020
1994 Clouds 16 1020 87 10000 2.6 60 21:37 02.06.2020
1995 Clouds 16 1020 87 10000 2.6 60 21:19 02.06.2020
1996 Clouds 16 1020 87 10000 1 310 20:55 02.06.2020
1997 Clouds 16 1020 87 10000 1 310 20:36 02.06.2020
1998 Clouds 16 1020 87 10000 1 310 20:18 02.06.2020
1999 Clouds 16 1019 87 10000 2.6 360 19:41 02.06.2020
2000 Clouds 16 1019 87 10000 2.6 360 19:41 02.06.2020
2001 Clouds 16 1019 87 10000 2.6 360 19:23 02.06.2020
2002 Clouds 16 1019 87 10000 2.1 360 18:56 02.06.2020
2003 Clouds 16 1019 87 10000 2.1 360 18:38 02.06.2020
2004 Clouds 16 1019 87 10000 2.1 360 18:19 02.06.2020
2005 Clouds 17 1019 82 10000 5.1 330 17:42 02.06.2020
2006 Clouds 17 1019 82 10000 5.1 330 17:23 02.06.2020
2007 Clouds 18 1018 77 10000 6.7 320 16:57 02.06.2020
2008 Clouds 18 1018 77 10000 6.7 320 16:39 02.06.2020
2009 Clouds 18 1018 77 10000 6.7 320 16:20 02.06.2020
2010 Clouds 19 1019 77 10000 7.2 330 15:54 02.06.2020
2011 Clouds 19 1019 77 10000 7.2 330 15:36 02.06.2020
2012 Clouds 20 1019 77 10000 7.2 330 15:18 02.06.2020
2013 Clouds 19 1019 77 10000 7.7 340 14:42 02.06.2020
2014 Clouds 19 1019 77 10000 7.7 340 14:22 02.06.2020
2015 Clouds 19 1020 77 10000 6.2 330 13:54 02.06.2020
2016 Clouds 19 1020 77 10000 6.2 330 13:36 02.06.2020
2017 Clouds 19 1020 77 10000 6.2 330 13:18 02.06.2020
2018 Clouds 19 1020 82 10000 5.1 330 12:40 02.06.2020
2019 Clouds 19 1020 82 10000 5.1 330 12:21 02.06.2020
2020 Clouds 17 1021 93 10000 4.6 20 11:59 02.06.2020
2021 Clouds 17 1021 93 10000 4.6 20 11:39 02.06.2020
2022 Clouds 17 1021 93 9000 3.6 30 11:20 02.06.2020
2023 Clouds 16 1021 93 9000 3.6 30 10:48 02.06.2020
2024 Fog 15 1020 93 2000 4.1 40 10:28 02.06.2020
2025 Mist 14 1020 100 4000 2.6 40 09:58 02.06.2020
2026 Mist 14 1020 93 2000 3.6 30 09:39 02.06.2020
2027 Mist 14 1020 93 2000 3.6 30 09:20 02.06.2020
2028 Fog 13 1019 100 500 3.6 60 08:48 02.06.2020
2029 Fog 13 1019 100 500 3.6 60 08:22 02.06.2020
2030 Fog 12 1019 100 500 4.1 40 07:52 02.06.2020
2031 Fog 12 1019 100 500 4.1 40 07:26 02.06.2020
2032 Mist 13 1019 100 5000 1.5 0 06:47 02.06.2020
2033 Mist 14 1018 93 3000 3.6 10 06:24 02.06.2020
2034 Fog 12 1019 100 200 2.6 350 05:21 02.06.2020
2035 Mist 12 1019 93 5000 1.5 340 03:25 02.06.2020
2036 Mist 12 1019 93 5000 1.5 340 02:30 02.06.2020
2037 Fog 11 1019 100 800 2.1 30 01:33 02.06.2020
2038 Fog 12 1019 100 300 2.1 350 00:26 02.06.2020
2039 Fog 13 1019 100 800 2.1 350 23:58 01.06.2020
2040 Fog 13 1019 100 800 2.1 350 23:37 01.06.2020
2041 Fog 13 1019 100 800 2.1 350 23:18 01.06.2020
2042 Fog 13 1019 93 2000 0.5 0 22:54 01.06.2020
2043 Fog 12 1019 93 2000 0.5 0 22:36 01.06.2020
2044 Fog 12 1019 93 2000 0.5 0 22:18 01.06.2020
2045 Clouds 13 1019 93 10000 0.89 205 21:41 01.06.2020
2046 Clouds 13 1019 93 10000 0.91 153 21:20 01.06.2020
2047 Fog 13 1018 93 4000 0.5 130 20:58 01.06.2020
2048 Clouds 14 1018 100 10000 0.5 130 20:39 01.06.2020
2049 Clouds 14 1018 100 10000 0.5 130 20:19 01.06.2020
2050 Clouds 14 1018 93 10000 1.5 190 19:56 01.06.2020
2051 Clouds 15 1018 93 10000 1.5 190 19:38 01.06.2020
2052 Clouds 15 1018 93 10000 1.5 190 19:19 01.06.2020
2053 Clouds 16 1018 82 10000 2.1 170 18:55 01.06.2020
2054 Clouds 17 1018 82 10000 2.1 170 18:37 01.06.2020
2055 Clouds 17 1018 82 10000 2.1 170 18:18 01.06.2020
2056 Clouds 19 1018 68 10000 3.1 160 17:40 01.06.2020
2057 Clouds 18 1018 68 10000 3.1 160 17:20 01.06.2020
2058 Clouds 19 1019 64 10000 3.6 160 16:42 01.06.2020
2059 Clouds 19 1019 64 10000 3.6 160 16:42 01.06.2020
2060 Clouds 19 1019 64 10000 3.6 160 16:24 01.06.2020
2061 Clouds 20 1018 64 10000 4.1 170 15:59 01.06.2020
2062 Clouds 21 1018 64 10000 4.1 170 15:40 01.06.2020
2063 Clouds 22 1018 64 10000 4.1 170 15:21 01.06.2020
2064 Clouds 22 1019 53 10000 1.5 0 14:59 01.06.2020
2065 Clouds 22 1019 53 10000 1.5 0 14:41 01.06.2020
2066 Clouds 22 1019 53 10000 1.5 0 14:21 01.06.2020
2067 Clouds 22 1020 56 10000 0.5 0 13:55 01.06.2020
2068 Clouds 21 1020 56 10000 0.5 0 13:55 01.06.2020
2069 Clouds 22 1020 56 10000 0.5 0 13:37 01.06.2020
2070 Clouds 22 1020 56 10000 0.5 0 13:19 01.06.2020
2071 Clouds 21 1021 72 10000 1.5 0 12:57 01.06.2020
2072 Clouds 19 1021 72 10000 1.5 0 12:38 01.06.2020
2073 Clouds 19 1021 72 10000 1.5 0 12:20 01.06.2020
2074 Clouds 19 1022 93 10000 2.1 60 11:40 01.06.2020
2075 Clear 19 1022 93 10000 2.1 60 11:22 01.06.2020
2076 Clear 17 1022 93 9000 1.5 20 10:57 01.06.2020
2077 Clear 16 1022 100 8000 1 50 10:38 01.06.2020
2078 Clear 15 1022 100 8000 1 50 10:19 01.06.2020
2079 Clear 14 1022 100 8000 1 50 09:55 01.06.2020
2080 Mist 13 1022 100 4000 0.5 0 09:37 01.06.2020
2081 Mist 13 1022 100 4000 0.5 0 09:37 01.06.2020
2082 Mist 12 1022 100 4000 0.5 0 09:19 01.06.2020
2083 Fog 11 1022 100 1000 0.5 50 08:42 01.06.2020
2084 Fog 11 1022 100 1000 0.38 88 08:23 01.06.2020
2085 Mist 11 1022 100 2000 1 40 07:44 01.06.2020
2086 Mist 12 1022 100 2000 1 40 07:26 01.06.2020
2087 Fog 10 1021 100 500 1 0 06:52 01.06.2020
2088 Fog 10 1021 93 300 2.6 60 06:20 01.06.2020
2089 Fog 9 1021 100 300 1 30 05:50 01.06.2020
2090 Mist 10 1020 93 1200 2.1 50 04:23 01.06.2020
2091 Fog 11 1021 93 200 1 0 03:45 01.06.2020
2092 Fog 11 1021 93 200 1 0 03:18 01.06.2020
2093 Fog 11 1021 93 100 1 0 01:47 01.06.2020
2094 Fog 11 1021 93 100 1 0 01:28 01.06.2020
2095 Fog 11 1020 100 800 1 0 00:57 01.06.2020
2096 Fog 11 1020 100 800 1 0 00:39 01.06.2020
2097 Fog 11 1020 100 800 1 0 00:21 01.06.2020
2098 Fog 12 1020 93 800 1 320 23:55 31.05.2020
2099 Fog 12 1020 93 800 1 320 23:37 31.05.2020
2100 Fog 12 1020 93 800 1 320 23:19 31.05.2020
2101 Fog 12 1020 93 800 0.5 0 22:43 31.05.2020
2102 Fog 12 1020 93 800 0.5 0 22:43 31.05.2020
2103 Fog 12 1020 93 800 0.5 0 22:43 31.05.2020
2104 Fog 12 1020 93 800 0.5 0 22:25 31.05.2020
2105 Fog 12 1019 100 500 2.1 100 21:58 31.05.2020
2106 Fog 12 1020 93 2000 1.5 130 21:39 31.05.2020
2107 Fog 13 1020 93 2000 1.5 130 21:21 31.05.2020
2108 Fog 13 1020 93 2000 1.5 130 21:21 31.05.2020
2109 Mist 13 1019 93 2000 1.5 110 20:57 31.05.2020
2110 Mist 13 1019 93 4000 1 140 20:38 31.05.2020
2111 Mist 14 1019 93 4000 1 140 20:19 31.05.2020
2112 Clouds 14 1019 93 10000 2.1 110 19:54 31.05.2020
2113 Clouds 15 1019 93 10000 2.1 110 19:36 31.05.2020
2114 Clouds 15 1019 93 10000 2.1 110 19:18 31.05.2020
2115 Clouds 16 1018 82 10000 2.1 140 18:43 31.05.2020
2116 Clear 16 1018 82 10000 2.1 140 18:24 31.05.2020
2117 Clear 19 1018 72 10000 3.1 160 17:44 31.05.2020
2118 Clouds 19 1018 72 10000 3.1 160 17:24 31.05.2020
2119 Clouds 19 1018 72 10000 3.1 160 17:24 31.05.2020
2120 Clouds 20 1017 38 10000 2.6 310 16:58 31.05.2020
2121 Clouds 20 1017 38 10000 2.6 310 16:38 31.05.2020
2122 Clouds 21 1017 38 10000 2.6 310 16:18 31.05.2020
2123 Clouds 21 1017 60 10000 1 0 15:39 31.05.2020
2124 Clear 22 1017 60 10000 1 0 15:21 31.05.2020
2125 Clear 22 1018 64 10000 3.1 180 14:47 31.05.2020
2126 Clear 22 1018 64 10000 3.1 180 14:22 31.05.2020
2127 Clear 22 1018 53 10000 1 0 13:56 31.05.2020
2128 Clear 23 1018 53 10000 1 0 13:38 31.05.2020
2129 Clear 23 1018 53 10000 1 0 13:20 31.05.2020
2130 Clear 22 1018 68 10000 1 0 12:57 31.05.2020
2131 Clear 22 1018 68 10000 1 0 12:38 31.05.2020
2132 Clear 20 1018 68 10000 1 0 12:19 31.05.2020
2133 Clear 20 1018 68 10000 1 0 12:19 31.05.2020
2134 Clear 18 1019 72 10000 1.5 0 11:49 31.05.2020
2135 Clear 18 1019 72 10000 1.5 0 11:24 31.05.2020
2136 Clear 18 1019 77 10000 1 0 10:57 31.05.2020
2137 Clear 18 1019 87 10000 0.5 0 10:39 31.05.2020
2138 Clear 16 1019 87 10000 0.5 0 10:20 31.05.2020
2139 Clear 14 1019 87 10000 0.5 0 09:42 31.05.2020
2140 Clear 12 1019 87 10000 0.5 0 09:23 31.05.2020
2141 Clear 8 1018 93 10000 2.1 60 08:59 31.05.2020
2142 Clear 8 1018 93 10000 2.1 60 08:40 31.05.2020
2143 Clear 8 1018 93 10000 2.1 60 08:21 31.05.2020
2144 Clear 7 1018 93 10000 1.5 80 07:46 31.05.2020
2145 Clear 7 1018 93 10000 1.5 80 07:21 31.05.2020
2146 Clear 8 1017 93 10000 0.5 0 06:54 31.05.2020
2147 Clear 8 1017 93 10000 0.5 0 06:32 31.05.2020
2148 Clear 8 1017 100 10000 0.5 0 05:45 31.05.2020
2149 Clear 10 1017 93 8000 2.6 60 04:33 31.05.2020
2150 Clear 9 1017 93 8000 2.1 30 03:51 31.05.2020
2151 Mist 10 1017 93 2000 0.5 0 02:59 31.05.2020
2152 Fog 11 1017 93 100 2.6 60 01:50 31.05.2020
2153 Fog 11 1017 93 100 1 70 01:28 31.05.2020
2154 Fog 11 1017 93 100 1 70 00:31 31.05.2020
2155 Fog 11 1017 93 100 1 60 23:59 30.05.2020
2156 Fog 11 1017 93 100 1 60 23:41 30.05.2020
2157 Fog 11 1017 93 100 1 60 23:22 30.05.2020
2158 Fog 11 1017 93 100 1 30 22:42 30.05.2020
2159 Fog 11 1017 93 100 1 30 22:23 30.05.2020
2160 Fog 12 1018 93 3000 0.5 350 21:58 30.05.2020
2161 Fog 12 1018 93 3000 0.5 350 21:39 30.05.2020
2162 Fog 12 1018 93 3000 0.5 350 21:20 30.05.2020
2163 Clear 13 1017 93 10000 0.5 50 20:57 30.05.2020
2164 Clear 13 1017 93 10000 0.5 50 20:39 30.05.2020
2165 Clear 13 1017 93 10000 0.5 50 20:20 30.05.2020
2166 Clear 14 1017 93 10000 0.5 0 19:43 30.05.2020
2167 Clear 15 1017 93 10000 0.5 0 19:22 30.05.2020
2168 Clear 16 1017 82 10000 2.1 200 18:59 30.05.2020
2169 Clear 16 1017 82 10000 2.1 200 18:40 30.05.2020
2170 Clear 16 1017 82 10000 2.1 200 18:18 30.05.2020
2171 Clear 18 1017 68 10000 3.1 210 17:40 30.05.2020
2172 Clear 18 1017 68 10000 3.1 210 17:22 30.05.2020
2173 Clear 18 1017 63 10000 3.1 200 16:55 30.05.2020
2174 Clear 18 1017 63 10000 3.1 200 16:37 30.05.2020
2175 Clear 19 1017 63 10000 3.1 200 16:18 30.05.2020
2176 Clear 20 1018 59 10000 4.1 190 15:42 30.05.2020
2177 Clear 20 1018 59 10000 4.1 190 15:23 30.05.2020
2178 Clear 20 1018 59 10000 5.1 190 14:43 30.05.2020
2179 Clear 20 1018 59 10000 5.1 190 14:24 30.05.2020
2180 Clear 20 1019 59 10000 4.6 170 13:43 30.05.2020
2181 Clear 20 1019 59 10000 4.6 170 13:23 30.05.2020
2182 Clear 20 1020 59 10000 4.1 170 12:42 30.05.2020
2183 Clear 18 1020 59 10000 4.1 170 12:20 30.05.2020
2184 Clear 18 1020 68 10000 3.1 180 11:57 30.05.2020
2185 Clear 18 1020 68 10000 3.1 180 11:39 30.05.2020
2186 Clear 18 1020 68 10000 3.1 180 11:21 30.05.2020
2187 Clear 16 1020 93 10000 2.1 180 10:41 30.05.2020
2188 Clear 16 1020 93 10000 2.1 180 10:21 30.05.2020
2189 Clear 14 1020 93 8000 0.5 0 09:51 30.05.2020
2190 Clear 13 1020 93 8000 0.5 0 09:32 30.05.2020
2191 Fog 11 1020 93 6000 1 0 08:52 30.05.2020
2192 Fog 11 1020 93 6000 1 0 08:33 30.05.2020
2193 Clear 11 1020 93 8000 0.5 0 07:50 30.05.2020
2194 Clear 10 1020 93 8000 0.5 0 07:27 30.05.2020
2195 Clouds 10 1020 100 8000 2.1 90 06:59 30.05.2020
2196 Clouds 10 1020 100 8000 2.1 90 06:25 30.05.2020
2197 Clouds 11 1020 93 8000 0.5 0 05:49 30.05.2020
2198 Clouds 12 1020 93 8000 1 150 04:33 30.05.2020
2199 Clouds 13 1021 93 8000 2.1 40 02:34 30.05.2020
2200 Clouds 13 1021 93 8000 0.5 0 01:56 30.05.2020
2201 Clouds 14 1021 93 8000 1.49 129 00:44 30.05.2020
2202 Clouds 14 1021 93 8000 1.68 132 00:23 30.05.2020
2203 Clouds 14 1021 93 10000 0.5 140 23:59 29.05.2020
2204 Clouds 14 1021 93 10000 1 190 23:38 29.05.2020
2205 Clouds 14 1021 93 10000 1 190 23:19 29.05.2020
2206 Clouds 14 1021 93 10000 1 190 22:42 29.05.2020
2207 Clouds 14 1021 93 10000 1 190 22:21 29.05.2020
2208 Clouds 15 1021 87 10000 1 20 21:59 29.05.2020
2209 Clouds 15 1021 87 10000 1 20 21:39 29.05.2020
2210 Clouds 15 1021 87 10000 1 20 21:20 29.05.2020
2211 Clouds 15 1021 87 10000 1 340 20:56 29.05.2020
2212 Clouds 15 1021 87 10000 1 340 20:37 29.05.2020
2213 Clouds 15 1021 87 10000 1 340 20:18 29.05.2020
2214 Clouds 16 1021 82 10000 1 0 19:42 29.05.2020
2215 Clouds 16 1021 82 10000 1 0 19:24 29.05.2020
2216 Clouds 17 1021 77 10000 2.1 130 18:48 29.05.2020
2217 Clouds 17 1021 77 10000 2.1 130 18:23 29.05.2020
2218 Clouds 17 1021 77 10000 2.6 150 17:58 29.05.2020
2219 Clouds 17 1021 77 10000 2.6 150 17:39 29.05.2020
2220 Clouds 17 1021 77 10000 2.6 150 17:20 29.05.2020
2221 Clouds 18 1020 77 10000 1.5 140 16:46 29.05.2020
2222 Clouds 18 1020 77 10000 1.5 140 16:28 29.05.2020
2223 Clouds 18 1020 77 10000 2.1 130 15:59 29.05.2020
2224 Clouds 18 1020 77 10000 2.1 130 15:40 29.05.2020
2225 Clouds 19 1020 77 10000 2.1 130 15:21 29.05.2020
2226 Clouds 19 1020 77 10000 3.1 130 14:57 29.05.2020
2227 Clouds 19 1020 77 10000 3.1 130 14:38 29.05.2020
2228 Clouds 19 1020 77 10000 3.1 130 14:19 29.05.2020
2229 Clouds 19 1020 88 10000 4.1 160 13:41 29.05.2020
2230 Clouds 19 1020 88 10000 4.1 160 13:21 29.05.2020
2231 Clouds 19 1021 82 10000 5.1 210 12:55 29.05.2020
2232 Clouds 18 1021 82 10000 5.1 210 12:37 29.05.2020
2233 Clouds 18 1021 82 10000 5.1 210 12:18 29.05.2020
2234 Clouds 18 1021 88 10000 1.5 0 11:42 29.05.2020
2235 Clouds 18 1021 88 10000 1.5 0 11:42 29.05.2020
2236 Clouds 18 1021 88 10000 1.5 0 11:24 29.05.2020
2237 Rain 18 1020 93 9000 2.1 10 10:43 29.05.2020
2238 Rain 18 1020 93 9000 2.1 10 10:24 29.05.2020
2239 Clouds 17 1020 100 8000 2.1 360 09:58 29.05.2020
2240 Clouds 17 1020 100 8000 2.1 360 09:40 29.05.2020
2241 Clouds 17 1020 100 8000 1.5 320 09:19 29.05.2020
2242 Rain 16 1020 93 3000 1 0 08:47 29.05.2020
2243 Rain 16 1020 93 10000 1 0 08:23 29.05.2020
2244 Clouds 16 1019 93 10000 3.1 350 07:48 29.05.2020
2245 Clouds 16 1019 93 10000 3.1 350 07:29 29.05.2020
2246 Clouds 16 1018 93 10000 3.1 360 06:58 29.05.2020
2247 Clouds 16 1018 93 10000 3.1 360 06:39 29.05.2020
2248 Clouds 16 1018 93 10000 3.1 360 06:21 29.05.2020
2249 Clouds 17 1018 93 10000 3.6 360 05:40 29.05.2020
2250 Rain 17 1017 100 4000 8.2 320 01:53 29.05.2020
2251 Rain 17 1017 100 4000 8.2 320 01:27 29.05.2020
2252 Rain 17 1018 93 6000 8.7 320 00:53 29.05.2020
2253 Rain 17 1018 93 6000 8.7 320 00:32 29.05.2020
2254 Rain 16 1018 93 6000 7.2 330 23:57 28.05.2020
2255 Rain 16 1018 93 6000 7.2 330 23:38 28.05.2020
2256 Rain 16 1018 93 6000 7.2 330 23:18 28.05.2020
2257 Rain 16 1018 93 4000 6.2 350 22:42 28.05.2020
2258 Rain 16 1018 93 4000 6.2 350 22:23 28.05.2020
2259 Rain 15 1018 100 4000 8.2 360 21:56 28.05.2020
2260 Rain 16 1018 100 4000 8.2 360 21:37 28.05.2020
2261 Rain 16 1018 100 4000 8.2 360 21:19 28.05.2020
2262 Rain 15 1018 100 10000 6.7 340 20:56 28.05.2020
2263 Rain 15 1018 100 10000 6.7 340 20:37 28.05.2020
2264 Rain 15 1018 100 10000 6.7 340 20:18 28.05.2020
2265 Rain 15 1018 100 10000 6.7 340 20:18 28.05.2020
2266 Rain 15 1018 100 6000 4.6 320 19:43 28.05.2020
2267 Rain 15 1018 100 6000 4.6 320 19:20 28.05.2020
2268 Rain 15 1018 100 4500 7.2 340 18:57 28.05.2020
2269 Rain 15 1018 100 3000 4.6 290 18:39 28.05.2020
2270 Rain 15 1018 100 3000 4.6 290 18:21 28.05.2020
2271 Rain 15 1017 100 4500 6.2 320 17:41 28.05.2020
2272 Rain 15 1017 100 4500 6.2 320 17:22 28.05.2020
2273 Rain 15 1018 100 3000 6.7 320 16:56 28.05.2020
2274 Rain 15 1018 100 3000 6.7 320 16:36 28.05.2020
2275 Rain 15 1018 100 3000 6.7 320 16:18 28.05.2020
2276 Rain 15 1018 93 2000 5.7 320 15:41 28.05.2020
2277 Rain 15 1018 93 2000 5.7 320 15:23 28.05.2020
2278 Rain 15 1018 93 2000 6.7 310 14:43 28.05.2020
2279 Rain 15 1018 93 2000 6.7 310 14:24 28.05.2020
2280 Rain 15 1019 93 2000 3.1 360 13:49 28.05.2020
2281 Rain 15 1019 93 2000 3.1 360 13:30 28.05.2020
2282 Rain 14 1019 93 3000 5.7 360 12:59 28.05.2020
2283 Rain 14 1019 93 3000 5.7 360 12:38 28.05.2020
2284 Rain 14 1019 93 3000 5.7 360 12:18 28.05.2020
2285 Rain 14 1020 87 3000 6.2 10 11:42 28.05.2020
2286 Rain 14 1020 93 3000 7.7 350 11:24 28.05.2020
2287 Rain 14 1020 87 3000 7.2 360 10:56 28.05.2020
2288 Rain 14 1020 87 3000 7.2 360 10:38 28.05.2020
2289 Rain 13 1020 87 3000 7.2 360 10:18 28.05.2020
2290 Rain 13 1019 82 3000 8.2 10 09:39 28.05.2020
2291 Drizzle 13 1019 82 3000 8.2 10 09:19 28.05.2020
2292 Rain 13 1019 76 3000 7.2 360 08:47 28.05.2020
2293 Rain 13 1019 76 3000 7.2 360 08:26 28.05.2020
2294 Rain 14 1019 71 6000 8.2 360 07:45 28.05.2020
2295 Rain 14 1019 71 6000 8.2 360 07:26 28.05.2020
2296 Rain 14 1019 71 10000 8.2 350 06:56 28.05.2020
2297 Rain 14 1019 71 10000 8.2 350 06:37 28.05.2020
2298 Rain 14 1019 71 10000 7.2 350 05:56 28.05.2020
2299 Rain 14 1019 71 10000 7.2 350 05:35 28.05.2020
2300 Rain 14 1020 71 10000 8.7 350 04:28 28.05.2020
2301 Rain 13 1020 66 10000 7.2 360 03:45 28.05.2020
2302 Clouds 14 1019 71 10000 9.3 20 02:45 28.05.2020
2303 Clouds 14 1021 71 10000 8.2 350 01:51 28.05.2020
2304 Clouds 14 1021 67 10000 8.2 360 00:54 28.05.2020
2305 Clouds 14 1021 67 10000 8.2 360 00:26 28.05.2020
2306 Clouds 13 1021 76 10000 6.7 360 23:58 27.05.2020
2307 Clouds 13 1021 76 10000 6.7 360 23:39 27.05.2020
2308 Clouds 13 1021 76 10000 6.7 360 23:20 27.05.2020
2309 Clouds 13 1021 71 10000 6.2 10 22:56 27.05.2020
2310 Clouds 13 1021 71 10000 6.2 10 22:38 27.05.2020
2311 Clouds 13 1021 71 10000 6.2 10 22:19 27.05.2020
2312 Clouds 13 1021 71 10000 8.7 340 21:41 27.05.2020
2313 Clouds 13 1021 71 10000 8.7 340 21:23 27.05.2020
2314 Clouds 14 1022 67 10000 5.1 330 20:59 27.05.2020
2315 Clouds 14 1022 67 10000 5.1 330 20:59 27.05.2020
2316 Clouds 14 1022 67 10000 5.1 330 20:40 27.05.2020
2317 Clouds 14 1022 67 10000 5.1 330 20:21 27.05.2020
2318 Clouds 14 1022 71 10000 5.7 350 19:57 27.05.2020
2319 Clouds 14 1022 71 10000 5.7 350 19:39 27.05.2020
2320 Clouds 14 1022 71 10000 5.7 350 19:18 27.05.2020
2321 Clouds 14 1022 71 10000 4.1 330 18:40 27.05.2020
2322 Clouds 14 1022 71 10000 4.1 330 18:19 27.05.2020
2323 Clouds 15 1022 67 10000 6.7 330 17:46 27.05.2020
2324 Clouds 15 1022 67 10000 6.7 320 17:28 27.05.2020
2325 Clouds 15 1022 67 10000 6.7 320 16:57 27.05.2020
2326 Clouds 15 1022 67 10000 6.7 320 16:39 27.05.2020
2327 Clouds 15 1022 67 10000 6.7 320 16:20 27.05.2020
2328 Clouds 15 1022 67 10000 6.7 320 15:59 27.05.2020
2329 Clouds 14 1022 67 10000 6.7 320 15:39 27.05.2020
2330 Clouds 14 1022 67 10000 6.7 320 15:21 27.05.2020
2331 Clouds 15 1023 62 10000 5.1 330 14:42 27.05.2020
2332 Clouds 15 1023 62 10000 5.1 330 14:21 27.05.2020
2333 Clouds 15 1024 67 0 2.24 113 13:55 27.05.2020
2334 Clouds 15 1024 62 10000 6.7 20 13:36 27.05.2020
2335 Clouds 14 1024 62 10000 6.7 20 13:18 27.05.2020
2336 Clouds 15 1024 62 10000 6.7 20 12:40 27.05.2020
2337 Clouds 14 1024 62 10000 6.7 20 12:22 27.05.2020
2338 Clouds 13 1024 71 10000 5.7 30 11:40 27.05.2020
2339 Clouds 13 1024 71 10000 5.7 30 11:40 27.05.2020
2340 Clouds 13 1024 71 10000 5.7 30 11:22 27.05.2020
2341 Clouds 13 1024 76 10000 5.1 30 10:58 27.05.2020
2342 Clouds 13 1024 76 10000 5.1 30 10:39 27.05.2020
2343 Clouds 13 1024 76 10000 5.1 30 10:20 27.05.2020
2344 Clouds 11 1025 81 10000 4.1 40 09:41 27.05.2020
2345 Clouds 11 1025 81 10000 4.1 40 09:22 27.05.2020
2346 Clouds 10 1024 87 10000 4.6 30 08:56 27.05.2020
2347 Clouds 10 1024 87 10000 4.6 30 08:56 27.05.2020
2348 Clouds 10 1024 87 10000 4.6 30 08:36 27.05.2020
2349 Clouds 10 1024 87 10000 4.6 30 08:18 27.05.2020
2350 Clouds 9 1024 81 10000 4.6 30 07:50 27.05.2020
2351 Clouds 9 1024 81 10000 4.6 30 07:32 27.05.2020
2352 Clouds 9 1024 87 10000 4.1 40 06:49 27.05.2020
2353 Clouds 9 1024 87 10000 4.1 40 06:21 27.05.2020
2354 Clouds 9 1024 87 10000 4.1 30 05:49 27.05.2020
2355 Clouds 8 1024 87 10000 4.1 30 05:22 27.05.2020
2356 Clouds 8 1024 93 10000 3.1 30 02:36 27.05.2020
2357 Clouds 9 1033 98 0 1.74 348 01:55 27.05.2020
2358 Clouds 9 1025 87 10000 2.6 10 01:30 27.05.2020
2359 Clouds 10 1025 87 10000 2.6 10 00:47 27.05.2020
2360 Rain 10 1025 87 10000 2.1 330 00:20 27.05.2020
2361 Rain 11 1025 87 10000 2.1 330 23:57 26.05.2020
2362 Rain 10 1025 87 10000 2.1 330 23:38 26.05.2020
2363 Rain 11 1025 87 10000 2.1 330 23:20 26.05.2020
2364 Clouds 11 1025 81 10000 1 0 22:41 26.05.2020
2365 Clouds 11 1025 81 10000 1 0 22:23 26.05.2020
2366 Clouds 11 1024 76 10000 2.6 310 21:59 26.05.2020
2367 Clouds 11 1024 76 10000 2.6 310 21:40 26.05.2020
2368 Clouds 11 1024 76 10000 2.6 310 21:22 26.05.2020
2369 Clouds 11 1025 71 10000 2.1 240 20:57 26.05.2020
2370 Clouds 11 1025 71 10000 2.1 240 20:39 26.05.2020
2371 Clouds 11 1025 71 10000 2.1 240 20:19 26.05.2020
2372 Clouds 11 1024 76 10000 1 0 19:40 26.05.2020
2373 Clouds 11 1024 76 10000 1 0 19:20 26.05.2020
2374 Clouds 12 1024 71 10000 2.1 180 18:58 26.05.2020
2375 Clouds 12 1024 71 10000 2.1 180 18:39 26.05.2020
2376 Clouds 12 1024 71 10000 2.1 180 18:20 26.05.2020
2377 Clouds 13 1024 66 10000 3.6 220 17:40 26.05.2020
2378 Clouds 13 1024 66 10000 3.6 220 17:21 26.05.2020
2379 Rain 13 1023 66 10000 4.1 200 16:48 26.05.2020
2380 Rain 13 1023 66 10000 4.1 200 16:23 26.05.2020
2381 Rain 13 1023 76 10000 2.1 190 15:58 26.05.2020
2382 Rain 13 1023 76 10000 2.1 190 15:39 26.05.2020
2383 Rain 13 1023 76 10000 2.1 190 15:19 26.05.2020
2384 Rain 14 1023 66 10000 2.1 160 14:45 26.05.2020
2385 Clouds 14 1023 66 10000 2.1 160 14:27 26.05.2020
2386 Rain 13 1024 67 10000 2.6 180 13:58 26.05.2020
2387 Rain 13 1024 67 10000 2.6 180 13:58 26.05.2020
2388 Rain 13 1024 67 10000 2.6 180 13:40 26.05.2020
2389 Rain 13 1024 67 10000 2.6 180 13:21 26.05.2020
2390 Clouds 13 1024 81 10000 1 0 12:44 26.05.2020
2391 Clouds 13 1024 81 10000 1 0 12:23 26.05.2020
2392 Rain 14 1024 81 10000 1 0 11:59 26.05.2020
2393 Rain 13 1024 81 10000 1 0 11:40 26.05.2020
2394 Rain 13 1024 81 10000 1 0 11:40 26.05.2020
2395 Rain 13 1024 81 10000 1 0 11:19 26.05.2020
2396 Rain 11 1023 93 10000 3.1 60 10:47 26.05.2020
2397 Rain 12 1023 93 10000 3.1 60 10:19 26.05.2020
2398 Rain 11 1023 93 10000 1 80 09:57 26.05.2020
2399 Rain 11 1023 93 10000 1 80 09:37 26.05.2020
2400 Rain 11 1023 93 10000 1 80 09:18 26.05.2020
2401 Rain 10 1022 100 10000 1 320 08:40 26.05.2020
2402 Rain 10 1022 100 10000 1 320 08:21 26.05.2020
2403 Rain 10 1022 100 10000 1 320 08:21 26.05.2020
2404 Clouds 10 1021 93 10000 2.1 40 07:42 26.05.2020
2405 Clouds 9 1021 93 10000 2.1 40 07:23 26.05.2020
2406 Rain 9 1020 100 10000 2.1 330 06:52 26.05.2020
2407 Rain 9 1020 100 10000 2.1 330 06:52 26.05.2020
2408 Rain 9 1020 100 10000 2.1 330 06:28 26.05.2020
2409 Rain 9 1020 100 8000 3.6 30 05:42 26.05.2020
2410 Rain 10 1020 100 8000 3.6 30 05:18 26.05.2020
2411 Clouds 10 1020 100 10000 2.6 70 04:47 26.05.2020
2412 Clouds 10 1020 100 10000 2.6 70 04:28 26.05.2020
2413 Rain 10 1020 100 10000 1.5 50 03:46 26.05.2020
2414 Rain 10 1020 93 8000 0.5 0 02:35 26.05.2020
2415 Rain 10 1019 93 10000 3.1 330 01:47 26.05.2020
2416 Clouds 10 1018 93 10000 1.5 360 00:43 26.05.2020
2417 Clouds 10 1018 93 10000 1.5 360 00:23 26.05.2020
2418 Thunderstorm 10 1018 87 7000 2.1 210 23:59 25.05.2020
2419 Thunderstorm 10 1018 87 7000 2.1 210 23:39 25.05.2020
2420 Rain 11 1018 87 7000 2.1 210 23:20 25.05.2020
2421 Thunderstorm 11 1018 87 7000 2.1 210 23:20 25.05.2020
2422 Rain 12 1016 62 10000 4.1 190 22:56 25.05.2020
2423 Rain 12 1016 62 10000 4.1 190 22:37 25.05.2020
2424 Clouds 13 1016 62 10000 4.1 190 22:19 25.05.2020
2425 Clouds 13 1016 66 10000 7.7 200 21:58 25.05.2020
2426 Clouds 13 1016 66 10000 7.7 200 21:38 25.05.2020
2427 Clouds 13 1016 66 10000 7.7 200 21:20 25.05.2020
2428 Clouds 13 1015 71 10000 9.3 200 20:59 25.05.2020
2429 Clouds 13 1015 71 10000 9.3 200 20:59 25.05.2020
2430 Clouds 13 1015 71 10000 9.3 200 20:59 25.05.2020
2431 Clouds 13 1015 71 10000 9.3 200 20:59 25.05.2020
2432 Clouds 13 1015 71 10000 9.3 200 20:59 25.05.2020
2433 Clouds 13 1015 71 10000 9.3 200 20:40 25.05.2020
2434 Clouds 12 1015 71 10000 9.3 200 20:20 25.05.2020
2435 Rain 13 1014 71 8000 6.7 220 19:57 25.05.2020
2436 Rain 12 1014 76 10000 4.1 280 19:38 25.05.2020
2437 Rain 12 1014 76 10000 4.1 280 19:18 25.05.2020
2438 Rain 12 1013 58 8000 6.7 260 18:43 25.05.2020
2439 Rain 12 1013 58 8000 6.7 260 18:21 25.05.2020
2440 Clouds 13 1012 62 10000 6.2 260 17:56 25.05.2020
2441 Clouds 13 1012 62 10000 6.2 260 17:38 25.05.2020
2442 Clouds 13 1012 62 10000 6.2 260 17:19 25.05.2020
2443 Clouds 13 1011 62 10000 6.7 260 16:41 25.05.2020
2444 Rain 13 1011 62 8000 5.7 260 16:22 25.05.2020
2445 Rain 13 1011 62 8000 5.7 260 15:58 25.05.2020
2446 Rain 13 1011 62 8000 5.7 260 15:40 25.05.2020
2447 Rain 13 1011 62 8000 5.7 260 15:18 25.05.2020
2448 Rain 13 1011 62 8000 5.7 260 15:18 25.05.2020
2449 Rain 13 1011 62 10000 7.7 240 14:43 25.05.2020
2450 Rain 14 1011 62 10000 7.7 240 14:24 25.05.2020
2451 Rain 13 1010 62 10000 10.8 270 13:57 25.05.2020
2452 Rain 13 1010 62 10000 10.8 270 13:38 25.05.2020
2453 Rain 13 1010 62 10000 10.8 270 13:20 25.05.2020
2454 Clouds 15 1010 51 10000 18.5 260 12:57 25.05.2020
2455 Clouds 14 1010 58 10000 5.7 270 12:37 25.05.2020
2456 Rain 14 1010 58 10000 5.7 270 12:19 25.05.2020
2457 Rain 16 1010 54 10000 11.8 260 11:39 25.05.2020
2458 Clouds 16 1010 54 10000 11.8 260 11:19 25.05.2020
2459 Clouds 16 1010 54 10000 11.8 260 11:19 25.05.2020
2460 Clouds 16 1009 62 10000 6.7 260 10:54 25.05.2020
2461 Clouds 16 1009 62 10000 6.7 260 10:54 25.05.2020
2462 Clouds 16 1009 62 10000 6.7 260 10:36 25.05.2020
2463 Clouds 16 1009 62 10000 6.7 260 10:36 25.05.2020
2464 Clouds 16 1009 62 10000 6.7 260 10:18 25.05.2020
2465 Clouds 15 1008 62 10000 8.2 250 09:42 25.05.2020
2466 Clouds 15 1008 62 10000 8.2 250 09:20 25.05.2020
2467 Rain 15 1006 67 6000 11.8 260 08:59 25.05.2020
2468 Rain 15 1006 67 6000 11.8 260 08:38 25.05.2020
2469 Rain 15 1006 67 6000 11.8 260 08:20 25.05.2020
2470 Rain 15 1005 100 4000 12.3 330 07:47 25.05.2020
2471 Rain 15 1005 100 4000 12.3 330 07:24 25.05.2020
2472 Rain 15 1004 77 10000 14.4 350 06:56 25.05.2020
2473 Rain 15 1004 77 10000 14.4 350 06:35 25.05.2020
2474 Rain 16 1006 77 10000 13.4 350 05:20 25.05.2020
2475 Clouds 17 1008 82 10000 10.3 360 03:25 25.05.2020
2476 Clouds 17 1009 82 10000 9.8 360 02:46 25.05.2020
2477 Clouds 17 1010 82 10000 6.2 10 01:59 25.05.2020
2478 Clouds 16 1010 82 10000 6.2 10 01:40 25.05.2020
2479 Clouds 16 1011 87 10000 5.7 30 00:46 25.05.2020
2480 Clouds 16 1011 87 10000 5.7 30 00:24 25.05.2020
2481 Clouds 16 1011 82 10000 5.1 360 23:58 24.05.2020
2482 Clouds 16 1011 82 10000 5.1 360 23:39 24.05.2020
2483 Clouds 16 1011 82 10000 5.1 360 23:20 24.05.2020
2484 Clouds 16 1012 82 10000 4.6 350 22:55 24.05.2020
2485 Clouds 16 1012 82 10000 4.6 350 22:37 24.05.2020
2486 Clouds 16 1012 82 10000 4.6 350 22:18 24.05.2020
2487 Clouds 16 1012 82 10000 4.6 340 21:54 24.05.2020
2488 Clouds 16 1012 82 10000 4.6 340 21:36 24.05.2020
2489 Clouds 16 1012 82 10000 4.6 340 21:18 24.05.2020
2490 Clouds 16 1013 82 10000 4.6 340 20:41 24.05.2020
2491 Clouds 17 1013 82 10000 4.6 340 20:19 24.05.2020
2492 Clouds 17 1013 87 10000 5.1 340 19:56 24.05.2020
2493 Clouds 17 1013 87 10000 5.1 340 19:36 24.05.2020
2494 Clouds 17 1013 87 10000 5.1 340 19:18 24.05.2020
2495 Clouds 17 1013 87 10000 5.1 340 19:18 24.05.2020
2496 Clouds 17 1013 77 10000 5.1 320 18:42 24.05.2020
2497 Clouds 17 1013 77 10000 5.1 320 18:23 24.05.2020
2498 Clouds 18 1014 72 10000 5.1 320 17:57 24.05.2020
2499 Clouds 18 1014 72 10000 5.1 320 17:38 24.05.2020
2500 Clouds 18 1014 72 10000 5.1 320 17:19 24.05.2020
2501 Clouds 19 1014 72 10000 6.2 320 16:54 24.05.2020
2502 Clouds 19 1014 72 10000 6.2 320 16:36 24.05.2020
2503 Clouds 19 1014 72 10000 6.2 320 16:18 24.05.2020
2504 Clouds 20 1014 64 10000 6.2 310 15:40 24.05.2020
2505 Clouds 20 1014 64 10000 6.2 310 15:21 24.05.2020
2506 Clouds 20 1015 64 10000 7.2 330 14:59 24.05.2020
2507 Clouds 20 1015 64 10000 7.2 330 14:40 24.05.2020
2508 Clouds 20 1015 64 10000 7.2 330 14:21 24.05.2020
2509 Clouds 20 1015 64 10000 7.2 330 14:21 24.05.2020
2510 Clouds 20 1016 60 10000 5.7 320 13:55 24.05.2020
2511 Clouds 20 1016 60 10000 5.7 320 13:37 24.05.2020
2512 Clouds 20 1016 60 10000 5.7 320 13:18 24.05.2020
2513 Clouds 20 1017 64 10000 5.1 330 12:55 24.05.2020
2514 Clouds 21 1017 64 10000 5.1 330 12:37 24.05.2020
2515 Clouds 20 1017 64 10000 5.1 330 12:18 24.05.2020
2516 Clouds 19 1018 72 10000 5.1 340 11:54 24.05.2020
2517 Clouds 19 1018 72 10000 5.1 340 11:36 24.05.2020
2518 Clouds 19 1018 72 10000 5.1 340 11:18 24.05.2020
2519 Clouds 18 1018 88 10000 3.6 350 10:41 24.05.2020
2520 Clouds 17 1018 93 10000 3.6 40 10:23 24.05.2020
2521 Clouds 17 1019 93 10000 2.6 40 09:56 24.05.2020
2522 Clouds 15 1018 93 10000 4.1 40 09:38 24.05.2020
2523 Clouds 15 1018 93 10000 4.1 40 09:18 24.05.2020
2524 Clouds 13 1018 93 10000 2.1 40 08:41 24.05.2020
2525 Clouds 12 1018 93 10000 2.1 40 08:23 24.05.2020
2526 Clear 11 1019 93 10000 2.1 0 07:58 24.05.2020
2527 Clear 11 1019 93 10000 2.1 0 07:39 24.05.2020
2528 Clear 10 1019 93 10000 2.1 0 07:20 24.05.2020
2529 Clear 12 1018 93 10000 3.1 30 06:39 24.05.2020
2530 Clear 11 1019 100 10000 2.6 10 05:49 24.05.2020
2531 Clear 13 1020 93 10000 2.1 30 03:57 24.05.2020
2532 Clear 12 1020 93 10000 2.1 30 03:37 24.05.2020
2533 Clear 14 1021 93 10000 3.1 40 02:24 24.05.2020
2534 Clear 14 1021 100 10000 3.6 40 01:18 24.05.2020
2535 Clear 14 1022 93 10000 3.1 40 00:37 24.05.2020
2536 Clear 14 1022 93 10000 3.1 40 00:19 24.05.2020
2537 Clear 14 1022 100 10000 1 40 23:39 23.05.2020
2538 Clear 14 1022 100 10000 1 40 23:20 23.05.2020
2539 Clear 14 1022 93 10000 3.1 340 22:55 23.05.2020
2540 Clear 15 1022 93 10000 3.1 340 22:37 23.05.2020
2541 Clear 14 1022 93 10000 3.1 340 22:19 23.05.2020
2542 Clear 15 1022 87 10000 2.1 330 21:56 23.05.2020
2543 Clear 15 1022 87 10000 2.1 330 21:37 23.05.2020
2544 Clear 15 1022 87 10000 2.1 330 21:18 23.05.2020
2545 Clear 16 1023 87 10000 2.6 320 20:41 23.05.2020
2546 Clear 16 1023 87 10000 2.6 320 20:20 23.05.2020
2547 Clear 15 1022 87 10000 3.6 340 19:59 23.05.2020
2548 Clear 16 1022 87 10000 3.6 340 19:40 23.05.2020
2549 Clear 16 1022 87 10000 3.6 340 19:19 23.05.2020
2550 Clear 17 1022 82 10000 4.6 330 18:55 23.05.2020
2551 Clear 17 1022 82 10000 4.6 330 18:36 23.05.2020
2552 Clear 17 1022 82 10000 4.6 330 18:18 23.05.2020
2553 Clouds 18 1022 72 10000 4.1 330 17:54 23.05.2020
2554 Clouds 19 1022 72 10000 4.1 330 17:36 23.05.2020
2555 Clouds 19 1022 72 10000 4.1 330 17:18 23.05.2020
2556 Clouds 19 1022 68 10000 4.6 320 16:41 23.05.2020
2557 Clouds 20 1022 68 10000 4.6 320 16:21 23.05.2020
2558 Clouds 20 1022 68 10000 4.6 320 16:21 23.05.2020
2559 Clouds 20 1022 68 10000 5.1 310 15:59 23.05.2020
2560 Clouds 20 1022 68 10000 5.1 310 15:41 23.05.2020
2561 Clouds 21 1022 68 10000 5.1 310 15:22 23.05.2020
2562 Clouds 20 1023 68 10000 5.1 300 14:43 23.05.2020
2563 Clouds 21 1023 68 10000 5.1 300 14:24 23.05.2020
2564 Clouds 20 1023 68 10000 5.1 310 13:56 23.05.2020
2565 Clouds 20 1023 68 10000 5.1 310 13:37 23.05.2020
2566 Clouds 20 1023 68 10000 5.1 310 13:18 23.05.2020
2567 Clouds 20 1024 68 10000 5.1 310 12:41 23.05.2020
2568 Clouds 20 1024 68 10000 5.1 310 12:20 23.05.2020
2569 Clouds 20 1025 68 10000 4.6 320 11:57 23.05.2020
2570 Clouds 20 1025 68 10000 4.6 320 11:39 23.05.2020
2571 Clouds 20 1025 68 10000 4.6 320 11:19 23.05.2020
2572 Clouds 19 1025 68 10000 4.1 340 10:55 23.05.2020
2573 Clouds 18 1025 68 10000 3.6 50 10:37 23.05.2020
2574 Clouds 18 1025 68 10000 3.6 50 10:37 23.05.2020
2575 Clouds 18 1025 68 10000 3.6 50 10:18 23.05.2020
2576 Clouds 17 1025 72 10000 4.1 20 09:43 23.05.2020
2577 Clouds 16 1025 77 10000 4.1 30 09:24 23.05.2020
2578 Clouds 14 1024 82 10000 5.1 40 08:58 23.05.2020
2579 Clouds 14 1024 82 10000 5.1 40 08:38 23.05.2020
2580 Clouds 13 1024 82 10000 5.1 40 08:19 23.05.2020
2581 Clouds 12 1024 87 10000 4.6 40 07:44 23.05.2020
2582 Clouds 12 1024 87 10000 4.6 40 07:23 23.05.2020
2583 Clouds 12 1024 87 10000 4.1 40 06:43 23.05.2020
2584 Clouds 12 1024 87 10000 3.6 40 05:55 23.05.2020
2585 Clouds 12 1024 87 10000 3.6 30 03:55 23.05.2020
2586 Clouds 11 1024 87 10000 3.6 30 03:24 23.05.2020
2587 Clouds 12 1024 82 10000 3.6 40 02:40 23.05.2020
2588 Clouds 11 1024 82 10000 3.6 40 01:48 23.05.2020
2589 Clouds 12 1024 82 10000 3.6 40 01:18 23.05.2020
2590 Clouds 12 1025 81 10000 2.6 50 00:42 23.05.2020
2591 Clouds 12 1025 81 10000 2.6 30 23:59 22.05.2020
2592 Clouds 12 1025 81 10000 2.6 30 23:41 22.05.2020
2593 Clouds 12 1025 81 10000 2.6 30 23:22 22.05.2020
2594 Clouds 12 1025 81 10000 0.5 0 22:58 22.05.2020
2595 Clouds 12 1025 81 10000 0.5 0 22:58 22.05.2020
2596 Clouds 11 1025 81 10000 0.5 0 22:40 22.05.2020
2597 Clouds 13 1025 81 10000 0.5 0 22:20 22.05.2020
2598 Clouds 14 1025 76 10000 2.1 20 21:47 22.05.2020
2599 Clouds 13 1025 76 10000 2.1 20 21:23 22.05.2020
2600 Clouds 13 1025 76 10000 2.1 20 21:23 22.05.2020
2601 Clouds 13 1024 76 10000 2.6 20 20:59 22.05.2020
2602 Clouds 13 1024 76 10000 2.6 20 20:41 22.05.2020
2603 Clouds 13 1024 76 10000 2.6 20 20:41 22.05.2020
2604 Clear 13 1024 76 10000 2.6 20 20:20 22.05.2020
2605 Clear 14 1025 71 10000 3.1 350 19:45 22.05.2020
2606 Clear 14 1025 71 10000 3.1 350 19:26 22.05.2020
2607 Clear 15 1024 63 10000 3.6 330 18:55 22.05.2020
2608 Clear 16 1024 63 10000 3.6 330 18:37 22.05.2020
2609 Clear 16 1024 63 10000 3.6 330 18:37 22.05.2020
2610 Clear 16 1024 63 10000 3.6 330 18:19 22.05.2020
2611 Clouds 17 1024 59 10000 5.1 310 17:40 22.05.2020
2612 Clouds 18 1024 59 10000 5.1 310 17:20 22.05.2020
2613 Clear 18 1024 52 10000 6.7 330 16:57 22.05.2020
2614 Clear 18 1024 52 10000 6.7 330 16:39 22.05.2020
2615 Clear 18 1024 52 10000 6.7 330 16:39 22.05.2020
2616 Clear 19 1024 52 10000 6.7 330 16:19 22.05.2020
2617 Clouds 19 1024 52 10000 6.2 330 15:56 22.05.2020
2618 Clouds 20 1024 52 10000 6.2 330 15:38 22.05.2020
2619 Clouds 20 1024 52 10000 6.2 330 15:18 22.05.2020
2620 Clouds 20 1024 52 10000 5.7 310 14:40 22.05.2020
2621 Clouds 20 1024 52 10000 5.7 310 14:21 22.05.2020
2622 Clouds 20 1025 48 10000 5.7 310 13:42 22.05.2020
2623 Clouds 19 1025 48 10000 5.7 310 13:19 22.05.2020
2624 Clouds 20 1025 48 10000 5.1 320 12:43 22.05.2020
2625 Clouds 19 1025 48 10000 5.1 320 12:25 22.05.2020
2626 Clouds 19 1026 59 10000 4.1 310 11:56 22.05.2020
2627 Clouds 19 1026 59 10000 4.1 310 11:37 22.05.2020
2628 Clouds 19 1026 59 10000 4.1 310 11:19 22.05.2020
2629 Clear 18 1025 67 10000 3.1 310 10:41 22.05.2020
2630 Clear 16 1025 77 10000 2.1 360 10:22 22.05.2020
2631 Clear 16 1025 77 10000 2.1 360 09:59 22.05.2020
2632 Clear 16 1025 77 10000 2.1 360 09:59 22.05.2020
2633 Clear 15 1025 77 10000 2.1 360 09:40 22.05.2020
2634 Clear 14 1025 87 10000 2.1 20 09:18 22.05.2020
2635 Clear 9 1025 93 10000 0.5 0 08:43 22.05.2020
2636 Clear 9 1025 93 10000 0.5 0 08:43 22.05.2020
2637 Clear 9 1025 93 10000 0.5 0 08:20 22.05.2020
2638 Clear 9 1024 93 10000 2.6 40 07:54 22.05.2020
2639 Clear 9 1024 93 10000 2.6 40 07:24 22.05.2020
2640 Clear 9 1024 93 10000 2.1 10 06:55 22.05.2020
2641 Clear 9 1024 93 10000 2.1 10 06:33 22.05.2020
2642 Clear 10 1024 93 10000 0.5 0 05:38 22.05.2020
2643 Clear 11 1024 93 10000 1 60 04:50 22.05.2020
2644 Clear 11 1024 93 10000 1 60 04:19 22.05.2020
2645 Clouds 11 1024 93 10000 1 110 03:45 22.05.2020
2646 Clouds 11 1024 87 10000 0.5 110 02:59 22.05.2020
2647 Clouds 13 1024 93 10000 1 170 01:53 22.05.2020
2648 Clouds 14 1024 93 10000 1 170 01:25 22.05.2020
2649 Clouds 14 1024 87 10000 1 0 00:40 22.05.2020
2650 Clouds 15 1024 87 10000 1 0 00:22 22.05.2020
2651 Clouds 16 1025 77 10000 1.5 260 23:42 21.05.2020
2652 Clouds 17 1025 77 10000 1.5 260 23:24 21.05.2020
2653 Clouds 17 1024 82 10000 1.5 250 22:58 21.05.2020
2654 Clouds 17 1024 82 10000 1.5 250 22:38 21.05.2020
2655 Clouds 17 1024 82 10000 1.5 250 22:20 21.05.2020
2656 Clouds 17 1023 82 10000 1.5 310 21:55 21.05.2020
2657 Clouds 17 1023 82 10000 1.5 310 21:37 21.05.2020
2658 Clouds 17 1023 82 10000 2.1 330 21:18 21.05.2020
2659 Clouds 17 1023 82 10000 2.1 330 20:42 21.05.2020
2660 Clouds 17 1023 82 10000 2.1 330 20:22 21.05.2020
2661 Clouds 18 1022 82 10000 2.1 290 19:41 21.05.2020
2662 Clouds 18 1022 82 10000 2.1 290 19:21 21.05.2020
2663 Clouds 18 1021 77 10000 2.6 340 18:59 21.05.2020
2664 Clouds 18 1021 77 10000 2.6 340 18:39 21.05.2020
2665 Clouds 18 1021 77 10000 2.6 340 18:19 21.05.2020
2666 Clouds 18 1021 82 10000 4.1 320 17:56 21.05.2020
2667 Clouds 18 1021 82 10000 4.1 320 17:38 21.05.2020
2668 Clouds 18 1021 82 10000 4.1 320 17:19 21.05.2020
2669 Clouds 19 1020 77 10000 5.7 310 16:44 21.05.2020
2670 Clouds 20 1020 77 10000 5.7 310 16:22 21.05.2020
2671 Clouds 20 1020 68 10000 8.2 310 15:44 21.05.2020
2672 Clouds 20 1020 68 10000 8.2 310 15:24 21.05.2020
2673 Clouds 21 1019 64 10000 6.2 320 14:43 21.05.2020
2674 Clouds 21 1019 64 10000 6.2 320 14:25 21.05.2020
2675 Clouds 21 1019 68 10000 6.7 300 14:00 21.05.2020
2676 Clouds 21 1019 68 10000 6.7 330 13:38 21.05.2020
2677 Clouds 22 1019 68 10000 6.7 330 13:20 21.05.2020
2678 Clouds 21 1019 68 10000 6.7 330 12:40 21.05.2020
2679 Clouds 21 1019 68 10000 6.7 330 12:22 21.05.2020
2680 Clouds 20 1019 77 10000 7.2 330 11:59 21.05.2020
2681 Clouds 20 1019 77 10000 7.2 330 11:39 21.05.2020
2682 Clouds 20 1019 77 10000 7.2 330 11:21 21.05.2020
2683 Clouds 20 1018 77 10000 7.2 340 10:55 21.05.2020
2684 Clouds 20 1018 77 10000 7.2 340 10:37 21.05.2020
2685 Clouds 20 1018 77 10000 7.2 340 10:18 21.05.2020
2686 Clouds 19 1018 77 10000 7.2 330 09:42 21.05.2020
2687 Clouds 18 1018 77 10000 7.2 330 09:24 21.05.2020
2688 Clouds 17 1017 63 10000 5.1 350 08:58 21.05.2020
2689 Clouds 17 1017 63 10000 5.1 350 08:39 21.05.2020
2690 Clouds 17 1017 63 10000 5.1 350 08:21 21.05.2020
2691 Clouds 16 1016 59 10000 4.6 330 07:43 21.05.2020
2692 Clouds 16 1016 59 10000 4.6 330 07:22 21.05.2020
2693 Clouds 17 1015 59 10000 6.2 350 06:44 21.05.2020
2694 Clouds 17 1015 51 10000 2.6 310 05:50 21.05.2020
2695 Clouds 19 1015 42 10000 3.6 280 04:29 21.05.2020
2696 Clear 18 1014 39 10000 2.1 0 03:21 21.05.2020
2697 Clear 18 1014 39 10000 2.1 0 03:21 21.05.2020
2698 Clear 20 1014 34 10000 3.1 280 02:33 21.05.2020
2699 Clear 20 1014 32 10000 4.1 270 01:58 21.05.2020
2700 Clear 20 1014 32 10000 4.1 270 01:39 21.05.2020
2701 Clear 20 1014 32 10000 4.1 270 01:18 21.05.2020
2702 Clear 20 1014 32 10000 1 0 00:41 21.05.2020
2703 Clear 20 1014 32 10000 1 0 00:21 21.05.2020
2704 Clear 22 1014 26 10000 0.5 0 23:40 20.05.2020
2705 Clear 20 1014 26 10000 0.5 0 23:19 20.05.2020
2706 Clear 20 1014 34 10000 5.1 30 22:55 20.05.2020
2707 Clear 20 1014 34 10000 5.1 30 22:37 20.05.2020
2708 Clear 20 1014 34 10000 5.1 30 22:19 20.05.2020
2709 Clear 18 1014 42 10000 2.1 70 21:40 20.05.2020
2710 Clouds 18 1014 42 10000 2.1 70 21:20 20.05.2020
2711 Clouds 20 1014 37 10000 1.5 60 20:44 20.05.2020
2712 Clear 20 1014 37 10000 1.5 60 20:24 20.05.2020
2713 Clear 21 1014 32 10000 0.5 0 19:55 20.05.2020
2714 Clear 20 1014 32 10000 0.5 0 19:37 20.05.2020
2715 Clear 21 1014 32 10000 0.5 0 19:18 20.05.2020
2716 Clear 25 1014 22 10000 2.1 310 18:42 20.05.2020
2717 Clear 25 1014 22 10000 2.1 310 18:22 20.05.2020
2718 Clear 28 1014 18 10000 1.5 290 17:42 20.05.2020
2719 Clear 29 1014 18 10000 1.5 290 17:22 20.05.2020
2720 Clear 29 1014 17 10000 2.6 270 16:57 20.05.2020
2721 Clear 29 1014 17 10000 2.6 270 16:39 20.05.2020
2722 Clear 27 1014 17 10000 2.6 270 16:20 20.05.2020
2723 Clear 27 1015 18 10000 2.6 290 15:44 20.05.2020
2724 Clear 29 1015 18 10000 2.6 290 15:25 20.05.2020
2725 Clear 27 1016 20 10000 2.6 290 14:45 20.05.2020
2726 Clouds 29 1016 20 10000 2.6 290 14:26 20.05.2020
2727 Clouds 29 1016 20 10000 3.6 310 13:59 20.05.2020
2728 Clouds 29 1016 20 10000 3.6 310 13:39 20.05.2020
2729 Clouds 29 1016 20 10000 3.6 310 13:18 20.05.2020
2730 Clouds 28 1017 29 10000 3.1 330 12:42 20.05.2020
2731 Clouds 26 1017 29 10000 3.1 330 12:21 20.05.2020
2732 Clouds 24 1018 46 10000 1.5 0 11:39 20.05.2020
2733 Clouds 23 1018 46 10000 1.5 0 11:20 20.05.2020
2734 Clouds 22 1018 52 10000 1.5 310 10:55 20.05.2020
2735 Clouds 20 1019 59 10000 1.5 0 10:37 20.05.2020
2736 Clouds 19 1019 59 10000 1.5 0 10:19 20.05.2020
2737 Clouds 15 1019 87 10000 1.5 340 09:41 20.05.2020
2738 Clouds 14 1019 87 10000 1.5 340 09:20 20.05.2020
2739 Clouds 11 1019 87 10000 2.1 30 08:42 20.05.2020
2740 Clear 9 1018 93 10000 2.6 30 08:20 20.05.2020
2741 Clear 10 1018 93 10000 2.6 70 07:50 20.05.2020
2742 Clear 10 1018 93 10000 2.6 70 07:25 20.05.2020
2743 Clear 10 1018 93 10000 3.1 70 06:55 20.05.2020
2744 Fog 9 1018 100 1000 2.1 80 06:20 20.05.2020
2745 Fog 10 1018 93 100 1.5 80 04:59 20.05.2020
2746 Fog 10 1019 100 100 1 90 04:19 20.05.2020
2747 Fog 11 1019 100 100 1 80 03:36 20.05.2020
2748 Fog 13 1020 100 100 1.5 60 01:57 20.05.2020
2749 Fog 13 1020 100 100 1.5 60 01:24 20.05.2020
2750 Fog 13 1021 100 100 0.5 0 00:41 20.05.2020
2751 Fog 14 1021 100 100 0.5 0 00:22 20.05.2020
2752 Clear 15 1021 93 10000 2.6 210 23:38 19.05.2020
2753 Clear 15 1021 93 10000 2.6 210 23:19 19.05.2020
2754 Clear 16 1021 87 10000 4.1 220 22:55 19.05.2020
2755 Clear 16 1021 87 10000 4.1 220 22:37 19.05.2020
2756 Clear 16 1021 87 10000 4.1 220 22:18 19.05.2020
2757 Clear 15 1021 93 10000 3.1 210 21:55 19.05.2020
2758 Clear 15 1021 93 10000 3.1 210 21:36 19.05.2020
2759 Clear 15 1021 93 10000 3.1 210 21:18 19.05.2020
2760 Clear 16 1021 93 10000 3.6 200 20:56 19.05.2020
2761 Clear 16 1021 93 10000 3.6 200 20:37 19.05.2020
2762 Clear 16 1021 93 10000 3.6 200 20:19 19.05.2020
2763 Clear 16 1021 87 10000 3.1 190 19:38 19.05.2020
2764 Clear 16 1021 87 10000 3.1 190 19:20 19.05.2020
2765 Clear 16 1020 77 10000 3.6 200 18:45 19.05.2020
2766 Clear 17 1020 77 10000 3.6 200 18:23 19.05.2020
2767 Clear 19 1020 60 10000 3.1 210 17:58 19.05.2020
2768 Clear 20 1020 60 10000 3.1 210 17:39 19.05.2020
2769 Clear 20 1020 60 10000 3.1 210 17:20 19.05.2020
2770 Clear 20 1020 56 10000 4.1 200 16:56 19.05.2020
2771 Clear 20 1020 56 10000 4.1 200 16:37 19.05.2020
2772 Clear 20 1020 56 10000 4.1 200 16:19 19.05.2020
2773 Clear 22 1020 60 10000 3.1 190 15:43 19.05.2020
2774 Clear 22 1020 60 10000 3.1 190 15:20 19.05.2020
2775 Clear 22 1021 60 10000 3.6 190 14:55 19.05.2020
2776 Clear 22 1021 60 10000 3.6 190 14:37 19.05.2020
2777 Clear 23 1021 60 10000 3.6 190 14:19 19.05.2020
2778 Clear 23 1021 64 10000 4.6 210 13:56 19.05.2020
2779 Clear 23 1021 64 10000 4.6 210 13:37 19.05.2020
2780 Clear 23 1021 64 10000 4.6 210 13:37 19.05.2020
2781 Clear 23 1021 64 10000 4.6 210 13:18 19.05.2020
2782 Clear 22 1022 64 10000 3.6 220 12:55 19.05.2020
2783 Clear 23 1022 64 10000 3.6 220 12:36 19.05.2020
2784 Clear 21 1022 64 10000 3.6 220 12:18 19.05.2020
2785 Clear 19 1022 82 10000 3.1 210 11:41 19.05.2020
2786 Clear 19 1022 82 10000 3.1 210 11:22 19.05.2020
2787 Clouds 16 1022 100 7000 2.1 230 10:56 19.05.2020
2788 Mist 15 1022 100 4500 3.6 220 10:38 19.05.2020
2789 Mist 18 1022 100 4500 3.6 220 10:18 19.05.2020
2790 Fog 17 1022 93 300 3.1 200 09:43 19.05.2020
2791 Fog 16 1022 93 300 3.1 200 09:24 19.05.2020
2792 Fog 15 1022 93 300 3.6 190 08:47 19.05.2020
2793 Mist 14 1022 100 3000 2.1 190 08:25 19.05.2020
2794 Fog 14 1022 93 100 1 0 07:48 19.05.2020
2795 Fog 13 1021 100 400 1.5 120 07:28 19.05.2020
2796 Fog 12 1021 100 100 1 140 06:55 19.05.2020
2797 Fog 13 1021 100 100 1.5 140 06:31 19.05.2020
2798 Fog 11 1020 93 100 1 0 05:43 19.05.2020
2799 Fog 11 1020 93 100 1 0 05:23 19.05.2020
2800 Fog 13 1019 93 200 1 50 04:36 19.05.2020
2801 Fog 13 1019 93 800 1 0 02:24 19.05.2020
2802 Clouds 14 1020 93 10000 1 0 00:48 19.05.2020
2803 Clouds 14 1020 93 10000 1 0 00:29 19.05.2020
2804 Clouds 15 1019 87 10000 1 0 23:59 18.05.2020
2805 Clouds 15 1019 87 10000 1 0 23:40 18.05.2020
2806 Clouds 15 1019 87 10000 1 0 23:20 18.05.2020
2807 Clouds 16 1020 87 10000 1.5 0 22:55 18.05.2020
2808 Clouds 16 1020 87 10000 1.5 0 22:37 18.05.2020
2809 Clouds 16 1020 87 10000 1.5 0 22:19 18.05.2020
2810 Clouds 16 1019 88 10000 2.6 210 21:42 18.05.2020
2811 Clouds 17 1019 88 10000 2.6 210 21:21 18.05.2020
2812 Clouds 17 1020 88 10000 2.6 240 20:57 18.05.2020
2813 Clouds 17 1020 88 10000 2.6 240 20:37 18.05.2020
2814 Clouds 17 1020 88 10000 2.6 240 20:19 18.05.2020
2815 Clouds 18 1020 88 10000 3.1 210 19:54 18.05.2020
2816 Clouds 18 1020 88 10000 3.1 210 19:36 18.05.2020
2817 Clouds 18 1020 88 10000 3.1 210 19:18 18.05.2020
2818 Clouds 18 1020 82 10000 3.6 200 18:43 18.05.2020
2819 Clouds 18 1020 82 10000 3.6 200 18:20 18.05.2020
2820 Clouds 19 1020 77 10000 4.1 190 17:39 18.05.2020
2821 Clouds 19 1020 77 10000 4.1 190 17:18 18.05.2020
2822 Clouds 20 1019 60 10000 4.6 210 16:56 18.05.2020
2823 Clouds 21 1019 60 10000 4.6 210 16:37 18.05.2020
2824 Clouds 21 1019 60 10000 4.6 210 16:18 18.05.2020
2825 Clouds 22 1019 43 10000 4.1 220 15:46 18.05.2020
2826 Clouds 22 1019 43 10000 4.1 220 15:25 18.05.2020
2827 Clouds 23 1019 49 10000 2.6 210 14:59 18.05.2020
2828 Clouds 23 1019 49 10000 2.6 210 14:41 18.05.2020
2829 Clouds 23 1019 49 10000 2.6 210 14:23 18.05.2020
2830 Clouds 22 1020 49 10000 2.1 210 13:54 18.05.2020
2831 Clouds 22 1020 49 10000 2.1 210 13:36 18.05.2020
2832 Clouds 22 1020 49 10000 2.1 210 13:18 18.05.2020
2833 Clouds 21 1021 60 10000 2.6 200 12:55 18.05.2020
2834 Clouds 21 1021 60 10000 2.6 200 12:37 18.05.2020
2835 Clouds 20 1021 64 10000 3.1 240 12:18 18.05.2020
2836 Clouds 20 1021 64 10000 3.1 240 11:46 18.05.2020
2837 Clouds 20 1021 64 10000 3.1 240 11:26 18.05.2020
2838 Clouds 20 1021 77 10000 2.6 220 10:55 18.05.2020
2839 Clouds 19 1021 77 10000 2.6 220 10:37 18.05.2020
2840 Clouds 19 1021 77 10000 2.6 220 10:19 18.05.2020
2841 Clouds 16 1021 87 10000 3.6 230 09:42 18.05.2020
2842 Clouds 17 1021 87 10000 3.6 230 09:23 18.05.2020
2843 Clouds 16 1021 87 10000 3.6 230 08:42 18.05.2020
2844 Clouds 16 1021 87 10000 3.6 230 08:24 18.05.2020
2845 Clouds 16 1020 87 10000 4.6 220 07:50 18.05.2020
2846 Clouds 16 1020 87 10000 4.6 220 07:26 18.05.2020
2847 Clouds 16 1020 82 10000 4.6 230 06:49 18.05.2020
2848 Clouds 16 1020 82 10000 4.6 230 06:31 18.05.2020
2849 Clouds 15 1020 87 10000 4.1 230 05:49 18.05.2020
2850 Clouds 15 1020 87 10000 3.6 220 04:40 18.05.2020
2851 Clouds 15 1020 93 10000 3.6 220 03:30 18.05.2020
2852 Clouds 15 1021 93 10000 3.1 200 02:19 18.05.2020
2853 Clouds 14 1021 100 10000 2.1 180 00:55 18.05.2020
2854 Clouds 13 1021 100 10000 2.1 180 00:23 18.05.2020
2855 Clouds 13 1021 93 10000 2.6 190 23:56 17.05.2020
2856 Clouds 13 1021 93 10000 2.6 190 23:38 17.05.2020
2857 Clouds 14 1021 93 10000 2.6 190 23:19 17.05.2020
2858 Clouds 15 1021 93 10000 2.6 150 22:55 17.05.2020
2859 Clouds 15 1021 93 10000 2.6 150 22:36 17.05.2020
2860 Clouds 15 1021 93 10000 2.6 150 22:18 17.05.2020
2861 Clouds 15 1021 93 10000 2.1 160 21:42 17.05.2020
2862 Clouds 16 1021 93 10000 2.1 160 21:20 17.05.2020
2863 Clouds 16 1020 87 10000 2.1 150 20:59 17.05.2020
2864 Clouds 16 1020 87 10000 2.1 150 20:40 17.05.2020
2865 Clouds 16 1020 87 10000 2.1 150 20:19 17.05.2020
2866 Clouds 16 1020 82 10000 2.6 110 19:55 17.05.2020
2867 Clouds 16 1020 82 10000 2.6 110 19:37 17.05.2020
2868 Clouds 17 1020 82 10000 2.6 110 19:18 17.05.2020
2869 Clouds 17 1020 77 10000 2.6 130 18:39 17.05.2020
2870 Clouds 18 1020 77 10000 2.6 130 18:21 17.05.2020
2871 Clouds 18 1020 72 10000 4.1 160 17:56 17.05.2020
2872 Clouds 19 1020 72 10000 4.1 160 17:37 17.05.2020
2873 Clouds 19 1020 72 10000 4.1 160 17:18 17.05.2020
2874 Clouds 20 1019 60 10000 5.1 180 16:40 17.05.2020
2875 Clouds 21 1019 60 10000 5.1 180 16:20 17.05.2020
2876 Clouds 22 1019 38 10000 2.1 210 15:56 17.05.2020
2877 Clouds 22 1019 38 10000 2.1 210 15:37 17.05.2020
2878 Clouds 23 1019 38 10000 2.1 210 15:19 17.05.2020
2879 Clouds 21 1019 43 10000 1.5 0 14:43 17.05.2020
2880 Clouds 22 1019 43 10000 1.5 0 14:24 17.05.2020
2881 Clouds 21 1020 49 10000 2.1 170 13:58 17.05.2020
2882 Clouds 22 1020 49 10000 2.1 170 13:39 17.05.2020
2883 Clouds 22 1020 49 10000 2.1 170 13:18 17.05.2020
2884 Mist 8 1021 93 3000 2.1 60 04:41 17.05.2020
2885 Fog 8 1022 100 500 1 100 02:39 17.05.2020
2886 Fog 8 1022 100 500 1 100 02:19 17.05.2020
2887 Fog 9 1022 93 5000 1 180 01:44 17.05.2020
2888 Fog 9 1022 87 2000 0.5 140 00:40 17.05.2020
2889 Fog 9 1022 87 2000 0.5 140 00:19 17.05.2020
2890 Clouds 9 1022 93 9000 0.5 150 23:40 16.05.2020
2891 Clear 9 1022 93 9000 0.5 150 23:20 16.05.2020
2892 Clear 10 1022 87 10000 0.5 0 22:58 16.05.2020
2893 Clear 10 1022 87 10000 0.5 0 22:40 16.05.2020
2894 Clear 11 1022 87 10000 0.5 0 22:20 16.05.2020
2895 Clear 11 1022 81 10000 1 140 21:46 16.05.2020
2896 Clear 11 1022 81 10000 1 140 21:28 16.05.2020
2897 Clear 13 1022 71 10000 1.5 120 20:59 16.05.2020
2898 Clear 13 1022 71 10000 1.5 120 20:41 16.05.2020
2899 Clouds 14 1022 67 10000 2.1 170 20:22 16.05.2020
2900 Clouds 14 1022 67 10000 2.1 170 19:58 16.05.2020
2901 Clouds 14 1022 67 10000 2.1 170 19:40 16.05.2020
2902 Clouds 14 1022 67 10000 2.1 170 19:22 16.05.2020
2903 Clouds 15 1022 67 10000 3.1 160 18:43 16.05.2020
2904 Clouds 16 1022 67 10000 3.1 160 18:25 16.05.2020
2905 Clouds 16 1022 67 10000 3.1 160 18:25 16.05.2020
2906 Clouds 18 1022 52 10000 2.6 160 17:57 16.05.2020
2907 Clouds 17 1022 52 10000 2.6 160 17:39 16.05.2020
2908 Clouds 17 1022 52 10000 2.6 160 17:20 16.05.2020
2909 Clouds 19 1022 45 10000 3.1 170 16:42 16.05.2020
2910 Clouds 19 1022 45 10000 3.1 170 16:23 16.05.2020
2911 Clouds 20 1022 40 10000 3.1 190 15:58 16.05.2020
2912 Clouds 21 1022 40 10000 3.1 190 15:40 16.05.2020
2913 Clouds 20 1022 40 10000 3.1 190 15:20 16.05.2020
2914 Clouds 20 1022 42 10000 2.6 170 14:48 16.05.2020
2915 Clouds 20 1022 42 10000 2.6 170 14:21 16.05.2020
2916 Clouds 20 1022 42 10000 2.6 170 14:21 16.05.2020
2917 Clouds 21 1023 42 10000 3.6 180 13:59 16.05.2020
2918 Clouds 21 1023 42 10000 3.6 180 13:41 16.05.2020
2919 Clouds 21 1023 42 10000 3.6 180 13:22 16.05.2020
2920 Clouds 21 1024 45 10000 3.6 190 12:55 16.05.2020
2921 Clouds 19 1024 45 10000 3.6 190 12:37 16.05.2020
2922 Clouds 19 1024 45 10000 3.6 190 12:18 16.05.2020
2923 Clouds 20 1024 55 10000 2.1 180 11:39 16.05.2020
2924 Clear 20 1024 55 10000 2.1 180 11:20 16.05.2020
2925 Clear 18 1024 77 10000 1 0 10:56 16.05.2020
2926 Clear 18 1024 77 10000 1 0 10:37 16.05.2020
2927 Clear 17 1024 77 10000 1 0 10:19 16.05.2020
2928 Clear 16 1024 82 10000 0.5 0 09:45 16.05.2020
2929 Clear 14 1024 87 10000 0.5 0 09:27 16.05.2020
2930 Clear 11 1024 93 10000 1 0 08:45 16.05.2020
2931 Clouds 9 1024 93 10000 1 0 08:23 16.05.2020
2932 Clouds 9 1024 93 10000 1 0 08:23 16.05.2020
2933 Clouds 9 1024 93 10000 1 200 07:56 16.05.2020
2934 Clouds 8 1024 93 10000 1.5 200 07:38 16.05.2020
2935 Clouds 8 1024 93 10000 1.5 200 07:19 16.05.2020
2936 Clouds 8 1023 93 10000 1.5 70 06:45 16.05.2020
2937 Clouds 8 1023 93 10000 1.5 70 06:19 16.05.2020
2938 Clouds 8 1023 93 10000 1.5 50 05:40 16.05.2020
2939 Clouds 9 1024 100 10000 1 0 04:51 16.05.2020
2940 Clouds 9 1024 93 10000 1.5 100 03:25 16.05.2020
2941 Clouds 9 1024 93 10000 2.1 80 02:39 16.05.2020
2942 Clouds 9 1024 93 10000 2.1 80 02:18 16.05.2020
2943 Clouds 11 1024 87 10000 2.1 120 01:37 16.05.2020
2944 Clouds 13 1024 82 10000 3.6 210 00:56 16.05.2020
2945 Clouds 12 1024 82 10000 3.6 210 00:38 16.05.2020
2946 Clouds 13 1024 82 10000 3.6 210 00:18 16.05.2020
2947 Clouds 11 1024 87 10000 1.5 0 23:38 15.05.2020
2948 Clouds 11 1024 87 10000 1.5 0 23:18 15.05.2020
2949 Clouds 13 1024 87 10000 1.5 110 22:41 15.05.2020
2950 Clouds 13 1024 87 10000 1.5 110 22:20 15.05.2020
2951 Clouds 14 1024 87 10000 3.1 180 21:56 15.05.2020
2952 Clouds 14 1024 87 10000 3.1 180 21:38 15.05.2020
2953 Clouds 15 1024 87 10000 3.1 180 21:20 15.05.2020
2954 Clouds 15 1024 87 10000 2.1 140 20:54 15.05.2020
2955 Clouds 15 1024 87 10000 2.1 140 20:54 15.05.2020
2956 Clouds 15 1024 87 10000 2.1 140 20:36 15.05.2020
2957 Clouds 14 1024 87 10000 2.1 140 20:18 15.05.2020
2958 Clouds 16 1023 82 10000 2.6 160 19:42 15.05.2020
2959 Clouds 16 1023 82 10000 2.6 160 19:23 15.05.2020
2960 Clouds 17 1022 72 10000 4.1 170 18:48 15.05.2020
2961 Clouds 18 1022 72 10000 4.1 170 18:28 15.05.2020
2962 Clouds 18 1022 55 10000 4.1 200 17:59 15.05.2020
2963 Clouds 18 1022 55 10000 4.1 200 17:37 15.05.2020
2964 Clouds 18 1022 55 10000 4.1 200 17:18 15.05.2020
2965 Clouds 19 1021 63 10000 2.1 240 16:55 15.05.2020
2966 Clouds 19 1021 63 10000 2.1 240 16:37 15.05.2020
2967 Clouds 19 1021 63 10000 2.1 240 16:18 15.05.2020
2968 Clouds 20 1021 72 10000 3.6 320 15:41 15.05.2020
2969 Clouds 20 1021 72 10000 3.6 320 15:20 15.05.2020
2970 Clouds 20 1021 77 10000 4.1 310 14:57 15.05.2020
2971 Clouds 19 1021 77 10000 4.1 310 14:38 15.05.2020
2972 Rain 20 1021 77 10000 4.1 310 14:20 15.05.2020
2973 Rain 19 1021 72 10000 2.1 330 13:42 15.05.2020
2974 Rain 19 1021 72 10000 2.1 330 13:22 15.05.2020
2975 Clouds 20 1021 72 10000 2.6 350 12:56 15.05.2020
2976 Clouds 20 1021 72 10000 2.6 350 12:36 15.05.2020
2977 Clouds 20 1021 72 10000 2.6 350 12:18 15.05.2020
2978 Clouds 19 1022 88 10000 3.6 40 11:56 15.05.2020
2979 Clouds 20 1022 88 10000 3.6 40 11:37 15.05.2020
2980 Clouds 20 1022 88 10000 3.6 40 11:18 15.05.2020
2981 Clouds 19 1022 88 10000 3.6 30 10:54 15.05.2020
2982 Clouds 18 1021 93 10000 3.6 40 10:36 15.05.2020
2983 Clouds 17 1021 93 10000 3.6 40 10:18 15.05.2020
2984 Rain 16 1021 100 7000 3.6 60 09:38 15.05.2020
2985 Rain 15 1021 100 7000 3.6 60 09:19 15.05.2020
2986 Clouds 15 1020 93 10000 1.5 0 08:58 15.05.2020
2987 Clouds 14 1020 93 10000 1.5 0 08:37 15.05.2020
2988 Clouds 14 1020 93 10000 1.5 0 08:19 15.05.2020
2989 Clouds 14 1019 93 10000 4.1 340 07:44 15.05.2020
2990 Rain 14 1019 93 10000 4.1 340 07:24 15.05.2020
2991 Rain 14 1019 93 10000 2.6 340 06:54 15.05.2020
2992 Clouds 14 1018 93 10000 1 0 05:49 15.05.2020
2993 Clear 13 1018 93 10000 2.6 10 04:28 15.05.2020
2994 Clear 10 1018 100 10000 2.6 20 03:48 15.05.2020
2995 Clear 12 1018 100 10000 1.5 20 02:40 15.05.2020
2996 Clouds 14 1018 93 10000 0.5 0 01:31 15.05.2020
2997 Clouds 15 1018 100 10000 1 0 00:56 15.05.2020
2998 Clouds 14 1018 100 10000 1 0 00:37 15.05.2020
2999 Clouds 13 1018 100 10000 1 0 00:19 15.05.2020
3000 Fog 11 1018 100 100 0.5 150 23:40 14.05.2020
3001 Fog 11 1018 100 100 0.5 150 23:18 14.05.2020
3002 Fog 12 1018 93 100 1.5 110 22:41 14.05.2020
3003 Fog 13 1018 93 100 1.5 110 22:20 14.05.2020
3004 Clear 14 1019 93 10000 2.6 130 21:58 14.05.2020
3005 Clear 14 1019 93 10000 2.6 130 21:39 14.05.2020
3006 Clouds 14 1019 93 10000 2.6 130 21:19 14.05.2020
3007 Clouds 14 1019 93 10000 2.6 130 20:55 14.05.2020
3008 Clouds 14 1019 93 10000 2.6 130 20:55 14.05.2020
3009 Clouds 14 1019 93 10000 2.6 130 20:37 14.05.2020
3010 Clouds 15 1019 93 10000 2.6 130 20:18 14.05.2020
3011 Clouds 16 1019 82 10000 2.6 140 19:55 14.05.2020
3012 Clouds 16 1019 82 10000 2.6 140 19:36 14.05.2020
3013 Clouds 16 1019 82 10000 2.6 140 19:18 14.05.2020
3014 Clouds 17 1019 67 10000 3.6 170 18:54 14.05.2020
3015 Clouds 17 1019 67 10000 3.6 170 18:36 14.05.2020
3016 Clouds 17 1019 67 10000 3.6 170 18:18 14.05.2020
3017 Clouds 19 1018 52 10000 4.1 170 17:55 14.05.2020
3018 Clouds 19 1018 52 10000 4.1 170 17:36 14.05.2020
3019 Clouds 19 1018 52 10000 4.1 170 17:18 14.05.2020
3020 Clouds 20 1018 49 10000 3.6 160 16:39 14.05.2020
3021 Clouds 21 1018 49 10000 3.6 160 16:20 14.05.2020
3022 Clouds 21 1019 52 10000 3.6 170 15:57 14.05.2020
3023 Clouds 22 1019 52 10000 3.6 170 15:39 14.05.2020
3024 Clouds 22 1019 52 10000 3.6 170 15:19 14.05.2020
3025 Clouds 22 1019 52 10000 2.6 190 14:56 14.05.2020
3026 Clouds 22 1019 52 10000 2.6 190 14:37 14.05.2020
3027 Clouds 22 1019 52 10000 2.6 190 14:19 14.05.2020
3028 Clouds 22 1020 52 10000 3.1 190 13:55 14.05.2020
3029 Clouds 22 1020 52 10000 3.1 190 13:37 14.05.2020
3030 Clouds 21 1020 52 10000 3.1 190 13:18 14.05.2020
3031 Clouds 21 1021 60 10000 3.1 180 12:55 14.05.2020
3032 Clouds 21 1021 60 10000 3.1 180 12:36 14.05.2020
3033 Clear 20 1021 60 10000 3.1 180 12:18 14.05.2020
3034 Clear 20 1022 68 10000 2.1 160 11:42 14.05.2020
3035 Clear 19 1022 68 10000 2.1 160 11:24 14.05.2020
3036 Clear 19 1022 72 10000 1 0 10:58 14.05.2020
3037 Clear 19 1022 72 10000 1 0 10:40 14.05.2020
3038 Clear 19 1022 72 10000 1 0 10:21 14.05.2020
3039 Clear 15 1022 93 7000 0.5 0 09:43 14.05.2020
3040 Clear 15 1022 93 7000 0.5 0 09:23 14.05.2020
3041 Fog 13 1022 93 4000 1.5 0 08:56 14.05.2020
3042 Fog 12 1022 93 4000 1 170 08:36 14.05.2020
3043 Fog 9 1022 93 4000 1 170 08:18 14.05.2020
3044 Fog 9 1022 93 2000 1 130 07:43 14.05.2020
3045 Fog 9 1022 100 100 0.5 0 07:20 14.05.2020
3046 Clear 9 1022 100 10000 0.5 170 06:43 14.05.2020
3047 Clear 9 1022 100 10000 0.5 170 06:23 14.05.2020
3048 Clear 9 1022 100 10000 0.5 120 05:37 14.05.2020
3049 Clear 9 1023 93 10000 0.5 0 04:43 14.05.2020
3050 Mist 10 1023 100 4000 0.5 0 03:32 14.05.2020
3051 Clear 10 1024 100 10000 0.5 0 02:57 14.05.2020
3052 Clear 10 1024 100 10000 0.5 0 02:57 14.05.2020
3053 Clear 10 1024 100 10000 0.5 0 02:34 14.05.2020
3054 Clear 11 1024 93 10000 1 0 01:47 14.05.2020
3055 Clear 11 1024 93 10000 1 0 00:51 14.05.2020
3056 Clear 11 1024 93 10000 1 0 00:27 14.05.2020
3057 Clear 12 1024 93 10000 1.5 170 23:45 13.05.2020
3058 Clear 12 1024 93 10000 1.5 170 23:23 13.05.2020
3059 Clear 12 1024 93 10000 0.5 0 22:59 13.05.2020
3060 Clear 12 1024 93 10000 0.5 0 22:41 13.05.2020
3061 Clear 13 1024 93 10000 0.5 0 22:21 13.05.2020
3062 Clear 13 1024 93 10000 0.5 0 22:21 13.05.2020
3063 Clouds 14 1025 82 10000 1.5 180 21:57 13.05.2020
3064 Clouds 14 1025 82 10000 1.5 180 21:39 13.05.2020
3065 Clouds 14 1025 82 10000 1.5 180 21:39 13.05.2020
3066 Clouds 14 1025 82 10000 1.5 180 21:19 13.05.2020
3067 Clouds 15 1024 77 10000 2.1 310 20:42 13.05.2020
3068 Clouds 16 1024 77 10000 2.1 310 20:23 13.05.2020
3069 Clouds 16 1024 77 10000 2.6 320 19:59 13.05.2020
3070 Clouds 16 1024 77 10000 2.6 320 19:41 13.05.2020
3071 Clouds 16 1024 77 10000 2.6 320 19:22 13.05.2020
3072 Clouds 17 1024 67 10000 3.1 310 18:43 13.05.2020
3073 Clouds 17 1024 67 10000 3.1 310 18:22 13.05.2020
3074 Clouds 17 1024 67 10000 3.1 310 18:22 13.05.2020
3075 Clouds 18 1023 59 10000 4.1 310 17:58 13.05.2020
3076 Clouds 19 1023 59 10000 4.1 310 17:38 13.05.2020
3077 Clouds 19 1023 59 10000 4.1 310 17:18 13.05.2020
3078 Clouds 19 1023 59 10000 5.1 310 16:40 13.05.2020
3079 Clouds 19 1023 59 10000 5.1 310 16:19 13.05.2020
3080 Clouds 19 1023 59 10000 4.1 310 15:55 13.05.2020
3081 Clouds 20 1023 59 10000 4.1 310 15:36 13.05.2020
3082 Clouds 20 1023 59 10000 4.1 310 15:36 13.05.2020
3083 Clouds 20 1023 59 10000 4.1 310 15:18 13.05.2020
3084 Clouds 20 1023 52 10000 3.6 300 14:42 13.05.2020
3085 Clouds 20 1023 52 10000 3.6 300 14:24 13.05.2020
3086 Clouds 20 1024 55 10000 2.6 350 13:59 13.05.2020
3087 Clouds 20 1024 55 10000 2.6 350 13:41 13.05.2020
3088 Clouds 19 1024 55 10000 2.6 350 13:21 13.05.2020
3089 Clouds 19 1024 63 10000 4.1 310 12:58 13.05.2020
3090 Clouds 19 1024 63 10000 4.1 310 12:39 13.05.2020
3091 Clouds 18 1024 63 10000 4.1 310 12:20 13.05.2020
3092 Clouds 18 1024 63 10000 2.1 340 11:56 13.05.2020
3093 Clouds 18 1024 63 10000 2.1 340 11:56 13.05.2020
3094 Clouds 19 1024 63 10000 2.1 340 11:37 13.05.2020
3095 Clouds 19 1024 63 10000 2.1 340 11:19 13.05.2020
3096 Clouds 18 1023 67 10000 4.1 350 10:57 13.05.2020
3097 Clouds 17 1023 67 10000 4.1 350 10:38 13.05.2020
3098 Clouds 17 1023 67 10000 4.1 350 10:19 13.05.2020
3099 Clouds 16 1023 72 10000 3.1 350 09:46 13.05.2020
3100 Clouds 14 1022 87 10000 1 0 09:23 13.05.2020
3101 Clouds 14 1022 87 10000 1 0 08:58 13.05.2020
3102 Clouds 14 1022 87 10000 1 0 08:37 13.05.2020
3103 Clouds 14 1022 87 10000 1 0 08:19 13.05.2020
3104 Clouds 13 1022 82 10000 1.5 360 07:48 13.05.2020
3105 Clouds 13 1022 82 10000 1.5 360 07:30 13.05.2020
3106 Clouds 13 1022 87 10000 1 0 06:51 13.05.2020
3107 Clouds 13 1020 81 10000 4.1 350 06:33 13.05.2020
3108 Clouds 12 1021 87 10000 1.5 30 05:34 13.05.2020
3109 Clouds 14 1021 82 10000 1 360 03:37 13.05.2020
3110 Clouds 13 1020 87 10000 3.1 50 02:34 13.05.2020
3111 Clouds 10 1020 87 10000 3.1 50 01:46 13.05.2020
3112 Clouds 13 1021 71 10000 2.6 230 00:56 13.05.2020
3113 Clouds 14 1021 71 10000 2.6 230 00:23 13.05.2020
3114 Clouds 15 1020 72 10000 3.6 230 23:58 12.05.2020
3115 Clouds 14 1020 72 10000 3.6 230 23:39 12.05.2020
3116 Clouds 15 1020 72 10000 3.6 230 23:18 12.05.2020
3117 Clouds 15 1020 77 10000 4.1 210 22:42 12.05.2020
3118 Clouds 15 1020 77 10000 4.1 210 22:22 12.05.2020
3119 Clouds 15 1020 82 10000 5.1 200 21:56 12.05.2020
3120 Clouds 16 1020 82 10000 5.1 200 21:38 12.05.2020
3121 Clouds 16 1020 82 10000 5.1 200 21:19 12.05.2020
3122 Clouds 16 1020 82 10000 5.1 200 21:19 12.05.2020
3123 Clouds 16 1019 82 10000 3.1 190 20:58 12.05.2020
3124 Clouds 16 1019 82 10000 3.1 190 20:39 12.05.2020
3125 Clouds 16 1019 82 10000 3.1 190 20:21 12.05.2020
3126 Clouds 16 1019 82 10000 3.6 190 19:58 12.05.2020
3127 Clouds 17 1019 82 10000 3.6 190 19:39 12.05.2020
3128 Clouds 16 1019 82 10000 3.6 190 19:20 12.05.2020
3129 Clouds 16 1018 82 10000 3.6 180 18:56 12.05.2020
3130 Clouds 17 1018 82 10000 6.7 180 18:38 12.05.2020
3131 Clouds 17 1018 82 10000 6.7 180 18:19 12.05.2020
3132 Clouds 18 1018 82 10000 6.7 180 17:42 12.05.2020
3133 Clouds 18 1018 82 10000 6.7 180 17:24 12.05.2020
3134 Clouds 18 1017 77 10000 7.2 190 16:47 12.05.2020
3135 Clouds 18 1017 77 10000 7.2 190 16:26 12.05.2020
3136 Clouds 18 1017 77 10000 7.7 190 15:56 12.05.2020
3137 Clouds 18 1017 77 10000 7.7 190 15:38 12.05.2020
3138 Clouds 18 1017 77 10000 7.7 190 15:38 12.05.2020
3139 Clouds 19 1017 77 10000 7.7 190 15:19 12.05.2020
3140 Clouds 19 1017 77 10000 7.7 190 14:57 12.05.2020
3141 Clouds 19 1017 77 10000 7.7 190 14:37 12.05.2020
3142 Clouds 19 1017 77 10000 7.7 190 14:19 12.05.2020
3143 Clouds 19 1017 68 10000 7.2 190 13:58 12.05.2020
3144 Clouds 19 1017 68 10000 7.2 190 13:39 12.05.2020
3145 Clouds 20 1017 68 10000 7.2 190 13:19 12.05.2020
3146 Clouds 20 1018 64 10000 4.6 200 12:57 12.05.2020
3147 Clouds 20 1018 64 10000 4.6 200 12:39 12.05.2020
3148 Clouds 20 1018 64 10000 4.6 200 12:21 12.05.2020
3149 Clouds 20 1017 72 10000 3.6 210 11:58 12.05.2020
3150 Clouds 19 1017 72 10000 3.6 210 11:39 12.05.2020
3151 Clouds 19 1017 72 10000 3.6 210 11:21 12.05.2020
3152 Clouds 19 1018 77 10000 4.1 220 10:58 12.05.2020
3153 Clouds 18 1018 77 10000 4.1 220 10:40 12.05.2020
3154 Clouds 18 1018 77 10000 4.1 220 10:21 12.05.2020
3155 Clouds 17 1017 93 10000 4.6 230 09:59 12.05.2020
3156 Clouds 17 1017 93 10000 4.6 230 09:39 12.05.2020
3157 Clouds 17 1017 93 10000 4.6 230 09:20 12.05.2020
3158 Clouds 16 1016 87 10000 4.1 220 08:54 12.05.2020
3159 Clouds 16 1016 87 10000 4.1 220 08:36 12.05.2020
3160 Clouds 15 1016 87 10000 4.1 220 08:18 12.05.2020
3161 Clouds 15 1016 87 10000 4.1 220 07:41 12.05.2020
3162 Clouds 15 1016 87 10000 4.1 220 07:21 12.05.2020
3163 Clouds 16 1016 93 10000 4.1 210 06:41 12.05.2020
3164 Clouds 16 1016 93 10000 4.1 210 06:22 12.05.2020
3165 Clouds 16 1017 87 10000 4.1 230 05:50 12.05.2020
3166 Clouds 16 1017 87 10000 4.6 210 04:54 12.05.2020
3167 Clouds 17 1017 82 10000 5.7 160 03:26 12.05.2020
3168 Clouds 17 1017 82 10000 7.2 170 02:28 12.05.2020
3169 Clouds 17 1017 82 10000 6.7 180 01:59 12.05.2020
3170 Clouds 17 1017 82 10000 6.7 180 01:24 12.05.2020
3171 Clouds 17 1021 87 0 2.24 248 00:26 12.05.2020
3172 Clouds 17 1018 93 10000 6.7 190 23:58 11.05.2020
3173 Clouds 17 1018 93 10000 6.7 190 23:40 11.05.2020
3174 Clouds 16 1018 93 10000 6.7 190 23:20 11.05.2020
3175 Clouds 17 1019 93 10000 8.2 190 22:58 11.05.2020
3176 Clouds 17 1019 93 10000 8.2 190 22:40 11.05.2020
3177 Clouds 17 1019 93 10000 8.2 190 22:20 11.05.2020
3178 Clouds 17 1019 88 10000 10.3 180 21:57 11.05.2020
3179 Clouds 17 1019 88 10000 10.3 180 21:39 11.05.2020
3180 Clouds 17 1019 88 10000 10.3 180 21:19 11.05.2020
3181 Clouds 17 1019 88 10000 10.3 180 20:57 11.05.2020
3182 Clouds 17 1019 93 10000 8.7 180 20:38 11.05.2020
3183 Clouds 17 1019 93 10000 8.7 180 20:19 11.05.2020
3184 Clouds 18 1019 93 10000 9.3 190 19:54 11.05.2020
3185 Clouds 18 1019 82 10000 8.2 200 19:36 11.05.2020
3186 Clouds 18 1019 82 10000 8.2 200 19:18 11.05.2020
3187 Clouds 19 1018 72 10000 6.7 190 18:55 11.05.2020
3188 Clouds 19 1018 72 10000 6.7 190 18:36 11.05.2020
3189 Clouds 19 1018 72 10000 6.7 190 18:18 11.05.2020
3190 Clouds 19 1018 72 10000 6.7 190 18:18 11.05.2020
3191 Clouds 19 1018 72 10000 6.7 190 18:18 11.05.2020
3192 Clouds 20 1018 68 10000 7.2 190 17:41 11.05.2020
3193 Clouds 20 1018 68 10000 7.2 190 17:22 11.05.2020
3194 Clouds 21 1018 64 10000 7.7 190 16:59 11.05.2020
3195 Clouds 21 1018 64 10000 7.7 190 16:39 11.05.2020
3196 Clear 21 1018 64 10000 7.7 190 16:21 11.05.2020
3197 Clear 22 1018 60 10000 7.2 190 15:57 11.05.2020
3198 Clouds 22 1018 60 10000 7.2 190 15:39 11.05.2020
3199 Clouds 22 1018 60 10000 7.2 190 15:18 11.05.2020
3200 Clouds 22 1018 56 10000 7.7 190 14:42 11.05.2020
3201 Clear 22 1018 56 10000 7.7 190 14:23 11.05.2020
3202 Clear 22 1018 60 10000 7.2 180 13:59 11.05.2020
3203 Clear 22 1018 60 10000 7.2 180 13:41 11.05.2020
3204 Clear 21 1018 60 10000 7.2 180 13:19 11.05.2020
3205 Clear 22 1019 64 10000 6.2 180 12:58 11.05.2020
3206 Clear 22 1019 64 10000 6.2 180 12:39 11.05.2020
3207 Clear 22 1019 64 10000 6.2 180 12:21 11.05.2020
3208 Clear 21 1020 68 10000 6.2 180 11:56 11.05.2020
3209 Clear 21 1020 68 10000 6.2 180 11:37 11.05.2020
3210 Clear 20 1020 68 10000 6.2 180 11:19 11.05.2020
3211 Clear 20 1020 82 10000 5.1 190 10:54 11.05.2020
3212 Clear 20 1020 82 10000 5.1 190 10:36 11.05.2020
3213 Clear 20 1020 82 10000 5.1 190 10:36 11.05.2020
3214 Clear 20 1020 82 10000 5.1 190 10:18 11.05.2020
3215 Clear 19 1020 93 10000 4.1 200 09:42 11.05.2020
3216 Clear 17 1019 93 10000 3.1 210 09:22 11.05.2020
3217 Clear 16 1019 93 10000 2.6 200 08:59 11.05.2020
3218 Clear 16 1019 93 10000 2.6 200 08:39 11.05.2020
3219 Clear 15 1019 93 10000 2.6 200 08:19 11.05.2020
3220 Clear 15 1019 93 10000 2.6 190 07:50 11.05.2020
3221 Clear 15 1019 93 10000 2.6 190 07:32 11.05.2020
3222 Clear 15 1018 93 10000 3.1 200 06:54 11.05.2020
3223 Clear 15 1018 93 10000 3.1 200 06:26 11.05.2020
3224 Clear 15 1018 100 10000 3.6 210 05:30 11.05.2020
3225 Clear 16 1026 98 0 0.45 158 04:58 11.05.2020
3226 Clear 16 1018 100 10000 3.6 220 03:46 11.05.2020
3227 Clear 16 1018 93 7000 4.1 240 02:35 11.05.2020
3228 Clear 16 1019 95 0 0.45 293 01:55 11.05.2020
3229 Fog 15 1018 100 100 2.1 120 00:54 11.05.2020
3230 Fog 15 1018 100 100 2.1 120 00:27 11.05.2020
3231 Fog 15 1018 100 3000 1 0 23:56 10.05.2020
3232 Fog 15 1018 100 3000 1 0 23:36 10.05.2020
3233 Fog 15 1018 100 3000 1 0 23:18 10.05.2020
3234 Clear 14 1018 100 10000 1.5 60 22:42 10.05.2020
3235 Clear 13 1018 100 10000 1.5 60 22:24 10.05.2020
3236 Fog 13 1018 100 200 2.1 60 21:46 10.05.2020
3237 Fog 13 1018 100 200 2.1 60 21:21 10.05.2020
3238 Fog 15 1018 93 200 1.5 100 20:59 10.05.2020
3239 Fog 15 1018 100 1000 1 80 20:41 10.05.2020
3240 Fog 15 1018 100 1000 1 80 20:23 10.05.2020
3241 Clear 16 1018 93 6000 1 0 19:54 10.05.2020
3242 Mist 16 1018 93 5000 1 0 19:36 10.05.2020
3243 Mist 16 1018 93 5000 1 0 19:18 10.05.2020
3244 Mist 16 1018 93 2000 2.6 210 18:54 10.05.2020
3245 Mist 16 1018 93 2000 2.6 210 18:54 10.05.2020
3246 Clouds 18 1018 87 9000 2.6 210 18:36 10.05.2020
3247 Clouds 17 1018 87 9000 2.6 210 18:36 10.05.2020
3248 Clouds 17 1018 87 9000 2.6 210 18:36 10.05.2020
3249 Clouds 18 1018 87 9000 2.6 210 18:18 10.05.2020
3250 Clear 19 1018 72 10000 3.6 180 17:56 10.05.2020
3251 Clear 20 1018 72 10000 3.6 180 17:36 10.05.2020
3252 Clear 19 1018 72 10000 3.6 180 17:18 10.05.2020
3253 Clear 20 1018 68 10000 3.6 180 16:43 10.05.2020
3254 Clear 21 1018 68 10000 3.6 180 16:20 10.05.2020
3255 Clear 22 1017 60 10000 2.6 200 15:58 10.05.2020
3256 Clear 23 1017 60 10000 2.6 200 15:38 10.05.2020
3257 Clear 23 1017 60 10000 2.6 200 15:19 10.05.2020
3258 Clear 23 1018 64 10000 2.1 210 14:55 10.05.2020
3259 Clear 23 1018 64 10000 2.1 210 14:37 10.05.2020
3260 Clear 23 1018 64 10000 2.1 210 14:18 10.05.2020
3261 Clouds 22 1018 88 10000 2.6 190 13:55 10.05.2020
3262 Clouds 21 1018 88 10000 2.6 190 13:36 10.05.2020
3263 Clouds 21 1018 88 10000 2.6 190 13:18 10.05.2020
3264 Clouds 19 1019 93 8000 2.6 180 12:41 10.05.2020
3265 Clouds 19 1019 93 8000 2.6 180 12:21 10.05.2020
3266 Mist 19 1019 100 4000 3.6 190 11:58 10.05.2020
3267 Mist 18 1019 100 1000 3.6 180 11:40 10.05.2020
3268 Mist 18 1019 100 1000 3.6 180 11:21 10.05.2020
3269 Fog 18 1019 93 400 2.6 180 10:54 10.05.2020
3270 Fog 18 1019 93 400 2.6 180 10:54 10.05.2020
3271 Fog 17 1019 100 200 1.5 0 10:36 10.05.2020
3272 Fog 17 1019 100 200 1.5 0 10:18 10.05.2020
3273 Fog 17 1019 100 200 1.5 0 10:18 10.05.2020
3274 Fog 16 1019 93 200 2.1 160 09:41 10.05.2020
3275 Fog 16 1019 93 200 2.1 160 09:22 10.05.2020
3276 Fog 15 1019 93 200 3.1 190 08:55 10.05.2020
3277 Fog 15 1019 93 200 3.1 190 08:37 10.05.2020
3278 Fog 14 1019 93 200 3.1 190 08:18 10.05.2020
3279 Fog 13 1019 100 150 2.6 180 07:38 10.05.2020
3280 Fog 13 1019 100 150 2.6 180 07:19 10.05.2020
3281 Fog 13 1018 100 100 2.1 170 06:50 10.05.2020
3282 Fog 13 1018 100 100 2.1 170 06:24 10.05.2020
3283 Fog 13 1018 100 100 1 0 05:45 10.05.2020
3284 Fog 14 1018 100 100 2.1 190 04:45 10.05.2020
3285 Fog 14 1018 100 100 2.1 190 04:25 10.05.2020
3286 Fog 15 1018 93 100 1.5 190 03:47 10.05.2020
3287 Fog 14 1019 100 200 2.1 170 02:59 10.05.2020
3288 Fog 14 1019 100 200 2.1 170 02:25 10.05.2020
3289 Fog 15 1019 93 200 1 140 01:58 10.05.2020
3290 Fog 15 1019 93 200 1 140 01:39 10.05.2020
3291 Fog 15 1019 93 200 1 140 01:18 10.05.2020
3292 Fog 15 1019 100 200 1.5 170 00:52 10.05.2020
3293 Fog 15 1019 100 200 1.5 170 00:21 10.05.2020
3294 Fog 16 1020 93 200 2.1 180 23:40 09.05.2020
3295 Fog 16 1020 93 200 2.1 180 23:40 09.05.2020
3296 Mist 16 1020 93 2000 2.6 190 23:22 09.05.2020
3297 Clouds 16 1020 93 10000 2.6 200 22:59 09.05.2020
3298 Clouds 16 1020 93 10000 2.6 200 22:40 09.05.2020
3299 Clouds 16 1020 93 10000 2.6 200 22:22 09.05.2020
3300 Clear 15 1020 93 10000 2.6 200 21:57 09.05.2020
3301 Clear 15 1020 93 10000 2.6 200 21:38 09.05.2020
3302 Clear 15 1020 93 10000 2.6 200 21:20 09.05.2020
3303 Clear 16 1020 87 10000 1.5 240 20:56 09.05.2020
3304 Clear 16 1020 87 10000 1.5 240 20:38 09.05.2020
3305 Clear 16 1020 87 10000 1.5 240 20:19 09.05.2020
3306 Clear 17 1019 82 10000 3.6 170 19:40 09.05.2020
3307 Clear 17 1019 82 10000 3.6 170 19:21 09.05.2020
3308 Clear 22 1019 60 10000 1.5 190 18:59 09.05.2020
3309 Clear 22 1019 60 10000 1.5 190 18:40 09.05.2020
3310 Clear 23 1019 60 10000 1.5 190 18:21 09.05.2020
3311 Clear 26 1018 41 10000 1.5 250 17:44 09.05.2020
3312 Clear 25 1018 41 10000 1.5 250 17:23 09.05.2020
3313 Clear 26 1018 41 10000 0.5 0 16:56 09.05.2020
3314 Clear 26 1018 41 10000 0.5 0 16:37 09.05.2020
3315 Clear 24 1019 44 10000 1 0 16:18 09.05.2020
3316 Clear 24 1019 53 10000 2.6 200 15:42 09.05.2020
3317 Clear 24 1019 53 10000 2.6 200 15:22 09.05.2020
3318 Clear 23 1019 64 10000 3.1 220 14:56 09.05.2020
3319 Clear 23 1019 64 10000 3.1 220 14:37 09.05.2020
3320 Clear 23 1019 64 10000 3.1 220 14:18 09.05.2020
3321 Clear 23 1020 64 10000 3.1 210 13:55 09.05.2020
3322 Clear 22 1020 64 10000 3.1 210 13:37 09.05.2020
3323 Clear 22 1020 64 10000 3.1 210 13:18 09.05.2020
3324 Clear 22 1021 64 10000 4.1 210 12:39 09.05.2020
3325 Clear 21 1021 64 10000 4.1 210 12:21 09.05.2020
3326 Clear 21 1021 64 10000 3.1 180 11:45 09.05.2020
3327 Clear 21 1021 64 10000 3.1 180 11:20 09.05.2020
3328 Clear 21 1021 72 10000 3.1 170 10:55 09.05.2020
3329 Clear 21 1020 88 10000 1.5 0 10:37 09.05.2020
3330 Clear 20 1020 88 10000 1.5 0 10:19 09.05.2020
3331 Clear 17 1020 93 10000 1 40 09:44 09.05.2020
3332 Clear 16 1020 93 10000 1 40 09:20 09.05.2020
3333 Clear 15 1020 93 10000 0.5 0 08:58 09.05.2020
3334 Clouds 15 1020 93 10000 0.5 0 08:40 09.05.2020
3335 Clouds 14 1020 93 10000 0.5 0 08:21 09.05.2020
3336 Clouds 14 1020 93 10000 2.6 220 07:45 09.05.2020
3337 Clouds 14 1020 93 10000 2.6 220 07:27 09.05.2020
3338 Clouds 15 1019 93 10000 2.1 220 06:44 09.05.2020
3339 Clouds 15 1019 93 10000 2.1 220 06:20 09.05.2020
3340 Clouds 14 1019 93 10000 2.6 200 05:42 09.05.2020
3341 Clouds 14 1019 93 10000 0.5 0 03:41 09.05.2020
3342 Clouds 15 1019 87 10000 3.1 170 02:55 09.05.2020
3343 Clear 15 1019 87 10000 3.1 170 02:30 09.05.2020
3344 Clear 16 1020 93 10000 3.1 200 01:51 09.05.2020
3345 Clear 15 1020 93 10000 3.1 200 01:22 09.05.2020
3346 Clear 17 1020 88 10000 4.6 200 00:44 09.05.2020
3347 Clear 17 1020 88 10000 4.6 200 00:24 09.05.2020
3348 Clear 18 1021 93 10000 5.1 220 23:48 08.05.2020
3349 Clear 18 1021 93 10000 5.1 220 23:28 08.05.2020
3350 Clear 17 1020 93 10000 5.7 240 22:57 08.05.2020
3351 Clear 17 1020 93 10000 5.7 240 22:39 08.05.2020
3352 Clear 17 1020 93 10000 5.7 240 22:19 08.05.2020
3353 Clear 17 1020 93 10000 6.7 240 21:58 08.05.2020
3354 Clear 18 1020 93 10000 6.7 240 21:38 08.05.2020
3355 Clear 18 1020 93 10000 6.7 240 21:18 08.05.2020
3356 Clear 18 1020 93 10000 4.1 220 20:56 08.05.2020
3357 Clear 18 1020 93 10000 4.1 220 20:38 08.05.2020
3358 Clear 18 1020 93 10000 4.1 220 20:19 08.05.2020
3359 Clear 18 1019 88 10000 3.6 220 19:42 08.05.2020
3360 Clear 18 1019 88 10000 3.6 220 19:22 08.05.2020
3361 Clear 19 1019 82 10000 4.1 220 18:50 08.05.2020
3362 Clear 19 1019 82 10000 4.1 220 18:31 08.05.2020
3363 Clear 21 1019 56 10000 4.6 210 17:43 08.05.2020
3364 Clear 21 1019 56 10000 4.6 210 17:21 08.05.2020
3365 Clear 21 1019 53 10000 4.6 210 16:58 08.05.2020
3366 Clear 22 1019 50 10000 4.1 220 16:39 08.05.2020
3367 Clear 23 1019 50 10000 4.1 220 16:21 08.05.2020
3368 Clear 24 1019 53 10000 4.1 220 15:54 08.05.2020
3369 Clear 24 1019 53 10000 4.1 220 15:36 08.05.2020
3370 Clear 25 1019 53 10000 4.1 220 15:18 08.05.2020
3371 Clear 25 1019 53 10000 4.1 220 15:18 08.05.2020
3372 Clear 25 1020 53 10000 4.1 230 14:41 08.05.2020
3373 Clear 25 1020 53 10000 4.1 230 14:20 08.05.2020
3374 Clear 22 1020 60 10000 4.6 240 13:57 08.05.2020
3375 Clear 23 1020 60 10000 4.6 240 13:39 08.05.2020
3376 Clear 23 1020 60 10000 4.6 240 13:19 08.05.2020
3377 Clear 22 1021 60 10000 4.1 230 12:45 08.05.2020
3378 Clear 21 1021 60 10000 4.1 230 12:24 08.05.2020
3379 Clear 20 1021 60 10000 4.1 210 11:55 08.05.2020
3380 Clear 21 1021 60 10000 4.1 210 11:37 08.05.2020
3381 Clear 21 1021 60 10000 4.1 210 11:18 08.05.2020
3382 Clear 21 1020 64 10000 4.1 220 10:45 08.05.2020
3383 Clear 20 1020 64 10000 4.1 220 10:22 08.05.2020
3384 Clear 19 1020 82 10000 4.6 230 10:00 08.05.2020
3385 Clear 19 1020 82 10000 4.6 230 09:40 08.05.2020
3386 Clear 18 1020 82 10000 4.6 230 09:19 08.05.2020
3387 Clear 18 1020 82 10000 4.6 230 09:19 08.05.2020
3388 Clear 16 1020 87 8000 0.5 0 08:50 08.05.2020
3389 Clouds 16 1020 87 8000 0.5 0 08:24 08.05.2020
3390 Clouds 16 1020 87 10000 3.1 230 07:54 08.05.2020
3391 Clouds 16 1020 87 10000 3.1 230 07:36 08.05.2020
3392 Clouds 16 1020 87 10000 3.1 230 07:18 08.05.2020
3393 Clouds 16 1019 93 10000 3.1 220 06:39 08.05.2020
3394 Clouds 15 1019 93 10000 3.1 220 06:18 08.05.2020
3395 Clouds 16 1019 93 10000 1.5 0 05:24 08.05.2020
3396 Clouds 16 1019 93 10000 3.6 210 03:21 08.05.2020
3397 Clouds 17 1020 87 10000 4.1 230 02:29 08.05.2020
3398 Clouds 17 1020 93 10000 5.7 230 01:39 08.05.2020
3399 Clouds 17 1020 93 10000 5.7 230 01:20 08.05.2020
3400 Clouds 17 1020 93 10000 4.6 210 00:47 08.05.2020
3401 Clouds 17 1020 93 10000 4.6 210 00:25 08.05.2020
3402 Clouds 17 1020 93 10000 4.6 230 23:46 07.05.2020
3403 Clouds 17 1020 93 10000 4.6 230 23:24 07.05.2020
3404 Clouds 17 1020 93 10000 6.7 220 22:59 07.05.2020
3405 Clouds 17 1020 93 10000 6.7 220 22:41 07.05.2020
3406 Clouds 17 1020 93 10000 6.7 220 22:20 07.05.2020
3407 Clouds 17 1021 88 10000 8.2 190 21:57 07.05.2020
3408 Clouds 17 1021 88 10000 8.2 190 21:38 07.05.2020
3409 Clouds 17 1021 88 10000 8.2 190 21:38 07.05.2020
3410 Clouds 17 1021 88 10000 8.2 190 21:20 07.05.2020
3411 Clouds 17 1021 93 10000 8.2 180 20:57 07.05.2020
3412 Clouds 17 1021 93 10000 8.2 180 20:37 07.05.2020
3413 Clouds 17 1021 93 10000 8.2 180 20:19 07.05.2020
3414 Clouds 17 1020 93 10000 6.7 180 19:46 07.05.2020
3415 Clouds 16 1020 93 10000 6.7 180 19:22 07.05.2020
3416 Clouds 16 1020 93 10000 5.1 190 18:55 07.05.2020
3417 Clouds 16 1020 93 10000 5.1 190 18:36 07.05.2020
3418 Clouds 16 1020 93 10000 5.1 190 18:36 07.05.2020
3419 Clouds 17 1020 93 10000 5.1 190 18:18 07.05.2020
3420 Clouds 18 1019 88 10000 3.6 180 17:41 07.05.2020
3421 Clouds 18 1019 88 10000 3.6 180 17:41 07.05.2020
3422 Clouds 19 1020 88 10000 5.1 180 17:20 07.05.2020
3423 Clouds 19 1019 77 10000 4.6 190 16:43 07.05.2020
3424 Clouds 20 1019 77 10000 4.6 190 16:19 07.05.2020
3425 Clouds 20 1019 77 10000 4.6 180 15:57 07.05.2020
3426 Clouds 21 1019 77 10000 4.6 180 15:38 07.05.2020
3427 Clouds 22 1019 77 10000 4.6 180 15:18 07.05.2020
3428 Clouds 22 1019 68 10000 4.1 170 14:56 07.05.2020
3429 Clouds 22 1019 68 10000 4.1 170 14:37 07.05.2020
3430 Clouds 22 1019 68 10000 4.1 170 14:18 07.05.2020
3431 Clouds 24 1020 60 10000 3.6 200 13:41 07.05.2020
3432 Clouds 24 1020 60 10000 3.6 200 13:22 07.05.2020
3433 Clouds 24 1020 60 10000 3.6 200 13:22 07.05.2020
3434 Clouds 24 1020 53 10000 1.5 220 12:43 07.05.2020
3435 Clouds 24 1020 53 10000 1.5 220 12:20 07.05.2020
3436 Clouds 24 1020 53 10000 1.5 220 12:20 07.05.2020
3437 Clouds 23 1020 56 10000 1.5 0 11:54 07.05.2020
3438 Clouds 23 1020 56 10000 1.5 0 11:36 07.05.2020
3439 Clouds 23 1020 56 10000 1.5 0 11:18 07.05.2020
3440 Clouds 20 1020 82 10000 1 70 10:40 07.05.2020
3441 Clouds 20 1020 82 10000 1 70 10:20 07.05.2020
3442 Clouds 17 1020 93 10000 1 20 09:40 07.05.2020
3443 Clouds 16 1020 93 10000 1 20 09:20 07.05.2020
3444 Clouds 12 1019 93 10000 1 20 08:56 07.05.2020
3445 Clouds 12 1019 93 10000 1 20 08:37 07.05.2020
3446 Clouds 12 1019 93 10000 1 20 08:19 07.05.2020
3447 Clouds 14 1019 87 10000 1 0 07:43 07.05.2020
3448 Clouds 12 1019 93 10000 0.5 0 07:43 07.05.2020
3449 Clouds 12 1019 93 10000 0.5 0 07:25 07.05.2020
3450 Clouds 13 1019 93 10000 1.5 190 06:45 07.05.2020
3451 Clouds 13 1019 93 10000 1.5 190 06:45 07.05.2020
3452 Clouds 13 1019 93 10000 1.5 190 06:23 07.05.2020
3453 Clouds 14 1019 93 10000 1 120 05:29 07.05.2020
3454 Clear 14 1019 93 10000 2.1 70 03:55 07.05.2020
3455 Clouds 14 1019 93 10000 2.1 70 03:24 07.05.2020
3456 Clouds 14 1019 93 10000 2.1 60 02:42 07.05.2020
3457 Clouds 15 1020 93 10000 2.1 70 01:42 07.05.2020
3458 Clouds 15 1020 93 10000 2.1 70 01:23 07.05.2020
3459 Clouds 16 1020 93 10000 1 30 00:45 07.05.2020
3460 Clouds 16 1020 93 10000 1 30 00:27 07.05.2020
3461 Clouds 16 1021 87 10000 1 0 23:47 06.05.2020
3462 Clouds 16 1021 87 10000 1 0 23:25 06.05.2020
3463 Clouds 17 1021 88 10000 3.6 230 22:58 06.05.2020
3464 Clouds 17 1021 88 10000 3.6 230 22:58 06.05.2020
3465 Clouds 17 1021 88 10000 3.6 230 22:39 06.05.2020
3466 Clouds 17 1021 88 10000 3.6 230 22:19 06.05.2020
3467 Clouds 18 1021 93 10000 3.6 220 21:57 06.05.2020
3468 Clouds 18 1021 93 10000 3.6 220 21:39 06.05.2020
3469 Clouds 17 1021 93 10000 3.6 220 21:20 06.05.2020
3470 Clouds 18 1021 88 10000 5.1 230 20:43 06.05.2020
3471 Clouds 18 1021 88 10000 5.1 230 20:24 06.05.2020
3472 Clouds 18 1021 88 10000 4.6 220 19:59 06.05.2020
3473 Clouds 18 1021 88 10000 4.6 220 19:39 06.05.2020
3474 Clouds 18 1021 88 10000 4.6 220 19:20 06.05.2020
3475 -273 0 0 0 0 0 18:59 06.05.2020
3476 Clouds 19 1021 82 10000 3.6 220 18:41 06.05.2020
3477 Clouds 19 1021 82 10000 3.6 220 18:21 06.05.2020
3478 Clouds 20 1021 77 10000 5.7 210 17:59 06.05.2020
3479 Clouds 20 1021 77 10000 5.7 210 17:40 06.05.2020
3480 Clouds 20 1021 77 10000 5.7 210 17:22 06.05.2020
3481 Clouds 22 1021 64 10000 4.6 220 16:58 06.05.2020
3482 Clouds 22 1021 64 10000 4.6 220 16:40 06.05.2020
3483 Clouds 22 1021 64 10000 4.6 220 16:21 06.05.2020
3484 Clouds 25 1021 47 10000 3.6 220 15:59 06.05.2020
3485 Clouds 25 1021 47 10000 3.6 220 15:59 06.05.2020
3486 Clouds 24 1021 47 10000 3.6 220 15:40 06.05.2020
3487 Clouds 25 1021 47 10000 3.6 220 15:21 06.05.2020
3488 Clouds 25 1021 44 10000 2.6 200 14:56 06.05.2020
3489 Clouds 25 1021 44 10000 2.6 200 14:37 06.05.2020
3490 Clear 24 1021 44 10000 2.6 200 14:18 06.05.2020
3491 Clear 24 1022 44 10000 3.6 210 13:43 06.05.2020
3492 Clear 24 1022 44 10000 3.6 210 13:24 06.05.2020
3493 Clear 24 1023 50 10000 2.6 180 12:58 06.05.2020
3494 Clear 25 1023 50 10000 2.6 180 12:39 06.05.2020
3495 Clear 24 1023 50 10000 2.6 180 12:21 06.05.2020
3496 Clear 23 1023 56 10000 4.6 190 11:41 06.05.2020
3497 Clear 23 1023 56 10000 4.6 190 11:21 06.05.2020
3498 Clear 22 1023 60 10000 3.6 180 10:58 06.05.2020
3499 Clear 21 1024 72 10000 3.1 220 10:38 06.05.2020
3500 Clear 21 1024 72 10000 3.1 220 10:19 06.05.2020
3501 Clear 19 1024 82 10000 2.6 140 09:45 06.05.2020
3502 Clear 17 1024 82 10000 2.6 140 09:24 06.05.2020
3503 Clear 16 1023 93 10000 4.6 220 08:50 06.05.2020
3504 Clear 17 1023 93 10000 4.6 220 08:24 06.05.2020
3505 Clear 17 1023 82 10000 3.6 180 07:59 06.05.2020
3506 Clear 17 1023 82 10000 3.6 180 07:40 06.05.2020
3507 Clear 16 1023 82 10000 3.6 180 07:21 06.05.2020
3508 Clear 16 1023 93 10000 5.1 230 06:53 06.05.2020
3509 Clear 16 1023 93 10000 5.1 230 06:22 06.05.2020
3510 Clear 16 1023 93 10000 4.1 230 05:55 06.05.2020
3511 Clear 16 1023 93 10000 4.1 230 05:37 06.05.2020
3512 Clear 17 1023 87 10000 5.7 220 04:40 06.05.2020
3513 Clear 17 1024 82 10000 4.1 210 03:44 06.05.2020
3514 Clear 17 1024 82 10000 4.1 210 03:22 06.05.2020
3515 Clouds 17 1024 88 10000 4.6 210 02:30 06.05.2020
3516 Clouds 17 1024 88 10000 4.1 210 01:55 06.05.2020
3517 Clouds 17 1025 88 10000 4.1 210 01:33 06.05.2020
3518 Clouds 18 1025 88 10000 4.1 210 00:54 06.05.2020
3519 Clouds 18 1025 88 10000 4.1 210 00:27 06.05.2020
3520 Clouds 18 1025 88 10000 5.1 200 23:57 05.05.2020
3521 Clouds 18 1025 88 10000 5.1 200 23:38 05.05.2020
3522 Clouds 18 1025 88 10000 5.1 200 23:18 05.05.2020
3523 Clouds 18 1025 88 10000 4.1 210 22:42 05.05.2020
3524 Clouds 18 1025 88 10000 4.1 210 22:20 05.05.2020
3525 Clouds 18 1025 88 10000 3.6 200 21:58 05.05.2020
3526 Clouds 18 1025 88 10000 3.6 200 21:58 05.05.2020
3527 Clouds 18 1025 88 10000 3.6 200 21:39 05.05.2020
3528 Clouds 18 1025 88 10000 3.6 200 21:21 05.05.2020
3529 Clouds 18 1025 88 10000 4.6 200 20:58 05.05.2020
3530 Clouds 18 1025 88 10000 4.6 200 20:39 05.05.2020
3531 Clouds 18 1025 88 10000 4.6 200 20:19 05.05.2020
3532 Clouds 18 1025 88 10000 4.1 200 19:57 05.05.2020
3533 Clouds 18 1025 88 10000 4.1 200 19:37 05.05.2020
3534 Clouds 18 1025 88 10000 4.1 200 19:18 05.05.2020
3535 Clouds 19 1025 82 10000 6.2 190 18:54 05.05.2020
3536 Clouds 19 1025 82 10000 6.2 190 18:36 05.05.2020
3537 Clouds 19 1025 82 10000 6.2 190 18:18 05.05.2020
3538 Clouds 21 1025 68 10000 5.7 190 17:41 05.05.2020
3539 Clouds 21 1025 68 10000 5.7 190 17:23 05.05.2020
3540 Clouds 21 1025 68 10000 6.2 180 16:57 05.05.2020
3541 Clouds 21 1025 68 10000 6.2 180 16:36 05.05.2020
3542 Clouds 21 1025 68 10000 6.2 180 16:18 05.05.2020
3543 Clouds 22 1025 64 10000 5.1 160 15:54 05.05.2020
3544 Clouds 22 1025 64 10000 5.1 160 15:36 05.05.2020
3545 Clouds 22 1025 64 10000 5.1 160 15:36 05.05.2020
3546 Clouds 22 1025 60 10000 5.7 180 15:18 05.05.2020
3547 Clouds 22 1025 60 10000 5.7 180 14:42 05.05.2020
3548 Clouds 22 1025 60 10000 5.7 180 14:24 05.05.2020
3549 Clouds 22 1026 60 10000 5.1 180 13:58 05.05.2020
3550 Clouds 22 1026 60 10000 5.1 180 13:58 05.05.2020
3551 Clouds 23 1026 60 10000 5.1 180 13:40 05.05.2020
3552 Clouds 23 1026 60 10000 5.1 180 13:21 05.05.2020
3553 Clouds 22 1026 64 10000 3.1 150 12:59 05.05.2020
3554 Clouds 22 1026 64 10000 3.1 150 12:39 05.05.2020
3555 Clouds 21 1026 64 10000 3.1 150 12:20 05.05.2020
3556 Clouds 21 1027 68 10000 3.1 150 11:57 05.05.2020
3557 Clouds 21 1027 68 10000 3.1 150 11:36 05.05.2020
3558 Clouds 21 1027 68 10000 3.1 150 11:18 05.05.2020
3559 Clouds 20 1027 72 10000 2.6 150 11:18 05.05.2020
3560 Clouds 19 1027 82 10000 1.5 0 10:39 05.05.2020
3561 Clouds 19 1027 82 10000 1.5 0 10:39 05.05.2020
3562 Clouds 18 1027 82 10000 1.5 0 10:20 05.05.2020
3563 Clouds 17 1027 93 10000 1.5 150 09:59 05.05.2020
3564 Clouds 17 1027 93 10000 1.5 150 09:59 05.05.2020
3565 Clouds 16 1027 93 10000 1.5 150 09:41 05.05.2020
3566 Clouds 16 1027 93 10000 1.5 150 09:22 05.05.2020
3567 Clouds 14 1026 93 10000 2.6 190 08:42 05.05.2020
3568 Clouds 14 1026 93 10000 2.6 190 08:21 05.05.2020
3569 Clouds 14 1025 93 10000 2.82 160 07:58 05.05.2020
3570 Clouds 13 1025 93 10000 2.82 160 07:39 05.05.2020
3571 Clouds 11 1025 93 10000 2.61 157 07:19 05.05.2020
3572 Clouds 11 1025 93 10000 1.5 0 06:49 05.05.2020
3573 Clouds 11 1025 93 10000 1.5 0 06:23 05.05.2020
3574 Clouds 12 1024 93 10000 1.5 0 05:39 05.05.2020
3575 Clear 14 1024 93 10000 1 70 03:39 05.05.2020
3576 Clouds 15 1025 93 10000 3.6 220 02:18 05.05.2020
3577 Clouds 15 1025 93 10000 3.6 220 00:54 05.05.2020
3578 Clouds 15 1025 93 10000 3.6 220 00:22 05.05.2020
3579 Clouds 15 1025 87 10000 2.6 200 23:46 04.05.2020
3580 Clouds 15 1025 87 10000 2.6 200 23:23 04.05.2020
3581 Clouds 15 1025 93 10000 3.1 200 22:57 04.05.2020
3582 Clouds 15 1025 93 10000 3.1 200 22:38 04.05.2020
3583 Clouds 15 1025 93 10000 3.1 200 22:19 04.05.2020
3584 Clouds 15 1024 93 10000 1 190 21:56 04.05.2020
3585 Clouds 15 1024 93 10000 1 190 21:35 04.05.2020
3586 Clear 16 1024 87 10000 3.1 200 21:03 04.05.2020
3587 Clear 16 1024 87 10000 3.1 200 21:03 04.05.2020
3588 Clear 16 1024 87 10000 3.1 200 21:03 04.05.2020
3589 Clear 16 1024 87 10000 3.1 200 21:03 04.05.2020
3590 Clear 16 1024 87 10000 3.1 200 21:01 04.05.2020
3591 Clear 16 1024 87 10000 3.1 200 20:38 04.05.2020
3592 Clear 16 1024 87 10000 3.1 200 20:18 04.05.2020
3593 Clear 16 1023 87 10000 3.1 190 19:43 04.05.2020
3594 Clear 16 1023 87 10000 3.1 190 19:23 04.05.2020
3595 Clear 16 1023 87 10000 3.1 190 19:23 04.05.2020
3596 Clear 17 1023 77 10000 4.6 160 18:58 04.05.2020
3597 Clear 17 1023 77 10000 4.6 160 18:38 04.05.2020
3598 Clear 17 1023 77 10000 4.6 160 18:38 04.05.2020
3599 Clear 18 1022 72 10000 5.7 160 18:19 04.05.2020
3600 Clear 18 1022 72 10000 5.7 160 17:56 04.05.2020
3601 Clear 18 1022 72 10000 5.7 160 17:37 04.05.2020
3602 Clear 19 1022 72 10000 5.7 160 17:18 04.05.2020
3603 Clear 19 1022 72 10000 5.7 160 17:18 04.05.2020
3604 Clear 20 1021 60 10000 5.7 180 16:43 04.05.2020
3605 Clear 21 1021 60 10000 5.7 180 16:22 04.05.2020
3606 Clear 21 1021 52 10000 4.6 220 15:55 04.05.2020
3607 Clear 21 1021 52 10000 4.6 220 15:37 04.05.2020
3608 Clear 21 1021 52 10000 4.6 220 15:18 04.05.2020
3609 Clear 22 1021 46 10000 3.1 250 14:48 04.05.2020
3610 Clear 22 1021 46 10000 3.1 250 14:48 04.05.2020
3611 Clear 22 1021 46 10000 3.1 250 14:48 04.05.2020
3612 Clear 22 1021 46 10000 3.1 250 14:48 04.05.2020
3613 Clear 21 1021 46 10000 3.1 250 14:20 04.05.2020
3614 Clear 21 1022 56 10000 2.1 280 12:57 04.05.2020
3615 Clear 21 1022 56 10000 2.1 280 12:37 04.05.2020
3616 Clear 21 1022 56 10000 2.1 280 12:37 04.05.2020
3617 Clear 21 1022 56 10000 2.1 280 12:37 04.05.2020
3618 Clear 19 1022 72 10000 1 0 10:38 04.05.2020
3619 Clear 15 1022 82 10000 1.5 0 09:26 04.05.2020
3620 Clear 15 1022 82 10000 1.5 0 09:26 04.05.2020
3621 Clear 15 1022 82 10000 1.5 0 09:26 04.05.2020
3622 Clear 15 1022 82 10000 1.5 0 09:26 04.05.2020
3623 Clear 15 1022 82 10000 1.5 0 09:26 04.05.2020
3624 Clouds 10 1021 93 10000 1 280 07:53 04.05.2020
3625 Clouds 11 1021 93 10000 1 280 07:33 04.05.2020
3626 Clouds 11 1021 93 10000 1 280 07:33 04.05.2020
3627 Clouds 11 1021 93 10000 1 280 07:33 04.05.2020
3628 Clouds 11 1021 93 10000 1 280 07:33 04.05.2020
3629 Clouds 11 1021 93 10000 1 280 07:33 04.05.2020
3630 Clouds 12 1020 93 10000 1 0 05:18 04.05.2020
3631 Clouds 12 1021 93 10000 1.5 150 04:02 04.05.2020
3632 Clouds 12 1021 93 10000 1.5 300 02:32 04.05.2020
3633 Clouds 13 1021 87 10000 1 0 01:19 04.05.2020
3634 Clouds 15 1022 77 10000 1.5 270 23:58 03.05.2020
3635 Clouds 15 1022 77 10000 1.5 270 23:40 03.05.2020
3636 Clouds 15 1022 77 10000 1.5 270 23:22 03.05.2020
3637 Clouds 16 1022 72 10000 3.1 200 22:42 03.05.2020
3638 Clouds 16 1022 72 10000 3.1 200 22:42 03.05.2020
3639 Clouds 16 1022 72 10000 3.1 200 22:22 03.05.2020
3640 Clouds 16 1022 72 10000 4.6 170 21:42 03.05.2020
3641 Clouds 16 1022 72 10000 4.6 170 21:42 03.05.2020
3642 Clouds 16 1022 72 10000 4.6 170 21:42 03.05.2020
3643 Clouds 16 1022 72 10000 4.6 170 21:22 03.05.2020
3644 Clouds 16 1022 67 10000 5.7 180 20:54 03.05.2020
3645 Clouds 16 1022 67 10000 5.7 180 20:36 03.05.2020
3646 Clouds 16 1022 67 10000 5.7 180 20:18 03.05.2020
3647 Clouds 16 1022 77 10000 3.6 190 19:46 03.05.2020
3648 Clouds 15 1022 77 10000 3.6 190 19:46 03.05.2020
3649 Clouds 16 1022 77 10000 3.6 190 19:27 03.05.2020
3650 Clouds 16 1022 77 10000 3.6 190 19:26 03.05.2020
3651 Clouds 17 1022 63 10000 4.6 170 18:40 03.05.2020
3652 Clouds 17 1022 63 10000 4.6 170 18:21 03.05.2020
3653 Clouds 17 1022 59 10000 6.2 160 17:59 03.05.2020
3654 Clouds 17 1021 59 10000 8.7 170 17:40 03.05.2020
3655 Clouds 17 1021 59 10000 8.7 170 17:20 03.05.2020
3656 Clouds 17 1021 59 10000 8.7 170 17:20 03.05.2020
3657 Clouds 17 1021 59 10000 8.7 170 16:45 03.05.2020
3658 Clouds 18 1021 59 10000 8.7 170 16:20 03.05.2020
3659 Clouds 18 1021 59 10000 8.7 170 16:20 03.05.2020
3660 Clouds 18 1021 59 10000 7.2 160 15:58 03.05.2020
3661 Clouds 18 1021 59 10000 7.2 160 15:39 03.05.2020
3662 Clouds 18 1021 59 10000 7.2 160 15:20 03.05.2020
3663 Clouds 18 1021 63 10000 9.3 170 14:57 03.05.2020
3664 Clouds 18 1021 63 10000 9.3 170 14:38 03.05.2020
3665 Clouds 17 1021 63 10000 9.3 170 14:20 03.05.2020
3666 Clouds 17 1022 63 10000 7.2 180 13:41 03.05.2020
3667 Clouds 17 1022 63 10000 7.2 180 13:41 03.05.2020
3668 Clouds 18 1022 68 10000 6.7 170 12:59 03.05.2020
3669 Clouds 18 1022 68 10000 6.7 170 12:59 03.05.2020
3670 Clouds 18 1022 68 10000 6.7 170 12:59 03.05.2020
3671 Clouds 18 1022 68 10000 6.7 170 12:39 03.05.2020
3672 Clouds 18 1022 68 10000 6.7 170 12:18 03.05.2020
3673 Clouds 17 1022 77 10000 7.7 170 11:41 03.05.2020
3674 Clouds 17 1022 77 10000 7.7 170 11:21 03.05.2020
3675 Clouds 17 1022 93 10000 6.2 150 10:59 03.05.2020
3676 Clouds 17 1022 93 10000 6.2 150 10:39 03.05.2020
3677 Clouds 17 1022 93 10000 6.2 150 10:39 03.05.2020
3678 Clouds 17 1022 93 10000 6.2 150 10:39 03.05.2020
3679 Clouds 17 1022 93 10000 6.2 150 10:39 03.05.2020
3680 Rain 17 1021 100 6000 6.2 170 09:48 03.05.2020
3681 Drizzle 17 1021 100 6000 6.2 170 09:48 03.05.2020
3682 Rain 17 1021 100 6000 6.2 170 09:48 03.05.2020
3683 Rain 17 1021 100 6000 6.2 170 09:48 03.05.2020
3684 Rain 17 1021 100 6000 6.2 170 09:48 03.05.2020
3685 Rain 16 1021 100 6000 6.2 170 09:27 03.05.2020
3686 Drizzle 16 1021 100 6000 6.2 170 09:27 03.05.2020
3687 Drizzle 16 1021 100 6000 6.2 170 09:27 03.05.2020
3688 Rain 16 1021 100 5000 5.7 180 08:50 03.05.2020
3689 Rain 16 1021 100 5000 5.7 180 08:50 03.05.2020
3690 Rain 16 1020 100 10000 5.1 180 08:19 03.05.2020
3691 Rain 16 1020 100 10000 5.1 180 08:19 03.05.2020
3692 Rain 16 1020 100 10000 5.1 180 08:19 03.05.2020
3693 Rain 16 1020 100 10000 5.1 180 08:19 03.05.2020
3694 Rain 16 1020 100 7000 3.6 170 07:38 03.05.2020
3695 Rain 16 1019 93 800 3.6 250 06:19 03.05.2020
3696 Fog 16 1019 93 800 4.1 330 05:44 03.05.2020
3697 Fog 15 1019 93 800 4.1 320 04:29 03.05.2020
3698 Fog 16 1019 100 800 4.1 330 03:58 03.05.2020
3699 Fog 16 1019 100 2000 4.1 320 02:53 03.05.2020
3700 Fog 16 1019 100 2000 4.1 320 02:22 03.05.2020
3701 Clouds 17 1019 93 10000 4.1 330 01:42 03.05.2020
3702 Clouds 17 1019 93 10000 4.1 330 01:24 03.05.2020
3703 Rain 17 1019 93 3000 2.6 280 00:41 03.05.2020
3704 Rain 17 1019 93 3000 2.6 280 00:21 03.05.2020
3705 Rain 17 1019 93 3000 2.6 10 23:56 02.05.2020
3706 Rain 17 1019 93 3000 2.6 10 23:38 02.05.2020
3707 Rain 17 1019 93 3000 2.6 10 23:19 02.05.2020
3708 Rain 17 1019 93 6000 2.6 10 22:42 02.05.2020
3709 Rain 17 1019 93 6000 2.6 10 22:23 02.05.2020
3710 Rain 17 1019 93 10000 3.6 350 21:55 02.05.2020
3711 Rain 17 1019 93 10000 3.6 350 21:37 02.05.2020
3712 Rain 17 1019 93 10000 3.6 350 21:18 02.05.2020
3713 Clouds 17 1018 88 10000 5.7 340 20:55 02.05.2020
3714 Clouds 17 1018 88 10000 5.7 340 20:37 02.05.2020
3715 Clouds 17 1018 88 10000 5.7 340 20:18 02.05.2020
3716 Clouds 17 1017 88 10000 5.1 320 19:55 02.05.2020
3717 Clouds 17 1017 88 10000 5.1 320 19:36 02.05.2020
3718 Clouds 17 1017 88 10000 5.1 320 19:18 02.05.2020
3719 Clouds 18 1017 88 10000 5.1 320 18:40 02.05.2020
3720 Clouds 18 1017 88 10000 5.1 320 18:22 02.05.2020
3721 Clouds 19 1017 77 10000 5.7 300 17:57 02.05.2020
3722 Clouds 19 1017 77 10000 5.7 300 17:39 02.05.2020
3723 Clouds 19 1017 77 10000 5.7 300 17:20 02.05.2020
3724 Clouds 20 1016 82 10000 6.2 310 16:57 02.05.2020
3725 Clouds 20 1016 82 10000 6.2 310 16:39 02.05.2020
3726 Clouds 20 1016 82 10000 6.2 310 16:20 02.05.2020
3727 Clouds 20 1016 77 10000 6.2 310 15:42 02.05.2020
3728 Clouds 20 1016 77 10000 6.2 310 15:20 02.05.2020
3729 Clouds 20 1016 72 10000 6.7 320 14:46 02.05.2020
3730 Clouds 20 1016 72 10000 6.7 320 14:28 02.05.2020
3731 Clouds 20 1017 77 10000 6.2 320 13:59 02.05.2020
3732 Clouds 20 1017 77 10000 6.2 320 13:40 02.05.2020
3733 Clouds 20 1017 77 10000 6.2 320 13:21 02.05.2020
3734 Clouds 20 1017 88 10000 5.7 330 12:43 02.05.2020
3735 Clouds 19 1017 88 10000 5.7 330 12:25 02.05.2020
3736 Clouds 19 1017 93 10000 5.1 330 11:59 02.05.2020
3737 Clouds 19 1017 93 10000 5.7 340 11:40 02.05.2020
3738 Clouds 18 1017 93 10000 5.7 340 11:22 02.05.2020
3739 Clouds 18 1017 100 10000 4.6 330 10:57 02.05.2020
3740 Mist 17 1017 100 5000 2.1 360 10:38 02.05.2020
3741 Mist 16 1017 100 5000 2.1 360 10:20 02.05.2020
3742 Mist 16 1017 100 5000 2.1 360 10:20 02.05.2020
3743 Fog 16 1017 100 1500 2.1 360 09:55 02.05.2020
3744 Fog 15 1017 100 1500 1.5 0 09:36 02.05.2020
3745 Fog 15 1017 100 1500 1.5 0 09:18 02.05.2020
3746 Fog 14 1017 100 700 2.1 50 08:45 02.05.2020
3747 Fog 14 1017 100 700 2.1 50 08:25 02.05.2020
3748 Fog 14 1017 93 400 2.1 60 07:47 02.05.2020
3749 Fog 14 1017 93 150 1.5 60 07:28 02.05.2020
3750 Fog 14 1017 100 150 1 0 06:50 02.05.2020
3751 Fog 15 1016 100 600 0.5 0 05:29 02.05.2020
3752 Fog 15 1017 100 500 1 0 04:48 02.05.2020
3753 Fog 15 1017 100 500 1 0 04:24 02.05.2020
3754 Fog 15 1017 100 100 1 0 02:44 02.05.2020
3755 Fog 15 1017 100 100 1 0 02:24 02.05.2020
3756 Fog 11 1018 100 500 0.5 0 01:49 02.05.2020
3757 Fog 14 1018 100 100 1 80 00:48 02.05.2020
3758 Fog 13 1018 100 100 1 80 00:29 02.05.2020
3759 Fog 13 1018 100 500 1 140 23:58 01.05.2020
3760 Fog 13 1018 100 500 1 140 23:39 01.05.2020
3761 Fog 13 1018 100 500 1 140 23:20 01.05.2020
3762 Fog 13 1019 93 500 1.5 170 22:55 01.05.2020
3763 Fog 13 1019 93 500 1.5 170 22:37 01.05.2020
3764 Fog 13 1019 93 500 1.5 170 22:18 01.05.2020
3765 Fog 13 1019 93 500 1.5 170 22:18 01.05.2020
3766 Fog 16 1018 93 350 1.5 120 21:55 01.05.2020
3767 Fog 16 1018 93 350 1.5 120 21:37 01.05.2020
3768 Fog 14 1018 93 350 1.5 120 21:18 01.05.2020
3769 Clear 14 1019 93 10000 2.6 130 20:55 01.05.2020
3770 Clouds 16 1019 72 10000 1.5 140 20:37 01.05.2020
3771 Clear 16 1019 72 10000 1.5 140 20:37 01.05.2020
3772 Clouds 16 1019 72 10000 1.5 140 20:18 01.05.2020
3773 Clouds 18 1019 72 10000 1.5 140 19:41 01.05.2020
3774 Clouds 18 1019 72 10000 1.5 140 19:22 01.05.2020
3775 Clouds 19 1018 63 10000 3.1 160 18:57 01.05.2020
3776 Clouds 19 1018 63 10000 3.1 160 18:39 01.05.2020
3777 Clouds 20 1018 63 10000 3.1 160 18:19 01.05.2020
3778 Clouds 22 1018 49 10000 3.1 170 17:56 01.05.2020
3779 Clouds 23 1018 49 10000 3.1 170 17:38 01.05.2020
3780 Clouds 22 1018 49 10000 3.1 170 17:20 01.05.2020
3781 Clouds 22 1018 49 10000 2.6 150 16:55 01.05.2020
3782 Clouds 22 1018 49 10000 2.6 150 16:37 01.05.2020
3783 Clouds 22 1018 49 10000 2.6 150 16:18 01.05.2020
3784 Clouds 23 1019 50 10000 3.1 170 15:42 01.05.2020
3785 Clouds 24 1019 50 10000 3.1 170 15:24 01.05.2020
3786 Clouds 24 1019 44 10000 1 0 14:58 01.05.2020
3787 Clouds 24 1019 44 10000 1 0 14:39 01.05.2020
3788 Clouds 24 1019 44 10000 1 0 14:21 01.05.2020
3789 Clouds 23 1020 49 10000 2.1 250 13:41 01.05.2020
3790 Clouds 23 1020 49 10000 2.1 250 13:22 01.05.2020
3791 Clouds 23 1020 60 10000 1.5 0 12:58 01.05.2020
3792 Clouds 22 1020 60 10000 1.5 0 12:40 01.05.2020
3793 Clouds 21 1020 60 10000 1.5 0 12:19 01.05.2020
3794 Clouds 21 1021 72 10000 2.6 210 11:58 01.05.2020
3795 Clouds 21 1021 72 10000 2.6 210 11:39 01.05.2020
3796 Clouds 21 1021 72 10000 2.6 210 11:19 01.05.2020
3797 Clouds 19 1022 93 10000 1 0 10:41 01.05.2020
3798 Clouds 19 1022 93 10000 1 0 10:20 01.05.2020
3799 Clouds 17 1022 93 10000 0.5 0 09:55 01.05.2020
3800 Clouds 16 1022 100 6000 1.5 350 09:37 01.05.2020
3801 Clouds 14 1022 100 6000 1.5 350 09:18 01.05.2020
3802 Fog 11 1021 100 800 1.5 350 08:42 01.05.2020
3803 Fog 10 1021 100 800 1.5 350 08:24 01.05.2020
3804 Fog 10 1021 100 800 1.5 340 07:47 01.05.2020
3805 Fog 10 1021 100 800 1.5 340 07:23 01.05.2020
3806 Fog 12 1021 93 150 2.1 40 06:57 01.05.2020
3807 Fog 12 1020 93 800 1 340 05:41 01.05.2020
3808 Fog 12 1020 93 800 1 340 05:19 01.05.2020
3809 Mist 12 1021 93 5000 0.5 0 03:42 01.05.2020
3810 Clouds 12 1021 93 7000 2.1 80 02:50 01.05.2020
3811 Fog 11 1020 93 200 1.5 90 02:32 01.05.2020
3812 Clouds 13 1020 93 7000 0.5 0 01:42 01.05.2020
3813 Clouds 13 1020 93 7000 0.5 0 01:24 01.05.2020
3814 Clouds 14 1020 93 10000 2.1 310 00:39 01.05.2020
3815 Clouds 14 1020 93 10000 2.1 310 00:20 01.05.2020
3816 Clouds 16 1020 87 10000 3.1 330 23:57 30.04.2020
3817 Clouds 16 1020 87 10000 3.1 330 23:38 30.04.2020
3818 Clouds 16 1020 87 10000 3.1 330 23:19 30.04.2020
3819 Clouds 16 1020 87 10000 2.6 350 22:54 30.04.2020
3820 Clouds 16 1020 87 10000 2.6 350 22:36 30.04.2020
3821 Clouds 16 1020 87 10000 2.6 350 22:18 30.04.2020
3822 Clouds 16 1020 82 10000 1 0 21:41 30.04.2020
3823 Clouds 16 1020 82 10000 1 0 21:21 30.04.2020
3824 Clouds 17 1020 67 10000 2.1 40 20:57 30.04.2020
3825 Clouds 17 1020 67 10000 2.1 40 20:39 30.04.2020
3826 Clouds 17 1020 67 10000 2.1 40 20:18 30.04.2020
3827 Clouds 17 1020 67 10000 2.1 40 20:18 30.04.2020
3828 Clouds 17 1020 67 10000 2.1 40 20:18 30.04.2020
3829 Clouds 18 1019 63 10000 4.1 340 19:46 30.04.2020
3830 Clouds 18 1019 63 10000 4.1 340 19:26 30.04.2020
3831 Clouds 19 1018 37 10000 6.2 330 18:57 30.04.2020
3832 Clouds 20 1018 37 10000 6.2 330 18:39 30.04.2020
3833 Clouds 21 1018 37 10000 6.2 330 18:21 30.04.2020
3834 Clouds 22 1018 29 10000 6.2 320 17:57 30.04.2020
3835 Clouds 23 1018 29 10000 6.2 320 17:39 30.04.2020
3836 Clouds 24 1018 29 10000 6.2 320 17:39 30.04.2020
3837 Clouds 24 1018 29 10000 6.2 320 17:20 30.04.2020
3838 Clouds 24 1018 27 10000 6.7 310 16:56 30.04.2020
3839 Clouds 24 1018 27 10000 6.7 310 16:38 30.04.2020
3840 Clouds 25 1018 27 10000 6.7 310 16:18 30.04.2020
3841 Clouds 26 1017 22 10000 6.7 310 15:45 30.04.2020
3842 Clouds 24 1017 22 10000 6.7 310 15:24 30.04.2020
3843 Clouds 24 1018 31 10000 5.1 320 14:56 30.04.2020
3844 Clear 24 1018 31 10000 5.1 320 14:38 30.04.2020
3845 Clear 24 1018 31 10000 5.1 320 14:18 30.04.2020
3846 Clear 25 1018 36 10000 3.6 310 13:54 30.04.2020
3847 Clear 25 1018 36 10000 3.6 310 13:36 30.04.2020
3848 Clear 25 1018 36 10000 3.6 310 13:36 30.04.2020
3849 Clear 26 1018 36 10000 3.6 310 13:18 30.04.2020
3850 Clear 25 1019 38 10000 3.6 340 12:41 30.04.2020
3851 Clear 22 1019 38 10000 3.6 340 12:19 30.04.2020
3852 Clear 24 1019 38 10000 3.1 320 11:57 30.04.2020
3853 Clear 23 1019 43 10000 2.6 340 11:36 30.04.2020
3854 Clear 22 1019 43 10000 2.6 340 11:18 30.04.2020
3855 Clear 21 1020 48 10000 1 0 10:41 30.04.2020
3856 Clear 20 1020 48 10000 1 0 10:21 30.04.2020
3857 Clear 18 1019 52 10000 0.5 0 09:57 30.04.2020
3858 Clear 17 1019 63 10000 1 0 09:39 30.04.2020
3859 Clear 16 1019 63 10000 1 0 09:20 30.04.2020
3860 Clear 16 1019 63 10000 1 0 09:20 30.04.2020
3861 Clear 13 1019 76 10000 1 10 08:47 30.04.2020
3862 Clear 11 1019 76 10000 1.5 0 08:26 30.04.2020
3863 Clear 10 1018 76 10000 2.6 30 07:57 30.04.2020
3864 Clear 10 1018 76 10000 2.6 30 07:39 30.04.2020
3865 Clear 10 1018 76 10000 2.6 30 07:19 30.04.2020
3866 Clear 9 1018 81 10000 0.5 70 06:32 30.04.2020
3867 Clear 12 1017 71 10000 1 330 05:47 30.04.2020
3868 Clear 11 1017 81 10000 2.6 20 04:48 30.04.2020
3869 Clear 11 1017 81 10000 2.6 20 04:24 30.04.2020
3870 Clear 12 1018 81 10000 1 0 02:52 30.04.2020
3871 Clouds 11 1018 81 10000 1 0 02:28 30.04.2020
3872 Clouds 12 1018 81 10000 2.6 40 01:38 30.04.2020
3873 Clouds 12 1018 81 10000 1 50 00:53 30.04.2020
3874 Clouds 12 1018 81 10000 1 50 00:25 30.04.2020
3875 Clouds 14 1019 71 10000 0.5 0 23:59 29.04.2020
3876 Clouds 14 1019 71 10000 0.5 0 23:59 29.04.2020
3877 -273 0 0 0 0 0 23:59 29.04.2020
3878 Clouds 14 1019 71 10000 0.5 0 23:41 29.04.2020
3879 Clouds 14 1019 71 10000 0.5 0 23:23 29.04.2020
3880 Clouds 14 1018 67 10000 1 0 22:58 29.04.2020
3881 Clouds 14 1018 67 10000 1 0 22:39 29.04.2020
3882 Clouds 14 1018 67 10000 1 0 22:19 29.04.2020
3883 Clouds 14 1018 62 10000 2.1 150 21:39 29.04.2020
3884 Clear 14 1018 62 10000 2.1 150 21:20 29.04.2020
3885 Clear 15 1018 59 10000 1.5 140 20:58 29.04.2020
3886 Clear 15 1018 59 10000 1.5 140 20:40 29.04.2020
3887 Clear 16 1018 59 10000 1.5 140 20:19 29.04.2020
3888 Clear 20 1018 45 10000 2.1 110 19:57 29.04.2020
3889 Clear 20 1018 45 10000 2.1 110 19:39 29.04.2020
3890 Clear 19 1018 45 10000 2.1 110 19:18 29.04.2020
3891 Clear 20 1018 43 10000 4.6 110 18:42 29.04.2020
3892 Clear 21 1018 43 10000 4.6 110 18:20 29.04.2020
3893 Clear 23 1018 27 10000 4.1 320 17:55 29.04.2020
3894 Clear 24 1018 27 10000 4.1 320 17:37 29.04.2020
3895 Clear 24 1018 27 10000 4.1 320 17:18 29.04.2020
3896 Clear 25 1018 27 10000 6.7 300 16:37 29.04.2020
3897 Clear 25 1018 27 10000 6.7 300 16:19 29.04.2020
3898 Clear 25 1017 27 10000 6.2 320 15:57 29.04.2020
3899 Clear 25 1017 27 10000 6.2 320 15:39 29.04.2020
3900 Clear 26 1017 27 10000 6.2 320 15:20 29.04.2020
3901 Clear 25 1018 26 10000 5.7 300 14:46 29.04.2020
3902 Clear 25 1018 26 10000 5.7 300 14:27 29.04.2020
3903 Clear 25 1018 26 10000 5.7 300 14:27 29.04.2020
3904 Clear 25 1019 24 10000 6.7 310 13:59 29.04.2020
3905 Clear 26 1019 24 10000 6.7 310 13:40 29.04.2020
3906 Clear 26 1019 24 10000 6.7 310 13:20 29.04.2020
3907 Clear 26 1019 24 10000 6.7 310 13:20 29.04.2020
3908 Clear 25 1019 26 10000 5.7 310 12:57 29.04.2020
3909 Clear 25 1019 26 10000 5.7 310 12:38 29.04.2020
3910 Clear 25 1019 26 10000 5.7 310 12:18 29.04.2020
3911 Clear 25 1019 26 10000 5.7 310 12:18 29.04.2020
3912 Clear 24 1019 31 10000 2.1 310 11:40 29.04.2020
3913 Clear 24 1019 31 10000 2.1 310 11:20 29.04.2020
3914 Clear 24 1019 31 10000 2.1 310 10:57 29.04.2020
3915 Clear 24 1019 35 10000 3.6 10 10:37 29.04.2020
3916 Clear 23 1019 35 10000 3.6 10 10:19 29.04.2020
3917 Clear 19 1019 68 10000 2.6 60 09:42 29.04.2020
3918 Clear 17 1019 68 10000 2.6 60 09:23 29.04.2020
3919 Clear 15 1019 82 10000 1.5 60 08:56 29.04.2020
3920 Clear 15 1019 87 10000 2.6 70 08:37 29.04.2020
3921 Clear 12 1019 87 10000 2.6 70 08:19 29.04.2020
3922 Clear 11 1019 87 10000 2.1 60 07:41 29.04.2020
3923 Clear 11 1019 87 10000 2.1 60 07:23 29.04.2020
3924 Clear 11 1019 87 10000 2.1 60 06:50 29.04.2020
3925 Clear 12 1019 87 10000 2.1 60 06:30 29.04.2020
3926 Clear 12 1019 81 10000 2.6 50 05:21 29.04.2020
3927 Clear 12 1019 81 10000 2.6 50 05:21 29.04.2020
3928 Clear 12 1019 87 10000 2.1 50 04:38 29.04.2020
3929 Clear 12 1019 87 10000 2.1 50 04:18 29.04.2020
3930 Clear 13 1020 87 10000 2.6 60 02:40 29.04.2020
3931 Clear 13 1021 87 10000 2.1 70 01:44 29.04.2020
3932 Clear 13 1021 87 10000 2.1 70 01:22 29.04.2020
3933 Clear 14 1021 82 10000 0.5 0 00:41 29.04.2020
3934 Clear 14 1021 82 10000 0.5 0 00:19 29.04.2020
3935 Clear 15 1021 87 10000 1 180 23:49 28.04.2020
3936 Clear 15 1021 87 10000 1 180 23:24 28.04.2020
3937 Clear 14 1021 93 10000 1 200 22:55 28.04.2020
3938 Clear 14 1021 93 10000 1 200 22:37 28.04.2020
3939 Clear 14 1021 93 10000 1 200 22:18 28.04.2020
3940 Clear 17 1021 82 10000 2.6 210 21:54 28.04.2020
3941 Clear 17 1021 82 10000 2.6 210 21:36 28.04.2020
3942 Clear 17 1021 82 10000 2.6 210 21:18 28.04.2020
3943 Clear 17 1021 67 10000 2.6 210 20:54 28.04.2020
3944 Clear 17 1021 67 10000 2.6 210 20:36 28.04.2020
3945 Clear 18 1021 67 10000 2.6 210 20:18 28.04.2020
3946 Clear 18 1021 63 10000 2.6 160 19:42 28.04.2020
3947 Clear 18 1021 63 10000 2.6 160 19:22 28.04.2020
3948 Clear 19 1021 49 10000 3.6 160 18:59 28.04.2020
3949 Clear 20 1021 49 10000 3.6 160 18:40 28.04.2020
3950 Clear 21 1021 49 10000 3.6 160 18:19 28.04.2020
3951 Clear 21 1021 49 10000 3.6 160 18:19 28.04.2020
3952 Clear 21 1021 49 10000 3.6 160 18:19 28.04.2020
3953 Clear 22 1021 40 10000 3.6 180 17:57 28.04.2020
3954 Clear 22 1021 40 10000 3.6 180 17:36 28.04.2020
3955 Clear 22 1021 40 10000 3.6 180 17:18 28.04.2020
3956 Clear 23 1021 41 10000 4.1 180 16:42 28.04.2020
3957 Clear 23 1021 41 10000 4.1 180 16:23 28.04.2020
3958 Clear 24 1021 41 10000 4.1 180 15:58 28.04.2020
3959 Clear 24 1021 41 10000 4.1 180 15:39 28.04.2020
3960 Clear 25 1021 41 10000 4.1 180 15:21 28.04.2020
3961 Clear 25 1021 33 10000 4.6 300 14:59 28.04.2020
3962 Clear 25 1021 33 10000 4.6 300 14:40 28.04.2020
3963 Clear 25 1021 33 10000 4.6 300 14:21 28.04.2020
3964 Clear 25 1022 36 10000 4.1 290 13:58 28.04.2020
3965 Clear 25 1022 36 10000 4.1 290 13:38 28.04.2020
3966 Clear 25 1022 36 10000 4.1 290 13:19 28.04.2020
3967 Clear 23 1023 43 10000 1 0 12:46 28.04.2020
3968 Clear 23 1023 43 10000 1 0 12:25 28.04.2020
3969 Clear 22 1023 49 10000 1.5 0 11:46 28.04.2020
3970 Clear 22 1023 49 10000 1.5 0 11:26 28.04.2020
3971 Clear 22 1023 49 10000 2.6 190 11:00 28.04.2020
3972 Clear 22 1023 49 10000 2.6 190 11:00 28.04.2020
3973 Clear 20 1023 55 10000 2.6 160 10:39 28.04.2020
3974 Clear 20 1023 55 10000 2.6 160 10:19 28.04.2020
3975 Clear 19 1023 67 10000 1.5 0 09:58 28.04.2020
3976 Clear 18 1023 82 10000 0.5 0 09:39 28.04.2020
3977 Clear 15 1023 82 10000 0.5 0 09:20 28.04.2020
3978 Clear 14 1023 87 10000 0.5 0 08:46 28.04.2020
3979 Clear 14 1022 87 10000 1 0 08:26 28.04.2020
3980 Clear 13 1022 93 10000 1 320 07:46 28.04.2020
3981 Clear 13 1022 93 10000 1 320 07:21 28.04.2020
3982 Clear 13 1022 93 10000 1 0 06:55 28.04.2020
3983 Clear 14 1022 93 10000 1 0 06:22 28.04.2020
3984 Clear 14 1021 87 10000 0.5 0 05:43 28.04.2020
3985 Clear 14 1021 87 10000 0.5 0 05:25 28.04.2020
3986 Clear 14 1021 87 10000 0.5 0 04:33 28.04.2020
3987 Clear 15 1022 82 10000 1.5 270 02:36 28.04.2020
3988 Clear 16 1023 77 10000 2.6 240 01:23 28.04.2020
3989 Clear 16 1023 77 10000 2.6 240 01:23 28.04.2020
3990 Clear 16 1023 76 10000 2.6 190 00:58 28.04.2020
3991 Clear 15 1023 76 10000 2.6 190 00:25 28.04.2020
3992 Clear 16 1023 72 10000 2.6 170 23:47 27.04.2020
3993 Clear 16 1023 72 10000 2.6 170 23:24 27.04.2020
3994 Clear 16 1022 72 10000 3.1 200 22:56 27.04.2020
3995 Clear 16 1022 72 10000 3.1 200 22:38 27.04.2020
3996 Clear 16 1022 72 10000 3.1 200 22:19 27.04.2020
3997 Clear 17 1022 63 10000 3.1 200 21:56 27.04.2020
3998 Clear 17 1022 63 10000 3.1 200 21:38 27.04.2020
3999 Clear 17 1022 63 10000 3.1 200 21:18 27.04.2020
4000 Clear 17 1022 72 10000 1 0 20:44 27.04.2020
4001 Clear 17 1022 72 10000 1 0 20:22 27.04.2020
4002 Clear 17 1021 67 10000 3.6 140 20:22 27.04.2020
4003 Clear 17 1022 72 10000 1 0 20:22 27.04.2020
4004 Clear 17 1021 67 10000 3.6 140 19:59 27.04.2020
4005 Clear 17 1021 67 10000 3.6 140 19:40 27.04.2020
4006 Clear 18 1021 67 10000 3.6 140 19:21 27.04.2020
4007 Clear 18 1021 59 10000 5.1 140 18:58 27.04.2020
4008 Clear 19 1021 59 10000 5.1 140 18:40 27.04.2020
4009 Clear 19 1021 59 10000 5.1 140 18:19 27.04.2020
4010 Clear 20 1021 52 10000 7.2 150 17:57 27.04.2020
4011 Clear 20 1021 52 10000 7.2 150 17:38 27.04.2020
4012 Clear 20 1021 52 10000 7.2 150 17:18 27.04.2020
4013 Clear 21 1021 56 10000 9.8 160 16:40 27.04.2020
4014 Clear 21 1021 56 10000 9.8 160 16:22 27.04.2020
4015 Clear 21 1021 46 10000 8.2 160 15:57 27.04.2020
4016 Clear 21 1021 46 10000 8.2 160 15:38 27.04.2020
4017 Clouds 22 1021 46 10000 8.2 160 15:19 27.04.2020
4018 Clouds 22 1021 46 10000 5.7 150 14:56 27.04.2020
4019 Clouds 22 1021 46 10000 5.7 150 14:38 27.04.2020
4020 Clouds 22 1021 46 10000 5.7 150 14:18 27.04.2020
4021 Clouds 22 1022 46 10000 6.2 160 13:42 27.04.2020
4022 Clouds 22 1022 46 10000 6.2 160 13:42 27.04.2020
4023 Clouds 22 1022 46 10000 6.2 160 13:21 27.04.2020
4024 Clouds 21 1023 52 10000 11.8 150 12:58 27.04.2020
4025 Clouds 21 1023 52 10000 11.8 150 12:40 27.04.2020
4026 Clouds 21 1023 52 10000 11.8 150 12:20 27.04.2020
4027 Clouds 21 1023 52 10000 10.3 150 11:41 27.04.2020
4028 Clouds 20 1023 55 10000 10.8 150 11:21 27.04.2020
4029 Clouds 19 1023 59 10000 13.4 150 10:58 27.04.2020
4030 Clouds 19 1023 59 10000 13.4 150 10:39 27.04.2020
4031 Clouds 19 1023 59 10000 13.4 150 10:20 27.04.2020
4032 Clouds 18 1023 63 10000 12.3 160 09:44 27.04.2020
4033 Clouds 18 1023 63 10000 12.3 160 09:21 27.04.2020
4034 Clouds 17 1022 72 10000 10.3 150 08:59 27.04.2020
4035 Clouds 16 1022 72 10000 10.3 150 08:41 27.04.2020
4036 Clouds 16 1022 72 10000 10.3 150 08:23 27.04.2020
4037 Clouds 16 1021 72 10000 11.8 150 07:44 27.04.2020
4038 Clouds 16 1021 77 10000 11.3 160 07:22 27.04.2020
4039 Clouds 17 1021 77 10000 9.3 170 06:56 27.04.2020
4040 Clouds 17 1021 77 10000 9.3 170 06:27 27.04.2020
4041 Clouds 17 1020 77 10000 8.2 160 05:50 27.04.2020
4042 Clouds 17 1021 82 10000 7.7 170 04:51 27.04.2020
4043 Clouds 18 1028 81 0 2.24 255 03:59 27.04.2020
4044 Clouds 18 1021 77 10000 10.3 160 03:36 27.04.2020
4045 Clouds 18 1021 82 10000 8.7 170 01:43 27.04.2020
4046 Clouds 18 1020 88 10000 9.3 170 00:59 27.04.2020
4047 Clouds 18 1020 88 10000 9.3 170 00:20 27.04.2020
4048 Clouds 18 1020 88 10000 9.8 170 23:58 26.04.2020
4049 Clouds 18 1020 88 10000 9.8 170 23:40 26.04.2020
4050 Clouds 18 1020 88 10000 9.8 170 23:21 26.04.2020
4051 Clouds 19 1019 82 10000 7.2 170 22:58 26.04.2020
4052 Clouds 19 1019 82 10000 7.2 170 22:39 26.04.2020
4053 Clouds 19 1019 82 10000 7.2 170 22:21 26.04.2020
4054 Clouds 19 1019 82 10000 5.7 170 21:58 26.04.2020
4055 Clouds 19 1019 82 10000 5.7 170 21:38 26.04.2020
4056 Clouds 19 1019 82 10000 5.7 170 21:18 26.04.2020
4057 Clouds 19 1018 82 10000 7.2 180 20:55 26.04.2020
4058 Clouds 19 1018 82 10000 7.2 180 20:37 26.04.2020
4059 Clouds 19 1018 82 10000 7.2 180 20:18 26.04.2020
4060 Clouds 19 1018 82 10000 7.7 170 19:56 26.04.2020
4061 Clouds 19 1018 82 10000 7.7 170 19:36 26.04.2020
4062 Clouds 20 1018 82 10000 7.7 170 19:18 26.04.2020
4063 Clouds 20 1018 77 10000 6.7 180 18:43 26.04.2020
4064 Clouds 20 1018 77 10000 6.7 180 18:24 26.04.2020
4065 Clouds 21 1017 77 10000 7.2 180 17:43 26.04.2020
4066 Clouds 21 1017 77 10000 7.2 180 17:23 26.04.2020
4067 Clouds 21 1017 73 10000 8.2 190 16:57 26.04.2020
4068 Clouds 21 1017 73 10000 8.2 190 16:38 26.04.2020
4069 Clouds 22 1016 68 10000 7.2 170 16:19 26.04.2020
4070 Clouds 21 1016 68 10000 7.2 170 15:57 26.04.2020
4071 Clouds 22 1016 68 10000 7.2 170 15:37 26.04.2020
4072 Clouds 21 1016 68 10000 7.2 170 15:18 26.04.2020
4073 Clouds 23 1016 56 10000 7.7 180 14:41 26.04.2020
4074 Clouds 23 1016 56 10000 7.7 180 14:19 26.04.2020
4075 Clouds 23 1016 56 10000 7.7 180 14:19 26.04.2020
4076 Clouds 23 1016 60 10000 5.7 170 13:59 26.04.2020
4077 Clouds 23 1016 60 10000 5.7 170 13:40 26.04.2020
4078 Clouds 23 1016 60 10000 5.7 170 13:22 26.04.2020
4079 Clouds 23 1016 50 10000 1.5 0 12:57 26.04.2020
4080 Clouds 24 1016 50 10000 1.5 0 12:39 26.04.2020
4081 Clear 23 1016 50 10000 1.5 0 12:20 26.04.2020
4082 Clear 22 1016 56 10000 2.1 310 11:54 26.04.2020
4083 Clear 22 1016 56 10000 2.1 310 11:36 26.04.2020
4084 Clear 23 1016 56 10000 2.1 310 11:18 26.04.2020
4085 Clear 22 1015 56 10000 4.1 340 10:42 26.04.2020
4086 Clear 22 1015 56 10000 4.1 340 10:24 26.04.2020
4087 Clear 21 1015 64 10000 4.1 340 09:58 26.04.2020
4088 Clear 19 1015 72 10000 3.6 340 09:38 26.04.2020
4089 Clear 20 1015 72 10000 3.6 340 09:38 26.04.2020
4090 Clear 19 1015 72 10000 3.6 340 09:20 26.04.2020
4091 Clear 15 1014 82 10000 2.1 340 08:41 26.04.2020
4092 Clear 14 1014 82 10000 2.1 340 08:23 26.04.2020
4093 Clear 12 1013 87 10000 1 360 07:49 26.04.2020
4094 Clear 12 1013 87 10000 1 360 07:25 26.04.2020
4095 Clear 14 1013 87 10000 1 240 06:53 26.04.2020
4096 Clear 14 1013 87 10000 1 240 06:32 26.04.2020
4097 Clear 13 1013 87 10000 1.5 70 05:54 26.04.2020
4098 Clear 13 1013 87 10000 1.5 70 05:34 26.04.2020
4099 Clear 13 1013 93 10000 2.6 60 04:42 26.04.2020
4100 Clear 13 1014 87 10000 1 100 03:46 26.04.2020
4101 Clear 14 1014 93 10000 1 230 02:40 26.04.2020
4102 Clear 14 1014 93 10000 1 230 02:20 26.04.2020
4103 Clear 14 1014 93 10000 1 0 01:38 26.04.2020
4104 Clear 15 1014 93 10000 1 0 01:19 26.04.2020
4105 Clear 17 1014 77 10000 1.5 220 00:38 26.04.2020
4106 Clear 17 1014 77 10000 1.5 220 00:18 26.04.2020
4107 Clear 17 1014 77 10000 1.5 220 23:38 25.04.2020
4108 Clear 18 1014 77 10000 1.5 220 23:20 25.04.2020
4109 Clear 18 1014 77 10000 4.1 230 22:54 25.04.2020
4110 Clear 18 1014 77 10000 4.1 230 22:36 25.04.2020
4111 Clear 18 1014 77 10000 4.1 230 22:18 25.04.2020
4112 Clear 19 1014 82 10000 4.6 230 21:39 25.04.2020
4113 Clear 19 1014 82 10000 4.6 230 21:20 25.04.2020
4114 Clear 19 1014 82 10000 5.1 230 20:57 25.04.2020
4115 Clear 19 1014 82 10000 5.1 230 20:39 25.04.2020
4116 Clear 19 1014 77 10000 5.1 230 20:20 25.04.2020
4117 Clear 19 1014 77 10000 5.1 230 19:41 25.04.2020
4118 Clear 19 1014 77 10000 5.1 230 19:23 25.04.2020
4119 Clear 20 1014 72 10000 5.7 230 18:58 25.04.2020
4120 Clear 20 1014 72 10000 5.7 230 18:39 25.04.2020
4121 Clear 21 1014 72 10000 5.7 230 18:20 25.04.2020
4122 Clear 22 1014 60 10000 5.1 230 17:58 25.04.2020
4123 Clear 23 1014 60 10000 5.1 230 17:38 25.04.2020
4124 Clear 23 1014 60 10000 5.1 230 17:19 25.04.2020
4125 Clear 25 1014 47 10000 5.7 210 16:55 25.04.2020
4126 Clear 24 1014 47 10000 5.7 210 16:37 25.04.2020
4127 Clear 25 1014 47 10000 5.7 210 16:18 25.04.2020
4128 Clear 25 1014 36 10000 3.6 210 15:41 25.04.2020
4129 Clear 26 1014 36 10000 3.6 210 15:20 25.04.2020
4130 Clear 26 1015 36 10000 2.6 240 14:58 25.04.2020
4131 Clear 26 1015 36 10000 2.6 240 14:39 25.04.2020
4132 Clear 27 1015 36 10000 2.6 240 14:20 25.04.2020
4133 Clear 26 1015 38 10000 3.1 210 13:43 25.04.2020
4134 Clear 26 1015 38 10000 3.1 210 13:22 25.04.2020
4135 Clear 26 1016 38 10000 2.1 190 12:58 25.04.2020
4136 Clear 26 1016 38 10000 2.1 190 12:40 25.04.2020
4137 Clear 25 1016 38 10000 2.1 190 12:21 25.04.2020
4138 Clear 25 1016 41 10000 1.5 0 11:59 25.04.2020
4139 Clear 23 1017 49 10000 1.5 0 11:40 25.04.2020
4140 Clear 23 1017 49 10000 1.5 0 11:22 25.04.2020
4141 Clear 22 1017 53 10000 0.5 0 10:45 25.04.2020
4142 Clear 21 1017 60 10000 1 0 10:25 25.04.2020
4143 Clear 20 1016 63 10000 0.5 0 09:55 25.04.2020
4144 Clear 20 1016 77 10000 1.5 190 09:36 25.04.2020
4145 Clear 17 1016 77 10000 1.5 190 09:18 25.04.2020
4146 Clear 16 1016 87 10000 1.5 240 08:40 25.04.2020
4147 Clear 16 1016 93 10000 1.5 210 08:21 25.04.2020
4148 Clear 15 1016 87 10000 2.1 230 07:58 25.04.2020
4149 Clear 15 1016 87 10000 2.1 230 07:40 25.04.2020
4150 Clear 15 1016 87 10000 0.5 0 06:56 25.04.2020
4151 Clear 15 1016 87 10000 0.5 0 06:36 25.04.2020
4152 Clear 16 1016 87 10000 1.5 0 05:42 25.04.2020
4153 Clear 16 1016 87 10000 1.5 0 05:23 25.04.2020
4154 Clear 17 1016 77 10000 3.1 190 03:19 25.04.2020
4155 Clouds 18 1016 72 10000 8.7 160 02:25 25.04.2020
4156 Clouds 18 1016 72 10000 8.7 160 01:55 25.04.2020
4157 Clouds 18 1016 72 10000 8.7 160 01:37 25.04.2020
4158 Clouds 18 1016 72 10000 8.7 160 01:18 25.04.2020
4159 Clouds 18 1016 72 10000 8.2 150 00:37 25.04.2020
4160 Clouds 18 1017 72 10000 8.7 160 23:57 24.04.2020
4161 Clouds 18 1017 72 10000 8.7 160 23:38 24.04.2020
4162 Clouds 18 1017 72 10000 8.7 160 23:38 24.04.2020
4163 Clouds 18 1017 72 10000 8.7 160 23:20 24.04.2020
4164 Clouds 18 1016 68 10000 7.7 180 22:41 24.04.2020
4165 Clouds 18 1016 68 10000 7.7 180 22:20 24.04.2020
4166 Clouds 18 1016 68 10000 6.7 170 21:58 24.04.2020
4167 Clouds 19 1016 68 10000 7.7 170 21:39 24.04.2020
4168 Clouds 19 1016 68 10000 7.7 170 21:21 24.04.2020
4169 Clouds 19 1016 68 10000 7.7 170 20:56 24.04.2020
4170 Clouds 19 1016 68 10000 7.7 170 20:38 24.04.2020
4171 Clouds 19 1016 68 10000 7.7 170 20:18 24.04.2020
4172 Clouds 19 1016 72 10000 6.2 200 19:44 24.04.2020
4173 Clouds 19 1016 72 10000 6.2 200 19:25 24.04.2020
4174 Clouds 19 1016 68 10000 6.7 190 18:56 24.04.2020
4175 Clouds 19 1016 68 10000 6.7 190 18:38 24.04.2020
4176 Clouds 19 1016 68 10000 6.7 190 18:38 24.04.2020
4177 Clouds 19 1016 68 10000 6.7 190 18:19 24.04.2020
4178 Clouds 21 1016 60 10000 6.7 190 17:42 24.04.2020
4179 Clouds 22 1016 60 10000 6.7 190 17:23 24.04.2020
4180 Clouds 22 1016 56 10000 7.7 190 16:59 24.04.2020
4181 Clouds 22 1016 56 10000 7.7 190 16:40 24.04.2020
4182 Clouds 22 1016 56 10000 7.7 190 16:40 24.04.2020
4183 Clouds 22 1016 56 10000 7.7 190 16:40 24.04.2020
4184 Clouds 22 1016 56 10000 7.7 190 16:21 24.04.2020
4185 Clouds 23 1016 56 10000 6.7 210 15:59 24.04.2020
4186 Clouds 23 1016 50 10000 5.1 200 15:37 24.04.2020
4187 Clouds 24 1016 50 10000 5.1 200 15:18 24.04.2020
4188 Clouds 24 1016 50 10000 5.1 200 14:40 24.04.2020
4189 Clouds 24 1016 50 10000 5.1 200 14:20 24.04.2020
4190 Clouds 23 1017 53 10000 4.1 180 13:56 24.04.2020
4191 Clouds 24 1017 53 10000 4.1 180 13:38 24.04.2020
4192 Clouds 24 1017 53 10000 4.1 180 13:18 24.04.2020
4193 Clouds 23 1018 56 10000 2.6 210 12:41 24.04.2020
4194 Clouds 22 1018 56 10000 2.6 210 12:22 24.04.2020
4195 Clouds 22 1018 60 10000 2.1 180 11:58 24.04.2020
4196 Clouds 21 1018 60 10000 2.1 180 11:38 24.04.2020
4197 Clouds 21 1018 60 10000 2.1 180 11:19 24.04.2020
4198 Clouds 21 1018 64 10000 1 0 10:54 24.04.2020
4199 Clouds 21 1018 64 10000 1 0 10:54 24.04.2020
4200 Clouds 20 1018 68 10000 0.5 0 10:36 24.04.2020
4201 Clouds 19 1018 68 10000 0.5 0 10:18 24.04.2020
4202 Clouds 18 1018 82 10000 3.1 180 09:45 24.04.2020
4203 Clouds 17 1018 82 10000 3.1 180 09:24 24.04.2020
4204 Clouds 17 1017 87 10000 4.6 220 08:57 24.04.2020
4205 Clouds 17 1017 87 10000 4.6 220 08:37 24.04.2020
4206 Clouds 17 1017 87 10000 4.6 220 08:18 24.04.2020
4207 Clouds 16 1017 87 10000 2.6 210 07:44 24.04.2020
4208 Clouds 16 1017 87 10000 2.6 210 07:26 24.04.2020
4209 Clouds 16 1018 87 10000 2.1 200 06:51 24.04.2020
4210 Clouds 16 1018 87 10000 2.1 200 06:32 24.04.2020
4211 Clouds 16 1017 87 10000 2.1 240 05:48 24.04.2020
4212 Clouds 16 1018 82 10000 2.6 230 04:26 24.04.2020
4213 Clouds 16 1018 82 10000 3.6 220 03:19 24.04.2020
4214 Clouds 16 1018 77 10000 2.1 210 02:41 24.04.2020
4215 Clouds 16 1018 77 10000 2.1 210 02:20 24.04.2020
4216 Clouds 16 1018 77 10000 2.6 140 01:23 24.04.2020
4217 Clouds 17 1019 82 10000 3.1 230 00:38 24.04.2020
4218 Clouds 17 1019 82 10000 3.1 230 00:18 24.04.2020
4219 Clouds 18 1019 72 10000 3.1 210 23:44 23.04.2020
4220 Clouds 18 1019 72 10000 3.1 210 23:26 23.04.2020
4221 Clouds 17 1019 77 10000 3.1 200 22:55 23.04.2020
4222 Clouds 17 1019 77 10000 3.1 200 22:37 23.04.2020
4223 Clouds 17 1019 77 10000 3.1 200 22:37 23.04.2020
4224 Clouds 17 1019 77 10000 3.1 200 22:37 23.04.2020
4225 Clouds 17 1019 77 10000 3.1 200 22:18 23.04.2020
4226 Clouds 17 1019 82 10000 5.1 240 21:56 23.04.2020
4227 Clouds 17 1019 82 10000 5.1 240 21:56 23.04.2020
4228 Clouds 17 1019 82 10000 5.1 240 21:38 23.04.2020
4229 Clouds 17 1019 82 10000 5.1 240 21:20 23.04.2020
4230 Clouds 18 1019 77 10000 5.1 230 20:54 23.04.2020
4231 Clouds 18 1019 77 10000 5.1 230 20:36 23.04.2020
4232 Clouds 18 1019 77 10000 5.1 230 20:18 23.04.2020
4233 Clouds 18 1019 77 10000 4.1 230 19:41 23.04.2020
4234 Clouds 18 1019 77 10000 4.1 230 19:22 23.04.2020
4235 Clouds 19 1019 68 10000 4.6 210 18:57 23.04.2020
4236 Clouds 19 1019 68 10000 4.6 210 18:39 23.04.2020
4237 Clouds 19 1019 68 10000 4.6 210 18:21 23.04.2020
4238 Clouds 20 1018 60 10000 5.1 220 17:56 23.04.2020
4239 Clouds 21 1018 60 10000 5.1 220 17:38 23.04.2020
4240 Clouds 21 1018 60 10000 5.1 220 17:19 23.04.2020
4241 Clouds 22 1018 49 10000 5.7 200 16:43 23.04.2020
4242 Clouds 22 1018 49 10000 5.7 200 16:21 23.04.2020
4243 Clouds 23 1018 49 10000 5.7 200 15:43 23.04.2020
4244 Clouds 23 1018 49 10000 5.7 200 15:24 23.04.2020
4245 Clouds 23 1018 44 10000 5.7 170 14:59 23.04.2020
4246 Clouds 24 1018 44 10000 5.7 170 14:41 23.04.2020
4247 Clouds 24 1018 44 10000 5.7 170 14:41 23.04.2020
4248 Clouds 24 1018 44 10000 5.7 170 14:22 23.04.2020
4249 Clouds 23 1019 47 10000 7.7 160 13:59 23.04.2020
4250 Clouds 23 1019 47 10000 7.7 160 13:40 23.04.2020
4251 Clouds 23 1019 47 10000 7.7 160 13:22 23.04.2020
4252 Clouds 23 1020 49 10000 6.2 170 12:57 23.04.2020
4253 Clouds 23 1020 49 10000 6.2 170 12:38 23.04.2020
4254 Clouds 23 1020 49 10000 6.2 170 12:20 23.04.2020
4255 Clouds 22 1020 56 10000 6.7 170 11:47 23.04.2020
4256 Clouds 21 1020 60 10000 8.2 190 11:27 23.04.2020
4257 Clouds 21 1020 60 10000 7.7 200 10:58 23.04.2020
4258 Clouds 21 1020 60 10000 7.7 200 10:39 23.04.2020
4259 Clouds 20 1020 60 10000 7.7 200 10:20 23.04.2020
4260 Clouds 19 1019 63 10000 10.3 180 09:40 23.04.2020
4261 Clouds 19 1019 63 10000 10.3 180 09:18 23.04.2020
4262 Clouds 19 1019 63 10000 10.3 180 09:18 23.04.2020
4263 Clouds 18 1019 68 10000 9.8 170 08:50 23.04.2020
4264 Clouds 18 1019 68 10000 9.8 170 08:30 23.04.2020
4265 Clouds 18 1019 68 10000 8.2 180 07:57 23.04.2020
4266 Clouds 18 1019 68 10000 8.2 180 07:39 23.04.2020
4267 Clouds 18 1019 68 10000 8.2 180 07:39 23.04.2020
4268 Clouds 18 1019 68 10000 8.2 180 07:19 23.04.2020
4269 Clouds 17 1019 72 10000 6.2 160 06:44 23.04.2020
4270 Clouds 17 1019 72 10000 4.6 180 05:39 23.04.2020
4271 Clouds 17 1019 72 10000 4.6 180 05:21 23.04.2020
4272 Clouds 18 1020 77 10000 4.6 220 02:52 23.04.2020
4273 Clouds 18 1020 77 10000 4.6 220 02:23 23.04.2020
4274 Clouds 18 1021 82 10000 3.6 220 01:38 23.04.2020
4275 Clouds 18 1021 72 10000 5.1 200 00:54 23.04.2020
4276 Clear 18 1021 72 10000 5.1 200 00:27 23.04.2020
4277 Clear 18 1021 72 10000 6.7 180 23:58 22.04.2020
4278 Clear 18 1021 72 10000 6.7 180 23:40 22.04.2020
4279 Clear 18 1021 72 10000 6.7 180 23:19 22.04.2020
4280 Clear 18 1021 77 10000 7.7 190 22:40 22.04.2020
4281 Clear 18 1021 77 10000 7.7 190 22:20 22.04.2020
4282 Clear 19 1021 68 10000 8.2 190 21:59 22.04.2020
4283 Clear 19 1021 68 10000 8.2 190 21:40 22.04.2020
4284 Clear 19 1021 68 10000 8.2 190 21:21 22.04.2020
4285 Clear 19 1021 72 10000 8.7 190 20:57 22.04.2020
4286 Clear 19 1021 72 10000 8.7 190 20:39 22.04.2020
4287 Clear 19 1028 80 0 1.34 226 20:18 22.04.2020
4288 Clear 19 1028 78 0 1.79 226 19:57 22.04.2020
4289 Clear 19 1021 72 10000 7.7 190 19:37 22.04.2020
4290 Clear 19 1021 72 10000 7.7 190 19:18 22.04.2020
4291 Clear 20 1021 64 10000 8.2 180 18:56 22.04.2020
4292 Clear 20 1021 64 10000 8.2 180 18:56 22.04.2020
4293 Clear 20 1021 64 10000 8.2 180 18:37 22.04.2020
4294 Clear 20 1021 64 10000 8.2 180 18:19 22.04.2020
4295 Clear 21 1021 60 10000 9.3 180 17:43 22.04.2020
4296 Clear 21 1021 60 10000 9.3 180 17:43 22.04.2020
4297 Clear 21 1021 60 10000 9.3 180 17:25 22.04.2020
4298 Clear 22 1021 56 10000 9.3 180 16:56 22.04.2020
4299 Clear 22 1021 56 10000 9.3 180 16:36 22.04.2020
4300 Clear 22 1021 56 10000 9.3 180 16:18 22.04.2020
4301 Clear 22 1021 56 10000 9.3 180 16:18 22.04.2020
4302 Clear 23 1021 53 10000 9.8 190 15:40 22.04.2020
4303 Clear 23 1021 53 10000 9.8 190 15:21 22.04.2020
4304 Clouds 23 1022 56 10000 8.2 190 14:57 22.04.2020
4305 Clouds 23 1022 56 10000 8.2 190 14:37 22.04.2020
4306 Clouds 23 1022 56 10000 8.2 190 14:19 22.04.2020
4307 Clouds 22 1023 60 10000 8.7 200 13:44 22.04.2020
4308 Clouds 22 1023 60 10000 8.7 200 13:20 22.04.2020
4309 Clear 22 1023 56 10000 7.2 190 12:54 22.04.2020
4310 Clear 22 1023 56 10000 7.2 190 12:54 22.04.2020
4311 Clear 22 1023 56 10000 7.2 190 12:36 22.04.2020
4312 Clear 22 1023 56 10000 7.2 190 12:18 22.04.2020
4313 Clear 21 1024 60 10000 6.2 180 11:40 22.04.2020
4314 Clear 21 1024 60 10000 6.2 180 11:20 22.04.2020
4315 Clear 21 1024 60 10000 6.2 180 11:20 22.04.2020
4316 Clear 20 1024 68 10000 5.7 190 10:57 22.04.2020
4317 Clear 20 1024 68 10000 5.7 190 10:38 22.04.2020
4318 Clear 21 1024 68 10000 5.7 190 10:18 22.04.2020
4319 Clear 19 1024 82 10000 2.6 190 09:39 22.04.2020
4320 Clear 18 1024 82 10000 2.6 190 09:19 22.04.2020
4321 Clear 16 1023 87 10000 1.5 200 08:54 22.04.2020
4322 Clear 15 1023 87 10000 1 0 08:36 22.04.2020
4323 Clear 14 1023 87 10000 1 0 08:18 22.04.2020
4324 Clear 13 1023 93 10000 1.5 140 07:46 22.04.2020
4325 Clear 13 1023 93 10000 1.5 140 07:22 22.04.2020
4326 Clear 13 1022 87 10000 2.1 160 06:45 22.04.2020
4327 Clear 14 1022 87 10000 2.6 210 05:47 22.04.2020
4328 Clear 14 1022 87 10000 2.6 210 05:27 22.04.2020
4329 Clear 14 1023 87 10000 2.6 230 04:18 22.04.2020
4330 Clear 14 1024 82 10000 2.1 200 02:39 22.04.2020
4331 Clear 13 1024 87 10000 2.6 180 01:43 22.04.2020
4332 Clear 13 1024 87 10000 2.6 180 01:24 22.04.2020
4333 Clear 13 1024 93 10000 1.5 150 00:47 22.04.2020
4334 Clear 13 1024 93 10000 1.5 150 00:22 22.04.2020
4335 Clear 14 1024 82 10000 3.1 170 23:56 21.04.2020
4336 Clear 14 1024 82 10000 3.1 170 23:37 21.04.2020
4337 Clear 14 1024 82 10000 3.1 170 23:18 21.04.2020
4338 Clear 14 1024 82 10000 3.1 160 22:40 21.04.2020
4339 Clear 15 1024 82 10000 3.1 160 22:21 21.04.2020
4340 Clear 15 1024 82 10000 3.1 170 21:58 21.04.2020
4341 Clear 15 1024 82 10000 3.1 170 21:40 21.04.2020
4342 Clear 15 1024 82 10000 3.1 170 21:22 21.04.2020
4343 Clear 16 1023 63 10000 3.6 180 20:54 21.04.2020
4344 Clear 16 1023 63 10000 3.6 180 20:36 21.04.2020
4345 Clear 16 1023 63 10000 3.6 180 20:18 21.04.2020
4346 Clear 17 1023 59 10000 4.6 190 19:40 21.04.2020
4347 Clear 17 1023 59 10000 4.6 190 19:19 21.04.2020
4348 Clear 17 1022 55 10000 5.7 180 18:56 21.04.2020
4349 Clear 18 1022 55 10000 5.7 180 18:38 21.04.2020
4350 Clear 18 1022 55 10000 5.7 180 18:18 21.04.2020
4351 Clear 19 1022 52 10000 5.7 170 17:41 21.04.2020
4352 Clear 19 1022 52 10000 5.7 170 17:41 21.04.2020
4353 Clear 19 1022 52 10000 5.7 170 17:22 21.04.2020
4354 Clouds 19 1022 45 10000 5.7 190 16:59 21.04.2020
4355 Clouds 20 1022 45 10000 5.7 190 16:39 21.04.2020
4356 Clouds 20 1022 45 10000 5.7 190 16:39 21.04.2020
4357 Clouds 20 1022 45 10000 5.7 190 16:39 21.04.2020
4358 Clouds 19 1022 48 10000 5.7 210 16:19 21.04.2020
4359 Clouds 19 1022 48 10000 5.7 210 15:57 21.04.2020
4360 Clouds 19 1022 48 10000 5.7 210 15:38 21.04.2020
4361 Clouds 19 1022 48 10000 5.7 210 15:20 21.04.2020
4362 Clouds 19 1023 48 10000 4.1 200 14:54 21.04.2020
4363 Clouds 19 1023 48 10000 4.1 200 14:36 21.04.2020
4364 Clouds 19 1023 48 10000 4.1 200 14:18 21.04.2020
4365 Clouds 19 1024 48 10000 5.7 200 13:40 21.04.2020
4366 Clouds 19 1024 48 10000 5.7 200 13:40 21.04.2020
4367 Clouds 19 1024 48 10000 5.7 200 13:22 21.04.2020
4368 Clouds 20 1024 42 10000 3.6 180 12:55 21.04.2020
4369 Clouds 20 1024 42 10000 3.6 180 12:36 21.04.2020
4370 Clouds 20 1024 42 10000 3.6 180 12:18 21.04.2020
4371 Clouds 19 1025 48 10000 3.6 150 11:55 21.04.2020
4372 Clouds 19 1025 48 10000 3.6 150 11:36 21.04.2020
4373 Clouds 19 1025 48 10000 3.6 150 11:18 21.04.2020
4374 Clouds 19 1024 52 10000 2.1 160 10:55 21.04.2020
4375 Clouds 18 1024 52 10000 2.1 160 10:36 21.04.2020
4376 Clouds 18 1024 52 10000 2.1 160 10:36 21.04.2020
4377 Clouds 18 1024 52 10000 2.1 160 10:18 21.04.2020
4378 Clouds 16 1024 82 10000 0.5 0 09:37 21.04.2020
4379 Clouds 16 1024 82 10000 0.5 0 09:18 21.04.2020
4380 Clouds 15 1024 100 9000 1 290 08:55 21.04.2020
4381 Fog 14 1024 100 1500 2.5 185 08:37 21.04.2020
4382 Fog 14 1024 100 1500 2.5 185 08:18 21.04.2020
4383 Clouds 14 1023 93 10000 0.5 0 07:43 21.04.2020
4384 Clouds 13 1023 93 10000 0.5 0 07:20 21.04.2020
4385 Clouds 13 1023 93 10000 1 350 06:44 21.04.2020
4386 Clouds 14 1023 93 10000 1 350 06:19 21.04.2020
4387 Clouds 14 1022 100 10000 1 30 05:48 21.04.2020
4388 Clouds 14 1023 100 10000 1 30 03:48 21.04.2020
4389 Clouds 14 1023 100 10000 1 30 03:27 21.04.2020
4390 Clouds 15 1022 93 10000 1 310 01:40 21.04.2020
4391 Clouds 15 1022 93 10000 1.5 300 00:53 21.04.2020
4392 Clouds 15 1022 93 10000 1.5 300 00:32 21.04.2020
4393 Clouds 15 1022 93 10000 1 350 23:44 20.04.2020
4394 Clouds 15 1022 93 10000 1 350 23:25 20.04.2020
4395 Clouds 15 1022 93 10000 1 0 22:57 20.04.2020
4396 Clouds 15 1022 93 10000 1 0 22:38 20.04.2020
4397 Clouds 15 1022 93 10000 1 0 22:19 20.04.2020
4398 Clouds 15 1022 93 10000 1 0 22:19 20.04.2020
4399 Clouds 16 1022 93 10000 1.5 320 21:56 20.04.2020
4400 Clouds 16 1022 93 10000 1.5 320 21:38 20.04.2020
4401 Clouds 16 1022 93 10000 1.5 320 21:19 20.04.2020
4402 Clouds 16 1021 87 10000 1.5 20 20:56 20.04.2020
4403 Clouds 16 1021 87 10000 1.5 20 20:37 20.04.2020
4404 Clouds 16 1021 87 10000 1.5 20 20:18 20.04.2020
4405 Clouds 16 1021 100 10000 3.1 330 19:55 20.04.2020
4406 Clouds 16 1021 100 10000 3.1 330 19:37 20.04.2020
4407 Clouds 16 1021 100 10000 3.1 330 19:18 20.04.2020
4408 Drizzle 16 1020 93 10000 3.1 330 18:42 20.04.2020
4409 Drizzle 16 1020 93 10000 3.1 330 18:22 20.04.2020
4410 Drizzle 16 1020 93 10000 3.1 330 18:22 20.04.2020
4411 Clouds 16 1020 93 10000 3.6 320 17:55 20.04.2020
4412 Drizzle 16 1020 93 8000 3.6 300 17:37 20.04.2020
4413 Drizzle 16 1020 93 8000 3.6 300 17:19 20.04.2020
4414 Drizzle 17 1019 93 6000 4.1 320 16:43 20.04.2020
4415 Drizzle 17 1019 93 6000 4.1 320 16:21 20.04.2020
4416 Clouds 17 1018 93 10000 8.7 320 15:58 20.04.2020
4417 Clouds 17 1018 93 10000 8.7 320 15:39 20.04.2020
4418 Clouds 17 1018 93 10000 8.7 320 15:21 20.04.2020
4419 Drizzle 17 1018 88 7000 8.7 310 14:55 20.04.2020
4420 Drizzle 17 1018 88 7000 6.2 320 14:36 20.04.2020
4421 Drizzle 18 1018 88 7000 6.2 320 14:18 20.04.2020
4422 Drizzle 18 1018 88 6000 7.7 350 13:41 20.04.2020
4423 Drizzle 18 1018 88 6000 7.7 350 13:22 20.04.2020
4424 Drizzle 18 1018 77 7000 8.2 340 12:54 20.04.2020
4425 Drizzle 18 1018 77 7000 8.2 340 12:36 20.04.2020
4426 Drizzle 18 1018 77 7000 8.2 340 12:18 20.04.2020
4427 Drizzle 19 1018 68 9000 8.7 350 11:40 20.04.2020
4428 Drizzle 19 1018 68 9000 8.7 350 11:21 20.04.2020
4429 Clouds 19 1017 68 10000 7.2 360 10:57 20.04.2020
4430 Clouds 19 1017 68 10000 7.2 360 10:57 20.04.2020
4431 Clouds 18 1017 68 10000 7.2 360 10:38 20.04.2020
4432 Clouds 18 1017 68 10000 7.2 360 10:19 20.04.2020
4433 Clouds 17 1017 77 10000 5.7 20 09:55 20.04.2020
4434 Clouds 17 1017 77 10000 5.7 20 09:36 20.04.2020
4435 Clouds 16 1017 77 10000 5.7 20 09:18 20.04.2020
4436 Clouds 16 1016 77 10000 7.2 40 08:41 20.04.2020
4437 Clouds 16 1016 77 10000 7.2 40 08:21 20.04.2020
4438 Clouds 16 1016 72 10000 6.2 20 07:52 20.04.2020
4439 Clouds 16 1016 72 10000 6.2 20 07:29 20.04.2020
4440 Clouds 16 1015 77 10000 6.7 10 06:55 20.04.2020
4441 Clouds 16 1015 77 10000 6.7 10 06:36 20.04.2020
4442 Clouds 16 1015 77 10000 7.7 10 05:41 20.04.2020
4443 Clouds 16 1015 82 10000 8.2 10 03:49 20.04.2020
4444 Clouds 16 1015 82 10000 9.3 360 02:44 20.04.2020
4445 Clouds 17 1016 77 10000 8.2 20 01:51 20.04.2020
4446 Clouds 17 1016 77 10000 8.2 20 01:28 20.04.2020
4447 Clouds 17 1016 77 10000 7.7 360 00:36 20.04.2020
4448 Clouds 17 1016 77 10000 7.7 350 23:57 19.04.2020
4449 Clouds 17 1016 77 10000 7.7 350 23:38 19.04.2020
4450 Clouds 17 1016 77 10000 7.7 350 23:19 19.04.2020
4451 Clouds 17 1016 82 10000 8.7 340 22:41 19.04.2020
4452 Clouds 17 1016 82 10000 8.7 340 22:23 19.04.2020
4453 Clouds 16 1015 87 10000 8.2 330 21:58 19.04.2020
4454 Clouds 16 1015 87 10000 8.2 330 21:40 19.04.2020
4455 Clouds 16 1015 87 10000 8.2 330 21:21 19.04.2020
4456 Clouds 16 1014 93 10000 8.7 320 20:55 19.04.2020
4457 Clouds 16 1014 93 10000 8.7 320 20:37 19.04.2020
4458 Clouds 17 1014 93 10000 8.7 320 20:19 19.04.2020
4459 Clouds 17 1013 93 10000 9.3 330 19:41 19.04.2020
4460 Clouds 17 1013 93 10000 9.3 330 19:23 19.04.2020
4461 Clouds 17 1013 88 10000 8.7 330 18:58 19.04.2020
4462 Clouds 17 1013 93 10000 7.2 330 18:40 19.04.2020
4463 Clouds 17 1013 93 10000 7.2 330 18:40 19.04.2020
4464 Clouds 18 1013 93 10000 7.2 330 18:21 19.04.2020
4465 Clouds 18 1013 88 10000 8.2 320 17:59 19.04.2020
4466 Clouds 19 1013 88 10000 8.2 320 17:40 19.04.2020
4467 Clouds 19 1013 88 10000 8.2 320 17:22 19.04.2020
4468 Clouds 20 1012 77 10000 7.7 310 16:58 19.04.2020
4469 Clouds 20 1012 77 10000 7.7 310 16:39 19.04.2020
4470 Clouds 21 1012 77 10000 7.7 310 16:21 19.04.2020
4471 Clouds 22 1013 64 10000 6.7 320 15:43 19.04.2020
4472 Clouds 22 1013 64 10000 6.7 320 15:43 19.04.2020
4473 Clouds 22 1013 64 10000 6.7 320 15:23 19.04.2020
4474 Clouds 22 1013 73 10000 6.7 320 14:56 19.04.2020
4475 Clouds 22 1013 73 10000 6.7 320 14:38 19.04.2020
4476 Clouds 21 1013 73 10000 6.7 320 14:19 19.04.2020
4477 Clouds 21 1013 73 10000 7.2 330 13:41 19.04.2020
4478 Clouds 21 1013 73 10000 7.2 330 13:22 19.04.2020
4479 Clouds 20 1014 68 10000 8.7 320 12:59 19.04.2020
4480 Clouds 20 1014 68 10000 8.7 320 12:41 19.04.2020
4481 Clouds 20 1014 68 10000 8.7 320 12:23 19.04.2020
4482 Clouds 20 1014 68 10000 8.7 320 12:23 19.04.2020
4483 Clouds 19 1014 63 10000 7.7 320 11:39 19.04.2020
4484 Clouds 19 1014 63 10000 7.7 320 11:20 19.04.2020
4485 Clouds 20 1014 52 10000 6.7 310 10:58 19.04.2020
4486 Clouds 21 1014 52 10000 6.7 310 10:40 19.04.2020
4487 Clouds 21 1014 52 10000 6.7 310 10:20 19.04.2020
4488 Clouds 20 1013 77 10000 1.5 0 09:47 19.04.2020
4489 Clouds 18 1013 77 10000 1.5 0 09:28 19.04.2020
4490 Clouds 17 1013 93 10000 1.5 0 08:59 19.04.2020
4491 Fog 16 1013 93 2000 2.6 350 08:38 19.04.2020
4492 Fog 15 1013 93 2000 2.6 350 08:18 19.04.2020
4493 Clouds 14 1013 93 10000 2.6 50 07:44 19.04.2020
4494 Clouds 14 1013 93 10000 2.6 50 07:25 19.04.2020
4495 Clouds 15 1012 93 10000 1.5 80 06:32 19.04.2020
4496 Clouds 14 1012 93 10000 1.5 90 05:58 19.04.2020
4497 Clouds 14 1012 87 10000 1.5 80 04:54 19.04.2020
4498 Clouds 14 1012 76 10000 1 0 03:21 19.04.2020
4499 Clouds 16 1013 72 10000 1 130 02:22 19.04.2020
4500 Clouds 20 1013 49 0 1.72 189 01:39 19.04.2020
4501 Clouds 16 1013 63 10000 1 130 01:18 19.04.2020
4502 Clouds 17 1013 63 10000 1 130 00:38 19.04.2020
4503 Clouds 17 1013 63 10000 1 130 00:19 19.04.2020
4504 Clouds 17 1013 59 10000 0.5 0 23:40 18.04.2020
4505 Clouds 17 1013 59 10000 0.5 0 23:19 18.04.2020
4506 Clouds 18 1014 77 10000 2.1 210 22:43 18.04.2020
4507 Clouds 18 1014 77 10000 2.1 210 22:23 18.04.2020
4508 Clouds 18 1014 72 10000 1.5 210 21:58 18.04.2020
4509 Clouds 19 1014 72 10000 1.5 210 21:39 18.04.2020
4510 Clear 18 1014 72 10000 1.5 210 21:21 18.04.2020
4511 Clear 19 1014 52 10000 1.5 170 20:56 18.04.2020
4512 Clear 19 1014 52 10000 1.5 170 20:37 18.04.2020
4513 Clear 20 1014 45 10000 2.1 160 20:18 18.04.2020
4514 Clear 20 1014 45 10000 2.1 160 19:40 18.04.2020
4515 Clear 20 1014 45 10000 2.1 160 19:22 18.04.2020
4516 Clear 22 1013 40 10000 2.1 130 18:39 18.04.2020
4517 Clear 23 1013 40 10000 2.1 130 18:20 18.04.2020
4518 Clear 25 1014 36 10000 4.1 150 17:57 18.04.2020
4519 Clear 25 1014 36 10000 4.1 150 17:39 18.04.2020
4520 Clear 25 1014 36 10000 4.1 150 17:18 18.04.2020
4521 Clear 30 1013 22 10000 4.1 200 16:43 18.04.2020
4522 Clear 28 1013 22 10000 4.1 200 16:22 18.04.2020
4523 Clear 28 1013 16 10000 2.6 280 15:55 18.04.2020
4524 Clear 29 1013 16 10000 2.6 280 15:37 18.04.2020
4525 Clouds 29 1013 16 10000 2.6 280 15:19 18.04.2020
4526 Clouds 29 1014 17 10000 2.1 0 14:44 18.04.2020
4527 Clouds 29 1014 17 10000 2.1 0 14:23 18.04.2020
4528 Clouds 28 1015 20 10000 1.5 0 13:43 18.04.2020
4529 Clouds 28 1015 20 10000 1.5 0 13:21 18.04.2020
4530 Clouds 28 1015 24 10000 1 0 12:55 18.04.2020
4531 Clouds 26 1016 29 10000 1 0 12:36 18.04.2020
4532 Clouds 26 1016 29 10000 1 0 12:36 18.04.2020
4533 Clouds 26 1016 29 10000 1 0 12:18 18.04.2020
4534 Clouds 23 1016 40 10000 1.5 0 11:41 18.04.2020
4535 Clouds 24 1016 40 10000 1.5 0 11:22 18.04.2020
4536 Clouds 24 1016 40 10000 1.5 0 11:22 18.04.2020
4537 Clouds 21 1016 56 10000 1.5 0 10:57 18.04.2020
4538 Clouds 21 1016 56 10000 1.5 0 10:36 18.04.2020
4539 Clouds 21 1016 56 10000 1.5 0 10:18 18.04.2020
4540 Clouds 20 1016 63 10000 1 0 09:41 18.04.2020
4541 Clouds 16 1016 77 10000 1 0 09:21 18.04.2020
4542 Clouds 15 1016 93 10000 1.52 92 08:43 18.04.2020
4543 Clouds 13 1016 87 10000 0.5 0 08:23 18.04.2020
4544 Clouds 10 1016 87 10000 0.5 0 07:51 18.04.2020
4545 Clouds 10 1016 87 10000 0.5 0 07:32 18.04.2020
4546 Clouds 11 1016 87 10000 0.5 0 06:50 18.04.2020
4547 Clouds 8 1015 87 10000 1 70 05:50 18.04.2020
4548 Clouds 10 1016 81 10000 1 0 04:57 18.04.2020
4549 Clouds 10 1016 81 10000 1 0 04:39 18.04.2020
4550 Clouds 13 1016 81 10000 1 0 04:18 18.04.2020
4551 Clouds 16 1017 63 10000 3.6 210 02:45 18.04.2020
4552 Clouds 16 1017 63 10000 3.6 210 02:21 18.04.2020
4553 Clouds 16 1017 63 10000 3.6 210 02:21 18.04.2020
4554 Clouds 16 1017 63 10000 3.6 210 02:21 18.04.2020
4555 Clouds 16 1017 63 10000 5.1 200 01:51 18.04.2020
4556 Clouds 16 1017 63 10000 5.1 200 01:28 18.04.2020
4557 Clouds 17 1018 63 10000 6.2 190 00:40 18.04.2020
4558 Clouds 17 1018 63 10000 6.2 190 00:20 18.04.2020
4559 Clouds 17 1018 77 10000 5.1 220 23:55 17.04.2020
4560 Clouds 16 1018 77 10000 5.1 220 23:36 17.04.2020
4561 Clouds 16 1018 77 10000 5.1 220 23:18 17.04.2020
4562 Clouds 17 1018 77 10000 5.1 220 22:41 17.04.2020
4563 Clouds 17 1018 77 10000 5.1 220 22:21 17.04.2020
4564 Clouds 16 1018 72 10000 4.6 190 21:59 17.04.2020
4565 Clouds 16 1018 72 10000 4.6 190 21:40 17.04.2020
4566 Clouds 16 1018 72 10000 4.6 190 21:20 17.04.2020
4567 Clouds 16 1018 72 10000 4.6 190 21:20 17.04.2020
4568 Clouds 16 1018 72 10000 4.1 180 20:56 17.04.2020
4569 Clouds 16 1018 72 10000 4.1 180 20:37 17.04.2020
4570 Clouds 17 1018 72 10000 4.1 180 20:18 17.04.2020
4571 Clouds 17 1018 67 10000 4.6 180 19:55 17.04.2020
4572 Clouds 17 1018 67 10000 4.6 180 19:37 17.04.2020
4573 Clouds 17 1018 67 10000 4.6 180 19:18 17.04.2020
4574 Clouds 18 1018 63 10000 5.1 180 18:40 17.04.2020
4575 Clouds 18 1018 63 10000 5.1 180 18:21 17.04.2020
4576 Clouds 19 1017 55 10000 5.7 180 17:38 17.04.2020
4577 Clouds 20 1017 55 10000 5.7 180 17:20 17.04.2020
4578 Clouds 20 1018 56 10000 5.7 180 16:59 17.04.2020
4579 Clouds 20 1018 56 10000 5.7 180 16:41 17.04.2020
4580 Clouds 20 1018 56 10000 5.7 180 16:21 17.04.2020
4581 Clouds 21 1018 52 10000 5.1 180 15:39 17.04.2020
4582 Clouds 21 1018 52 10000 5.1 180 15:21 17.04.2020
4583 Clouds 21 1018 49 10000 3.1 190 14:55 17.04.2020
4584 Clouds 21 1018 49 10000 3.1 190 14:36 17.04.2020
4585 Clouds 21 1018 49 10000 3.1 190 14:18 17.04.2020
4586 Clouds 21 1018 49 10000 3.6 190 13:40 17.04.2020
4587 Clouds 21 1018 49 10000 3.6 190 13:40 17.04.2020
4588 Clouds 21 1018 49 10000 3.6 190 13:20 17.04.2020
4589 Clouds 21 1019 49 10000 3.1 210 12:48 17.04.2020
4590 Clouds 21 1019 49 10000 3.1 210 12:28 17.04.2020
4591 Clouds 20 1018 52 10000 1.5 0 11:59 17.04.2020
4592 Clouds 20 1018 52 10000 1.5 0 11:40 17.04.2020
4593 Clouds 20 1018 52 10000 1.5 0 11:19 17.04.2020
4594 Clouds 20 1019 56 10000 2.6 180 10:40 17.04.2020
4595 Clouds 19 1019 72 10000 1 0 10:21 17.04.2020
4596 Clouds 18 1018 87 10000 0.5 0 09:55 17.04.2020
4597 Clouds 17 1018 87 10000 0.5 0 09:37 17.04.2020
4598 Clouds 17 1018 87 10000 0.5 0 09:18 17.04.2020
4599 Clouds 14 1017 93 10000 1 110 08:47 17.04.2020
4600 Clouds 14 1017 93 10000 1 110 08:47 17.04.2020
4601 Clouds 13 1017 93 10000 1 110 08:27 17.04.2020
4602 Clouds 12 1017 93 10000 0.5 170 07:57 17.04.2020
4603 Clouds 12 1017 93 10000 0.5 170 07:39 17.04.2020
4604 Clouds 12 1017 93 10000 0.5 170 07:18 17.04.2020
4605 Clouds 11 1016 93 10000 0.5 0 06:44 17.04.2020
4606 Clear 12 1016 100 10000 0.5 0 05:58 17.04.2020
4607 Clouds 13 1017 93 10000 1 210 03:24 17.04.2020
4608 Clouds 13 1017 93 10000 0.5 0 02:52 17.04.2020
4609 Clouds 14 1018 93 10000 2.1 180 01:41 17.04.2020
4610 Clouds 14 1018 93 10000 2.1 180 01:19 17.04.2020
4611 Clouds 15 1019 87 10000 2.6 210 00:21 17.04.2020
4612 Clouds 15 1019 87 10000 2.6 210 23:55 16.04.2020
4613 Clouds 16 1019 87 10000 2.6 210 23:36 16.04.2020
4614 Clouds 15 1019 93 10000 2.1 180 23:18 16.04.2020
4615 Clouds 15 1019 93 10000 2.1 180 22:40 16.04.2020
4616 Clouds 15 1019 93 10000 2.1 180 22:22 16.04.2020
4617 Clouds 15 1019 93 10000 2.1 170 21:58 16.04.2020
4618 Clouds 15 1019 93 10000 2.1 170 21:40 16.04.2020
4619 Clouds 16 1019 93 10000 2.1 170 21:19 16.04.2020
4620 Clouds 17 1019 87 10000 2.1 150 20:42 16.04.2020
4621 Clouds 17 1019 87 10000 2.1 150 20:42 16.04.2020
4622 Clouds 17 1019 87 10000 2.1 150 20:22 16.04.2020
4623 Clouds 17 1018 82 10000 2.6 150 19:59 16.04.2020
4624 Clouds 17 1018 82 10000 2.6 150 19:39 16.04.2020
4625 Clouds 18 1018 72 10000 2.6 150 19:19 16.04.2020
4626 Clouds 18 1018 72 10000 2.6 150 18:56 16.04.2020
4627 Clouds 18 1018 72 10000 2.6 150 18:37 16.04.2020
4628 Clouds 19 1018 72 10000 2.6 150 18:19 16.04.2020
4629 Clouds 20 1018 72 10000 3.1 330 17:42 16.04.2020
4630 Clouds 20 1018 72 10000 3.1 330 17:24 16.04.2020
4631 Clouds 21 1018 68 10000 4.1 300 16:55 16.04.2020
4632 Clouds 21 1018 68 10000 4.1 300 16:37 16.04.2020
4633 Clouds 21 1018 68 10000 4.1 300 16:19 16.04.2020
4634 Clouds 21 1018 68 10000 4.1 300 15:41 16.04.2020
4635 Clouds 21 1018 68 10000 4.1 300 15:19 16.04.2020
4636 Clouds 21 1018 68 10000 4.1 300 15:19 16.04.2020
4637 Clouds 21 1018 68 10000 1 0 14:58 16.04.2020
4638 Clouds 21 1018 68 10000 1 0 14:38 16.04.2020
4639 Clouds 21 1018 68 10000 1 0 14:19 16.04.2020
4640 Clouds 20 1019 88 10000 4.6 310 13:56 16.04.2020
4641 Clouds 20 1019 88 10000 4.6 310 13:36 16.04.2020
4642 Clouds 19 1019 88 10000 4.6 310 13:18 16.04.2020
4643 Clouds 19 1020 88 10000 2.6 280 12:56 16.04.2020
4644 Drizzle 19 1020 82 2000 4.1 240 12:37 16.04.2020
4645 Clouds 20 1019 77 10000 4.1 330 12:18 16.04.2020
4646 Clouds 20 1019 77 10000 4.1 330 11:42 16.04.2020
4647 Clouds 20 1019 77 10000 4.1 330 11:22 16.04.2020
4648 Clouds 19 1020 72 10000 4.6 310 10:57 16.04.2020
4649 Clear 19 1019 78 0 1.34 293 10:39 16.04.2020
4650 Clouds 18 1020 82 10000 3.1 320 10:19 16.04.2020
4651 Clouds 18 1020 82 10000 3.1 320 09:58 16.04.2020
4652 Clouds 18 1020 82 10000 3.1 320 09:38 16.04.2020
4653 Clouds 16 1019 87 10000 2.1 10 09:19 16.04.2020
4654 Clouds 15 1019 87 10000 2.1 10 08:42 16.04.2020
4655 Clouds 14 1019 87 10000 2.1 10 08:22 16.04.2020
4656 Clouds 14 1019 93 10000 1.5 0 07:46 16.04.2020
4657 Clouds 14 1019 93 10000 1.5 0 07:46 16.04.2020
4658 Clouds 13 1019 93 10000 2.1 40 07:26 16.04.2020
4659 Clear 12 1019 93 10000 1 360 06:45 16.04.2020
4660 Clear 11 1019 93 10000 1 360 06:26 16.04.2020
4661 Clear 12 1018 87 10000 1 350 05:37 16.04.2020
4662 Clear 12 1018 93 10000 1.5 340 04:28 16.04.2020
4663 Clouds 13 1018 87 10000 1.5 30 03:24 16.04.2020
4664 Clouds 13 1019 87 10000 1.5 40 02:49 16.04.2020
4665 Clouds 13 1019 87 10000 1.5 40 02:31 16.04.2020
4666 Clouds 14 1019 87 10000 1 30 01:19 16.04.2020
4667 Clouds 14 1019 82 10000 1.5 70 00:34 16.04.2020
4668 Clouds 15 1019 77 10000 1.5 0 23:59 15.04.2020
4669 Clouds 14 1019 77 10000 1.5 0 23:41 15.04.2020
4670 Clouds 14 1019 77 10000 1.5 0 23:22 15.04.2020
4671 Clouds 15 1019 72 10000 1 0 22:41 15.04.2020
4672 Clouds 15 1019 72 10000 1 0 22:22 15.04.2020
4673 Clouds 16 1019 67 10000 1.5 220 21:59 15.04.2020
4674 Clouds 16 1019 67 10000 1.5 220 21:41 15.04.2020
4675 Clouds 16 1019 67 10000 1.5 220 21:23 15.04.2020
4676 Clouds 17 1019 67 10000 1 0 20:58 15.04.2020
4677 Clouds 17 1019 67 10000 1 0 20:40 15.04.2020
4678 Clouds 17 1019 67 10000 1 0 20:22 15.04.2020
4679 Clouds 17 1019 67 10000 1 0 20:22 15.04.2020
4680 Clouds 17 1019 67 10000 3.1 200 19:46 15.04.2020
4681 Clouds 18 1019 63 10000 3.1 100 19:21 15.04.2020
4682 Clouds 18 1019 63 10000 3.1 100 18:58 15.04.2020
4683 Clouds 18 1019 63 10000 3.1 100 18:40 15.04.2020
4684 Clouds 18 1019 63 10000 3.1 100 18:21 15.04.2020
4685 Clouds 18 1019 63 10000 3.1 100 18:21 15.04.2020
4686 Clouds 19 1019 55 10000 3.1 160 17:55 15.04.2020
4687 Clouds 19 1019 55 10000 3.1 160 17:36 15.04.2020
4688 Clouds 19 1019 55 10000 3.1 160 17:36 15.04.2020
4689 Clouds 19 1019 55 10000 3.1 160 17:18 15.04.2020
4690 Clouds 19 1019 55 10000 3.1 170 16:54 15.04.2020
4691 Clouds 19 1019 55 10000 3.1 170 16:36 15.04.2020
4692 Clouds 19 1019 55 10000 3.1 170 16:18 15.04.2020
4693 Clouds 19 1018 56 10000 4.1 190 15:55 15.04.2020
4694 Clouds 19 1018 56 10000 4.1 190 15:36 15.04.2020
4695 Clouds 20 1018 56 10000 4.1 190 15:18 15.04.2020
4696 Clouds 20 1018 56 10000 4.1 210 14:42 15.04.2020
4697 Clouds 20 1018 56 10000 4.1 210 14:23 15.04.2020
4698 Clouds 20 1019 56 10000 2.1 0 14:00 15.04.2020
4699 Clouds 20 1019 56 10000 2.1 0 13:40 15.04.2020
4700 Clouds 20 1019 56 10000 2.1 0 13:21 15.04.2020
4701 Clouds 20 1019 68 10000 2.6 290 12:59 15.04.2020
4702 Clouds 20 1019 68 10000 2.6 290 12:41 15.04.2020
4703 Clouds 20 1019 77 10000 0.5 0 12:22 15.04.2020
4704 Clouds 19 1019 77 10000 0.5 0 11:58 15.04.2020
4705 Clouds 19 1019 77 10000 0.5 0 11:38 15.04.2020
4706 Clouds 18 1019 77 10000 0.5 0 11:20 15.04.2020
4707 Clouds 17 1020 82 10000 3.1 250 10:38 15.04.2020
4708 Clouds 17 1020 82 10000 3.1 250 10:20 15.04.2020
4709 Clouds 16 1019 93 10000 1.5 320 09:57 15.04.2020
4710 Clouds 16 1019 93 10000 1.5 320 09:38 15.04.2020
4711 Clouds 16 1019 93 10000 1.5 320 09:20 15.04.2020
4712 Clouds 15 1019 93 10000 1 0 08:55 15.04.2020
4713 Clouds 14 1019 93 10000 1 0 08:37 15.04.2020
4714 Clouds 14 1019 93 10000 1 0 08:18 15.04.2020
4715 Clouds 14 1019 93 10000 0.5 0 07:46 15.04.2020
4716 Clouds 14 1019 93 10000 0.5 0 07:28 15.04.2020
4717 Clouds 14 1019 87 10000 1 0 06:32 15.04.2020
4718 Clouds 14 1018 87 10000 0.5 0 05:50 15.04.2020
4719 Clouds 15 1019 87 10000 3.1 220 04:48 15.04.2020
4720 Clouds 15 1019 87 10000 3.1 220 04:23 15.04.2020
4721 Clouds 15 1019 87 10000 3.6 230 03:23 15.04.2020
4722 Clouds 15 1019 87 10000 4.6 230 02:50 15.04.2020
4723 Clouds 15 1020 87 10000 5.1 230 01:53 15.04.2020
4724 Clouds 16 1020 87 10000 5.1 230 01:25 15.04.2020
4725 Clouds 16 1020 93 10000 5.1 230 00:51 15.04.2020
4726 Clear 16 1020 93 10000 5.1 230 00:29 15.04.2020
4727 Clear 16 1020 82 10000 4.1 230 23:56 14.04.2020
4728 Clear 16 1020 82 10000 4.1 230 23:56 14.04.2020
4729 Clear 16 1020 82 10000 4.1 230 23:38 14.04.2020
4730 Clear 16 1020 82 10000 4.1 230 23:20 14.04.2020
4731 Clear 16 1020 87 10000 4.6 220 22:57 14.04.2020
4732 Clear 16 1020 87 10000 4.6 220 22:39 14.04.2020
4733 Clear 16 1020 87 10000 4.6 220 22:20 14.04.2020
4734 Clear 16 1020 87 10000 5.1 220 21:57 14.04.2020
4735 Clear 17 1020 87 10000 5.1 220 21:39 14.04.2020
4736 Clear 17 1020 87 10000 5.1 220 21:19 14.04.2020
4737 Clear 17 1020 77 10000 5.1 220 20:58 14.04.2020
4738 Clear 17 1020 77 10000 5.1 220 20:39 14.04.2020
4739 Clear 17 1020 77 10000 5.1 220 20:20 14.04.2020
4740 Clear 17 1020 77 10000 3.6 210 19:41 14.04.2020
4741 Clear 18 1020 77 10000 3.6 210 19:23 14.04.2020
4742 Clear 18 1019 72 10000 7.2 180 18:58 14.04.2020
4743 Clear 18 1019 72 10000 7.2 180 18:40 14.04.2020
4744 Clear 19 1019 72 10000 7.2 180 18:21 14.04.2020
4745 Clouds 19 1019 68 10000 8.2 180 17:58 14.04.2020
4746 Clouds 20 1019 68 10000 8.2 180 17:38 14.04.2020
4747 Clouds 20 1019 68 10000 8.2 180 17:20 14.04.2020
4748 Clouds 21 1019 56 10000 8.2 180 16:56 14.04.2020
4749 Clouds 21 1019 56 10000 8.2 180 16:38 14.04.2020
4750 Clouds 21 1019 56 10000 8.2 180 16:19 14.04.2020
4751 Clouds 22 1019 53 10000 7.2 180 15:56 14.04.2020
4752 Clouds 22 1019 53 10000 7.2 180 15:37 14.04.2020
4753 Clouds 23 1019 53 10000 7.2 180 15:18 14.04.2020
4754 Clouds 21 1019 56 10000 7.7 170 14:55 14.04.2020
4755 Clouds 21 1019 56 10000 7.7 170 14:55 14.04.2020
4756 Clouds 21 1019 56 10000 7.7 170 14:37 14.04.2020
4757 Clouds 22 1019 56 10000 7.7 170 14:19 14.04.2020
4758 Clouds 22 1020 53 10000 7.2 180 13:43 14.04.2020
4759 Clouds 22 1020 53 10000 7.2 180 13:24 14.04.2020
4760 Clouds 21 1021 49 10000 5.7 180 12:56 14.04.2020
4761 Clouds 21 1021 49 10000 5.7 180 12:37 14.04.2020
4762 Clouds 21 1021 49 10000 5.7 180 12:18 14.04.2020
4763 Clouds 21 1021 49 10000 4.6 160 11:40 14.04.2020
4764 Clouds 21 1021 49 10000 4.6 160 11:22 14.04.2020
4765 Clouds 20 1021 60 10000 3.6 150 10:47 14.04.2020
4766 Clouds 20 1021 60 10000 3.6 150 10:29 14.04.2020
4767 Clouds 20 1021 72 10000 2.6 150 09:59 14.04.2020
4768 Clear 18 1020 77 0 0.45 203 09:41 14.04.2020
4769 Clouds 16 1021 87 10000 1.5 140 09:22 14.04.2020
4770 Clouds 15 1021 93 10000 1 90 08:44 14.04.2020
4771 Clouds 14 1021 93 10000 1 90 08:26 14.04.2020
4772 -273 0 0 0 0 0 07:59 14.04.2020
4773 -273 0 0 0 0 0 07:59 14.04.2020
4774 Clear 16 1020 75 0 3.17 163 07:41 14.04.2020
4775 Clouds 13 1019 87 10000 1.5 0 07:22 14.04.2020
4776 Clear 16 1020 75 0 3.17 163 06:45 14.04.2020
4777 Clear 16 1019 78 0 3.59 162 05:40 14.04.2020
4778 Clouds 13 1019 93 10000 1.5 180 03:27 14.04.2020
4779 Clouds 14 1019 87 10000 1 0 02:33 14.04.2020
4780 Clouds 14 1019 87 10000 2.1 220 01:27 14.04.2020
4781 Clouds 14 1019 82 10000 2.1 160 00:50 14.04.2020
4782 Clouds 14 1019 82 10000 2.1 160 00:24 14.04.2020
4783 Clouds 15 1018 87 10000 3.1 220 23:57 13.04.2020
4784 Clouds 15 1018 87 10000 3.1 220 23:37 13.04.2020
4785 Clouds 15 1018 87 10000 3.1 220 23:18 13.04.2020
4786 Clouds 15 1018 77 10000 1.5 220 22:42 13.04.2020
4787 Clouds 16 1018 77 10000 1.5 220 22:23 13.04.2020
4788 Clouds 15 1018 87 10000 2.1 180 21:58 13.04.2020
4789 Clouds 15 1018 87 10000 2.1 180 21:40 13.04.2020
4790 Clouds 15 1018 87 10000 2.6 130 21:21 13.04.2020
4791 Clouds 15 1018 87 10000 2.6 130 20:58 13.04.2020
4792 Clouds 15 1018 87 10000 2.6 130 20:39 13.04.2020
4793 Clouds 15 1018 87 10000 2.6 130 20:19 13.04.2020
4794 Clouds 15 1018 87 10000 2.6 130 20:19 13.04.2020
4795 Clouds 16 1018 77 10000 3.1 140 19:58 13.04.2020
4796 Clouds 16 1018 77 10000 3.1 140 19:37 13.04.2020
4797 Clouds 16 1018 77 10000 3.1 140 19:18 13.04.2020
4798 Clouds 17 1017 67 10000 5.7 190 18:56 13.04.2020
4799 Clouds 17 1017 67 10000 5.7 190 18:37 13.04.2020
4800 Clouds 18 1017 67 10000 5.7 190 18:18 13.04.2020
4801 Clouds 19 1017 59 10000 6.7 190 17:56 13.04.2020
4802 Clouds 19 1017 59 10000 6.7 190 17:37 13.04.2020
4803 Clouds 19 1017 59 10000 6.7 190 17:18 13.04.2020
4804 Clouds 19 1017 59 10000 5.7 170 16:57 13.04.2020
4805 Clouds 19 1017 59 10000 5.7 170 16:37 13.04.2020
4806 Clouds 19 1017 59 10000 5.7 170 16:19 13.04.2020
4807 Clouds 19 1017 59 10000 5.7 170 16:19 13.04.2020
4808 Clouds 20 1017 52 10000 6.2 180 15:46 13.04.2020
4809 Clouds 20 1017 52 10000 6.2 180 15:28 13.04.2020
4810 Clouds 20 1017 49 10000 4.6 170 14:59 13.04.2020
4811 Clouds 20 1017 49 10000 4.6 170 14:40 13.04.2020
4812 Clouds 21 1017 49 10000 4.6 170 14:22 13.04.2020
4813 Clouds 20 1017 52 10000 3.6 190 13:56 13.04.2020
4814 Clouds 20 1017 52 10000 3.6 190 13:38 13.04.2020
4815 Clouds 19 1017 52 10000 3.6 190 13:20 13.04.2020
4816 Clouds 19 1018 52 10000 3.1 190 12:58 13.04.2020
4817 Clouds 19 1018 52 10000 3.1 190 12:39 13.04.2020
4818 Clouds 19 1018 52 10000 3.1 190 12:19 13.04.2020
4819 Clouds 19 1018 52 10000 3.1 190 12:19 13.04.2020
4820 Clouds 19 1018 52 10000 1.5 0 11:57 13.04.2020
4821 Clouds 19 1018 52 10000 1.5 0 11:39 13.04.2020
4822 Clouds 18 1018 52 10000 1.5 0 11:18 13.04.2020
4823 Clouds 18 1018 59 10000 1.5 0 10:55 13.04.2020
4824 Clouds 17 1018 77 10000 1 0 10:36 13.04.2020
4825 Clouds 16 1018 77 10000 1 0 10:18 13.04.2020
4826 Clouds 16 1018 77 10000 1 0 09:43 13.04.2020
4827 Clouds 15 1018 77 10000 1 0 09:25 13.04.2020
4828 Clouds 14 1018 87 10000 0.5 0 08:45 13.04.2020
4829 Clouds 12 1018 87 10000 0.5 0 08:27 13.04.2020
4830 Clouds 11 1017 93 10000 2.1 60 07:56 13.04.2020
4831 Clouds 11 1017 93 10000 2.1 60 07:37 13.04.2020
4832 Clouds 11 1017 93 10000 2.1 60 07:18 13.04.2020
4833 Clouds 11 1017 93 10000 2.6 70 06:42 13.04.2020
4834 Clear 11 1017 93 10000 1.5 10 05:52 13.04.2020
4835 Clear 10 1017 93 10000 1.5 10 05:19 13.04.2020
4836 Clear 10 1017 93 10000 1.5 10 05:19 13.04.2020
4837 Clear 11 1017 93 10000 2.1 50 04:31 13.04.2020
4838 Clear 11 1017 87 10000 1.5 80 03:56 13.04.2020
4839 Clear 11 1017 87 10000 1.5 80 03:34 13.04.2020
4840 Clear 12 1018 87 10000 0.5 0 02:41 13.04.2020
4841 Clear 12 1018 87 10000 2.1 50 01:47 13.04.2020
4842 Clear 12 1018 87 10000 2.1 50 01:28 13.04.2020
4843 Clear 12 1018 82 10000 1.5 70 00:50 13.04.2020
4844 Clear 12 1018 82 10000 1.5 70 00:25 13.04.2020
4845 Clear 13 1018 82 10000 2.1 50 23:57 12.04.2020
4846 Clear 13 1018 82 10000 2.1 50 23:38 12.04.2020
4847 Clear 14 1018 82 10000 2.1 50 23:20 12.04.2020
4848 Clear 13 1018 82 10000 1.5 90 22:54 12.04.2020
4849 Clear 14 1018 82 10000 1.5 90 22:36 12.04.2020
4850 Clear 14 1018 82 10000 1.5 90 22:18 12.04.2020
4851 Clear 14 1018 71 10000 1 180 21:38 12.04.2020
4852 Clear 14 1018 71 10000 1 180 21:19 12.04.2020
4853 Clear 15 1017 63 10000 1.5 0 20:43 12.04.2020
4854 Clear 16 1017 63 10000 1.5 0 20:23 12.04.2020
4855 Clouds 16 1017 59 10000 3.6 240 19:59 12.04.2020
4856 Clouds 16 1017 59 10000 3.6 240 19:40 12.04.2020
4857 Clouds 17 1017 59 10000 3.6 240 19:19 12.04.2020
4858 Clouds 17 1016 59 10000 3.6 230 18:57 12.04.2020
4859 Clouds 18 1016 59 10000 3.6 230 18:39 12.04.2020
4860 Clouds 18 1016 59 10000 3.6 230 18:19 12.04.2020
4861 Clouds 19 1016 55 10000 5.1 280 17:54 12.04.2020
4862 Clouds 19 1016 55 10000 5.1 280 17:36 12.04.2020
4863 Clouds 19 1015 52 10000 6.2 300 17:18 12.04.2020
4864 Clouds 19 1015 52 10000 6.2 300 16:41 12.04.2020
4865 Clouds 20 1015 52 10000 6.2 300 16:21 12.04.2020
4866 Clouds 20 1015 52 10000 6.2 290 15:52 12.04.2020
4867 Clouds 20 1015 52 10000 6.2 290 15:31 12.04.2020
4868 Clouds 21 1015 49 10000 5.7 320 14:57 12.04.2020
4869 Clouds 21 1015 49 10000 5.7 320 14:39 12.04.2020
4870 Clouds 21 1015 49 10000 5.7 320 14:20 12.04.2020
4871 Clouds 21 1016 56 10000 4.6 320 13:55 12.04.2020
4872 Clouds 21 1016 56 10000 4.6 320 13:36 12.04.2020
4873 Clouds 21 1016 56 10000 4.6 320 13:18 12.04.2020
4874 Clouds 21 1016 56 10000 4.6 320 13:18 12.04.2020
4875 Clouds 20 1016 60 10000 4.6 310 12:45 12.04.2020
4876 Clouds 20 1016 60 10000 4.6 310 12:21 12.04.2020
4877 Clouds 20 1015 52 10000 4.6 260 11:57 12.04.2020
4878 Clouds 20 1015 52 10000 4.6 260 11:37 12.04.2020
4879 Clouds 20 1015 52 10000 4.6 260 11:18 12.04.2020
4880 Clouds 19 1015 68 10000 2.1 0 10:55 12.04.2020
4881 Clouds 19 1015 68 10000 2.1 0 10:37 12.04.2020
4882 Clouds 19 1015 68 10000 2.1 0 10:18 12.04.2020
4883 Clouds 17 1014 93 10000 3.6 20 09:55 12.04.2020
4884 Clouds 17 1014 93 10000 3.6 20 09:37 12.04.2020
4885 Clouds 17 1014 93 10000 3.6 20 09:19 12.04.2020
4886 Rain 17 1012 93 8000 5.7 310 08:47 12.04.2020
4887 Rain 17 1012 93 8000 5.7 310 08:28 12.04.2020
4888 Clouds 17 1011 93 10000 6.7 290 07:46 12.04.2020
4889 Clouds 17 1011 93 10000 6.7 290 07:19 12.04.2020
4890 Clouds 17 1010 93 10000 8.2 310 06:37 12.04.2020
4891 Clouds 17 1010 93 10000 7.2 300 06:00 12.04.2020
4892 Rain 17 1009 100 5000 9.8 310 05:41 12.04.2020
4893 Rain 18 1008 93 4000 9.3 340 03:48 12.04.2020
4894 Rain 18 1008 93 4000 9.3 340 03:25 12.04.2020
4895 Rain 17 1008 93 7000 9.8 350 02:35 12.04.2020
4896 Rain 17 1009 93 5000 8.7 340 01:53 12.04.2020
4897 Rain 17 1009 93 5000 8.7 340 01:19 12.04.2020
4898 Rain 18 1009 88 2000 9.8 360 00:42 12.04.2020
4899 Rain 18 1009 88 2000 9.8 360 00:20 12.04.2020
4900 Rain 18 1010 93 6000 8.7 350 23:47 11.04.2020
4901 Rain 18 1010 93 6000 8.7 350 23:26 11.04.2020
4902 Rain 18 1011 93 8000 8.2 330 22:55 11.04.2020
4903 Rain 18 1011 93 8000 8.2 330 22:36 11.04.2020
4904 Rain 18 1011 93 8000 8.2 330 22:18 11.04.2020
4905 Clouds 18 1010 88 10000 8.2 340 21:54 11.04.2020
4906 Clouds 18 1010 88 10000 8.2 340 21:54 11.04.2020
4907 Clouds 18 1010 88 10000 8.2 340 21:36 11.04.2020
4908 Clouds 19 1010 88 10000 8.2 340 21:18 11.04.2020
4909 Clouds 19 1010 88 10000 8.2 340 21:18 11.04.2020
4910 Clouds 18 1010 88 10000 7.7 350 20:54 11.04.2020
4911 Clouds 18 1010 88 10000 7.7 350 20:54 11.04.2020
4912 Clouds 18 1010 88 10000 7.7 350 20:36 11.04.2020
4913 Clouds 18 1010 88 10000 7.7 350 20:18 11.04.2020
4914 Clouds 17 1010 93 10000 6.7 340 19:54 11.04.2020
4915 Clouds 18 1010 93 10000 6.7 320 19:36 11.04.2020
4916 Clouds 18 1010 93 10000 6.7 320 19:18 11.04.2020
4917 Clouds 18 1010 88 10000 7.7 320 18:55 11.04.2020
4918 Clouds 18 1010 88 10000 8.2 320 18:36 11.04.2020
4919 Clouds 17 1010 88 10000 8.2 320 18:18 11.04.2020
4920 Clouds 17 1010 88 10000 8.2 320 18:18 11.04.2020
4921 Clouds 18 1010 88 10000 8.7 310 17:56 11.04.2020
4922 Clouds 18 1010 88 10000 8.7 310 17:36 11.04.2020
4923 Clouds 19 1010 88 10000 8.7 310 17:18 11.04.2020
4924 Clouds 20 1018 81 0 2.24 312 16:42 11.04.2020
4925 Clouds 20 1010 73 10000 9.8 310 16:21 11.04.2020
4926 Clouds 20 1010 77 10000 9.3 310 15:41 11.04.2020
4927 Clouds 20 1010 77 10000 9.3 310 15:21 11.04.2020
4928 Clouds 21 1010 73 10000 8.2 310 14:58 11.04.2020
4929 Clouds 21 1010 73 10000 8.2 310 14:39 11.04.2020
4930 Clouds 21 1010 73 10000 8.2 310 14:20 11.04.2020
4931 Clouds 21 1011 82 10000 6.7 330 13:42 11.04.2020
4932 Clouds 21 1011 82 10000 6.7 330 13:24 11.04.2020
4933 Clouds 20 1013 93 10000 5.7 340 12:59 11.04.2020
4934 Clouds 20 1013 93 10000 5.7 340 12:37 11.04.2020
4935 Clouds 19 1013 93 10000 5.7 340 12:18 11.04.2020
4936 Clouds 19 1013 93 10000 5.1 340 11:43 11.04.2020
4937 Clouds 19 1014 93 8000 4.6 350 11:21 11.04.2020
4938 Rain 18 1014 93 4000 5.1 330 10:57 11.04.2020
4939 Rain 18 1014 93 4000 5.1 330 10:37 11.04.2020
4940 Rain 17 1014 93 4000 5.1 330 10:19 11.04.2020
4941 Clouds 17 1014 93 10000 4.1 330 09:57 11.04.2020
4942 Clouds 17 1014 93 10000 4.1 330 09:38 11.04.2020
4943 Clouds 17 1014 93 10000 4.1 330 09:19 11.04.2020
4944 Clouds 17 1013 93 10000 5.1 330 08:43 11.04.2020
4945 Clouds 17 1013 93 10000 5.1 330 08:23 11.04.2020
4946 Clouds 16 1013 93 10000 3.6 10 07:49 11.04.2020
4947 Clouds 16 1013 93 10000 3.6 10 07:28 11.04.2020
4948 Clouds 17 1013 93 10000 4.1 40 06:44 11.04.2020
4949 Clouds 17 1013 93 10000 3.1 30 05:59 11.04.2020
4950 Clouds 17 1014 93 10000 4.6 330 04:34 11.04.2020
4951 Clouds 16 1014 93 10000 3.6 350 03:40 11.04.2020
4952 Clouds 17 1015 93 10000 3.1 320 01:52 11.04.2020
4953 Clouds 17 1015 93 10000 3.1 320 01:20 11.04.2020
4954 Clouds 16 1016 93 10000 3.1 340 00:44 11.04.2020
4955 Clouds 16 1016 93 10000 3.1 340 00:19 11.04.2020
4956 Clouds 16 1016 93 10000 3.1 320 23:56 10.04.2020
4957 Clouds 16 1016 93 10000 3.1 320 23:56 10.04.2020
4958 Clouds 16 1016 93 10000 3.1 320 23:37 10.04.2020
4959 Clouds 16 1016 93 10000 3.1 320 23:18 10.04.2020
4960 Clouds 17 1016 88 10000 3.6 300 22:43 10.04.2020
4961 Clouds 17 1016 88 10000 3.6 300 22:21 10.04.2020
4962 Clouds 17 1016 88 10000 2.1 360 21:58 10.04.2020
4963 Clouds 17 1016 88 10000 2.1 360 21:39 10.04.2020
4964 Clear 17 1016 88 10000 2.1 360 21:20 10.04.2020
4965 Clear 18 1016 82 10000 2.1 290 20:43 10.04.2020
4966 Clear 18 1016 82 10000 2.1 290 20:23 10.04.2020
4967 Clear 18 1016 82 10000 2.1 50 19:58 10.04.2020
4968 Clear 18 1016 82 10000 2.1 50 19:40 10.04.2020
4969 Clear 19 1016 72 10000 5.7 330 19:20 10.04.2020
4970 Clear 19 1016 72 10000 5.7 330 18:58 10.04.2020
4971 Clear 20 1016 72 10000 5.7 330 18:39 10.04.2020
4972 Clear 20 1016 72 10000 5.7 330 18:21 10.04.2020
4973 Clear 22 1015 56 10000 5.7 330 17:58 10.04.2020
4974 Clear 22 1015 56 10000 5.7 330 17:39 10.04.2020
4975 Clear 22 1015 56 10000 5.7 330 17:20 10.04.2020
4976 Clear 23 1015 49 10000 6.2 320 16:56 10.04.2020
4977 Clear 23 1015 49 10000 6.2 320 16:38 10.04.2020
4978 Clear 23 1015 49 10000 6.2 320 16:20 10.04.2020
4979 Clear 24 1015 46 10000 4.6 320 15:56 10.04.2020
4980 Clouds 23 1015 46 10000 4.6 320 15:37 10.04.2020
4981 Clear 23 1015 46 10000 4.6 320 15:37 10.04.2020
4982 Clouds 23 1015 46 10000 4.6 320 15:18 10.04.2020
4983 Clouds 22 1016 60 10000 4.6 320 14:56 10.04.2020
4984 Clouds 22 1016 60 10000 4.6 320 14:38 10.04.2020
4985 Clouds 22 1016 60 10000 4.6 320 14:38 10.04.2020
4986 Clouds 22 1016 60 10000 4.6 320 14:18 10.04.2020
4987 Clouds 22 1017 60 10000 4.6 320 13:43 10.04.2020
4988 Clouds 23 1017 60 10000 4.6 320 13:21 10.04.2020
4989 Clouds 23 1017 56 10000 2.6 320 12:44 10.04.2020
4990 Clouds 22 1017 56 10000 2.6 320 12:24 10.04.2020
4991 Clouds 21 1018 64 10000 2.1 320 11:58 10.04.2020
4992 Clouds 21 1018 64 10000 2.1 320 11:39 10.04.2020
4993 Clouds 21 1018 64 10000 2.1 320 11:21 10.04.2020
4994 Clouds 19 1018 77 10000 2.1 330 10:46 10.04.2020
4995 Clouds 19 1017 88 10000 2.6 320 10:23 10.04.2020
4996 Mist 17 1017 93 5000 2.1 300 09:57 10.04.2020
4997 Mist 16 1017 93 5000 2.1 300 09:39 10.04.2020
4998 Mist 16 1017 93 5000 2.1 300 09:20 10.04.2020
4999 Clouds 16 1025 98 0 0.89 324 08:43 10.04.2020
5000 Mist 15 1017 100 5000 1.5 30 08:24 10.04.2020
5001 Fog 15 1017 100 100 2.1 20 07:46 10.04.2020
5002 Fog 15 1017 100 300 1 340 07:24 10.04.2020
5003 Fog 15 1016 100 300 1.5 0 06:49 10.04.2020
5004 Fog 15 1016 93 700 2.1 310 06:29 10.04.2020
5005 Fog 15 1015 93 700 2.1 340 05:42 10.04.2020
5006 Clouds 15 1015 87 10000 2.1 330 04:59 10.04.2020
5007 Clouds 15 1016 82 10000 1 10 03:53 10.04.2020
5008 Clouds 15 1016 82 10000 1 10 03:32 10.04.2020
5009 Clouds 15 1016 82 10000 1.5 10 02:49 10.04.2020
5010 Clouds 15 1016 82 10000 1.5 10 02:31 10.04.2020
5011 Clouds 15 1016 77 10000 2.1 220 01:30 10.04.2020
5012 Clouds 15 1016 76 10000 2.6 20 00:53 10.04.2020
5013 Clouds 15 1016 76 10000 2.6 20 00:26 10.04.2020
5014 Clouds 15 1016 72 10000 1.5 260 23:57 09.04.2020
5015 Clouds 15 1016 72 10000 1.5 260 23:38 09.04.2020
5016 Clouds 15 1016 72 10000 1.5 260 23:38 09.04.2020
5017 Clouds 15 1016 72 10000 1.5 260 23:20 09.04.2020
5018 Clouds 15 1015 72 10000 1 60 22:42 09.04.2020
5019 Clouds 15 1015 72 10000 1 60 22:24 09.04.2020
5020 Clouds 15 1016 67 10000 1 120 21:59 09.04.2020
5021 Clouds 15 1016 67 10000 1 120 21:37 09.04.2020
5022 Clouds 16 1015 63 10000 1 140 21:19 09.04.2020
5023 Clouds 16 1016 67 10000 1 120 21:19 09.04.2020
5024 Clouds 16 1015 63 10000 1 140 20:44 09.04.2020
5025 Clouds 16 1015 63 10000 1 140 20:21 09.04.2020
5026 Clouds 18 1015 67 10000 3.1 120 19:58 09.04.2020
5027 Clouds 19 1015 67 10000 3.1 120 19:37 09.04.2020
5028 Clouds 20 1014 45 10000 4.6 130 19:18 09.04.2020
5029 Clouds 21 1014 45 10000 4.6 130 18:42 09.04.2020
5030 Clouds 21 1014 45 10000 4.6 130 18:20 09.04.2020
5031 Clouds 23 1014 26 10000 2.1 210 17:42 09.04.2020
5032 Clouds 24 1014 26 10000 2.1 210 17:24 09.04.2020
5033 Clouds 26 1014 13 10000 5.1 320 16:56 09.04.2020
5034 Clouds 26 1014 13 10000 5.1 320 16:38 09.04.2020
5035 Clouds 26 1014 13 10000 5.1 320 16:19 09.04.2020
5036 Clouds 26 1013 14 10000 5.1 320 15:55 09.04.2020
5037 Clouds 26 1013 14 10000 5.1 320 15:37 09.04.2020
5038 Clouds 26 1013 14 10000 5.1 320 15:18 09.04.2020
5039 Clouds 26 1014 15 10000 3.6 310 14:41 09.04.2020
5040 Clouds 28 1014 15 10000 3.6 310 14:21 09.04.2020
5041 Clouds 28 1014 18 10000 4.1 300 13:56 09.04.2020
5042 Clouds 27 1014 15 10000 2.6 320 13:37 09.04.2020
5043 Clouds 27 1014 15 10000 2.6 320 13:18 09.04.2020
5044 Clouds 26 1014 15 10000 2.6 320 12:42 09.04.2020
5045 Clouds 26 1014 15 10000 2.6 320 12:23 09.04.2020
5046 Clouds 26 1015 22 10000 1 0 11:59 09.04.2020
5047 Clouds 26 1015 22 10000 1 0 11:40 09.04.2020
5048 Clouds 24 1015 35 10000 1.5 0 11:20 09.04.2020
5049 Clouds 25 1015 35 10000 1.5 0 10:57 09.04.2020
5050 Clouds 24 1015 35 10000 1.5 0 10:38 09.04.2020
5051 Clouds 23 1015 42 10000 1 0 10:19 09.04.2020
5052 Clouds 22 1015 42 10000 1 0 09:55 09.04.2020
5053 Clouds 19 1015 72 10000 2.1 40 09:37 09.04.2020
5054 Clouds 15 1015 71 10000 0.5 20 09:19 09.04.2020
5055 Clouds 15 1014 81 10000 2.6 40 08:43 09.04.2020
5056 Clouds 14 1014 81 10000 2.6 40 08:23 09.04.2020
5057 Clouds 13 1014 87 10000 2.1 60 07:55 09.04.2020
5058 Clouds 13 1014 87 10000 2.1 60 07:24 09.04.2020
5059 Clouds 12 1014 87 10000 1.5 50 06:52 09.04.2020
5060 Clear 12 1014 87 10000 1.5 60 05:59 09.04.2020
5061 Clear 12 1014 87 10000 1.5 60 05:38 09.04.2020
5062 Clear 12 1015 81 10000 1.5 130 03:49 09.04.2020
5063 Clear 12 1015 81 10000 0.5 0 02:25 09.04.2020
5064 Clear 13 1015 76 10000 2.1 0 01:40 09.04.2020
5065 Clear 14 1016 71 10000 1 0 01:20 09.04.2020
5066 Clear 15 1016 71 10000 1 0 00:41 09.04.2020
5067 Clear 15 1016 71 10000 1 0 00:19 09.04.2020
5068 Clear 15 1016 62 10000 2.1 220 23:57 08.04.2020
5069 Clear 15 1016 62 10000 2.1 220 23:39 08.04.2020
5070 Clear 15 1016 62 10000 2.1 220 23:20 08.04.2020
5071 Clear 16 1016 67 10000 2.1 220 22:43 08.04.2020
5072 Clear 16 1016 67 10000 2.1 220 22:24 08.04.2020
5073 Clear 16 1016 67 10000 4.1 230 21:56 08.04.2020
5074 Clouds 16 1016 67 10000 4.1 230 21:37 08.04.2020
5075 Clouds 16 1016 72 10000 4.6 210 21:19 08.04.2020
5076 Clouds 17 1016 72 10000 4.6 210 20:56 08.04.2020
5077 Clouds 17 1016 72 10000 4.6 210 20:38 08.04.2020
5078 Clouds 17 1017 72 10000 4.6 220 20:19 08.04.2020
5079 Clouds 18 1017 72 10000 4.6 220 19:42 08.04.2020
5080 -273 0 0 0 0 0 19:42 08.04.2020
5081 Clouds 18 1017 72 10000 4.6 220 19:22 08.04.2020
5082 Clouds 19 1017 59 10000 5.1 220 18:56 08.04.2020
5083 Clouds 19 1017 59 10000 5.1 220 18:38 08.04.2020
5084 Clouds 20 1017 59 10000 5.1 220 18:19 08.04.2020
5085 Clouds 21 1017 46 10000 5.1 220 17:43 08.04.2020
5086 Clouds 22 1017 46 10000 5.1 220 17:22 08.04.2020
5087 Clouds 23 1017 31 10000 5.7 210 16:59 08.04.2020
5088 Clouds 23 1017 31 10000 5.7 210 16:40 08.04.2020
5089 Clouds 23 1018 28 10000 5.1 190 16:22 08.04.2020
5090 Clouds 24 1018 28 10000 5.1 190 15:39 08.04.2020
5091 Clouds 24 1018 28 10000 5.1 190 15:39 08.04.2020
5092 Clouds 22 1018 31 10000 5.7 180 15:21 08.04.2020
5093 Clouds 22 1018 31 10000 5.7 180 14:59 08.04.2020
5094 Clouds 23 1018 31 10000 5.7 180 14:41 08.04.2020
5095 Clouds 23 1018 31 10000 5.7 180 14:22 08.04.2020
5096 Clouds 23 1019 31 10000 5.7 180 13:44 08.04.2020
5097 Clouds 23 1019 31 10000 5.7 180 13:44 08.04.2020
5098 Clouds 22 1019 31 10000 5.7 180 13:21 08.04.2020
5099 Clouds 22 1019 31 10000 5.7 180 13:21 08.04.2020
5100 Clouds 22 1020 32 10000 2.6 200 12:58 08.04.2020
5101 Clouds 22 1020 32 10000 2.6 200 12:40 08.04.2020
5102 Clouds 21 1020 32 10000 2.6 200 12:18 08.04.2020
5103 Clouds 20 1020 42 10000 1 0 11:42 08.04.2020
5104 Clouds 19 1020 42 10000 1 0 11:23 08.04.2020
5105 Clouds 18 1021 55 10000 0.5 0 10:59 08.04.2020
5106 Clouds 18 1021 55 10000 0.5 0 10:41 08.04.2020
5107 Clouds 17 1021 71 10000 0.5 0 10:21 08.04.2020
5108 Clouds 16 1021 71 10000 0.5 0 09:59 08.04.2020
5109 Clouds 16 1021 71 10000 0.5 0 09:41 08.04.2020
5110 Clouds 14 1021 71 10000 0.5 0 09:19 08.04.2020
5111 Clouds 13 1020 76 10000 1 0 08:58 08.04.2020
5112 Clouds 12 1020 87 10000 0.5 0 08:39 08.04.2020
5113 Clouds 12 1020 87 10000 0.5 0 08:21 08.04.2020
5114 Clouds 10 1021 93 10000 1 0 07:43 08.04.2020
5115 Clouds 10 1021 93 10000 1 0 07:22 08.04.2020
5116 Clouds 9 1020 87 10000 1 0 06:32 08.04.2020
5117 Clouds 12 1021 66 10000 4.1 190 04:59 08.04.2020
5118 Clouds 13 1022 66 10000 6.2 190 02:51 08.04.2020
5119 Clouds 13 1022 66 10000 6.2 190 02:22 08.04.2020
5120 Clouds 14 1022 62 10000 6.7 180 01:56 08.04.2020
5121 Clouds 14 1022 62 10000 6.7 180 01:28 08.04.2020
5122 Clouds 14 1023 58 10000 6.7 180 00:47 08.04.2020
5123 Clouds 14 1023 58 10000 6.7 180 00:47 08.04.2020
5124 Clear 14 1023 58 10000 6.7 180 00:26 08.04.2020
5125 Clear 14 1023 62 10000 7.2 170 23:57 07.04.2020
5126 Clear 14 1023 62 10000 7.2 170 23:38 07.04.2020
5127 Clear 14 1023 62 10000 7.2 170 23:19 07.04.2020
5128 Clear 13 1023 76 10000 4.1 180 22:56 07.04.2020
5129 Clear 13 1023 76 10000 4.1 180 22:37 07.04.2020
5130 Clear 13 1023 76 10000 4.1 180 22:18 07.04.2020
5131 Clear 14 1031 76 0 0.89 211 21:42 07.04.2020
5132 Clouds 13 1023 81 10000 4.6 160 21:22 07.04.2020
5133 Clouds 14 1023 76 10000 4.6 160 20:59 07.04.2020
5134 Clouds 14 1023 76 10000 4.6 160 20:40 07.04.2020
5135 Clouds 15 1030 71 0 1.34 167 20:21 07.04.2020
5136 Clouds 15 1030 70 0 0.89 169 19:58 07.04.2020
5137 Clouds 15 1022 55 10000 6.7 180 19:38 07.04.2020
5138 Clouds 15 1022 55 10000 6.7 180 19:38 07.04.2020
5139 Clouds 16 1022 55 10000 6.7 180 19:20 07.04.2020
5140 Clouds 16 1022 55 10000 6.7 180 18:59 07.04.2020
5141 Clouds 16 1022 55 10000 6.7 180 18:40 07.04.2020
5142 Clouds 17 1022 48 10000 7.7 160 18:21 07.04.2020
5143 Clouds 18 1022 48 10000 7.7 160 17:47 07.04.2020
5144 Clouds 18 1022 48 10000 7.7 160 17:25 07.04.2020
5145 Clouds 19 1022 48 10000 6.7 160 16:59 07.04.2020
5146 Clouds 18 1022 48 10000 6.7 160 16:41 07.04.2020
5147 Clouds 18 1022 48 10000 6.7 160 16:22 07.04.2020
5148 Clouds 19 1023 45 10000 6.2 160 15:44 07.04.2020
5149 Clouds 19 1023 45 10000 6.2 160 15:26 07.04.2020
5150 Clouds 19 1023 45 10000 6.2 160 14:55 07.04.2020
5151 Clouds 19 1023 45 10000 6.2 160 14:37 07.04.2020
5152 Clouds 19 1023 45 10000 6.2 160 14:18 07.04.2020
5153 Clouds 18 1023 55 10000 5.1 160 13:42 07.04.2020
5154 Clouds 18 1023 72 10000 2.6 80 13:19 07.04.2020
5155 Clouds 17 1023 72 10000 2.6 80 12:57 07.04.2020
5156 Clouds 17 1023 72 10000 2.6 80 12:57 07.04.2020
5157 Clouds 17 1023 72 10000 2.6 80 12:38 07.04.2020
5158 Clouds 16 1024 82 10000 0.5 0 12:20 07.04.2020
5159 Clouds 15 1024 82 10000 0.5 0 11:57 07.04.2020
5160 Clouds 15 1024 82 10000 0.5 0 11:39 07.04.2020
5161 Clouds 15 1024 82 10000 0.5 0 11:19 07.04.2020
5162 Rain 14 1023 82 8000 1 0 10:39 07.04.2020
5163 Rain 14 1023 82 8000 1 0 10:20 07.04.2020
5164 Rain 14 1022 76 8000 3.1 60 09:56 07.04.2020
5165 Rain 14 1022 76 8000 3.1 60 09:37 07.04.2020
5166 Clouds 13 1021 76 10000 3.6 40 09:18 07.04.2020
5167 Clouds 12 1021 87 10000 3.1 40 08:39 07.04.2020
5168 Clouds 12 1021 87 10000 3.1 40 08:20 07.04.2020
5169 Clouds 11 1020 87 10000 3.1 60 07:46 07.04.2020
5170 Clouds 11 1020 87 10000 3.1 60 07:26 07.04.2020
5171 Rain 11 1020 87 10000 1 0 06:53 07.04.2020
5172 Rain 11 1020 87 10000 1 0 06:26 07.04.2020
5173 Clouds 11 1019 81 10000 2.1 80 05:59 07.04.2020
5174 Clouds 11 1019 81 10000 2.1 80 05:26 07.04.2020
5175 Clouds 11 1019 76 10000 3.1 60 04:22 07.04.2020
5176 Clouds 12 1019 66 10000 1.5 0 03:23 07.04.2020
5177 Clouds 12 1019 62 10000 1.5 340 02:46 07.04.2020
5178 Clouds 13 1020 54 10000 2.6 290 01:43 07.04.2020
5179 Clouds 12 1020 54 10000 2.6 290 01:22 07.04.2020
5180 Clouds 12 1019 58 10000 1.5 0 00:26 07.04.2020
5181 Clouds 11 1019 66 10000 2.6 300 23:44 06.04.2020
5182 Clouds 11 1019 66 10000 2.6 300 23:22 06.04.2020
5183 Clouds 12 1019 58 10000 2.1 280 22:56 06.04.2020
5184 Clouds 12 1019 58 10000 2.1 280 22:37 06.04.2020
5185 Clouds 12 1018 66 10000 2.1 320 22:19 06.04.2020
5186 Clear 12 1026 73 0 0.45 308 21:56 06.04.2020
5187 Clouds 12 1018 66 10000 2.1 320 21:37 06.04.2020
5188 Clouds 12 1018 66 10000 2.1 320 21:18 06.04.2020
5189 Clouds 13 1017 58 10000 1.5 230 20:41 06.04.2020
5190 Clouds 13 1017 58 10000 1.5 230 20:21 06.04.2020
5191 Clouds 14 1017 54 10000 2.1 220 19:58 06.04.2020
5192 Clouds 14 1017 54 10000 2.1 220 19:58 06.04.2020
5193 Clouds 14 1017 54 10000 2.1 220 19:39 06.04.2020
5194 Clouds 14 1017 54 10000 2.1 220 19:20 06.04.2020
5195 Clouds 15 1016 58 10000 5.7 200 18:54 06.04.2020
5196 Clouds 15 1016 58 10000 5.7 200 18:36 06.04.2020
5197 Clouds 15 1016 62 10000 6.2 200 18:18 06.04.2020
5198 Clouds 15 1016 62 10000 6.2 200 17:41 06.04.2020
5199 Clouds 15 1016 62 10000 6.2 200 17:19 06.04.2020
5200 Clouds 16 1015 59 10000 6.2 210 16:50 06.04.2020
5201 Clouds 16 1015 59 10000 6.2 210 16:31 06.04.2020
5202 Clouds 16 1015 63 10000 7.7 230 15:40 06.04.2020
5203 Clouds 16 1015 63 10000 7.7 230 15:40 06.04.2020
5204 Clouds 17 1014 67 10000 6.2 260 13:45 06.04.2020
5205 Clouds 17 1014 67 10000 6.2 260 13:23 06.04.2020
5206 Clouds 17 1014 72 10000 4.6 250 12:53 06.04.2020
5207 Clouds 17 1014 72 10000 4.6 250 12:53 06.04.2020
5208 Clouds 17 1014 72 10000 4.6 250 12:53 06.04.2020
5209 Clouds 17 1014 72 10000 4.6 250 12:53 06.04.2020
5210 Clouds 17 1014 72 10000 4.6 250 12:53 06.04.2020
5211 Rain 15 1014 82 6000 4.6 240 12:21 06.04.2020
5212 Rain 15 1014 82 6000 4.6 240 12:21 06.04.2020
5213 Rain 16 1014 93 6000 3.6 280 11:54 06.04.2020
5214 Rain 16 1014 93 6000 3.6 280 11:54 06.04.2020
5215 Rain 16 1014 93 6000 3.6 280 11:54 06.04.2020
5216 Rain 16 1014 93 6000 3.6 280 11:54 06.04.2020
5217 Rain 16 1014 93 6000 3.6 280 11:54 06.04.2020
5218 Rain 15 1014 93 6000 3.6 280 11:29 06.04.2020
5219 Rain 15 1014 93 6000 3.6 280 11:29 06.04.2020
5220 Rain 15 1014 93 6000 3.6 280 11:29 06.04.2020
5221 Rain 15 1014 93 6000 3.6 280 11:29 06.04.2020
5222 Rain 15 1014 93 6000 3.6 280 11:29 06.04.2020
5223 Clouds 15 1014 87 7000 4.1 300 10:50 06.04.2020
5224 Clouds 15 1014 87 7000 4.1 300 10:50 06.04.2020
5225 Rain 15 1014 87 1400 6.7 290 10:21 06.04.2020
5226 Clouds 16 1013 87 10000 7.7 310 09:47 06.04.2020
5227 Clouds 16 1013 87 10000 7.7 310 09:46 06.04.2020
5228 Clouds 16 1013 87 10000 7.7 310 09:46 06.04.2020
5229 Clouds 16 1013 87 10000 7.7 310 09:46 06.04.2020
5230 Clouds 16 1013 87 10000 7.7 310 09:46 06.04.2020
5231 -273 0 0 0 0 0 09:20 06.04.2020
5232 Clouds 15 1013 93 10000 4.1 340 08:53 06.04.2020
5233 Clouds 15 1013 93 10000 4.1 340 08:30 06.04.2020
5234 Clouds 14 1012 93 10000 5.7 320 07:29 06.04.2020
5235 Clouds 14 1012 93 10000 5.7 320 07:28 06.04.2020
5236 Clouds 14 1012 87 10000 4.1 310 06:40 06.04.2020
5237 Clouds 14 1012 87 10000 4.1 310 06:40 06.04.2020
5238 Clouds 15 1012 87 10000 4.1 310 06:18 06.04.2020
5239 Clouds 14 1012 100 10000 3.6 340 04:18 06.04.2020
5240 Clouds 14 1013 100 10000 5.1 340 02:57 06.04.2020
5241 Clouds 14 1013 100 10000 5.1 340 02:18 06.04.2020
5242 Clouds 14 1013 100 10000 3.1 340 01:23 06.04.2020
5243 Clouds 14 1013 100 10000 3.1 320 00:41 06.04.2020
5244 Clouds 14 1013 100 10000 3.1 320 00:21 06.04.2020
5245 Clouds 14 1013 100 10000 3.1 320 00:21 06.04.2020
5246 Clouds 14 1013 100 10000 3.1 320 00:21 06.04.2020
5247 Clouds 14 1013 100 10000 3.6 320 23:43 05.04.2020
5248 Clouds 14 1013 100 10000 3.6 320 23:24 05.04.2020
5249 Clouds 14 1013 100 10000 3.6 320 23:24 05.04.2020
5250 Clouds 15 1013 93 10000 2.6 320 22:55 05.04.2020
5251 Clouds 15 1013 93 10000 2.6 320 22:37 05.04.2020
5252 Clouds 15 1013 93 10000 2.6 320 22:18 05.04.2020
5253 Clouds 15 1013 93 10000 2.6 330 21:45 05.04.2020
5254 Clouds 15 1013 93 10000 2.6 330 21:45 05.04.2020
5255 Clouds 16 1013 93 10000 2.6 330 21:23 05.04.2020
5256 Clouds 16 1013 93 10000 2.1 360 20:26 05.04.2020
5257 Rain 16 1012 87 3000 2.1 240 19:59 05.04.2020
5258 Rain 16 1012 87 3000 2.1 240 19:37 05.04.2020
5259 Rain 16 1012 87 3000 2.1 240 19:19 05.04.2020
5260 Clouds 16 1012 87 10000 5.7 300 18:42 05.04.2020
5261 Clouds 16 1012 87 10000 5.7 300 18:42 05.04.2020
5262 Clouds 16 1012 87 10000 5.7 300 18:41 05.04.2020
5263 Clouds 16 1012 87 10000 5.7 300 18:41 05.04.2020
5264 Clouds 16 1012 87 10000 5.7 300 18:41 05.04.2020
5265 Rain 18 1012 72 10000 9.3 310 17:51 05.04.2020
5266 Rain 18 1012 72 10000 9.3 310 17:51 05.04.2020
5267 Rain 18 1012 72 10000 9.3 310 17:51 05.04.2020
5268 Rain 18 1012 72 10000 9.3 310 17:51 05.04.2020
5269 Rain 18 1012 72 10000 9.3 310 17:51 05.04.2020
5270 Rain 18 1012 72 10000 9.3 310 17:23 05.04.2020
5271 Clouds 19 1011 64 10000 10.3 320 16:47 05.04.2020
5272 Clouds 19 1011 64 10000 10.3 320 16:20 05.04.2020
5273 Clouds 19 1011 64 10000 10.3 320 16:20 05.04.2020
5274 Clouds 20 1011 64 10000 8.2 310 15:48 05.04.2020
5275 Clouds 20 1011 64 10000 8.2 310 15:30 05.04.2020
5276 Clouds 19 1012 64 10000 8.2 310 14:48 05.04.2020
5277 Clouds 20 1012 64 10000 8.2 310 14:24 05.04.2020
5278 Clouds 20 1012 64 10000 8.2 310 14:24 05.04.2020
5279 Clouds 20 1012 64 10000 8.2 310 14:24 05.04.2020
5280 Clouds 20 1012 64 10000 8.2 310 14:24 05.04.2020
5281 Clouds 20 1012 64 10000 8.2 310 14:24 05.04.2020
5282 Clouds 21 1012 52 10000 7.2 320 13:41 05.04.2020
5283 Clouds 21 1012 60 10000 8.7 320 12:48 05.04.2020
5284 Clouds 21 1012 60 10000 8.7 320 12:48 05.04.2020
5285 Clouds 21 1012 60 10000 8.7 320 12:48 05.04.2020
5286 Clouds 21 1013 60 10000 8.7 330 11:41 05.04.2020
5287 Clouds 21 1013 60 10000 8.7 330 11:20 05.04.2020
5288 Clouds 19 1013 77 10000 6.7 340 10:48 05.04.2020
5289 Clouds 19 1013 77 10000 6.7 340 10:24 05.04.2020
5290 Clouds 19 1013 77 10000 6.7 340 10:24 05.04.2020
5291 Clouds 19 1013 77 10000 6.7 340 10:24 05.04.2020
5292 Clouds 19 1013 77 10000 6.7 340 10:24 05.04.2020
5293 Clouds 19 1013 77 10000 6.7 340 10:24 05.04.2020
5294 Clouds 19 1013 93 10000 5.1 340 09:56 05.04.2020
5295 Clouds 19 1013 93 10000 5.1 340 09:56 05.04.2020
5296 Clouds 18 1013 100 10000 3.1 10 09:31 05.04.2020
5297 Clouds 18 1013 100 10000 3.1 10 09:31 05.04.2020
5298 Clouds 17 1012 93 8000 2.1 330 08:53 05.04.2020
5299 Clouds 17 1012 93 8000 2.1 330 08:53 05.04.2020
5300 Clouds 17 1012 93 8000 2.1 330 08:53 05.04.2020
5301 Clouds 17 1012 93 8000 2.1 330 08:53 05.04.2020
5302 Clouds 17 1012 93 8000 2.1 330 08:53 05.04.2020
5303 Clouds 16 1012 100 6000 2.6 340 07:24 05.04.2020
5304 Clouds 16 1012 100 6000 2.6 340 07:24 05.04.2020
5305 Fog 15 1012 100 500 1.5 0 04:33 05.04.2020
5306 Fog 16 1012 100 300 2.6 340 03:30 05.04.2020
5307 Fog 16 1012 100 300 3.1 330 02:49 05.04.2020
5308 Fog 16 1012 100 300 1.5 350 01:46 05.04.2020
5309 Fog 16 1012 100 300 1.5 350 01:25 05.04.2020
5310 Fog 15 1012 100 300 2.1 340 00:43 05.04.2020
5311 Fog 15 1012 100 300 2.1 340 00:21 05.04.2020
5312 Fog 15 1012 100 300 2.1 280 23:42 04.04.2020
5313 Fog 15 1012 100 300 2.1 280 23:23 04.04.2020
5314 Fog 15 1012 100 300 2.1 310 22:57 04.04.2020
5315 Fog 15 1012 100 300 2.1 310 22:39 04.04.2020
5316 Fog 15 1012 100 300 2.1 310 22:21 04.04.2020
5317 Clouds 16 1012 87 10000 2.1 320 21:58 04.04.2020
5318 Clouds 16 1012 87 10000 2.1 320 21:39 04.04.2020
5319 Clouds 16 1012 87 10000 2.1 320 21:19 04.04.2020
5320 Clouds 17 1012 87 10000 2.1 330 20:58 04.04.2020
5321 Clouds 16 1012 87 10000 2.1 330 20:39 04.04.2020
5322 Clouds 17 1012 87 10000 2.1 330 20:20 04.04.2020
5323 Clouds 18 1012 82 10000 3.1 300 19:56 04.04.2020
5324 Clouds 18 1012 82 10000 3.1 300 19:36 04.04.2020
5325 Clouds 19 1012 82 10000 3.1 300 19:18 04.04.2020
5326 Clouds 20 1012 72 10000 2.1 320 18:55 04.04.2020
5327 Clouds 20 1012 72 10000 2.1 320 18:37 04.04.2020
5328 Clouds 21 1012 72 10000 2.1 320 18:18 04.04.2020
5329 Clouds 22 1012 72 10000 3.1 330 17:40 04.04.2020
5330 Clouds 22 1012 72 10000 3.1 330 17:20 04.04.2020
5331 Clouds 21 1011 72 10000 7.7 320 16:55 04.04.2020
5332 Clouds 21 1011 72 10000 7.7 320 16:37 04.04.2020
5333 Clouds 21 1011 72 10000 7.7 320 16:37 04.04.2020
5334 Clouds 21 1011 72 10000 7.7 320 16:18 04.04.2020
5335 Clouds 23 1011 77 10000 8.7 330 15:40 04.04.2020
5336 Clouds 23 1011 77 10000 8.7 330 15:22 04.04.2020
5337 Clouds 24 1011 72 10000 8.2 330 14:57 04.04.2020
5338 Clouds 23 1011 72 10000 8.2 330 14:39 04.04.2020
5339 Clouds 23 1011 72 10000 8.2 330 14:21 04.04.2020
5340 Clouds 23 1012 72 10000 8.2 330 13:55 04.04.2020
5341 Clouds 24 1012 72 10000 8.2 330 13:37 04.04.2020
5342 Clouds 24 1012 72 10000 8.2 330 13:18 04.04.2020
5343 Clouds 24 1012 68 10000 6.7 330 12:44 04.04.2020
5344 Clouds 24 1012 68 10000 6.7 330 12:23 04.04.2020
5345 Clouds 23 1012 64 10000 7.7 320 11:55 04.04.2020
5346 Clouds 23 1012 64 10000 7.7 320 11:37 04.04.2020
5347 Clouds 23 1012 64 10000 7.7 320 11:18 04.04.2020
5348 Clouds 23 1012 68 10000 6.2 320 10:55 04.04.2020
5349 Clouds 22 1012 68 10000 6.2 320 10:37 04.04.2020
5350 Clouds 22 1012 68 10000 6.2 320 10:18 04.04.2020
5351 Clouds 20 1012 77 10000 5.7 330 09:54 04.04.2020
5352 Clouds 19 1012 77 10000 5.7 330 09:36 04.04.2020
5353 Clear 18 1012 77 10000 5.7 330 09:18 04.04.2020
5354 Clear 17 1011 93 10000 4.1 350 08:38 04.04.2020
5355 Clear 17 1011 93 10000 4.1 350 08:19 04.04.2020
5356 Clear 16 1010 100 10000 3.1 360 07:40 04.04.2020
5357 Clear 16 1010 100 10000 3.1 360 07:22 04.04.2020
5358 Clouds 16 1010 93 10000 2.1 340 06:46 04.04.2020
5359 Clouds 16 1010 93 10000 2.1 340 06:18 04.04.2020
5360 Fog 15 1010 93 200 1.5 310 05:40 04.04.2020
5361 Fog 15 1010 93 200 1.5 310 05:22 04.04.2020
5362 Fog 14 1010 100 400 1 90 04:25 04.04.2020
5363 Fog 15 1010 100 400 1 140 03:47 04.04.2020
5364 Fog 14 1011 100 400 2.1 180 02:49 04.04.2020
5365 Fog 15 1011 100 400 2.1 180 02:30 04.04.2020
5366 Fog 15 1011 93 400 3.6 200 01:53 04.04.2020
5367 Fog 16 1011 93 400 3.6 200 01:24 04.04.2020
5368 Fog 16 1011 93 400 3.6 190 00:48 04.04.2020
5369 Fog 16 1011 93 400 3.6 190 00:28 04.04.2020
5370 Fog 17 1012 93 400 3.1 200 23:39 03.04.2020
5371 Fog 18 1012 93 400 3.1 200 23:21 03.04.2020
5372 Fog 18 1012 93 400 3.6 190 22:57 03.04.2020
5373 Fog 18 1012 93 400 3.6 190 22:39 03.04.2020
5374 Clouds 18 1012 93 10000 4.1 200 22:18 03.04.2020
5375 Clear 19 1012 88 10000 3.6 200 21:43 03.04.2020
5376 Clouds 19 1012 88 10000 3.6 200 21:24 03.04.2020
5377 Clouds 19 1012 88 10000 3.6 200 20:57 03.04.2020
5378 Clouds 19 1012 88 10000 3.6 200 20:57 03.04.2020
5379 Clouds 20 1012 88 10000 3.6 200 20:37 03.04.2020
5380 Clouds 20 1012 88 10000 3.6 200 20:19 03.04.2020
5381 Clouds 20 1011 77 10000 3.6 200 19:57 03.04.2020
5382 Clouds 21 1011 77 10000 3.6 200 19:38 03.04.2020
5383 Clouds 21 1011 77 10000 3.6 200 19:38 03.04.2020
5384 Clouds 21 1011 77 10000 3.6 200 19:20 03.04.2020
5385 Clouds 22 1011 60 10000 4.1 200 18:58 03.04.2020
5386 Clouds 22 1011 60 10000 4.1 200 18:40 03.04.2020
5387 Clouds 22 1011 60 10000 4.1 200 18:22 03.04.2020
5388 Clouds 26 1011 44 10000 4.1 200 17:54 03.04.2020
5389 Clouds 26 1011 44 10000 4.1 200 17:36 03.04.2020
5390 Clouds 26 1011 44 10000 4.1 200 17:18 03.04.2020
5391 Clouds 27 1011 42 10000 4.1 170 16:42 03.04.2020
5392 Clouds 28 1011 42 10000 4.1 170 16:21 03.04.2020
5393 Clouds 28 1011 42 10000 4.1 180 15:58 03.04.2020
5394 Clouds 28 1011 42 10000 4.1 180 15:39 03.04.2020
5395 Clouds 28 1011 42 10000 4.1 180 15:20 03.04.2020
5396 Clear 29 1012 42 10000 5.1 200 14:55 03.04.2020
5397 Clear 29 1012 42 10000 5.1 200 14:55 03.04.2020
5398 Clear 30 1018 41 0 1.34 219 14:37 03.04.2020
5399 Clear 29 1012 37 10000 3.6 190 14:19 03.04.2020
5400 Clear 29 1012 37 10000 3.6 190 13:42 03.04.2020
5401 Clear 29 1012 37 10000 3.6 190 13:24 03.04.2020
5402 Clear 30 1013 37 10000 3.1 200 12:44 03.04.2020
5403 Clear 29 1013 37 10000 3.1 200 12:21 03.04.2020
5404 Clear 29 1013 37 10000 2.6 200 11:57 03.04.2020
5405 Clear 28 1013 37 10000 2.6 200 11:39 03.04.2020
5406 Clear 27 1013 42 10000 2.6 210 11:21 03.04.2020
5407 Clear 27 1013 42 10000 2.6 210 11:21 03.04.2020
5408 Clear 26 1013 50 10000 2.1 210 10:59 03.04.2020
5409 Clear 26 1013 50 10000 2.1 210 10:39 03.04.2020
5410 Clear 24 1013 56 10000 2.1 200 10:20 03.04.2020
5411 Clear 24 1013 68 10000 1.5 0 09:59 03.04.2020
5412 Clear 25 1013 68 10000 1.5 0 09:40 03.04.2020
5413 Clear 23 1013 68 10000 1.5 0 09:40 03.04.2020
5414 Clear 20 1013 77 10000 1 0 09:22 03.04.2020
5415 Clear 18 1013 93 10000 0.5 0 08:56 03.04.2020
5416 Clear 19 1013 93 10000 0.5 0 08:38 03.04.2020
5417 Clear 18 1013 93 10000 0.5 0 08:20 03.04.2020
5418 Clear 16 1012 87 10000 2.1 180 07:46 03.04.2020
5419 Clear 16 1012 87 10000 2.1 180 07:28 03.04.2020
5420 Clear 16 1013 87 10000 0.5 0 06:41 03.04.2020
5421 Clear 16 1013 87 10000 0.5 0 06:22 03.04.2020
5422 Clear 17 1012 82 10000 0.5 0 05:39 03.04.2020
5423 Clear 18 1013 77 10000 1 0 03:42 03.04.2020
5424 Clear 16 1013 82 10000 1 340 02:56 03.04.2020
5425 Clear 17 1013 82 10000 1 340 02:18 03.04.2020
5426 Clear 17 1014 77 10000 1 0 01:22 03.04.2020
5427 Clear 18 1014 72 10000 0.5 0 00:36 03.04.2020
5428 Clear 18 1014 72 10000 0.5 0 00:18 03.04.2020
5429 Clear 19 1014 72 10000 3.6 200 23:40 02.04.2020
5430 Clear 19 1014 72 10000 3.6 200 23:21 02.04.2020
5431 Clear 19 1015 72 10000 4.1 210 22:57 02.04.2020
5432 Clear 19 1015 72 10000 4.1 210 22:37 02.04.2020
5433 Clear 19 1015 72 10000 4.1 210 22:18 02.04.2020
5434 Clear 19 1015 72 10000 2.6 200 21:39 02.04.2020
5435 Clear 19 1015 72 10000 2.6 200 21:20 02.04.2020
5436 Clear 19 1015 77 10000 4.6 220 20:58 02.04.2020
5437 Clear 19 1015 77 10000 4.6 220 20:40 02.04.2020
5438 Clear 19 1015 77 10000 4.6 220 20:21 02.04.2020
5439 Clear 20 1015 72 10000 5.7 210 19:44 02.04.2020
5440 Clear 22 1015 72 10000 5.7 210 19:21 02.04.2020
5441 Clear 22 1015 64 10000 5.7 210 18:58 02.04.2020
5442 Clear 22 1015 64 10000 5.7 210 18:39 02.04.2020
5443 Clear 22 1015 64 10000 5.7 210 18:39 02.04.2020
5444 Clear 22 1015 64 10000 5.7 210 18:39 02.04.2020
5445 Clear 24 1015 64 10000 5.7 210 18:20 02.04.2020
5446 Clear 24 1015 53 10000 5.7 210 17:56 02.04.2020
5447 Clear 24 1015 53 10000 5.7 210 17:38 02.04.2020
5448 Clear 26 1015 53 10000 5.7 210 17:19 02.04.2020
5449 Clear 27 1015 41 10000 6.2 200 16:55 02.04.2020
5450 Clear 27 1015 41 10000 6.2 200 16:37 02.04.2020
5451 Clear 27 1015 41 10000 6.2 200 16:19 02.04.2020
5452 Clear 27 1015 36 10000 5.1 200 15:44 02.04.2020
5453 Clear 28 1015 36 10000 5.1 200 15:21 02.04.2020
5454 Clear 28 1016 34 10000 4.6 200 14:59 02.04.2020
5455 Clear 28 1016 34 10000 4.6 200 14:40 02.04.2020
5456 Clear 29 1016 34 10000 4.6 200 14:20 02.04.2020
5457 Clear 28 1017 36 10000 3.6 200 13:57 02.04.2020
5458 Clear 28 1017 36 10000 3.6 200 13:38 02.04.2020
5459 Clear 28 1017 36 10000 3.6 200 13:38 02.04.2020
5460 Clear 28 1017 36 10000 3.6 200 13:20 02.04.2020
5461 Clear 28 1017 39 10000 4.1 190 12:56 02.04.2020
5462 Clear 28 1017 39 10000 4.1 190 12:37 02.04.2020
5463 Clear 28 1017 39 10000 4.1 190 12:19 02.04.2020
5464 Clear 27 1018 41 10000 3.1 200 11:56 02.04.2020
5465 Clear 27 1018 41 10000 3.1 200 11:37 02.04.2020
5466 Clear 27 1018 41 10000 3.1 200 11:37 02.04.2020
5467 Clear 25 1018 49 10000 2.1 200 11:18 02.04.2020
5468 Clear 24 1018 52 10000 2.6 210 10:54 02.04.2020
5469 Clear 23 1018 52 10000 2.6 210 10:36 02.04.2020
5470 Clear 23 1018 52 10000 2.6 210 10:18 02.04.2020
5471 Clear 21 1019 63 10000 3.1 220 09:43 02.04.2020
5472 Clear 21 1019 63 10000 3.1 220 09:24 02.04.2020
5473 Clear 18 1018 72 10000 2.1 240 08:58 02.04.2020
5474 Clear 18 1018 72 10000 2.1 240 08:40 02.04.2020
5475 Clear 18 1018 72 10000 2.1 240 08:20 02.04.2020
5476 Clear 17 1018 72 10000 2.6 230 07:43 02.04.2020
5477 Clear 16 1018 72 10000 2.6 230 07:20 02.04.2020
5478 Clear 16 1018 72 10000 1.5 0 06:57 02.04.2020
5479 Clear 17 1018 72 10000 1.5 0 06:21 02.04.2020
5480 Clear 17 1018 72 10000 2.6 220 05:42 02.04.2020
5481 Clear 17 1018 72 10000 3.6 240 03:57 02.04.2020
5482 Clear 18 1026 70 0 2.24 275 01:34 02.04.2020
5483 Clear 18 1019 55 10000 4.1 210 00:46 02.04.2020
5484 Clear 18 1020 55 10000 3.1 200 00:26 02.04.2020
5485 Clear 19 1020 55 10000 3.1 200 23:41 01.04.2020
5486 Clear 18 1020 55 10000 3.1 200 23:20 01.04.2020
5487 Clear 19 1020 56 10000 2.6 200 22:59 01.04.2020
5488 Clear 19 1020 56 10000 2.6 200 22:39 01.04.2020
5489 Clear 19 1020 56 10000 2.6 200 22:21 01.04.2020
5490 Clear 20 1020 56 10000 4.6 130 21:55 01.04.2020
5491 Clear 20 1020 56 10000 4.6 130 21:36 01.04.2020
5492 Clear 20 1020 56 10000 4.6 130 21:18 01.04.2020
5493 Clear 20 1020 52 10000 5.1 140 20:54 01.04.2020
5494 Clear 20 1020 52 10000 5.1 140 20:36 01.04.2020
5495 Clear 21 1020 52 10000 5.1 140 20:18 01.04.2020
5496 Clear 21 1020 56 10000 3.1 190 19:41 01.04.2020
5497 Clear 21 1020 56 10000 3.1 190 19:21 01.04.2020
5498 Clear 23 1019 39 10000 5.7 150 18:46 01.04.2020
5499 Clear 24 1019 39 10000 5.7 150 18:27 01.04.2020
5500 Clear 26 1020 34 10000 7.7 160 17:59 01.04.2020
5501 Clear 26 1020 34 10000 7.7 160 17:59 01.04.2020
5502 Clear 27 1020 34 10000 7.7 160 17:39 01.04.2020
5503 Clear 26 1020 34 10000 7.7 160 17:20 01.04.2020
5504 Clear 26 1020 34 10000 7.7 160 16:59 01.04.2020
5505 Clear 27 1020 34 10000 7.7 160 16:41 01.04.2020
5506 Clear 27 1020 34 10000 7.7 160 16:22 01.04.2020
5507 Clear 27 1020 34 10000 5.1 130 15:58 01.04.2020
5508 Clear 28 1020 34 10000 5.1 130 15:38 01.04.2020
5509 Clear 28 1020 34 10000 5.1 130 15:38 01.04.2020
5510 Clear 28 1020 34 10000 5.1 130 15:20 01.04.2020
5511 Clear 27 1021 36 10000 6.7 150 14:57 01.04.2020
5512 Clear 27 1021 36 10000 6.7 150 14:38 01.04.2020
5513 Clear 27 1021 36 10000 6.7 150 14:19 01.04.2020
5514 Clouds 26 1022 39 10000 5.7 140 13:57 01.04.2020
5515 Clouds 26 1022 39 10000 5.7 140 13:37 01.04.2020
5516 Clouds 26 1022 39 10000 5.7 140 13:18 01.04.2020
5517 Clouds 26 1022 39 10000 4.1 130 12:54 01.04.2020
5518 Clouds 26 1022 39 10000 4.1 130 12:36 01.04.2020
5519 Clouds 26 1022 39 10000 4.1 130 12:18 01.04.2020
5520 Clouds 25 1023 44 10000 4.6 130 11:40 01.04.2020
5521 Clouds 24 1023 44 10000 4.6 130 11:21 01.04.2020
5522 Clouds 24 1023 49 10000 5.7 130 10:57 01.04.2020
5523 Clouds 23 1023 49 10000 5.7 130 10:37 01.04.2020
5524 Clouds 23 1023 49 10000 5.7 130 10:18 01.04.2020
5525 Clouds 21 1023 60 10000 5.7 140 09:54 01.04.2020
5526 Clouds 21 1023 68 10000 7.7 150 09:36 01.04.2020
5527 Clouds 19 1023 68 10000 7.7 150 09:18 01.04.2020
5528 Clouds 18 1023 72 10000 6.7 150 08:40 01.04.2020
5529 Clouds 18 1023 72 10000 6.7 150 08:18 01.04.2020
5530 Clouds 17 1022 72 10000 8.7 150 07:42 01.04.2020
5531 Clouds 17 1022 72 10000 8.7 150 07:20 01.04.2020
5532 Clouds 17 1022 72 10000 8.7 150 06:47 01.04.2020
5533 Clouds 17 1022 72 10000 8.7 150 06:23 01.04.2020
5534 Clouds 17 1022 67 10000 8.7 150 05:55 01.04.2020
5535 Clouds 17 1022 63 10000 10.3 160 04:30 01.04.2020
5536 Clouds 16 1022 72 10000 7.2 160 03:28 01.04.2020
5537 Clouds 16 1022 72 10000 6.2 170 02:49 01.04.2020
5538 Clouds 16 1022 72 10000 8.2 160 01:56 01.04.2020
5539 Clouds 16 1022 72 10000 8.2 160 01:37 01.04.2020
5540 Clouds 17 1022 72 10000 8.2 160 01:18 01.04.2020
5541 Clouds 17 1022 67 10000 8.2 160 00:43 01.04.2020
5542 Clouds 17 1022 67 10000 8.2 160 00:18 01.04.2020
5543 Clouds 17 1022 77 10000 7.7 150 23:42 31.03.2020
5544 Clouds 17 1022 77 10000 7.7 150 23:23 31.03.2020
5545 Clouds 17 1021 77 10000 9.3 160 22:58 31.03.2020
5546 Clouds 17 1021 77 10000 9.3 160 22:37 31.03.2020
5547 Clouds 17 1021 77 10000 9.3 160 22:19 31.03.2020
5548 Clouds 17 1021 72 10000 6.2 150 21:56 31.03.2020
5549 Clouds 17 1021 72 10000 6.2 150 21:37 31.03.2020
5550 Clouds 17 1021 72 10000 6.2 150 21:19 31.03.2020
5551 Clouds 17 1020 72 10000 7.2 160 20:55 31.03.2020
5552 Clouds 17 1020 72 10000 7.2 160 20:36 31.03.2020
5553 Clouds 17 1020 72 10000 7.2 160 20:18 31.03.2020
5554 Clouds 17 1020 72 10000 7.2 160 20:18 31.03.2020
5555 Clouds 17 1019 77 10000 9.3 170 19:41 31.03.2020
5556 Clouds 17 1019 77 10000 9.3 170 19:22 31.03.2020
5557 Clouds 18 1019 72 10000 10.8 170 18:58 31.03.2020
5558 Clouds 18 1019 72 10000 10.8 170 18:39 31.03.2020
5559 Clouds 18 1019 72 10000 10.8 170 18:18 31.03.2020
5560 Clouds 20 1018 64 10000 10.8 170 17:55 31.03.2020
5561 Clouds 20 1018 64 10000 10.8 170 17:37 31.03.2020
5562 Clouds 21 1018 64 10000 10.8 170 17:18 31.03.2020
5563 Clouds 21 1018 56 10000 10.3 170 16:40 31.03.2020
5564 Clouds 21 1018 56 10000 10.3 170 16:19 31.03.2020
5565 Clouds 22 1017 53 10000 10.3 190 15:57 31.03.2020
5566 Clouds 22 1017 53 10000 10.3 190 15:39 31.03.2020
5567 Clouds 22 1017 53 10000 10.3 190 15:20 31.03.2020
5568 Clouds 22 1017 49 10000 8.2 180 14:57 31.03.2020
5569 Clouds 22 1017 49 10000 8.2 180 14:38 31.03.2020
5570 Clouds 22 1017 49 10000 8.2 180 14:20 31.03.2020
5571 Clouds 21 1017 52 10000 8.7 180 13:43 31.03.2020
5572 Clouds 21 1017 52 10000 8.7 180 13:20 31.03.2020
5573 Clouds 21 1017 52 10000 8.7 180 13:20 31.03.2020
5574 Clouds 22 1017 46 10000 7.2 170 12:57 31.03.2020
5575 Clouds 22 1017 46 10000 7.2 170 12:39 31.03.2020
5576 Clouds 22 1017 46 10000 7.2 170 12:19 31.03.2020
5577 Clouds 21 1017 52 10000 7.2 190 11:39 31.03.2020
5578 Clouds 21 1017 52 10000 7.2 190 11:20 31.03.2020
5579 Clouds 20 1016 60 10000 5.7 180 10:58 31.03.2020
5580 Clouds 20 1016 60 10000 5.7 180 10:58 31.03.2020
5581 Clouds 20 1016 60 10000 5.7 180 10:40 31.03.2020
5582 Clouds 20 1016 60 10000 5.7 180 10:21 31.03.2020
5583 Clouds 19 1015 68 10000 4.1 180 09:57 31.03.2020
5584 Clouds 19 1015 68 10000 4.1 180 09:39 31.03.2020
5585 Clouds 18 1015 68 10000 4.1 180 09:21 31.03.2020
5586 Clouds 18 1015 68 10000 4.1 190 08:57 31.03.2020
5587 Clouds 17 1015 68 10000 4.1 190 08:38 31.03.2020
5588 Clouds 16 1014 77 10000 3.6 200 08:19 31.03.2020
5589 Clouds 16 1014 82 10000 4.1 200 07:56 31.03.2020
5590 Clouds 16 1014 82 10000 4.1 200 07:37 31.03.2020
5591 Clouds 16 1014 82 10000 4.1 200 07:18 31.03.2020
5592 Clouds 16 1013 82 10000 3.6 220 06:43 31.03.2020
5593 Clouds 16 1013 82 10000 3.6 220 06:18 31.03.2020
5594 Clouds 16 1012 82 10000 4.1 230 05:39 31.03.2020
5595 Clouds 16 1011 77 10000 3.6 200 03:34 31.03.2020
5596 Clouds 16 1011 77 10000 5.7 210 01:54 31.03.2020
5597 Clouds 16 1011 77 10000 5.7 210 01:34 31.03.2020
5598 Clouds 16 1011 77 10000 7.2 190 00:47 31.03.2020
5599 Clouds 16 1011 77 10000 7.2 190 00:25 31.03.2020
5600 Clouds 16 1011 82 10000 7.7 200 23:42 30.03.2020
5601 Clouds 16 1011 82 10000 7.7 200 23:20 30.03.2020
5602 Clouds 16 1011 82 10000 7.2 200 22:59 30.03.2020
5603 Clouds 17 1011 82 10000 7.2 200 22:41 30.03.2020
5604 Clouds 17 1011 82 10000 7.2 200 22:22 30.03.2020
5605 Clouds 17 1011 82 10000 8.7 200 21:58 30.03.2020
5606 Clouds 17 1011 82 10000 8.7 200 21:39 30.03.2020
5607 Clouds 17 1011 82 10000 8.7 200 21:39 30.03.2020
5608 Clouds 17 1011 82 10000 8.7 200 21:21 30.03.2020
5609 Clouds 17 1011 77 10000 9.8 200 20:59 30.03.2020
5610 Clouds 17 1011 77 10000 9.8 200 20:39 30.03.2020
5611 Clouds 17 1011 77 10000 9.8 200 20:21 30.03.2020
5612 Clouds 18 1011 72 10000 10.8 200 19:58 30.03.2020
5613 Clouds 18 1011 72 10000 10.8 200 19:39 30.03.2020
5614 Clouds 18 1011 72 10000 10.8 200 19:21 30.03.2020
5615 Clouds 18 1010 68 10000 9.3 190 18:56 30.03.2020
5616 Clouds 19 1010 68 10000 9.3 190 18:36 30.03.2020
5617 Clouds 19 1010 68 10000 9.3 190 18:18 30.03.2020
5618 Clear 20 1010 60 10000 11.3 190 17:55 30.03.2020
5619 Clear 21 1010 60 10000 11.3 190 17:36 30.03.2020
5620 Clear 20 1010 60 10000 11.3 190 17:18 30.03.2020
5621 Clear 22 1010 60 10000 9.8 180 16:41 30.03.2020
5622 Clear 21 1010 60 10000 9.8 180 16:21 30.03.2020
5623 Clear 22 1011 56 10000 8.7 190 15:57 30.03.2020
5624 Clear 22 1011 56 10000 8.7 190 15:39 30.03.2020
5625 Clear 22 1011 56 10000 8.7 190 15:21 30.03.2020
5626 Clear 22 1011 56 10000 7.7 180 14:58 30.03.2020
5627 Clear 22 1011 56 10000 7.7 180 14:38 30.03.2020
5628 Clouds 22 1011 56 10000 7.7 180 14:19 30.03.2020
5629 Clouds 22 1012 52 10000 6.7 190 13:58 30.03.2020
5630 Clouds 22 1012 52 10000 6.7 190 13:39 30.03.2020
5631 Clouds 22 1012 52 10000 6.7 190 13:20 30.03.2020
5632 Clouds 21 1012 56 10000 6.7 200 12:45 30.03.2020
5633 Clouds 21 1012 56 10000 6.7 200 12:22 30.03.2020
5634 Clouds 21 1013 59 10000 5.1 200 11:59 30.03.2020
5635 Clouds 20 1013 59 10000 5.1 200 11:41 30.03.2020
5636 Clouds 20 1013 59 10000 5.1 200 11:22 30.03.2020
5637 Clouds 19 1013 68 10000 4.1 220 10:57 30.03.2020
5638 Clouds 18 1013 68 10000 4.1 220 10:37 30.03.2020
5639 Clouds 18 1013 68 10000 4.1 220 10:19 30.03.2020
5640 Clouds 17 1013 82 10000 2.1 220 09:40 30.03.2020
5641 Clouds 17 1013 82 10000 2.1 220 09:40 30.03.2020
5642 Clear 16 1013 82 10000 2.1 220 09:20 30.03.2020
5643 Clear 16 1013 82 10000 2.1 220 09:20 30.03.2020
5644 Clear 15 1013 87 10000 2.6 200 08:57 30.03.2020
5645 Clear 15 1013 87 10000 2.6 200 08:38 30.03.2020
5646 Mist 13 1012 87 4000 2.1 190 08:19 30.03.2020
5647 Mist 13 1012 93 4000 3.6 220 07:43 30.03.2020
5648 Clear 13 1012 93 10000 3.1 230 07:23 30.03.2020
5649 Clear 13 1013 93 10000 2.6 240 06:47 30.03.2020
5650 Clear 13 1013 93 10000 2.6 240 06:25 30.03.2020
5651 Clear 14 1013 87 10000 3.6 240 05:44 30.03.2020
5652 Clear 14 1013 87 10000 4.1 240 04:31 30.03.2020
5653 Clear 14 1014 87 10000 4.1 240 03:57 30.03.2020
5654 Clear 15 1015 87 10000 4.1 240 02:45 30.03.2020
5655 Clear 15 1015 82 10000 4.1 230 01:58 30.03.2020
5656 Clear 15 1015 82 10000 4.1 230 01:18 30.03.2020
5657 Clear 16 1016 72 10000 4.1 200 00:29 30.03.2020
5658 Clear 16 1016 72 10000 5.7 190 23:56 29.03.2020
5659 Clear 16 1016 72 10000 5.7 190 23:37 29.03.2020
5660 Clear 16 1016 72 10000 5.7 190 23:37 29.03.2020
5661 Clear 16 1016 72 10000 5.7 190 23:19 29.03.2020
5662 Clear 16 1017 72 10000 5.7 210 22:55 29.03.2020
5663 Clear 16 1017 72 10000 5.7 210 22:37 29.03.2020
5664 Clear 16 1017 72 10000 5.7 210 22:18 29.03.2020
5665 Clear 17 1017 67 10000 6.7 200 21:38 29.03.2020
5666 Clear 17 1017 67 10000 6.7 200 21:20 29.03.2020
5667 Clear 17 1017 67 10000 8.2 200 20:56 29.03.2020
5668 Clear 17 1017 67 10000 8.2 200 20:37 29.03.2020
5669 Clear 17 1017 67 10000 8.2 200 20:37 29.03.2020
5670 Clear 17 1017 67 10000 8.2 200 20:37 29.03.2020
5671 Clear 17 1017 67 10000 8.2 200 20:19 29.03.2020
5672 Clear 17 1017 67 10000 9.3 190 19:57 29.03.2020
5673 Clear 17 1017 67 10000 9.3 190 19:39 29.03.2020
5674 Clear 18 1017 67 10000 9.3 190 19:21 29.03.2020
5675 Clear 19 1017 59 10000 10.3 190 18:57 29.03.2020
5676 Clear 19 1017 59 10000 10.3 190 18:38 29.03.2020
5677 Clear 19 1017 59 10000 10.3 190 18:19 29.03.2020
5678 Clear 20 1017 52 10000 10.3 190 17:56 29.03.2020
5679 Clear 20 1017 52 10000 10.3 190 17:37 29.03.2020
5680 Clear 20 1017 52 10000 10.3 190 17:18 29.03.2020
5681 Clear 21 1018 49 10000 11.3 190 16:56 29.03.2020
5682 Clear 21 1018 49 10000 11.3 190 16:38 29.03.2020
5683 Clear 21 1018 49 10000 11.3 190 16:18 29.03.2020
5684 Clouds 22 1018 52 10000 11.8 190 15:41 29.03.2020
5685 Clouds 22 1018 52 10000 11.8 190 15:41 29.03.2020
5686 Clouds 22 1018 52 10000 11.8 190 15:23 29.03.2020
5687 Clouds 22 1018 56 10000 10.8 180 14:58 29.03.2020
5688 Clouds 22 1018 56 10000 10.8 180 14:40 29.03.2020
5689 Clouds 22 1018 56 10000 10.8 180 14:20 29.03.2020
5690 Clouds 22 1018 60 10000 10.8 190 13:58 29.03.2020
5691 Clouds 22 1018 60 10000 10.8 190 13:40 29.03.2020
5692 Clouds 22 1018 60 10000 10.8 190 13:20 29.03.2020
5693 Clouds 22 1019 56 10000 9.8 190 12:56 29.03.2020
5694 Clouds 22 1019 56 10000 9.8 190 12:37 29.03.2020
5695 Clouds 22 1019 56 10000 9.8 190 12:37 29.03.2020
5696 Clouds 22 1019 56 10000 9.8 190 12:19 29.03.2020
5697 Clear 22 1019 56 10000 7.7 180 11:55 29.03.2020
5698 Clear 22 1019 56 10000 7.7 180 11:37 29.03.2020
5699 Clear 21 1019 56 10000 7.7 180 11:18 29.03.2020
5700 Clear 21 1019 60 10000 6.2 200 10:38 29.03.2020
5701 Clear 21 1019 60 10000 6.2 200 10:19 29.03.2020
5702 Clear 20 1019 68 10000 4.6 190 09:41 29.03.2020
5703 Clear 20 1019 68 10000 4.6 190 09:22 29.03.2020
5704 Clouds 18 1018 82 10000 3.6 200 08:56 29.03.2020
5705 Clouds 17 1018 82 10000 3.6 200 08:38 29.03.2020
5706 Clouds 17 1018 82 10000 3.6 200 08:19 29.03.2020
5707 Clouds 16 1018 87 10000 3.1 190 07:42 29.03.2020
5708 Clouds 16 1018 87 10000 3.1 190 07:21 29.03.2020
5709 Clouds 15 1018 87 10000 3.1 200 05:58 29.03.2020
5710 Clouds 16 1018 87 10000 3.1 180 04:55 29.03.2020
5711 Clouds 16 1018 87 10000 4.1 210 03:33 29.03.2020
5712 Clouds 16 1018 82 10000 2.1 190 01:52 29.03.2020
5713 Clouds 16 1018 82 10000 2.1 190 01:24 29.03.2020
5714 Clouds 17 1018 82 10000 5.1 190 00:58 29.03.2020
5715 Clouds 17 1018 82 10000 5.1 190 00:34 29.03.2020
5716 Clouds 17 1018 88 10000 5.1 180 23:59 28.03.2020
5717 Clouds 17 1018 88 10000 5.1 180 23:40 28.03.2020
5718 Clouds 17 1018 88 10000 5.1 180 23:22 28.03.2020
5719 Clouds 18 1018 93 10000 4.6 200 22:42 28.03.2020
5720 Clouds 18 1018 82 10000 3.1 200 22:22 28.03.2020
5721 Clouds 18 1018 82 10000 3.1 200 21:57 28.03.2020
5722 Clouds 18 1018 82 10000 3.1 200 21:39 28.03.2020
5723 Clouds 18 1018 82 10000 3.1 200 21:19 28.03.2020
5724 Clouds 18 1018 82 10000 2.6 150 20:56 28.03.2020
5725 Clouds 17 1018 82 10000 2.6 150 20:37 28.03.2020
5726 Clouds 18 1018 82 10000 2.6 150 20:18 28.03.2020
5727 Clouds 18 1017 77 10000 2.6 130 19:55 28.03.2020
5728 Clouds 18 1017 77 10000 2.6 130 19:36 28.03.2020
5729 Clouds 18 1017 77 10000 2.6 130 19:18 28.03.2020
5730 Clear 19 1017 68 10000 3.6 150 18:39 28.03.2020
5731 Clear 19 1017 68 10000 3.6 150 18:20 28.03.2020
5732 Clear 20 1017 56 10000 4.1 180 17:41 28.03.2020
5733 Clear 21 1017 56 10000 4.1 180 17:22 28.03.2020
5734 Clouds 22 1016 53 10000 5.7 180 16:59 28.03.2020
5735 Clouds 22 1016 53 10000 5.7 180 16:38 28.03.2020
5736 Clouds 22 1016 53 10000 5.7 180 16:18 28.03.2020
5737 Clouds 22 1016 53 10000 5.7 160 15:40 28.03.2020
5738 Clouds 22 1016 53 10000 5.7 160 15:40 28.03.2020
5739 Clouds 23 1016 53 10000 5.7 160 15:20 28.03.2020
5740 Clear 22 1016 53 10000 3.6 170 14:59 28.03.2020
5741 Clear 22 1016 53 10000 3.6 170 14:40 28.03.2020
5742 Clouds 22 1016 53 10000 3.6 170 14:21 28.03.2020
5743 Clouds 22 1016 49 10000 3.6 170 13:43 28.03.2020
5744 Clouds 22 1016 49 10000 3.6 170 13:23 28.03.2020
5745 Clouds 22 1016 49 10000 4.6 170 12:41 28.03.2020
5746 Clouds 22 1016 49 10000 4.6 170 12:22 28.03.2020
5747 Clouds 22 1017 46 10000 5.1 180 11:55 28.03.2020
5748 Clouds 22 1017 46 10000 5.1 180 11:37 28.03.2020
5749 Clouds 22 1017 46 10000 5.1 180 11:18 28.03.2020
5750 Clouds 21 1017 64 10000 4.6 170 10:39 28.03.2020
5751 Clouds 21 1017 64 10000 4.6 170 10:20 28.03.2020
5752 Clouds 20 1016 72 10000 6.2 190 09:43 28.03.2020
5753 Clouds 20 1016 72 10000 6.2 190 09:24 28.03.2020
5754 Clouds 20 1016 72 10000 4.6 190 08:58 28.03.2020
5755 Clouds 19 1016 82 10000 2.1 180 08:40 28.03.2020
5756 Clouds 18 1016 82 10000 2.1 180 08:21 28.03.2020
5757 Clouds 17 1016 87 10000 1 0 07:44 28.03.2020
5758 Clouds 15 1015 93 10000 1 0 07:26 28.03.2020
5759 Clouds 13 1015 93 10000 2.1 110 06:36 28.03.2020
5760 Clouds 13 1014 93 10000 4.1 120 05:54 28.03.2020
5761 Clouds 13 1014 93 10000 4.1 120 05:21 28.03.2020
5762 Clouds 12 1014 87 10000 1.5 0 04:42 28.03.2020
5763 Clouds 12 1013 87 10000 2.6 340 03:54 28.03.2020
5764 Clouds 14 1013 87 10000 2.1 60 02:25 28.03.2020
5765 Clouds 14 1013 87 10000 2.1 60 01:43 28.03.2020
5766 Clouds 14 1013 87 10000 2.1 60 01:18 28.03.2020
5767 Clouds 13 1013 87 10000 0.5 0 00:45 28.03.2020
5768 Clouds 14 1014 82 0 2.68 200 23:59 27.03.2020
5769 Clouds 14 1014 82 0 2.68 200 23:41 27.03.2020
5770 Clouds 14 1014 82 0 2.68 200 23:41 27.03.2020
5771 Clouds 14 1014 82 10000 3.1 200 23:21 27.03.2020
5772 Clouds 14 1014 82 10000 3.1 200 22:56 27.03.2020
5773 Clouds 14 1014 82 10000 3.1 200 22:38 27.03.2020
5774 Clouds 14 1014 82 10000 3.1 200 22:20 27.03.2020
5775 Clouds 15 1015 82 10000 4.1 230 21:45 27.03.2020
5776 Clouds 15 1015 82 10000 4.1 230 21:25 27.03.2020
5777 Clouds 16 1015 77 10000 4.6 220 20:59 27.03.2020
5778 Clouds 16 1015 77 10000 4.6 220 20:41 27.03.2020
5779 Clouds 16 1015 77 10000 4.6 220 20:21 27.03.2020
5780 Clouds 16 1015 77 10000 4.6 210 19:58 27.03.2020
5781 Clouds 16 1015 77 10000 4.6 210 19:40 27.03.2020
5782 Clouds 17 1015 77 10000 4.6 210 19:21 27.03.2020
5783 Clouds 17 1016 72 10000 4.6 200 18:56 27.03.2020
5784 Clouds 17 1016 72 10000 4.6 200 18:38 27.03.2020
5785 Clouds 18 1016 72 10000 4.6 200 18:19 27.03.2020
5786 Clouds 19 1015 59 10000 6.2 210 17:40 27.03.2020
5787 Clouds 20 1015 59 10000 6.2 210 17:20 27.03.2020
5788 Clouds 21 1015 43 10000 5.7 200 16:54 27.03.2020
5789 Clouds 21 1015 43 10000 5.7 200 16:36 27.03.2020
5790 Clouds 22 1015 43 10000 5.7 200 16:18 27.03.2020
5791 Clouds 22 1015 38 10000 6.2 190 15:41 27.03.2020
5792 Clouds 23 1015 38 10000 6.2 190 15:22 27.03.2020
5793 Clouds 23 1016 35 10000 6.2 190 14:46 27.03.2020
5794 Clouds 23 1016 35 10000 6.2 190 14:25 27.03.2020
5795 Clouds 23 1016 35 10000 6.2 190 14:25 27.03.2020
5796 Clouds 24 1016 33 10000 4.6 210 13:56 27.03.2020
5797 Clouds 24 1016 33 10000 4.6 210 13:37 27.03.2020
5798 Clouds 24 1016 33 10000 4.6 210 13:19 27.03.2020
5799 Clouds 23 1016 35 10000 5.1 210 12:51 27.03.2020
5800 Clouds 23 1016 35 10000 5.1 210 12:21 27.03.2020
5801 Clouds 24 1017 33 10000 2.1 270 11:59 27.03.2020
5802 Clouds 23 1017 33 10000 2.1 270 11:41 27.03.2020
5803 Clouds 22 1017 33 10000 2.1 270 11:22 27.03.2020
5804 Clouds 23 1017 31 10000 2.1 220 10:54 27.03.2020
5805 Clouds 21 1018 37 10000 1.5 0 10:36 27.03.2020
5806 Clouds 21 1018 37 10000 1.5 0 10:18 27.03.2020
5807 Clouds 20 1018 48 10000 4.6 240 09:56 27.03.2020
5808 Clouds 20 1018 48 10000 4.6 240 09:37 27.03.2020
5809 Clouds 20 1018 48 10000 4.6 240 09:18 27.03.2020
5810 Clouds 18 1017 55 10000 3.6 270 08:54 27.03.2020
5811 Clouds 18 1017 55 10000 3.6 270 08:36 27.03.2020
5812 Clear 17 1017 55 10000 3.6 270 08:18 27.03.2020
5813 Clear 16 1017 62 10000 2.1 290 07:49 27.03.2020
5814 Clear 14 1017 76 10000 2.1 310 07:22 27.03.2020
5815 Clear 13 1017 76 10000 0.5 0 06:45 27.03.2020
5816 Clear 13 1017 66 10000 2.6 160 06:26 27.03.2020
5817 Clear 15 1017 62 10000 7.7 170 03:42 27.03.2020
5818 Clear 15 1018 62 10000 8.7 160 02:25 27.03.2020
5819 Clear 15 1019 62 10000 10.8 170 01:22 27.03.2020
5820 Clear 15 1019 62 10000 8.2 180 00:47 27.03.2020
5821 Clear 15 1019 62 10000 8.2 180 00:23 27.03.2020
5822 Clear 15 1020 62 10000 8.7 170 23:42 26.03.2020
5823 Clear 15 1020 62 10000 8.7 170 23:21 26.03.2020
5824 Clear 15 1020 67 10000 7.7 180 22:58 26.03.2020
5825 Clear 15 1020 67 10000 7.7 180 22:37 26.03.2020
5826 Clear 15 1020 67 10000 7.7 180 22:19 26.03.2020
5827 Clear 15 1021 67 10000 6.7 170 21:55 26.03.2020
5828 Clear 15 1021 67 10000 6.7 170 21:36 26.03.2020
5829 Clear 16 1021 67 10000 6.7 170 21:18 26.03.2020
5830 Clear 16 1021 67 10000 6.7 160 20:41 26.03.2020
5831 Clear 16 1021 67 10000 6.7 160 20:23 26.03.2020
5832 Clear 16 1021 67 10000 6.7 160 20:23 26.03.2020
5833 Clear 16 1020 62 10000 8.2 160 19:58 26.03.2020
5834 Clear 16 1020 62 10000 8.2 160 19:40 26.03.2020
5835 Clear 16 1020 62 10000 8.2 160 19:22 26.03.2020
5836 Clouds 16 1020 59 10000 8.7 170 18:59 26.03.2020
5837 Clouds 16 1020 59 10000 8.7 170 18:41 26.03.2020
5838 Clouds 16 1020 59 10000 8.7 170 18:23 26.03.2020
5839 Clouds 17 1020 55 10000 8.7 170 17:45 26.03.2020
5840 Clouds 18 1020 55 10000 8.7 170 17:20 26.03.2020
5841 Clouds 18 1020 55 10000 8.7 170 17:20 26.03.2020
5842 Clouds 18 1019 42 10000 8.7 180 16:59 26.03.2020
5843 Clouds 19 1019 42 10000 8.7 180 16:38 26.03.2020
5844 Clouds 19 1019 42 10000 8.7 180 16:20 26.03.2020
5845 Clouds 19 1020 39 10000 10.8 180 15:56 26.03.2020
5846 Clouds 19 1020 39 10000 10.8 180 15:38 26.03.2020
5847 Clouds 20 1020 39 10000 10.8 180 15:19 26.03.2020
5848 Clouds 20 1019 37 10000 9.3 180 14:43 26.03.2020
5849 Clouds 21 1019 37 10000 9.3 180 14:25 26.03.2020
5850 Clouds 21 1019 37 10000 9.3 180 14:25 26.03.2020
5851 Clouds 19 1020 39 10000 9.8 180 13:58 26.03.2020
5852 Clouds 20 1020 39 10000 9.8 180 13:40 26.03.2020
5853 Clouds 19 1020 39 10000 9.8 180 13:21 26.03.2020
5854 Clouds 19 1020 45 10000 9.3 170 12:39 26.03.2020
5855 Clouds 19 1020 45 10000 9.3 170 12:21 26.03.2020
5856 Clouds 19 1020 45 10000 8.2 160 11:56 26.03.2020
5857 Clouds 19 1020 45 10000 8.2 160 11:56 26.03.2020
5858 Clouds 19 1020 45 10000 8.2 160 11:37 26.03.2020
5859 Clouds 19 1020 45 10000 8.2 160 11:19 26.03.2020
5860 Clouds 18 1020 48 10000 8.2 150 10:42 26.03.2020
5861 Clouds 19 1020 48 10000 8.2 150 10:20 26.03.2020
5862 Clouds 19 1020 48 10000 8.2 150 10:20 26.03.2020
5863 Clouds 19 1020 48 10000 7.7 150 09:46 26.03.2020
5864 Clouds 19 1020 48 10000 7.7 150 09:24 26.03.2020
5865 Clouds 18 1020 51 10000 7.7 150 08:58 26.03.2020
5866 Clouds 17 1020 51 10000 7.7 150 08:40 26.03.2020
5867 Clouds 17 1020 51 10000 7.7 150 08:22 26.03.2020
5868 Clouds 16 1019 62 10000 5.7 150 07:56 26.03.2020
5869 Clouds 16 1019 62 10000 5.7 150 07:38 26.03.2020
5870 Clouds 16 1019 62 10000 5.7 150 07:19 26.03.2020
5871 Clouds 15 1019 67 10000 5.7 160 06:33 26.03.2020
5872 Clouds 15 1018 62 10000 7.2 150 05:48 26.03.2020
5873 Clouds 15 1018 62 10000 7.2 180 03:46 26.03.2020
5874 Clouds 15 1018 62 10000 7.2 180 03:18 26.03.2020
5875 Clouds 15 1018 58 10000 6.2 180 02:50 26.03.2020
5876 Clouds 15 1018 67 10000 7.2 190 01:19 26.03.2020
5877 Clouds 16 1018 62 10000 6.2 200 00:32 26.03.2020
5878 Clouds 16 1017 59 10000 6.2 180 23:44 25.03.2020
5879 Clouds 16 1017 59 10000 6.2 180 23:26 25.03.2020
5880 Clouds 16 1017 63 10000 7.2 190 22:55 25.03.2020
5881 Clouds 16 1017 63 10000 7.2 190 22:37 25.03.2020
5882 Clouds 16 1017 63 10000 7.2 190 22:18 25.03.2020
5883 Clouds 17 1016 67 10000 9.8 190 21:43 25.03.2020
5884 Clouds 17 1016 67 10000 9.8 190 21:24 25.03.2020
5885 Clouds 17 1015 82 10000 6.7 180 20:59 25.03.2020
5886 Clouds 17 1015 82 10000 6.7 180 20:39 25.03.2020
5887 Clouds 17 1015 82 10000 6.7 180 20:19 25.03.2020
5888 Clouds 17 1015 93 10000 5.7 190 19:55 25.03.2020
5889 Clouds 17 1015 93 10000 5.7 190 19:37 25.03.2020
5890 Clouds 18 1015 93 10000 5.7 190 19:18 25.03.2020
5891 Clouds 18 1014 93 10000 6.2 210 18:43 25.03.2020
5892 Rain 18 1013 100 2500 3.1 260 18:25 25.03.2020
5893 Drizzle 18 1013 100 5000 2.6 290 17:58 25.03.2020
5894 Drizzle 19 1013 100 5000 2.6 290 17:40 25.03.2020
5895 Rain 20 1013 93 4500 6.2 300 17:22 25.03.2020
5896 Clouds 20 1012 82 10000 4.6 320 16:58 25.03.2020
5897 Clouds 20 1012 82 10000 4.6 320 16:39 25.03.2020
5898 Clouds 21 1012 82 10000 4.6 320 16:20 25.03.2020
5899 Clouds 22 1012 82 10000 7.7 310 15:43 25.03.2020
5900 Clouds 21 1012 82 10000 7.7 310 15:21 25.03.2020
5901 Clouds 21 1012 82 10000 6.7 310 14:57 25.03.2020
5902 Clouds 21 1012 82 10000 6.7 310 14:57 25.03.2020
5903 Clouds 22 1012 82 10000 6.7 310 14:39 25.03.2020
5904 Clouds 22 1012 82 10000 6.7 310 14:20 25.03.2020
5905 Clouds 22 1012 68 10000 7.2 310 13:44 25.03.2020
5906 Clouds 22 1012 68 10000 7.2 310 13:24 25.03.2020
5907 Clouds 23 1012 60 10000 5.1 330 12:39 25.03.2020
5908 Clouds 24 1012 60 10000 5.1 330 12:21 25.03.2020
5909 Clouds 24 1012 56 10000 3.6 320 11:59 25.03.2020
5910 Clouds 24 1012 56 10000 3.6 320 11:40 25.03.2020
5911 Clouds 23 1012 56 10000 3.6 320 11:21 25.03.2020
5912 Clouds 23 1013 64 10000 2.1 300 10:58 25.03.2020
5913 Clouds 23 1013 64 10000 2.1 300 10:40 25.03.2020
5914 Clouds 23 1013 64 10000 2.1 300 10:18 25.03.2020
5915 Clouds 22 1013 73 10000 1 0 09:56 25.03.2020
5916 Clouds 23 1013 73 10000 1 0 09:38 25.03.2020
5917 Clouds 22 1013 73 10000 1 0 09:19 25.03.2020
5918 Clouds 20 1013 82 10000 2.6 280 08:41 25.03.2020
5919 Clouds 19 1013 82 10000 2.6 280 08:23 25.03.2020
5920 Clouds 18 1012 88 10000 2.1 230 07:56 25.03.2020
5921 Clouds 19 1012 88 10000 2.1 230 07:37 25.03.2020
5922 Clouds 18 1012 88 10000 2.1 230 07:18 25.03.2020
5923 Clouds 17 1012 87 10000 1.5 180 06:41 25.03.2020
5924 Clouds 17 1012 87 10000 1.5 180 06:23 25.03.2020
5925 Clouds 17 1012 93 10000 4.6 210 05:47 25.03.2020
5926 Clouds 17 1012 87 10000 4.1 190 04:42 25.03.2020
5927 Clouds 17 1012 87 10000 5.7 210 03:58 25.03.2020
5928 Clouds 17 1012 87 10000 5.7 210 03:33 25.03.2020
5929 Clouds 18 1013 88 10000 4.1 210 01:41 25.03.2020
5930 Clouds 18 1014 88 10000 4.6 210 00:51 25.03.2020
5931 Clouds 18 1014 88 10000 4.6 210 00:30 25.03.2020
5932 Clouds 18 1014 88 10000 4.6 220 23:58 24.03.2020
5933 Clouds 18 1014 88 10000 4.6 220 23:39 24.03.2020
5934 Clouds 18 1014 88 10000 4.6 220 23:19 24.03.2020
5935 Clouds 18 1014 88 10000 5.1 210 22:54 24.03.2020
5936 Clouds 18 1014 88 10000 5.1 210 22:36 24.03.2020
5937 Clouds 19 1014 88 10000 5.1 210 22:18 24.03.2020
5938 Clouds 19 1013 85 0 3.13 180 21:42 24.03.2020
5939 Clouds 19 1015 88 10000 5.7 220 21:19 24.03.2020
5940 Clouds 19 1015 88 10000 5.7 220 20:59 24.03.2020
5941 Clouds 19 1015 88 10000 5.7 220 20:41 24.03.2020
5942 Clouds 19 1015 88 10000 5.7 220 20:22 24.03.2020
5943 Clear 19 1014 88 10000 7.2 210 19:48 24.03.2020
5944 Clear 19 1014 88 10000 7.2 210 19:23 24.03.2020
5945 Clear 20 1014 82 10000 6.2 210 18:59 24.03.2020
5946 Clear 20 1014 82 10000 6.2 210 18:40 24.03.2020
5947 Clear 20 1014 82 10000 6.2 210 18:20 24.03.2020
5948 Clear 20 1014 77 10000 8.7 200 17:58 24.03.2020
5949 Clear 21 1014 77 10000 8.7 200 17:40 24.03.2020
5950 Clear 21 1014 77 10000 8.7 200 17:22 24.03.2020
5951 Clear 22 1014 64 10000 8.7 190 16:57 24.03.2020
5952 Clear 22 1014 64 10000 8.7 190 16:38 24.03.2020
5953 Clear 23 1014 64 10000 8.7 190 16:20 24.03.2020
5954 Clear 23 1014 60 10000 7.7 190 15:44 24.03.2020
5955 Clear 23 1014 60 10000 7.7 190 15:44 24.03.2020
5956 Clear 24 1014 60 10000 7.7 190 15:25 24.03.2020
5957 Clear 24 1014 60 10000 7.2 200 14:57 24.03.2020
5958 Clear 24 1014 60 10000 7.2 200 14:39 24.03.2020
5959 Clouds 24 1014 60 10000 7.2 200 14:18 24.03.2020
5960 Clouds 25 1015 50 10000 6.7 190 13:41 24.03.2020
5961 Clouds 24 1015 50 10000 6.7 190 13:22 24.03.2020
5962 Clouds 25 1018 50 10000 6.2 210 12:47 24.03.2020
5963 Clouds 25 1018 50 10000 6.2 210 12:28 24.03.2020
5964 Clouds 24 1016 46 10000 6.2 210 11:58 24.03.2020
5965 Clouds 24 1016 46 10000 6.2 210 11:39 24.03.2020
5966 Clouds 24 1016 46 10000 6.2 210 11:18 24.03.2020
5967 Clouds 23 1017 53 10000 4.6 200 10:42 24.03.2020
5968 Clouds 23 1017 53 10000 4.6 200 10:19 24.03.2020
5969 Clouds 23 1017 53 10000 6.2 200 09:55 24.03.2020
5970 Clouds 23 1017 53 10000 6.2 200 09:37 24.03.2020
5971 Clouds 22 1017 53 10000 6.2 200 09:19 24.03.2020
5972 Clouds 22 1017 56 10000 5.7 190 08:38 24.03.2020
5973 Clouds 20 1017 56 10000 5.7 190 08:20 24.03.2020
5974 Clouds 19 1016 68 10000 3.6 210 07:47 24.03.2020
5975 Clouds 18 1016 68 10000 3.6 210 07:24 24.03.2020
5976 Clouds 17 1016 82 10000 5.7 200 06:50 24.03.2020
5977 Clouds 17 1016 82 10000 5.7 200 06:24 24.03.2020
5978 Clouds 17 1016 82 10000 6.2 210 04:57 24.03.2020
5979 Clouds 17 1016 82 10000 5.7 210 03:48 24.03.2020
5980 Clouds 17 1015 82 10000 5.1 230 02:49 24.03.2020
5981 Clouds 17 1016 87 10000 5.1 230 01:42 24.03.2020
5982 Clouds 17 1016 82 10000 5.7 220 00:44 24.03.2020
5983 Clouds 18 1016 82 10000 5.7 220 00:23 24.03.2020
5984 Clouds 18 1017 82 10000 5.1 220 23:44 23.03.2020
5985 Clouds 18 1017 82 10000 5.1 220 23:26 23.03.2020
5986 Clouds 18 1017 82 10000 5.1 220 23:26 23.03.2020
5987 Clouds 18 1017 82 10000 5.7 210 22:55 23.03.2020
5988 Clouds 18 1017 82 10000 5.7 210 22:37 23.03.2020
5989 Clouds 18 1017 82 10000 5.7 210 22:19 23.03.2020
5990 Clouds 18 1017 77 10000 5.7 220 21:43 23.03.2020
5991 Clouds 18 1017 77 10000 5.7 220 21:20 23.03.2020
5992 Clouds 19 1017 77 10000 6.2 200 20:57 23.03.2020
5993 Clouds 19 1017 77 10000 6.2 200 20:39 23.03.2020
5994 Clouds 19 1017 77 10000 6.2 200 20:19 23.03.2020
5995 Clouds 19 1017 72 10000 6.7 210 19:45 23.03.2020
5996 Clouds 19 1017 72 10000 6.7 210 19:45 23.03.2020
5997 Clouds 19 1017 72 10000 6.7 210 19:27 23.03.2020
5998 Clouds 19 1017 72 10000 7.2 200 18:59 23.03.2020
5999 Clouds 19 1017 72 10000 7.2 200 18:41 23.03.2020
6000 Clouds 19 1017 72 10000 7.2 200 18:21 23.03.2020
6001 Clouds 20 1017 68 10000 8.2 200 17:44 23.03.2020
6002 Clouds 20 1017 68 10000 8.2 200 17:22 23.03.2020
6003 Clouds 22 1017 60 10000 8.7 180 16:59 23.03.2020
6004 Clouds 22 1017 60 10000 8.7 180 16:41 23.03.2020
6005 Clouds 22 1017 60 10000 8.7 180 16:23 23.03.2020
6006 Clouds 23 1017 60 10000 9.8 190 15:42 23.03.2020
6007 Clouds 24 1017 60 10000 9.8 190 15:20 23.03.2020
6008 Clouds 24 1017 60 10000 10.3 190 14:55 23.03.2020
6009 Clouds 24 1017 60 10000 10.3 190 14:36 23.03.2020
6010 Clouds 24 1017 60 10000 10.3 190 14:18 23.03.2020
6011 Clouds 24 1017 56 10000 7.7 190 13:40 23.03.2020
6012 Clouds 24 1017 56 10000 7.7 190 13:22 23.03.2020
6013 Clouds 24 1017 53 10000 5.1 180 12:55 23.03.2020
6014 Clouds 25 1017 53 10000 5.1 180 12:37 23.03.2020
6015 Clouds 24 1017 53 10000 5.1 180 12:19 23.03.2020
6016 Clouds 24 1018 56 10000 6.2 200 11:42 23.03.2020
6017 Clouds 24 1018 56 10000 6.2 200 11:21 23.03.2020
6018 Clouds 24 1018 60 10000 2.6 230 10:58 23.03.2020
6019 Clouds 24 1018 60 10000 2.6 230 10:39 23.03.2020
6020 Clouds 23 1018 60 10000 2.6 230 10:21 23.03.2020
6021 Clouds 23 1018 68 10000 2.6 210 09:57 23.03.2020
6022 Clouds 22 1018 68 10000 2.6 210 09:37 23.03.2020
6023 Clouds 21 1018 68 10000 2.6 210 09:18 23.03.2020
6024 Clouds 20 1018 72 10000 3.1 200 08:37 23.03.2020
6025 Clouds 19 1018 72 10000 3.1 200 08:19 23.03.2020
6026 Clear 18 1018 88 10000 5.1 210 07:50 23.03.2020
6027 Clear 18 1018 88 10000 5.1 210 07:50 23.03.2020
6028 Clear 19 1018 88 10000 5.1 210 07:31 23.03.2020
6029 Clear 17 1017 87 10000 4.6 230 06:53 23.03.2020
6030 Clear 17 1017 87 10000 4.6 230 06:32 23.03.2020
6031 Clear 17 1016 87 10000 5.7 230 05:42 23.03.2020
6032 Clear 17 1016 82 10000 4.6 220 03:45 23.03.2020
6033 Clear 17 1016 82 10000 3.6 190 02:43 23.03.2020
6034 Clouds 18 1017 77 10000 4.1 210 01:38 23.03.2020
6035 Clouds 18 1017 77 10000 5.7 200 00:44 23.03.2020
6036 Clouds 18 1017 77 10000 5.7 210 23:58 22.03.2020
6037 Clouds 18 1017 77 10000 5.7 210 23:40 22.03.2020
6038 Clouds 18 1017 77 10000 5.7 210 23:22 22.03.2020
6039 Clouds 19 1017 72 10000 4.6 190 22:40 22.03.2020
6040 Clouds 19 1017 72 10000 4.6 190 22:20 22.03.2020
6041 Clouds 18 1017 77 10000 6.7 180 21:40 22.03.2020
6042 Clouds 19 1017 77 10000 6.7 180 21:21 22.03.2020
6043 Clouds 19 1017 82 10000 7.2 190 20:58 22.03.2020
6044 Clouds 19 1017 82 10000 7.2 190 20:40 22.03.2020
6045 Clouds 19 1017 82 10000 7.2 190 20:22 22.03.2020
6046 Clouds 19 1017 82 10000 7.7 180 19:56 22.03.2020
6047 Clouds 19 1017 82 10000 7.7 180 19:38 22.03.2020
6048 Clouds 19 1017 82 10000 7.7 180 19:19 22.03.2020
6049 Clouds 20 1016 77 10000 9.3 180 18:57 22.03.2020
6050 Clouds 20 1016 77 10000 9.3 180 18:39 22.03.2020
6051 Clouds 20 1016 77 10000 9.3 180 18:19 22.03.2020
6052 Clouds 20 1016 77 10000 10.8 180 17:56 22.03.2020
6053 Clouds 20 1016 77 10000 10.8 180 17:37 22.03.2020
6054 Clouds 21 1016 77 10000 10.8 180 17:19 22.03.2020
6055 Clouds 22 1016 68 10000 10.3 180 16:57 22.03.2020
6056 Clouds 22 1016 68 10000 10.3 180 16:39 22.03.2020
6057 Clouds 23 1016 68 10000 10.3 180 16:20 22.03.2020
6058 Clouds 23 1015 60 10000 10.3 190 15:40 22.03.2020
6059 Clouds 24 1015 60 10000 10.3 190 15:19 22.03.2020
6060 Clouds 24 1015 57 10000 8.2 190 14:46 22.03.2020
6061 Clouds 25 1015 57 10000 8.2 190 14:18 22.03.2020
6062 Clouds 25 1016 53 10000 6.2 190 13:43 22.03.2020
6063 Clouds 25 1016 53 10000 6.2 190 13:20 22.03.2020
6064 Clouds 25 1016 53 10000 5.1 210 12:57 22.03.2020
6065 Clouds 24 1016 53 10000 5.1 210 12:38 22.03.2020
6066 Clouds 24 1016 53 10000 5.1 210 12:18 22.03.2020
6067 Clouds 24 1017 56 10000 5.1 210 11:43 22.03.2020
6068 Clouds 24 1017 56 10000 5.1 210 11:25 22.03.2020
6069 Clouds 23 1017 64 10000 3.6 200 10:58 22.03.2020
6070 Clouds 23 1017 64 10000 3.6 200 10:39 22.03.2020
6071 Clouds 23 1017 64 10000 3.6 200 10:21 22.03.2020
6072 Clouds 23 1017 64 10000 3.1 210 09:45 22.03.2020
6073 Clouds 22 1017 72 10000 4.1 230 09:27 22.03.2020
6074 Clouds 21 1017 72 10000 4.6 220 08:48 22.03.2020
6075 Clouds 19 1017 82 10000 4.6 230 08:29 22.03.2020
6076 Clouds 18 1016 88 10000 4.6 240 07:54 22.03.2020
6077 Clouds 18 1016 88 10000 4.6 240 07:36 22.03.2020
6078 Clouds 17 1015 87 10000 4.6 240 06:41 22.03.2020
6079 Clouds 16 1015 93 10000 4.6 240 05:47 22.03.2020
6080 Clear 16 1014 93 10000 4.6 230 04:39 22.03.2020
6081 Clear 17 1014 88 10000 4.6 220 01:45 22.03.2020
6082 Clear 18 1015 72 10000 5.7 170 00:50 22.03.2020
6083 Clear 18 1015 72 10000 5.7 170 00:31 22.03.2020
6084 Clear 18 1015 82 10000 5.7 220 23:45 21.03.2020
6085 Clear 18 1015 82 10000 5.7 220 23:22 21.03.2020
6086 Clear 18 1015 82 10000 5.1 210 22:58 21.03.2020
6087 Clear 18 1015 82 10000 5.1 210 22:38 21.03.2020
6088 Clear 19 1015 82 10000 5.1 210 22:19 21.03.2020
6089 Clear 19 1015 77 10000 5.7 220 21:57 21.03.2020
6090 Clear 19 1015 77 10000 5.7 220 21:38 21.03.2020
6091 Clear 19 1015 77 10000 5.7 220 21:19 21.03.2020
6092 Clear 19 1016 88 10000 5.7 210 20:42 21.03.2020
6093 Clouds 19 1016 88 10000 5.7 210 20:22 21.03.2020
6094 Clear 19 1015 77 10000 6.2 200 19:55 21.03.2020
6095 Clear 19 1015 77 10000 6.2 200 19:36 21.03.2020
6096 Clear 20 1015 77 10000 6.2 200 19:18 21.03.2020
6097 Clouds 20 1016 82 10000 7.7 180 18:41 21.03.2020
6098 Clouds 20 1016 82 10000 7.7 180 18:21 21.03.2020
6099 Clouds 21 1016 73 10000 9.3 180 17:59 21.03.2020
6100 Clouds 21 1016 73 10000 9.3 180 17:41 21.03.2020
6101 Clouds 21 1016 73 10000 9.3 180 17:22 21.03.2020
6102 Clouds 23 1016 64 10000 10.3 180 16:42 21.03.2020
6103 Clouds 23 1016 64 10000 10.3 180 16:42 21.03.2020
6104 Clouds 23 1016 64 10000 10.3 180 16:24 21.03.2020
6105 Clouds 23 1016 64 10000 10.8 190 15:59 21.03.2020
6106 Clouds 23 1016 64 10000 10.8 190 15:40 21.03.2020
6107 Clouds 24 1016 64 10000 10.8 190 15:22 21.03.2020
6108 Clouds 24 1016 56 10000 9.3 180 14:57 21.03.2020
6109 Clouds 24 1016 56 10000 9.3 180 14:38 21.03.2020
6110 Clouds 24 1016 56 10000 9.3 180 14:19 21.03.2020
6111 Clouds 24 1016 56 10000 8.2 190 13:58 21.03.2020
6112 Clouds 24 1016 56 10000 8.2 190 13:39 21.03.2020
6113 Clouds 24 1016 56 10000 8.2 190 13:21 21.03.2020
6114 Clouds 24 1017 53 10000 6.7 180 12:57 21.03.2020
6115 Clouds 24 1017 53 10000 6.7 180 12:37 21.03.2020
6116 Clouds 24 1017 53 10000 6.7 180 12:19 21.03.2020
6117 Clouds 24 1017 56 10000 5.7 190 11:55 21.03.2020
6118 Clouds 23 1017 56 10000 5.7 190 11:37 21.03.2020
6119 Clouds 23 1017 56 10000 5.7 190 11:18 21.03.2020
6120 Clouds 23 1017 56 10000 3.6 190 10:56 21.03.2020
6121 Clouds 23 1017 56 10000 3.6 190 10:38 21.03.2020
6122 Clouds 23 1017 56 10000 3.6 190 10:18 21.03.2020
6123 Clouds 22 1018 64 10000 3.6 190 09:40 21.03.2020
6124 Clouds 22 1018 64 10000 3.6 190 09:21 21.03.2020
6125 Clouds 21 1017 77 10000 5.1 200 08:56 21.03.2020
6126 Clouds 21 1017 77 10000 5.1 200 08:38 21.03.2020
6127 Clouds 20 1017 77 10000 5.1 200 08:20 21.03.2020
6128 Clouds 19 1017 82 10000 4.6 210 07:39 21.03.2020
6129 Clouds 18 1017 93 10000 4.1 220 07:20 21.03.2020
6130 Clouds 18 1017 88 10000 4.1 220 06:45 21.03.2020
6131 Clouds 17 1017 88 10000 4.1 220 06:26 21.03.2020
6132 Clouds 17 1017 88 10000 4.1 220 05:41 21.03.2020
6133 Clouds 17 1017 88 10000 4.1 220 04:37 21.03.2020
6134 Clouds 17 1017 88 10000 3.1 210 02:39 21.03.2020
6135 Clouds 17 1017 88 10000 3.6 210 01:57 21.03.2020
6136 Clouds 17 1017 88 10000 3.6 210 01:29 21.03.2020
6137 Clouds 17 1017 88 10000 2.6 190 00:47 21.03.2020
6138 Clouds 17 1017 88 10000 2.6 190 00:24 21.03.2020
6139 Clouds 17 1017 88 10000 2.1 170 23:46 20.03.2020
6140 Clouds 17 1017 88 10000 2.1 170 23:24 20.03.2020
6141 Clear 19 1024 83 0 0.45 162 22:55 20.03.2020
6142 Clear 19 1012 35 0 1.93 174 22:36 20.03.2020
6143 Clouds 19 1017 77 10000 3.1 140 22:18 20.03.2020
6144 Clouds 19 1017 77 10000 3.1 140 21:54 20.03.2020
6145 Clouds 20 1017 77 10000 3.1 140 21:36 20.03.2020
6146 Clouds 20 1017 77 10000 3.1 140 21:18 20.03.2020
6147 Clouds 20 1017 82 10000 3.6 130 20:41 20.03.2020
6148 Clouds 20 1017 82 10000 3.6 130 20:21 20.03.2020
6149 Clouds 21 1017 68 10000 3.1 210 19:58 20.03.2020
6150 Clouds 21 1017 68 10000 3.1 210 19:40 20.03.2020
6151 Clouds 21 1017 68 10000 3.1 210 19:18 20.03.2020
6152 Clouds 20 1017 77 10000 2.6 320 18:39 20.03.2020
6153 Clouds 20 1017 77 10000 2.6 320 18:39 20.03.2020
6154 Clouds 20 1017 77 10000 2.6 320 18:20 20.03.2020
6155 Clouds 21 1016 68 10000 4.1 320 17:57 20.03.2020
6156 Clouds 21 1016 68 10000 4.1 320 17:39 20.03.2020
6157 Clouds 21 1016 68 10000 4.1 320 17:21 20.03.2020
6158 Clouds 22 1016 69 10000 6.2 320 16:43 20.03.2020
6159 Clouds 23 1016 69 10000 6.2 320 16:22 20.03.2020
6160 Clouds 23 1016 60 10000 7.2 320 15:59 20.03.2020
6161 Clouds 24 1016 60 10000 7.2 320 15:41 20.03.2020
6162 Clouds 24 1016 60 10000 7.2 320 15:21 20.03.2020
6163 Clouds 24 1016 57 10000 7.7 300 14:54 20.03.2020
6164 Clouds 24 1016 57 10000 7.7 300 14:36 20.03.2020
6165 Clouds 24 1016 57 10000 7.7 300 14:18 20.03.2020
6166 Clouds 25 1016 57 10000 6.2 310 13:40 20.03.2020
6167 Clouds 24 1016 57 10000 6.2 310 13:19 20.03.2020
6168 Clouds 24 1017 57 10000 5.1 320 12:39 20.03.2020
6169 Clouds 24 1017 57 10000 5.1 320 12:20 20.03.2020
6170 Clouds 24 1017 57 10000 5.1 320 12:20 20.03.2020
6171 Clouds 23 1017 64 10000 5.7 300 11:56 20.03.2020
6172 Clouds 23 1017 64 10000 5.7 300 11:38 20.03.2020
6173 Clouds 23 1017 64 10000 5.7 300 11:18 20.03.2020
6174 Clouds 22 1017 68 10000 5.1 320 10:41 20.03.2020
6175 Clouds 23 1017 68 10000 5.1 320 10:21 20.03.2020
6176 Clouds 22 1017 82 10000 4.1 350 09:55 20.03.2020
6177 Clouds 22 1017 82 10000 4.1 350 09:55 20.03.2020
6178 Clouds 22 1017 82 10000 4.1 350 09:37 20.03.2020
6179 Clouds 21 1017 82 10000 4.1 350 09:18 20.03.2020
6180 Clouds 19 1017 88 10000 2.6 30 08:41 20.03.2020
6181 Clouds 19 1017 88 10000 2.6 30 08:22 20.03.2020
6182 Clouds 18 1016 93 8000 4.1 50 07:48 20.03.2020
6183 Clouds 17 1016 93 8000 4.1 50 07:30 20.03.2020
6184 Clouds 16 1016 93 8000 3.1 40 06:51 20.03.2020
6185 Clouds 16 1016 93 8000 4.1 50 06:32 20.03.2020
6186 Clouds 14 1015 93 6000 1 0 04:51 20.03.2020
6187 Clouds 15 1015 93 10000 2.1 340 03:21 20.03.2020
6188 Clear 15 1015 93 10000 1.5 0 01:57 20.03.2020
6189 Clear 16 1016 93 10000 2.1 100 00:59 20.03.2020
6190 Clear 16 1016 93 10000 2.1 100 00:30 20.03.2020
6191 Clear 16 1015 93 10000 2.6 170 23:47 19.03.2020
6192 Clear 16 1015 93 10000 2.6 170 23:28 19.03.2020
6193 Clear 17 1015 88 10000 3.6 190 22:56 19.03.2020
6194 Clear 18 1015 88 10000 3.6 190 22:38 19.03.2020
6195 Clear 18 1015 88 10000 3.6 190 22:19 19.03.2020
6196 Clear 18 1015 88 10000 4.1 220 21:42 19.03.2020
6197 Clear 18 1015 88 10000 4.1 220 21:20 19.03.2020
6198 Clear 18 1015 88 10000 5.1 220 20:59 19.03.2020
6199 Clear 19 1015 88 10000 5.1 220 20:41 19.03.2020
6200 Clear 19 1015 88 10000 5.1 220 20:22 19.03.2020
6201 Clear 19 1014 82 10000 4.6 210 19:55 19.03.2020
6202 Clear 19 1014 82 10000 4.6 210 19:37 19.03.2020
6203 Clear 19 1014 82 10000 4.6 210 19:19 19.03.2020
6204 Clear 20 1014 77 10000 5.7 200 18:55 19.03.2020
6205 Clear 20 1014 77 10000 5.7 200 18:37 19.03.2020
6206 Clear 20 1014 77 10000 5.7 200 18:37 19.03.2020
6207 Clear 20 1014 77 10000 5.7 200 18:19 19.03.2020
6208 Clouds 21 1013 73 10000 6.7 180 17:41 19.03.2020
6209 Clouds 22 1013 73 10000 6.7 180 17:19 19.03.2020
6210 Clouds 23 1013 64 10000 7.2 170 16:44 19.03.2020
6211 Clouds 23 1013 64 10000 7.2 170 16:24 19.03.2020
6212 Clouds 23 1014 60 10000 8.2 180 15:46 19.03.2020
6213 Clouds 23 1014 60 10000 8.2 180 15:28 19.03.2020
6214 Clouds 23 1014 60 10000 7.7 170 14:59 19.03.2020
6215 Clouds 23 1014 60 10000 7.7 170 14:40 19.03.2020
6216 Clouds 23 1014 60 10000 7.7 170 14:20 19.03.2020
6217 Clouds 23 1014 64 10000 7.7 180 13:41 19.03.2020
6218 Clouds 23 1014 64 10000 7.7 180 13:19 19.03.2020
6219 Clouds 23 1014 64 10000 7.2 180 12:57 19.03.2020
6220 Clouds 23 1014 64 10000 7.2 180 12:39 19.03.2020
6221 Clouds 23 1014 64 10000 7.2 180 12:20 19.03.2020
6222 Clouds 22 1014 68 10000 7.2 190 11:42 19.03.2020
6223 Clouds 23 1014 68 10000 7.2 190 11:23 19.03.2020
6224 Clear 21 1014 68 10000 5.1 200 10:57 19.03.2020
6225 Clear 21 1014 68 10000 5.1 200 10:38 19.03.2020
6226 Clear 22 1014 68 10000 5.1 200 10:19 19.03.2020
6227 Clear 21 1013 72 10000 5.1 220 09:45 19.03.2020
6228 Clear 21 1013 72 10000 5.1 220 09:27 19.03.2020
6229 Clear 20 1013 77 10000 2.6 210 08:59 19.03.2020
6230 Clear 20 1013 77 10000 2.6 210 08:41 19.03.2020
6231 Clouds 19 1013 77 10000 2.6 210 08:19 19.03.2020
6232 Clouds 18 1013 87 10000 3.6 210 07:44 19.03.2020
6233 Clouds 18 1013 87 10000 3.6 210 07:44 19.03.2020
6234 Clouds 17 1013 87 10000 3.6 210 07:23 19.03.2020
6235 Clouds 16 1013 93 10000 1.5 0 06:35 19.03.2020
6236 Clouds 16 1013 87 10000 4.6 220 05:48 19.03.2020
6237 Clear 17 1013 87 10000 6.2 230 04:54 19.03.2020
6238 Clear 17 1013 87 10000 6.2 230 04:34 19.03.2020
6239 Clear 17 1013 87 10000 5.1 230 02:49 19.03.2020
6240 Clear 17 1013 87 10000 6.2 220 01:21 19.03.2020
6241 Clear 18 1014 88 10000 6.2 220 00:28 19.03.2020
6242 Clear 18 1014 88 10000 6.2 220 23:48 18.03.2020
6243 Clear 18 1014 88 10000 6.2 220 23:30 18.03.2020
6244 Clear 18 1015 82 10000 6.7 200 22:56 18.03.2020
6245 Clear 18 1015 82 10000 6.7 200 22:38 18.03.2020
6246 Clear 18 1015 82 10000 6.7 200 22:20 18.03.2020
6247 Clear 18 1015 82 10000 7.2 190 21:42 18.03.2020
6248 Clear 18 1015 82 10000 7.2 190 21:21 18.03.2020
6249 Clear 19 1015 82 10000 8.2 190 20:59 18.03.2020
6250 Clear 19 1015 82 10000 8.2 190 20:40 18.03.2020
6251 Clear 19 1014 77 10000 8.2 190 20:20 18.03.2020
6252 Clear 19 1014 77 10000 8.2 190 19:56 18.03.2020
6253 Clear 19 1014 77 10000 8.2 190 19:38 18.03.2020
6254 Clear 19 1014 77 10000 8.2 190 19:19 18.03.2020
6255 Clear 19 1014 77 10000 7.7 190 18:41 18.03.2020
6256 Clear 20 1014 77 10000 7.7 190 18:21 18.03.2020
6257 Clear 21 1014 68 10000 8.7 190 17:58 18.03.2020
6258 Clear 21 1014 68 10000 8.7 190 17:40 18.03.2020
6259 Clear 21 1014 68 10000 8.7 190 17:21 18.03.2020
6260 Clear 22 1014 64 10000 9.3 180 16:58 18.03.2020
6261 Clear 22 1014 64 10000 9.3 180 16:39 18.03.2020
6262 Clear 23 1014 64 10000 9.3 180 16:20 18.03.2020
6263 Clear 24 1014 60 10000 8.7 180 15:45 18.03.2020
6264 Clear 24 1014 60 10000 8.7 180 15:20 18.03.2020
6265 Clouds 24 1014 53 10000 8.2 190 14:56 18.03.2020
6266 Clouds 24 1014 53 10000 8.2 190 14:38 18.03.2020
6267 Clouds 24 1014 53 10000 8.2 190 14:19 18.03.2020
6268 Clouds 24 1015 57 10000 8.7 200 13:38 18.03.2020
6269 Clouds 24 1015 57 10000 8.7 200 13:19 18.03.2020
6270 Clouds 24 1015 57 10000 7.7 180 12:42 18.03.2020
6271 Clouds 24 1015 57 10000 7.7 180 12:20 18.03.2020
6272 Clouds 24 1015 60 10000 7.7 180 11:41 18.03.2020
6273 Clouds 23 1015 60 10000 7.7 180 11:21 18.03.2020
6274 Clouds 22 1015 68 10000 7.2 180 10:58 18.03.2020
6275 Clouds 23 1015 68 10000 7.2 180 10:39 18.03.2020
6276 Clouds 23 1015 68 10000 7.2 180 10:20 18.03.2020
6277 Clouds 22 1015 77 10000 6.2 170 09:59 18.03.2020
6278 Clouds 22 1015 77 10000 6.2 170 09:39 18.03.2020
6279 Clouds 22 1015 77 10000 6.2 170 09:21 18.03.2020
6280 Clouds 21 1015 77 10000 6.2 190 08:40 18.03.2020
6281 Clouds 21 1015 77 10000 6.2 190 08:21 18.03.2020
6282 Clouds 19 1014 93 10000 3.6 210 07:49 18.03.2020
6283 Clouds 19 1014 93 10000 3.6 210 07:31 18.03.2020
6284 Clouds 19 1014 93 10000 3.1 210 06:50 18.03.2020
6285 Clouds 18 1014 93 10000 3.1 210 06:31 18.03.2020
6286 Clouds 18 1013 93 10000 4.1 200 05:36 18.03.2020
6287 Clouds 18 1013 93 10000 5.7 210 04:29 18.03.2020
6288 Clouds 18 1013 88 10000 4.1 210 03:21 18.03.2020
6289 Clouds 18 1013 88 10000 5.7 180 02:32 18.03.2020
6290 Clear 18 1013 88 10000 3.6 170 01:32 18.03.2020
6291 Clear 19 1013 88 10000 4.6 200 00:42 18.03.2020
6292 Clear 19 1013 88 10000 4.6 200 00:21 18.03.2020
6293 Clear 19 1013 88 10000 5.1 210 23:41 17.03.2020
6294 Clouds 19 1013 88 10000 5.1 210 23:20 17.03.2020
6295 Clear 19 1013 88 10000 5.1 220 22:42 17.03.2020
6296 Clear 19 1013 88 10000 5.1 220 22:24 17.03.2020
6297 Clear 19 1013 88 10000 5.1 210 21:43 17.03.2020
6298 Clouds 19 1013 88 10000 5.1 210 21:23 17.03.2020
6299 Clear 19 1013 88 10000 6.2 210 20:58 17.03.2020
6300 Clear 19 1013 88 10000 6.2 210 20:38 17.03.2020
6301 Clouds 19 1013 88 10000 6.2 210 20:19 17.03.2020
6302 Clouds 19 1012 82 10000 5.7 190 19:42 17.03.2020
6303 Clouds 19 1012 82 10000 5.7 190 19:19 17.03.2020
6304 Clouds 20 1011 77 10000 6.7 190 18:57 17.03.2020
6305 Clouds 20 1011 77 10000 6.7 190 18:39 17.03.2020
6306 Clouds 20 1011 77 10000 6.7 190 18:21 17.03.2020
6307 Clouds 21 1011 73 10000 7.2 180 17:56 17.03.2020
6308 Clouds 21 1011 73 10000 7.2 180 17:38 17.03.2020
6309 Clouds 21 1011 73 10000 7.2 180 17:18 17.03.2020
6310 Clouds 22 1010 73 10000 8.2 170 16:42 17.03.2020
6311 Clouds 22 1010 73 10000 8.2 170 16:19 17.03.2020
6312 Clouds 22 1010 73 10000 8.2 170 16:19 17.03.2020
6313 Clouds 23 1010 64 10000 6.2 180 15:45 17.03.2020
6314 Clouds 23 1010 64 10000 6.2 180 15:23 17.03.2020
6315 Clouds 23 1010 56 10000 6.2 180 14:47 17.03.2020
6316 Clouds 24 1010 56 10000 6.2 180 14:27 17.03.2020
6317 Clear 24 1010 53 10000 5.1 180 13:58 17.03.2020
6318 Clear 24 1010 53 10000 5.1 180 13:40 17.03.2020
6319 Clear 25 1010 53 10000 5.1 180 13:22 17.03.2020
6320 Clear 26 1010 36 10000 3.1 270 12:47 17.03.2020
6321 Clear 27 1010 36 10000 3.1 270 12:25 17.03.2020
6322 Clear 26 1010 39 10000 4.6 290 11:57 17.03.2020
6323 Clear 26 1010 39 10000 4.6 290 11:39 17.03.2020
6324 Clear 26 1010 39 10000 4.6 290 11:20 17.03.2020
6325 Clear 25 1010 41 10000 4.6 320 10:54 17.03.2020
6326 Clear 25 1010 41 10000 4.6 320 10:36 17.03.2020
6327 Clear 25 1010 41 10000 4.6 320 10:18 17.03.2020
6328 Clear 24 1009 47 10000 3.6 320 09:45 17.03.2020
6329 Clear 23 1009 47 10000 3.6 320 09:20 17.03.2020
6330 Clear 23 1009 53 10000 2.1 310 08:57 17.03.2020
6331 Clear 22 1009 53 10000 2.1 310 08:39 17.03.2020
6332 Clouds 20 1009 64 10000 0.5 0 08:18 17.03.2020
6333 Clouds 20 1009 68 10000 1 0 07:47 17.03.2020
6334 Clouds 18 1009 77 10000 0.5 0 07:20 17.03.2020
6335 Clouds 16 1008 77 10000 1 0 06:45 17.03.2020
6336 Clouds 16 1008 77 10000 1 0 06:24 17.03.2020
6337 Clouds 16 1008 82 10000 1 290 05:18 17.03.2020
6338 Clouds 17 1007 77 10000 0.5 0 03:27 17.03.2020
6339 Clear 18 1008 68 10000 3.1 220 01:50 17.03.2020
6340 Clear 18 1008 68 10000 3.1 220 01:31 17.03.2020
6341 Clear 18 1008 68 10000 3.6 230 00:52 17.03.2020
6342 Clear 20 1009 60 10000 7.7 190 23:53 16.03.2020
6343 Clear 20 1009 60 10000 7.7 190 23:34 16.03.2020
6344 Clear 20 1010 60 10000 6.2 200 22:58 16.03.2020
6345 Clear 20 1010 60 10000 6.2 200 22:37 16.03.2020
6346 Clear 20 1010 60 10000 6.2 200 22:19 16.03.2020
6347 Clear 20 1011 56 10000 3.1 190 21:44 16.03.2020
6348 Clear 20 1011 56 10000 3.1 190 21:25 16.03.2020
6349 Clear 21 1011 53 10000 3.1 210 20:58 16.03.2020
6350 Clear 21 1011 53 10000 3.1 210 20:39 16.03.2020
6351 Clear 21 1011 53 10000 3.1 210 20:20 16.03.2020
6352 Clear 22 1011 49 10000 5.7 140 19:46 16.03.2020
6353 Clear 22 1011 49 10000 5.7 140 19:24 16.03.2020
6354 Clear 23 1011 44 10000 6.7 140 18:59 16.03.2020
6355 Clear 23 1011 44 10000 6.7 140 18:39 16.03.2020
6356 Clear 23 1011 44 10000 6.7 140 18:19 16.03.2020
6357 Clear 24 1011 39 10000 7.7 140 17:46 16.03.2020
6358 Clear 27 1011 39 10000 7.7 140 17:25 16.03.2020
6359 Clear 28 1012 35 10000 6.7 150 16:56 16.03.2020
6360 Clear 27 1012 35 10000 6.7 150 16:37 16.03.2020
6361 Clear 28 1012 35 10000 6.7 150 16:19 16.03.2020
6362 Clear 28 1012 35 10000 5.1 190 15:42 16.03.2020
6363 Clear 29 1012 35 10000 5.1 190 15:23 16.03.2020
6364 Clear 29 1012 35 10000 5.1 190 15:23 16.03.2020
6365 Clear 28 1013 32 10000 6.2 180 14:45 16.03.2020
6366 Clear 29 1013 32 10000 6.2 180 14:20 16.03.2020
6367 Clear 28 1013 34 10000 5.7 170 13:47 16.03.2020
6368 Clear 28 1013 34 10000 5.7 170 13:27 16.03.2020
6369 Clear 28 1014 34 10000 6.2 160 12:57 16.03.2020
6370 Clear 28 1014 34 10000 6.2 160 12:38 16.03.2020
6371 Clear 28 1014 34 10000 6.2 160 12:20 16.03.2020
6372 Clear 28 1015 36 10000 6.2 160 11:43 16.03.2020
6373 Clear 27 1015 36 10000 6.2 160 11:23 16.03.2020
6374 Clear 27 1016 39 10000 2.6 190 10:44 16.03.2020
6375 Clear 26 1016 39 10000 2.6 190 10:24 16.03.2020
6376 Clear 25 1016 44 10000 2.6 190 09:49 16.03.2020
6377 Clear 25 1016 44 10000 2.6 190 09:30 16.03.2020
6378 Clear 23 1017 49 10000 3.1 130 08:59 16.03.2020
6379 Clear 22 1017 49 10000 3.1 130 08:40 16.03.2020
6380 Clear 21 1017 49 10000 3.1 130 08:21 16.03.2020
6381 Clear 21 1017 53 10000 1 0 07:42 16.03.2020
6382 Clouds 20 1017 60 10000 3.6 110 07:19 16.03.2020
6383 Clouds 18 1016 63 10000 3.6 140 06:29 16.03.2020
6384 Clouds 18 1016 68 10000 4.6 140 05:59 16.03.2020
6385 Clouds 18 1017 68 10000 6.7 130 04:21 16.03.2020
6386 Clouds 17 1018 67 10000 6.7 140 01:46 16.03.2020
6387 Clouds 17 1019 63 10000 8.7 150 00:45 16.03.2020
6388 Clouds 17 1019 63 10000 8.7 150 00:25 16.03.2020
6389 Clouds 17 1019 63 10000 9.3 140 23:39 15.03.2020
6390 Clouds 17 1019 63 10000 9.3 140 23:18 15.03.2020
6391 Clouds 18 1020 63 10000 10.3 150 22:42 15.03.2020
6392 Clouds 18 1020 63 10000 10.3 150 22:20 15.03.2020
6393 Clouds 17 1020 67 10000 12.3 160 21:39 15.03.2020
6394 Clouds 17 1020 67 10000 12.3 160 21:21 15.03.2020
6395 Clouds 18 1020 68 10000 12.9 150 20:58 15.03.2020
6396 Clouds 18 1020 68 10000 12.9 150 20:39 15.03.2020
6397 Clouds 18 1020 68 10000 12.9 150 20:19 15.03.2020
6398 Clouds 18 1019 68 10000 13.4 160 19:55 15.03.2020
6399 Clouds 18 1019 68 10000 13.4 160 19:37 15.03.2020
6400 Clouds 18 1019 68 10000 13.4 160 19:18 15.03.2020
6401 Clouds 18 1019 68 10000 13.9 160 18:41 15.03.2020
6402 Clouds 18 1019 68 10000 13.9 160 18:23 15.03.2020
6403 Clouds 19 1019 68 10000 13.4 160 17:58 15.03.2020
6404 Clouds 19 1019 68 10000 13.4 160 17:39 15.03.2020
6405 Clouds 19 1019 68 10000 13.4 160 17:20 15.03.2020
6406 Clouds 20 1019 64 10000 12.9 160 16:55 15.03.2020
6407 Clouds 20 1019 64 10000 12.9 160 16:36 15.03.2020
6408 Clouds 20 1019 64 10000 12.9 160 16:18 15.03.2020
6409 Clouds 21 1019 60 10000 13.9 160 15:41 15.03.2020
6410 Clouds 21 1019 60 10000 13.9 160 15:20 15.03.2020
6411 Clouds 22 1019 56 10000 12.3 160 14:47 15.03.2020
6412 Clouds 22 1019 56 10000 12.3 160 14:26 15.03.2020
6413 Clouds 22 1019 56 10000 12.9 160 13:59 15.03.2020
6414 Clouds 22 1019 56 10000 12.9 160 13:39 15.03.2020
6415 Clouds 22 1019 56 10000 12.9 160 13:39 15.03.2020
6416 Clouds 22 1019 56 10000 12.9 160 13:21 15.03.2020
6417 Clouds 23 1020 60 10000 12.3 160 12:57 15.03.2020
6418 Clouds 22 1020 60 10000 12.3 160 12:38 15.03.2020
6419 Clouds 23 1020 60 10000 12.3 160 12:20 15.03.2020
6420 Clouds 22 1020 56 10000 11.8 170 11:40 15.03.2020
6421 Clouds 22 1020 56 10000 11.8 170 11:22 15.03.2020
6422 Clouds 23 1020 56 10000 11.8 170 10:56 15.03.2020
6423 Clouds 23 1020 56 10000 11.8 170 10:38 15.03.2020
6424 Clouds 23 1020 56 10000 11.8 170 10:20 15.03.2020
6425 Clouds 22 1020 49 10000 9.8 160 09:41 15.03.2020
6426 Clouds 22 1020 49 10000 9.8 160 09:22 15.03.2020
6427 Clouds 21 1020 60 10000 9.8 170 08:54 15.03.2020
6428 Clouds 21 1020 60 10000 9.8 170 08:36 15.03.2020
6429 Clouds 20 1020 60 10000 9.8 170 08:18 15.03.2020
6430 Clouds 19 1020 72 10000 8.2 170 07:44 15.03.2020
6431 Clouds 18 1019 77 10000 7.2 170 06:54 15.03.2020
6432 Clouds 18 1019 77 10000 7.2 170 06:24 15.03.2020
6433 Clouds 18 1019 72 10000 6.7 170 05:43 15.03.2020
6434 Clouds 18 1018 72 10000 7.7 170 04:47 15.03.2020
6435 Clouds 18 1018 72 10000 7.7 170 04:28 15.03.2020
6436 Clouds 18 1018 72 10000 7.7 170 03:54 15.03.2020
6437 Clouds 18 1018 77 10000 8.2 170 02:47 15.03.2020
6438 Clouds 18 1018 77 10000 7.7 170 01:50 15.03.2020
6439 Clouds 18 1018 82 10000 8.7 170 00:51 15.03.2020
6440 Clouds 18 1018 82 10000 8.7 170 00:28 15.03.2020
6441 Clouds 18 1019 82 10000 8.2 180 23:58 14.03.2020
6442 Clouds 18 1019 82 10000 8.2 180 23:37 14.03.2020
6443 Clouds 18 1019 82 10000 8.2 180 23:18 14.03.2020
6444 Clouds 19 1018 82 10000 7.2 170 22:44 14.03.2020
6445 Clouds 19 1018 82 10000 7.2 170 22:26 14.03.2020
6446 Clouds 19 1018 88 10000 8.2 190 21:57 14.03.2020
6447 Clouds 19 1018 88 10000 8.2 190 21:37 14.03.2020
6448 Clouds 19 1018 88 10000 8.2 190 21:18 14.03.2020
6449 Clouds 19 1018 77 10000 7.2 190 20:59 14.03.2020
6450 Clouds 19 1018 77 10000 7.2 190 20:41 14.03.2020
6451 Clouds 20 1018 77 10000 7.2 190 20:20 14.03.2020
6452 Clouds 20 1018 77 10000 7.2 190 20:20 14.03.2020
6453 Clouds 20 1017 77 10000 5.1 190 19:58 14.03.2020
6454 Clouds 20 1017 77 10000 5.1 190 19:39 14.03.2020
6455 Clouds 20 1017 77 10000 5.1 190 19:19 14.03.2020
6456 Clouds 20 1017 68 10000 6.7 180 18:37 14.03.2020
6457 Clouds 21 1017 68 10000 6.7 180 18:19 14.03.2020
6458 Clouds 22 1016 60 10000 5.7 200 17:40 14.03.2020
6459 Clouds 23 1016 60 10000 5.7 200 17:21 14.03.2020
6460 Clouds 23 1016 57 10000 7.7 200 16:57 14.03.2020
6461 Clouds 23 1016 57 10000 7.7 200 16:38 14.03.2020
6462 Clouds 24 1016 57 10000 7.7 200 16:18 14.03.2020
6463 Clouds 25 1015 50 10000 5.1 180 15:28 14.03.2020
6464 Clouds 25 1015 53 10000 3.1 190 14:59 14.03.2020
6465 Clouds 24 1015 53 10000 3.1 190 14:38 14.03.2020
6466 Clouds 24 1015 53 10000 3.1 190 14:20 14.03.2020
6467 Clouds 24 1015 53 10000 2.6 0 13:56 14.03.2020
6468 Clouds 25 1015 53 10000 2.6 0 13:38 14.03.2020
6469 Clouds 24 1015 53 10000 2.6 0 13:18 14.03.2020
6470 Clouds 24 1016 56 10000 3.6 300 12:43 14.03.2020
6471 Clouds 23 1016 56 10000 3.6 300 12:43 14.03.2020
6472 Clouds 23 1016 56 10000 3.6 300 12:24 14.03.2020
6473 Clouds 23 1016 64 10000 3.6 350 11:44 14.03.2020
6474 Clouds 22 1016 64 10000 3.6 350 11:25 14.03.2020
6475 Clouds 21 1016 68 10000 4.1 10 10:48 14.03.2020
6476 Clouds 21 1016 68 10000 4.1 10 10:28 14.03.2020
6477 Clouds 20 1016 77 10000 3.6 10 09:59 14.03.2020
6478 Clouds 20 1016 77 10000 3.6 10 09:40 14.03.2020
6479 Clouds 20 1016 77 10000 3.6 10 09:21 14.03.2020
6480 Clouds 19 1016 82 10000 2.6 350 08:46 14.03.2020
6481 Clouds 18 1016 82 10000 2.6 350 08:27 14.03.2020
6482 Clouds 16 1015 93 10000 2.1 360 07:45 14.03.2020
6483 Clouds 16 1015 93 8000 3.1 320 07:22 14.03.2020
6484 Clouds 16 1015 100 8000 2.6 350 06:55 14.03.2020
6485 Clouds 15 1015 93 6000 4.1 340 06:36 14.03.2020
6486 Fog 15 1014 93 900 4.1 330 04:57 14.03.2020
6487 Mist 16 1014 93 2000 3.1 320 03:40 14.03.2020
6488 Fog 16 1014 93 700 2.6 300 02:53 14.03.2020
6489 Clouds 16 1014 93 8000 2.1 320 01:50 14.03.2020
6490 Clouds 16 1014 88 10000 1 0 00:36 14.03.2020
6491 Clouds 17 1014 93 8000 0.5 0 23:44 13.03.2020
6492 Clouds 17 1014 93 8000 0.5 0 23:24 13.03.2020
6493 Clouds 16 1014 100 10000 0.5 0 22:46 13.03.2020
6494 Clouds 16 1014 100 10000 0.5 0 22:24 13.03.2020
6495 Clouds 16 1015 100 8000 1 0 21:42 13.03.2020
6496 Clouds 16 1015 100 8000 1 0 21:21 13.03.2020
6497 Mist 16 1015 93 3000 1.5 0 20:56 13.03.2020
6498 Clouds 17 1014 93 8000 1.5 0 20:37 13.03.2020
6499 Clouds 17 1014 93 8000 1.5 0 20:18 13.03.2020
6500 Clear 18 1013 82 10000 3.6 330 19:42 13.03.2020
6501 Clear 18 1013 82 10000 3.6 330 19:23 13.03.2020
6502 Clear 19 1012 68 10000 5.1 330 18:44 13.03.2020
6503 Clear 20 1012 68 10000 5.1 330 18:25 13.03.2020
6504 Clear 23 1012 56 10000 6.7 320 17:43 13.03.2020
6505 Clear 23 1012 56 10000 6.7 320 17:22 13.03.2020
6506 Clear 22 1012 53 10000 6.7 310 16:59 13.03.2020
6507 Clear 23 1012 53 10000 6.7 310 16:39 13.03.2020
6508 Clear 23 1012 53 10000 6.7 310 16:21 13.03.2020
6509 Clear 24 1012 53 10000 5.7 320 15:46 13.03.2020
6510 Clear 24 1012 53 10000 5.7 320 15:24 13.03.2020
6511 Clear 25 1012 50 10000 3.1 320 14:59 13.03.2020
6512 Clear 25 1012 50 10000 3.1 320 14:40 13.03.2020
6513 Clear 25 1012 50 10000 3.1 320 14:22 13.03.2020
6514 Clouds 24 1013 57 10000 4.1 320 13:55 13.03.2020
6515 Clouds 24 1013 57 10000 4.1 320 13:37 13.03.2020
6516 Clouds 24 1013 57 10000 4.1 320 13:18 13.03.2020
6517 Clouds 23 1014 64 10000 5.1 320 12:39 13.03.2020
6518 Clouds 22 1014 64 10000 5.1 320 12:21 13.03.2020
6519 Clouds 22 1014 68 10000 5.7 320 11:57 13.03.2020
6520 Clouds 22 1014 68 10000 5.7 320 11:37 13.03.2020
6521 Clouds 21 1014 68 10000 5.7 320 11:19 13.03.2020
6522 Clouds 21 1014 72 10000 5.1 330 10:47 13.03.2020
6523 Clouds 21 1014 72 10000 5.1 330 10:26 13.03.2020
6524 Clouds 20 1014 72 10000 5.1 350 09:56 13.03.2020
6525 Clouds 21 1014 72 10000 5.1 350 09:38 13.03.2020
6526 Clouds 20 1014 72 10000 5.1 350 09:19 13.03.2020
6527 Clouds 19 1014 77 10000 4.1 40 08:42 13.03.2020
6528 Clouds 19 1014 77 10000 4.1 40 08:22 13.03.2020
6529 Clouds 17 1014 93 10000 3.6 360 07:47 13.03.2020
6530 Clouds 16 1014 93 10000 4.6 360 07:27 13.03.2020
6531 Clouds 16 1014 100 8000 4.6 330 06:46 13.03.2020
6532 Mist 16 1014 93 5000 4.6 340 06:24 13.03.2020
6533 Clouds 15 1013 93 8000 6.2 340 05:46 13.03.2020
6534 Clear 16 1013 87 10000 4.6 330 05:20 13.03.2020
6535 Clear 16 1013 87 10000 4.1 330 04:37 13.03.2020
6536 Clear 16 1012 93 10000 2.1 360 02:58 13.03.2020
6537 Mist 16 1013 100 5000 1.5 0 01:43 13.03.2020
6538 Mist 16 1013 100 5000 1.5 0 01:18 13.03.2020
6539 Mist 16 1013 100 5000 1 50 00:46 13.03.2020
6540 Mist 16 1013 100 5000 1 50 00:20 13.03.2020
6541 Mist 16 1013 93 5000 0.5 0 23:47 12.03.2020
6542 Clouds 17 1013 93 8000 1.5 0 23:26 12.03.2020
6543 Clouds 16 1013 93 7000 0.5 0 22:55 12.03.2020
6544 Mist 16 1013 100 1500 2.1 130 22:37 12.03.2020
6545 Mist 16 1013 100 1500 2.1 130 22:19 12.03.2020
6546 Mist 17 1013 93 2500 2.1 130 21:42 12.03.2020
6547 Clouds 17 1013 93 7000 2.1 130 21:24 12.03.2020
6548 Mist 17 1013 93 3500 2.6 150 20:56 12.03.2020
6549 Mist 17 1013 93 3500 2.6 150 20:37 12.03.2020
6550 Clouds 17 1013 93 8000 2.6 150 20:18 12.03.2020
6551 Clouds 18 1012 82 10000 2.1 140 19:39 12.03.2020
6552 Clouds 18 1012 82 10000 2.1 140 19:20 12.03.2020
6553 Clouds 18 1012 82 10000 2.1 140 19:20 12.03.2020
6554 Clouds 19 1012 82 10000 4.1 150 18:43 12.03.2020
6555 Clouds 19 1012 82 10000 4.1 150 18:24 12.03.2020
6556 Clouds 20 1012 72 10000 4.6 170 17:57 12.03.2020
6557 Clouds 21 1012 72 10000 4.6 170 17:37 12.03.2020
6558 Clouds 21 1012 72 10000 4.6 170 17:18 12.03.2020
6559 Clouds 21 1011 72 10000 4.6 160 16:54 12.03.2020
6560 Clouds 22 1011 72 10000 4.6 160 16:36 12.03.2020
6561 Clouds 22 1011 72 10000 4.6 160 16:18 12.03.2020
6562 Clouds 22 1011 68 10000 4.1 150 15:41 12.03.2020
6563 Clouds 22 1011 68 10000 4.1 150 15:22 12.03.2020
6564 Clouds 23 1012 64 10000 4.1 170 14:39 12.03.2020
6565 Clouds 23 1006 10 0 1.34 126 14:19 12.03.2020
6566 Clouds 24 1006 10 0 2.24 186 13:41 12.03.2020
6567 Clouds 24 1006 10 0 2.24 113 13:22 12.03.2020
6568 Clouds 24 1006 9 0 2.25 215 12:56 12.03.2020
6569 Clouds 24 1006 10 0 0.89 312 12:38 12.03.2020
6570 Clouds 23 1013 64 10000 3.6 300 12:19 12.03.2020
6571 Clouds 23 1013 64 10000 3.6 300 11:56 12.03.2020
6572 Clouds 23 1013 64 10000 3.6 300 11:37 12.03.2020
6573 Clouds 22 1013 64 10000 3.6 300 11:19 12.03.2020
6574 Clouds 22 1013 64 10000 3.6 300 11:19 12.03.2020
6575 Clouds 21 1013 68 10000 3.6 330 10:57 12.03.2020
6576 Clouds 21 1013 68 10000 3.6 330 10:57 12.03.2020
6577 Clouds 21 1013 68 10000 3.6 330 10:39 12.03.2020
6578 Clouds 21 1013 68 10000 3.6 330 10:21 12.03.2020
6579 Clouds 20 1013 72 10000 4.6 300 09:43 12.03.2020
6580 Clouds 20 1013 72 10000 4.6 300 09:43 12.03.2020
6581 Clouds 20 1013 72 10000 4.6 300 09:25 12.03.2020
6582 Clouds 19 1013 88 10000 3.1 340 08:41 12.03.2020
6583 Clouds 18 1013 88 10000 3.1 340 08:20 12.03.2020
6584 Clouds 17 1013 93 10000 2.6 350 07:53 12.03.2020
6585 Clouds 17 1013 93 10000 2.1 320 07:23 12.03.2020
6586 Clouds 17 1013 100 7000 3.1 320 06:59 12.03.2020
6587 Mist 15 1012 100 5000 3.6 320 05:43 12.03.2020
6588 Clouds 16 1012 100 6000 4.6 320 05:21 12.03.2020
6589 Clouds 16 1011 93 10000 5.7 330 02:41 12.03.2020
6590 Clouds 17 1011 87 10000 6.2 320 01:31 12.03.2020
6591 Clouds 18 1011 87 10000 5.7 320 00:45 12.03.2020
6592 Clouds 18 1011 87 10000 5.7 320 00:26 12.03.2020
6593 Clouds 20 1010 82 10000 4.6 320 23:47 11.03.2020
6594 Clouds 19 1010 82 10000 4.6 320 23:25 11.03.2020
6595 Clouds 20 1010 77 10000 3.6 320 22:48 11.03.2020
6596 Clouds 20 1010 77 10000 3.6 320 22:30 11.03.2020
6597 Clouds 21 1010 68 10000 4.1 270 21:59 11.03.2020
6598 Clouds 21 1010 68 10000 4.1 270 21:41 11.03.2020
6599 Clouds 21 1010 68 10000 4.1 270 21:22 11.03.2020
6600 Clouds 20 1010 77 10000 3.1 310 20:58 11.03.2020
6601 Clouds 20 1010 77 10000 3.1 310 20:39 11.03.2020
6602 Rain 21 1010 77 10000 3.1 310 20:20 11.03.2020
6603 Rain 20 1009 77 10000 4.6 310 19:44 11.03.2020
6604 Rain 20 1009 77 10000 4.6 310 19:26 11.03.2020
6605 Rain 20 1009 72 10000 5.7 300 18:59 11.03.2020
6606 Rain 21 1009 72 10000 5.7 300 18:40 11.03.2020
6607 Rain 21 1009 72 10000 5.7 300 18:22 11.03.2020
6608 Rain 22 1009 64 10000 4.6 300 17:58 11.03.2020
6609 Rain 22 1009 64 10000 4.6 300 17:39 11.03.2020
6610 Rain 24 1009 64 10000 4.6 300 17:20 11.03.2020
6611 Rain 25 1009 56 10000 5.1 310 16:47 11.03.2020
6612 Rain 25 1009 56 10000 5.1 310 16:23 11.03.2020
6613 Rain 27 1009 50 10000 3.1 250 15:59 11.03.2020
6614 Rain 26 1009 50 10000 3.1 250 15:40 11.03.2020
6615 Rain 27 1009 50 10000 3.1 250 15:22 11.03.2020
6616 Rain 27 1009 50 10000 3.1 260 14:42 11.03.2020
6617 Clouds 27 1009 50 10000 3.1 260 14:23 11.03.2020
6618 Clouds 27 1010 47 10000 5.7 200 13:56 11.03.2020
6619 Clouds 28 1010 47 10000 5.7 200 13:37 11.03.2020
6620 Clouds 27 1010 47 10000 5.7 200 13:19 11.03.2020
6621 Clouds 28 1010 47 10000 6.7 210 12:40 11.03.2020
6622 Clouds 27 1010 53 10000 5.1 310 12:20 11.03.2020
6623 Clouds 28 1010 51 10000 3.6 190 11:56 11.03.2020
6624 Clouds 27 1010 51 10000 3.6 190 11:37 11.03.2020
6625 Clouds 28 1010 51 10000 3.6 190 11:18 11.03.2020
6626 Clouds 25 1011 50 10000 1.5 0 10:42 11.03.2020
6627 Clouds 27 1011 50 10000 1.5 0 10:42 11.03.2020
6628 Clouds 26 1011 50 10000 1.5 0 10:19 11.03.2020
6629 Clouds 23 1011 64 10000 3.1 250 09:43 11.03.2020
6630 Clouds 23 1011 64 10000 3.1 250 09:25 11.03.2020
6631 Clouds 22 1010 73 10000 3.6 250 08:58 11.03.2020
6632 Clouds 21 1010 73 10000 3.6 250 08:40 11.03.2020
6633 Clouds 21 1010 73 10000 3.6 250 08:19 11.03.2020
6634 Clouds 20 1010 77 10000 5.7 240 07:43 11.03.2020
6635 Clouds 20 1010 77 10000 5.7 240 07:19 11.03.2020
6636 Clouds 20 1010 77 10000 5.1 230 06:44 11.03.2020
6637 Clouds 20 1010 77 10000 4.1 230 05:36 11.03.2020
6638 Clouds 19 1009 77 10000 2.6 240 04:31 11.03.2020
6639 Clouds 19 1010 77 10000 4.6 230 02:24 11.03.2020
6640 Clouds 19 1010 72 10000 3.1 220 01:28 11.03.2020
6641 Clouds 19 1010 72 10000 1.5 0 00:47 11.03.2020
6642 Clouds 19 1010 72 10000 1.5 0 00:18 11.03.2020
6643 Clouds 19 1010 72 10000 3.1 140 23:40 10.03.2020
6644 Clouds 19 1010 72 10000 3.1 140 23:21 10.03.2020
6645 Clouds 19 1011 72 10000 4.1 140 22:40 10.03.2020
6646 Clouds 19 1011 72 10000 4.1 140 22:20 10.03.2020
6647 Clouds 19 1011 68 10000 5.7 160 21:57 10.03.2020
6648 Clouds 19 1011 68 10000 5.7 160 21:57 10.03.2020
6649 Clouds 19 1011 68 10000 5.7 160 21:39 10.03.2020
6650 Clouds 19 1011 68 10000 5.7 160 21:39 10.03.2020
6651 Clouds 19 1011 68 10000 5.7 160 21:20 10.03.2020
6652 Clouds 19 1010 64 10000 5.1 150 20:59 10.03.2020
6653 Clouds 19 1010 64 10000 5.1 150 20:41 10.03.2020
6654 Clouds 21 1010 64 10000 5.1 150 20:18 10.03.2020
6655 Clouds 21 1010 64 10000 7.2 140 19:57 10.03.2020
6656 Clouds 20 1010 64 10000 7.2 140 19:38 10.03.2020
6657 Clouds 20 1010 64 10000 7.2 140 19:38 10.03.2020
6658 Clouds 20 1010 64 10000 7.2 140 19:20 10.03.2020
6659 Clouds 22 1009 60 10000 8.2 140 18:45 10.03.2020
6660 Clouds 22 1009 60 10000 8.2 140 18:26 10.03.2020
6661 Clouds 23 1009 53 10000 8.7 150 17:58 10.03.2020
6662 Clouds 23 1009 53 10000 8.7 150 17:40 10.03.2020
6663 Clouds 23 1009 53 10000 8.7 150 17:21 10.03.2020
6664 Clouds 24 1009 47 10000 8.7 140 16:40 10.03.2020
6665 Clouds 25 1009 47 10000 8.7 140 16:20 10.03.2020
6666 Clouds 25 1009 45 10000 7.7 150 15:57 10.03.2020
6667 Clouds 26 1009 45 10000 7.7 150 15:39 10.03.2020
6668 Clouds 26 1009 45 10000 7.7 150 15:19 10.03.2020
6669 Clouds 27 1009 42 10000 7.7 150 14:54 10.03.2020
6670 Clouds 27 1009 42 10000 7.7 150 14:36 10.03.2020
6671 Clouds 27 1009 42 10000 7.7 150 14:18 10.03.2020
6672 Clouds 27 1010 47 10000 8.7 190 13:42 10.03.2020
6673 Clouds 27 1010 47 10000 8.7 190 13:24 10.03.2020
6674 Clouds 26 1011 44 10000 9.3 180 12:42 10.03.2020
6675 Clouds 26 1011 44 10000 9.3 180 12:21 10.03.2020
6676 Clouds 27 1011 47 10000 8.2 200 11:59 10.03.2020
6677 Clouds 27 1011 47 10000 8.2 200 11:41 10.03.2020
6678 Clouds 25 1011 53 10000 7.7 200 11:23 10.03.2020
6679 Clouds 24 1011 56 10000 5.1 200 10:54 10.03.2020
6680 Clouds 23 1011 56 10000 5.1 200 10:36 10.03.2020
6681 Clouds 23 1011 56 10000 5.1 200 10:18 10.03.2020
6682 Clouds 21 1011 68 10000 5.1 240 09:42 10.03.2020
6683 Clouds 20 1011 68 10000 5.1 240 09:19 10.03.2020
6684 Clouds 20 1011 72 10000 5.1 240 08:53 10.03.2020
6685 Clouds 19 1011 72 10000 5.1 240 08: